<?xml version="1.0" encoding="UTF-8" standalone="no" ?>
<gpx xmlns="http://www.topografix.com/GPX/1/1" xmlns:xsi="http://www.w3.org/2001/XMLSchema-instance" xsi:schemaLocation="http://www.topografix.com/GPX/1/1 http://www.topografix.com/GPX/1/1/gpx.xsd" version="1.1" creator="VisuGPX - https://www.visugpx.com">
  <metadata>
    <name>Grands Fats (versant S)</name>
  </metadata>
  <trk>
    <name><![CDATA[20190505174329-PToDA]]></name>
    <trkseg>
      <trkpt lat="46.07227" lon="6.74793">
        <ele>735.07</ele>
        <time>2019-02-06T09:07:35Z</time>
      </trkpt>
      <trkpt lat="46.07227" lon="6.74793">
        <ele>703.34</ele>
        <time>2019-02-06T09:07:36Z</time>
      </trkpt>
      <trkpt lat="46.07227" lon="6.74794">
        <ele>703.34</ele>
        <time>2019-02-06T09:07:37Z</time>
      </trkpt>
      <trkpt lat="46.07227" lon="6.74794">
        <ele>735.07</ele>
        <time>2019-02-06T09:07:39Z</time>
      </trkpt>
      <trkpt lat="46.07227" lon="6.74794">
        <ele>735.07</ele>
        <time>2019-02-06T09:07:40Z</time>
      </trkpt>
      <trkpt lat="46.07227" lon="6.74799">
        <ele>735.55</ele>
        <time>2019-02-06T09:07:46Z</time>
      </trkpt>
      <trkpt lat="46.07223" lon="6.74823">
        <ele>738.43</ele>
        <time>2019-02-06T09:08:03Z</time>
      </trkpt>
      <trkpt lat="46.07218" lon="6.74837">
        <ele>740.83</ele>
        <time>2019-02-06T09:08:32Z</time>
      </trkpt>
      <trkpt lat="46.07215" lon="6.74844">
        <ele>741.79</ele>
        <time>2019-02-06T09:08:47Z</time>
      </trkpt>
      <trkpt lat="46.0721" lon="6.74866">
        <ele>745.16</ele>
        <time>2019-02-06T09:09:04Z</time>
      </trkpt>
      <trkpt lat="46.07206" lon="6.74887">
        <ele>748.04</ele>
        <time>2019-02-06T09:09:19Z</time>
      </trkpt>
      <trkpt lat="46.07205" lon="6.74896">
        <ele>749.49</ele>
        <time>2019-02-06T09:09:26Z</time>
      </trkpt>
      <trkpt lat="46.07203" lon="6.74897">
        <ele>749.97</ele>
        <time>2019-02-06T09:09:28Z</time>
      </trkpt>
      <trkpt lat="46.07196" lon="6.74916">
        <ele>752.85</ele>
        <time>2019-02-06T09:09:44Z</time>
      </trkpt>
      <trkpt lat="46.0719" lon="6.74933">
        <ele>756.21</ele>
        <time>2019-02-06T09:10:00Z</time>
      </trkpt>
      <trkpt lat="46.0719" lon="6.74941">
        <ele>757.66</ele>
        <time>2019-02-06T09:10:06Z</time>
      </trkpt>
      <trkpt lat="46.07193" lon="6.74949">
        <ele>759.1</ele>
        <time>2019-02-06T09:10:14Z</time>
      </trkpt>
      <trkpt lat="46.07194" lon="6.7495">
        <ele>759.58</ele>
        <time>2019-02-06T09:10:15Z</time>
      </trkpt>
      <trkpt lat="46.07197" lon="6.7495">
        <ele>760.54</ele>
        <time>2019-02-06T09:10:20Z</time>
      </trkpt>
      <trkpt lat="46.07198" lon="6.74949">
        <ele>760.54</ele>
        <time>2019-02-06T09:10:21Z</time>
      </trkpt>
      <trkpt lat="46.07217" lon="6.7495">
        <ele>763.9</ele>
        <time>2019-02-06T09:10:39Z</time>
      </trkpt>
      <trkpt lat="46.07233" lon="6.74944">
        <ele>766.79</ele>
        <time>2019-02-06T09:10:56Z</time>
      </trkpt>
      <trkpt lat="46.07245" lon="6.74933">
        <ele>770.15</ele>
        <time>2019-02-06T09:11:12Z</time>
      </trkpt>
      <trkpt lat="46.07251" lon="6.7493">
        <ele>771.11</ele>
        <time>2019-02-06T09:11:20Z</time>
      </trkpt>
      <trkpt lat="46.07252" lon="6.74929">
        <ele>771.6</ele>
        <time>2019-02-06T09:11:21Z</time>
      </trkpt>
      <trkpt lat="46.07265" lon="6.74919">
        <ele>774.48</ele>
        <time>2019-02-06T09:11:37Z</time>
      </trkpt>
      <trkpt lat="46.07274" lon="6.74904">
        <ele>777.84</ele>
        <time>2019-02-06T09:11:52Z</time>
      </trkpt>
      <trkpt lat="46.07285" lon="6.74885">
        <ele>780.73</ele>
        <time>2019-02-06T09:12:09Z</time>
      </trkpt>
      <trkpt lat="46.07295" lon="6.74864">
        <ele>783.61</ele>
        <time>2019-02-06T09:12:28Z</time>
      </trkpt>
      <trkpt lat="46.07309" lon="6.74852">
        <ele>786.98</ele>
        <time>2019-02-06T09:12:47Z</time>
      </trkpt>
      <trkpt lat="46.0732" lon="6.74843">
        <ele>789.86</ele>
        <time>2019-02-06T09:13:02Z</time>
      </trkpt>
      <trkpt lat="46.0733" lon="6.74842">
        <ele>791.78</ele>
        <time>2019-02-06T09:13:11Z</time>
      </trkpt>
      <trkpt lat="46.07342" lon="6.74852">
        <ele>794.67</ele>
        <time>2019-02-06T09:13:27Z</time>
      </trkpt>
      <trkpt lat="46.07359" lon="6.74864">
        <ele>798.03</ele>
        <time>2019-02-06T09:13:47Z</time>
      </trkpt>
      <trkpt lat="46.07374" lon="6.74873">
        <ele>800.92</ele>
        <time>2019-02-06T09:14:02Z</time>
      </trkpt>
      <trkpt lat="46.07376" lon="6.74873">
        <ele>801.4</ele>
        <time>2019-02-06T09:14:03Z</time>
      </trkpt>
      <trkpt lat="46.07387" lon="6.74878">
        <ele>804.28</ele>
        <time>2019-02-06T09:14:17Z</time>
      </trkpt>
      <trkpt lat="46.07399" lon="6.74882">
        <ele>807.16</ele>
        <time>2019-02-06T09:14:32Z</time>
      </trkpt>
      <trkpt lat="46.07413" lon="6.74889">
        <ele>810.53</ele>
        <time>2019-02-06T09:14:47Z</time>
      </trkpt>
      <trkpt lat="46.07427" lon="6.74884">
        <ele>813.41</ele>
        <time>2019-02-06T09:15:03Z</time>
      </trkpt>
      <trkpt lat="46.07443" lon="6.74882">
        <ele>816.78</ele>
        <time>2019-02-06T09:15:20Z</time>
      </trkpt>
      <trkpt lat="46.07455" lon="6.74888">
        <ele>819.18</ele>
        <time>2019-02-06T09:15:37Z</time>
      </trkpt>
      <trkpt lat="46.07456" lon="6.74888">
        <ele>819.66</ele>
        <time>2019-02-06T09:15:38Z</time>
      </trkpt>
      <trkpt lat="46.07458" lon="6.74889">
        <ele>819.66</ele>
        <time>2019-02-06T09:15:39Z</time>
      </trkpt>
      <trkpt lat="46.07458" lon="6.7489">
        <ele>820.14</ele>
        <time>2019-02-06T09:15:40Z</time>
      </trkpt>
      <trkpt lat="46.0746" lon="6.7489">
        <ele>820.14</ele>
        <time>2019-02-06T09:15:41Z</time>
      </trkpt>
      <trkpt lat="46.07462" lon="6.74892">
        <ele>820.62</ele>
        <time>2019-02-06T09:15:44Z</time>
      </trkpt>
      <trkpt lat="46.07463" lon="6.74893">
        <ele>821.1</ele>
        <time>2019-02-06T09:15:45Z</time>
      </trkpt>
      <trkpt lat="46.07466" lon="6.74893">
        <ele>821.58</ele>
        <time>2019-02-06T09:15:48Z</time>
      </trkpt>
      <trkpt lat="46.07477" lon="6.74897">
        <ele>824.95</ele>
        <time>2019-02-06T09:16:04Z</time>
      </trkpt>
      <trkpt lat="46.0748" lon="6.74898">
        <ele>825.43</ele>
        <time>2019-02-06T09:16:08Z</time>
      </trkpt>
      <trkpt lat="46.07482" lon="6.74899">
        <ele>825.91</ele>
        <time>2019-02-06T09:16:09Z</time>
      </trkpt>
      <trkpt lat="46.07502" lon="6.74891">
        <ele>828.79</ele>
        <time>2019-02-06T09:16:31Z</time>
      </trkpt>
      <trkpt lat="46.07516" lon="6.74879">
        <ele>832.16</ele>
        <time>2019-02-06T09:16:51Z</time>
      </trkpt>
      <trkpt lat="46.07534" lon="6.74861">
        <ele>835.04</ele>
        <time>2019-02-06T09:17:13Z</time>
      </trkpt>
      <trkpt lat="46.07552" lon="6.74846">
        <ele>837.93</ele>
        <time>2019-02-06T09:17:30Z</time>
      </trkpt>
      <trkpt lat="46.07566" lon="6.74833">
        <ele>840.81</ele>
        <time>2019-02-06T09:17:48Z</time>
      </trkpt>
      <trkpt lat="46.07576" lon="6.74821">
        <ele>844.18</ele>
        <time>2019-02-06T09:18:04Z</time>
      </trkpt>
      <trkpt lat="46.07595" lon="6.74803">
        <ele>847.06</ele>
        <time>2019-02-06T09:18:25Z</time>
      </trkpt>
      <trkpt lat="46.07612" lon="6.74795">
        <ele>850.42</ele>
        <time>2019-02-06T09:18:41Z</time>
      </trkpt>
      <trkpt lat="46.07626" lon="6.74791">
        <ele>853.31</ele>
        <time>2019-02-06T09:18:59Z</time>
      </trkpt>
      <trkpt lat="46.07642" lon="6.74789">
        <ele>856.19</ele>
        <time>2019-02-06T09:19:16Z</time>
      </trkpt>
      <trkpt lat="46.07651" lon="6.74797">
        <ele>859.56</ele>
        <time>2019-02-06T09:19:30Z</time>
      </trkpt>
      <trkpt lat="46.07651" lon="6.74802">
        <ele>860.52</ele>
        <time>2019-02-06T09:19:34Z</time>
      </trkpt>
      <trkpt lat="46.07653" lon="6.74821">
        <ele>863.4</ele>
        <time>2019-02-06T09:19:51Z</time>
      </trkpt>
      <trkpt lat="46.07651" lon="6.74834">
        <ele>865.8</ele>
        <time>2019-02-06T09:20:02Z</time>
      </trkpt>
      <trkpt lat="46.07646" lon="6.74856">
        <ele>868.69</ele>
        <time>2019-02-06T09:20:21Z</time>
      </trkpt>
      <trkpt lat="46.07638" lon="6.74876">
        <ele>871.57</ele>
        <time>2019-02-06T09:20:39Z</time>
      </trkpt>
      <trkpt lat="46.0763" lon="6.74898">
        <ele>874.94</ele>
        <time>2019-02-06T09:20:56Z</time>
      </trkpt>
      <trkpt lat="46.07622" lon="6.74924">
        <ele>877.82</ele>
        <time>2019-02-06T09:21:15Z</time>
      </trkpt>
      <trkpt lat="46.0762" lon="6.74933">
        <ele>878.78</ele>
        <time>2019-02-06T09:21:22Z</time>
      </trkpt>
      <trkpt lat="46.07619" lon="6.74957">
        <ele>882.15</ele>
        <time>2019-02-06T09:21:39Z</time>
      </trkpt>
      <trkpt lat="46.07622" lon="6.74976">
        <ele>885.03</ele>
        <time>2019-02-06T09:21:56Z</time>
      </trkpt>
      <trkpt lat="46.07622" lon="6.74984">
        <ele>885.99</ele>
        <time>2019-02-06T09:22:02Z</time>
      </trkpt>
      <trkpt lat="46.07622" lon="6.74985">
        <ele>886.47</ele>
        <time>2019-02-06T09:22:03Z</time>
      </trkpt>
      <trkpt lat="46.07619" lon="6.75001">
        <ele>889.84</ele>
        <time>2019-02-06T09:22:18Z</time>
      </trkpt>
      <trkpt lat="46.07613" lon="6.75015">
        <ele>892.24</ele>
        <time>2019-02-06T09:22:33Z</time>
      </trkpt>
      <trkpt lat="46.07604" lon="6.75034">
        <ele>895.61</ele>
        <time>2019-02-06T09:22:53Z</time>
      </trkpt>
      <trkpt lat="46.07591" lon="6.75051">
        <ele>898.49</ele>
        <time>2019-02-06T09:23:11Z</time>
      </trkpt>
      <trkpt lat="46.07577" lon="6.75079">
        <ele>901.85</ele>
        <time>2019-02-06T09:23:35Z</time>
      </trkpt>
      <trkpt lat="46.07563" lon="6.75091">
        <ele>904.74</ele>
        <time>2019-02-06T09:23:54Z</time>
      </trkpt>
      <trkpt lat="46.07549" lon="6.75109">
        <ele>908.1</ele>
        <time>2019-02-06T09:24:19Z</time>
      </trkpt>
      <trkpt lat="46.07545" lon="6.75122">
        <ele>910.03</ele>
        <time>2019-02-06T09:24:31Z</time>
      </trkpt>
      <trkpt lat="46.07536" lon="6.75141">
        <ele>912.91</ele>
        <time>2019-02-06T09:24:49Z</time>
      </trkpt>
      <trkpt lat="46.07527" lon="6.7515">
        <ele>916.27</ele>
        <time>2019-02-06T09:25:05Z</time>
      </trkpt>
      <trkpt lat="46.07524" lon="6.75151">
        <ele>916.75</ele>
        <time>2019-02-06T09:25:08Z</time>
      </trkpt>
      <trkpt lat="46.07523" lon="6.75152">
        <ele>916.75</ele>
        <time>2019-02-06T09:25:09Z</time>
      </trkpt>
      <trkpt lat="46.07514" lon="6.75164">
        <ele>919.64</ele>
        <time>2019-02-06T09:25:23Z</time>
      </trkpt>
      <trkpt lat="46.07507" lon="6.75182">
        <ele>923</ele>
        <time>2019-02-06T09:25:41Z</time>
      </trkpt>
      <trkpt lat="46.07507" lon="6.75195">
        <ele>924.45</ele>
        <time>2019-02-06T09:25:50Z</time>
      </trkpt>
      <trkpt lat="46.07506" lon="6.75197">
        <ele>924.93</ele>
        <time>2019-02-06T09:25:52Z</time>
      </trkpt>
      <trkpt lat="46.07499" lon="6.75214">
        <ele>927.81</ele>
        <time>2019-02-06T09:26:11Z</time>
      </trkpt>
      <trkpt lat="46.07495" lon="6.75234">
        <ele>931.17</ele>
        <time>2019-02-06T09:26:30Z</time>
      </trkpt>
      <trkpt lat="46.07493" lon="6.75262">
        <ele>934.06</ele>
        <time>2019-02-06T09:26:48Z</time>
      </trkpt>
      <trkpt lat="46.07491" lon="6.75265">
        <ele>935.02</ele>
        <time>2019-02-06T09:26:50Z</time>
      </trkpt>
      <trkpt lat="46.0748" lon="6.75278">
        <ele>937.9</ele>
        <time>2019-02-06T09:27:06Z</time>
      </trkpt>
      <trkpt lat="46.07469" lon="6.75286">
        <ele>940.79</ele>
        <time>2019-02-06T09:27:21Z</time>
      </trkpt>
      <trkpt lat="46.07461" lon="6.75289">
        <ele>944.15</ele>
        <time>2019-02-06T09:27:33Z</time>
      </trkpt>
      <trkpt lat="46.07449" lon="6.753">
        <ele>947.04</ele>
        <time>2019-02-06T09:27:49Z</time>
      </trkpt>
      <trkpt lat="46.07445" lon="6.7531">
        <ele>950.4</ele>
        <time>2019-02-06T09:28:04Z</time>
      </trkpt>
      <trkpt lat="46.07442" lon="6.75323">
        <ele>953.28</ele>
        <time>2019-02-06T09:28:20Z</time>
      </trkpt>
      <trkpt lat="46.07446" lon="6.7534">
        <ele>955.21</ele>
        <time>2019-02-06T09:28:31Z</time>
      </trkpt>
      <trkpt lat="46.07447" lon="6.75342">
        <ele>955.69</ele>
        <time>2019-02-06T09:28:32Z</time>
      </trkpt>
      <trkpt lat="46.07442" lon="6.75358">
        <ele>957.61</ele>
        <time>2019-02-06T09:28:46Z</time>
      </trkpt>
      <trkpt lat="46.0743" lon="6.75365">
        <ele>960.01</ele>
        <time>2019-02-06T09:29:00Z</time>
      </trkpt>
      <trkpt lat="46.0741" lon="6.75375">
        <ele>962.9</ele>
        <time>2019-02-06T09:29:23Z</time>
      </trkpt>
      <trkpt lat="46.07407" lon="6.75381">
        <ele>963.38</ele>
        <time>2019-02-06T09:29:28Z</time>
      </trkpt>
      <trkpt lat="46.07392" lon="6.75403">
        <ele>966.74</ele>
        <time>2019-02-06T09:29:47Z</time>
      </trkpt>
      <trkpt lat="46.07385" lon="6.75405">
        <ele>968.18</ele>
        <time>2019-02-06T09:29:56Z</time>
      </trkpt>
      <trkpt lat="46.07364" lon="6.754">
        <ele>971.55</ele>
        <time>2019-02-06T09:30:15Z</time>
      </trkpt>
      <trkpt lat="46.07354" lon="6.75408">
        <ele>973.95</ele>
        <time>2019-02-06T09:30:31Z</time>
      </trkpt>
      <trkpt lat="46.07352" lon="6.7541">
        <ele>973.95</ele>
        <time>2019-02-06T09:30:33Z</time>
      </trkpt>
      <trkpt lat="46.07352" lon="6.75411">
        <ele>973.95</ele>
        <time>2019-02-06T09:30:34Z</time>
      </trkpt>
      <trkpt lat="46.0735" lon="6.75413">
        <ele>974.43</ele>
        <time>2019-02-06T09:30:36Z</time>
      </trkpt>
      <trkpt lat="46.07349" lon="6.75417">
        <ele>974.91</ele>
        <time>2019-02-06T09:30:40Z</time>
      </trkpt>
      <trkpt lat="46.07348" lon="6.75419">
        <ele>974.91</ele>
        <time>2019-02-06T09:30:41Z</time>
      </trkpt>
      <trkpt lat="46.07348" lon="6.7542">
        <ele>975.39</ele>
        <time>2019-02-06T09:30:42Z</time>
      </trkpt>
      <trkpt lat="46.07347" lon="6.75421">
        <ele>975.39</ele>
        <time>2019-02-06T09:30:43Z</time>
      </trkpt>
      <trkpt lat="46.07346" lon="6.75422">
        <ele>975.39</ele>
        <time>2019-02-06T09:30:44Z</time>
      </trkpt>
      <trkpt lat="46.07344" lon="6.75427">
        <ele>975.88</ele>
        <time>2019-02-06T09:30:48Z</time>
      </trkpt>
      <trkpt lat="46.07343" lon="6.75429">
        <ele>976.36</ele>
        <time>2019-02-06T09:30:49Z</time>
      </trkpt>
      <trkpt lat="46.07335" lon="6.7544">
        <ele>977.8</ele>
        <time>2019-02-06T09:31:00Z</time>
      </trkpt>
      <trkpt lat="46.07333" lon="6.75441">
        <ele>977.8</ele>
        <time>2019-02-06T09:31:02Z</time>
      </trkpt>
      <trkpt lat="46.07332" lon="6.75442">
        <ele>977.8</ele>
        <time>2019-02-06T09:31:03Z</time>
      </trkpt>
      <trkpt lat="46.07331" lon="6.75442">
        <ele>978.28</ele>
        <time>2019-02-06T09:31:05Z</time>
      </trkpt>
      <trkpt lat="46.07328" lon="6.75445">
        <ele>978.76</ele>
        <time>2019-02-06T09:31:08Z</time>
      </trkpt>
      <trkpt lat="46.07327" lon="6.75446">
        <ele>978.76</ele>
        <time>2019-02-06T09:31:09Z</time>
      </trkpt>
      <trkpt lat="46.07326" lon="6.75446">
        <ele>979.24</ele>
        <time>2019-02-06T09:31:10Z</time>
      </trkpt>
      <trkpt lat="46.07321" lon="6.75452">
        <ele>980.68</ele>
        <time>2019-02-06T09:31:18Z</time>
      </trkpt>
      <trkpt lat="46.07319" lon="6.75453">
        <ele>980.68</ele>
        <time>2019-02-06T09:31:20Z</time>
      </trkpt>
      <trkpt lat="46.0731" lon="6.75464">
        <ele>983.57</ele>
        <time>2019-02-06T09:31:33Z</time>
      </trkpt>
      <trkpt lat="46.07301" lon="6.75493">
        <ele>986.45</ele>
        <time>2019-02-06T09:31:54Z</time>
      </trkpt>
      <trkpt lat="46.07296" lon="6.75515">
        <ele>989.33</ele>
        <time>2019-02-06T09:32:14Z</time>
      </trkpt>
      <trkpt lat="46.07296" lon="6.75516">
        <ele>989.33</ele>
        <time>2019-02-06T09:32:15Z</time>
      </trkpt>
      <trkpt lat="46.07297" lon="6.75515">
        <ele>989.33</ele>
        <time>2019-02-06T09:32:16Z</time>
      </trkpt>
      <trkpt lat="46.07298" lon="6.75514">
        <ele>989.33</ele>
        <time>2019-02-06T09:32:18Z</time>
      </trkpt>
      <trkpt lat="46.07299" lon="6.75513">
        <ele>989.33</ele>
        <time>2019-02-06T09:32:19Z</time>
      </trkpt>
      <trkpt lat="46.073" lon="6.75512">
        <ele>989.81</ele>
        <time>2019-02-06T09:32:20Z</time>
      </trkpt>
      <trkpt lat="46.07301" lon="6.75511">
        <ele>989.81</ele>
        <time>2019-02-06T09:32:21Z</time>
      </trkpt>
      <trkpt lat="46.07301" lon="6.7551">
        <ele>989.81</ele>
        <time>2019-02-06T09:32:22Z</time>
      </trkpt>
      <trkpt lat="46.07301" lon="6.75509">
        <ele>989.81</ele>
        <time>2019-02-06T09:32:23Z</time>
      </trkpt>
      <trkpt lat="46.07302" lon="6.75508">
        <ele>989.81</ele>
        <time>2019-02-06T09:32:24Z</time>
      </trkpt>
      <trkpt lat="46.0731" lon="6.75493">
        <ele>993.18</ele>
        <time>2019-02-06T09:32:40Z</time>
      </trkpt>
      <trkpt lat="46.07314" lon="6.75491">
        <ele>994.62</ele>
        <time>2019-02-06T09:32:46Z</time>
      </trkpt>
      <trkpt lat="46.07338" lon="6.75484">
        <ele>997.51</ele>
        <time>2019-02-06T09:33:11Z</time>
      </trkpt>
      <trkpt lat="46.0736" lon="6.75485">
        <ele>1000.39</ele>
        <time>2019-02-06T09:33:32Z</time>
      </trkpt>
      <trkpt lat="46.07374" lon="6.75486">
        <ele>1003.75</ele>
        <time>2019-02-06T09:33:48Z</time>
      </trkpt>
      <trkpt lat="46.07387" lon="6.75488">
        <ele>1006.64</ele>
        <time>2019-02-06T09:34:05Z</time>
      </trkpt>
      <trkpt lat="46.07394" lon="6.75491">
        <ele>1008.56</ele>
        <time>2019-02-06T09:34:14Z</time>
      </trkpt>
      <trkpt lat="46.07402" lon="6.75508">
        <ele>1011.44</ele>
        <time>2019-02-06T09:34:29Z</time>
      </trkpt>
      <trkpt lat="46.07407" lon="6.75531">
        <ele>1014.81</ele>
        <time>2019-02-06T09:34:45Z</time>
      </trkpt>
      <trkpt lat="46.0741" lon="6.75553">
        <ele>1017.69</ele>
        <time>2019-02-06T09:35:02Z</time>
      </trkpt>
      <trkpt lat="46.07416" lon="6.75564">
        <ele>1020.58</ele>
        <time>2019-02-06T09:35:16Z</time>
      </trkpt>
      <trkpt lat="46.07422" lon="6.75571">
        <ele>1022.5</ele>
        <time>2019-02-06T09:35:25Z</time>
      </trkpt>
      <trkpt lat="46.07423" lon="6.75573">
        <ele>1022.98</ele>
        <time>2019-02-06T09:35:26Z</time>
      </trkpt>
      <trkpt lat="46.07424" lon="6.75573">
        <ele>1022.98</ele>
        <time>2019-02-06T09:35:27Z</time>
      </trkpt>
      <trkpt lat="46.07425" lon="6.75574">
        <ele>1022.98</ele>
        <time>2019-02-06T09:35:28Z</time>
      </trkpt>
      <trkpt lat="46.07426" lon="6.75575">
        <ele>1022.98</ele>
        <time>2019-02-06T09:35:29Z</time>
      </trkpt>
      <trkpt lat="46.07427" lon="6.75576">
        <ele>1023.46</ele>
        <time>2019-02-06T09:35:30Z</time>
      </trkpt>
      <trkpt lat="46.07428" lon="6.75576">
        <ele>1023.46</ele>
        <time>2019-02-06T09:35:31Z</time>
      </trkpt>
      <trkpt lat="46.07428" lon="6.75577">
        <ele>1023.94</ele>
        <time>2019-02-06T09:35:32Z</time>
      </trkpt>
      <trkpt lat="46.07432" lon="6.75577">
        <ele>1024.9</ele>
        <time>2019-02-06T09:35:39Z</time>
      </trkpt>
      <trkpt lat="46.07438" lon="6.75566">
        <ele>1026.83</ele>
        <time>2019-02-06T09:35:52Z</time>
      </trkpt>
      <trkpt lat="46.07453" lon="6.75541">
        <ele>1030.19</ele>
        <time>2019-02-06T09:36:13Z</time>
      </trkpt>
      <trkpt lat="46.07461" lon="6.75524">
        <ele>1033.07</ele>
        <time>2019-02-06T09:36:30Z</time>
      </trkpt>
      <trkpt lat="46.07474" lon="6.75512">
        <ele>1036.44</ele>
        <time>2019-02-06T09:36:48Z</time>
      </trkpt>
      <trkpt lat="46.07475" lon="6.75511">
        <ele>1036.44</ele>
        <time>2019-02-06T09:36:49Z</time>
      </trkpt>
      <trkpt lat="46.07476" lon="6.75511">
        <ele>1036.44</ele>
        <time>2019-02-06T09:36:50Z</time>
      </trkpt>
      <trkpt lat="46.07492" lon="6.75511">
        <ele>1039.8</ele>
        <time>2019-02-06T09:37:10Z</time>
      </trkpt>
      <trkpt lat="46.07511" lon="6.75506">
        <ele>1042.69</ele>
        <time>2019-02-06T09:37:32Z</time>
      </trkpt>
      <trkpt lat="46.07526" lon="6.75513">
        <ele>1045.57</ele>
        <time>2019-02-06T09:37:50Z</time>
      </trkpt>
      <trkpt lat="46.07543" lon="6.75541">
        <ele>1048.94</ele>
        <time>2019-02-06T09:38:11Z</time>
      </trkpt>
      <trkpt lat="46.07555" lon="6.75567">
        <ele>1051.82</ele>
        <time>2019-02-06T09:38:29Z</time>
      </trkpt>
      <trkpt lat="46.07558" lon="6.75571">
        <ele>1052.3</ele>
        <time>2019-02-06T09:38:33Z</time>
      </trkpt>
      <trkpt lat="46.07558" lon="6.75573">
        <ele>1052.3</ele>
        <time>2019-02-06T09:38:34Z</time>
      </trkpt>
      <trkpt lat="46.07567" lon="6.756">
        <ele>1055.67</ele>
        <time>2019-02-06T09:39:13Z</time>
      </trkpt>
      <trkpt lat="46.07578" lon="6.7563">
        <ele>1059.03</ele>
        <time>2019-02-06T09:39:36Z</time>
      </trkpt>
      <trkpt lat="46.07585" lon="6.75657">
        <ele>1061.91</ele>
        <time>2019-02-06T09:39:56Z</time>
      </trkpt>
      <trkpt lat="46.07585" lon="6.75658">
        <ele>1061.91</ele>
        <time>2019-02-06T09:39:57Z</time>
      </trkpt>
      <trkpt lat="46.0759" lon="6.75687">
        <ele>1064.8</ele>
        <time>2019-02-06T09:40:18Z</time>
      </trkpt>
      <trkpt lat="46.076" lon="6.75706">
        <ele>1068.16</ele>
        <time>2019-02-06T09:40:39Z</time>
      </trkpt>
      <trkpt lat="46.07604" lon="6.75706">
        <ele>1069.12</ele>
        <time>2019-02-06T09:40:44Z</time>
      </trkpt>
      <trkpt lat="46.07618" lon="6.75693">
        <ele>1072.01</ele>
        <time>2019-02-06T09:41:04Z</time>
      </trkpt>
      <trkpt lat="46.07635" lon="6.75682">
        <ele>1075.37</ele>
        <time>2019-02-06T09:41:24Z</time>
      </trkpt>
      <trkpt lat="46.07647" lon="6.75681">
        <ele>1078.26</ele>
        <time>2019-02-06T09:41:40Z</time>
      </trkpt>
      <trkpt lat="46.07647" lon="6.75681">
        <ele>1078.26</ele>
        <time>2019-02-06T09:41:41Z</time>
      </trkpt>
      <trkpt lat="46.07648" lon="6.75698">
        <ele>1081.62</ele>
        <time>2019-02-06T09:41:55Z</time>
      </trkpt>
      <trkpt lat="46.07643" lon="6.75718">
        <ele>1084.02</ele>
        <time>2019-02-06T09:42:10Z</time>
      </trkpt>
      <trkpt lat="46.07643" lon="6.75721">
        <ele>1084.5</ele>
        <time>2019-02-06T09:42:12Z</time>
      </trkpt>
      <trkpt lat="46.07642" lon="6.75725">
        <ele>1084.99</ele>
        <time>2019-02-06T09:42:16Z</time>
      </trkpt>
      <trkpt lat="46.07641" lon="6.75726">
        <ele>1084.99</ele>
        <time>2019-02-06T09:42:17Z</time>
      </trkpt>
      <trkpt lat="46.07641" lon="6.75727">
        <ele>1084.99</ele>
        <time>2019-02-06T09:42:18Z</time>
      </trkpt>
      <trkpt lat="46.07638" lon="6.75731">
        <ele>1085.47</ele>
        <time>2019-02-06T09:42:22Z</time>
      </trkpt>
      <trkpt lat="46.07638" lon="6.75732">
        <ele>1085.47</ele>
        <time>2019-02-06T09:42:23Z</time>
      </trkpt>
      <trkpt lat="46.07638" lon="6.75736">
        <ele>1086.43</ele>
        <time>2019-02-06T09:42:27Z</time>
      </trkpt>
      <trkpt lat="46.07638" lon="6.75738">
        <ele>1086.43</ele>
        <time>2019-02-06T09:42:28Z</time>
      </trkpt>
      <trkpt lat="46.07637" lon="6.75739">
        <ele>1086.43</ele>
        <time>2019-02-06T09:42:29Z</time>
      </trkpt>
      <trkpt lat="46.07634" lon="6.7575">
        <ele>1088.35</ele>
        <time>2019-02-06T09:42:40Z</time>
      </trkpt>
      <trkpt lat="46.07633" lon="6.75774">
        <ele>1091.23</ele>
        <time>2019-02-06T09:42:57Z</time>
      </trkpt>
      <trkpt lat="46.07633" lon="6.75776">
        <ele>1091.23</ele>
        <time>2019-02-06T09:42:58Z</time>
      </trkpt>
      <trkpt lat="46.07627" lon="6.75793">
        <ele>1094.6</ele>
        <time>2019-02-06T09:43:15Z</time>
      </trkpt>
      <trkpt lat="46.07623" lon="6.75816">
        <ele>1097.48</ele>
        <time>2019-02-06T09:43:34Z</time>
      </trkpt>
      <trkpt lat="46.07619" lon="6.75841">
        <ele>1100.37</ele>
        <time>2019-02-06T09:43:51Z</time>
      </trkpt>
      <trkpt lat="46.07617" lon="6.75863">
        <ele>1103.73</ele>
        <time>2019-02-06T09:44:08Z</time>
      </trkpt>
      <trkpt lat="46.07615" lon="6.75865">
        <ele>1104.21</ele>
        <time>2019-02-06T09:44:11Z</time>
      </trkpt>
      <trkpt lat="46.07614" lon="6.75866">
        <ele>1105.17</ele>
        <time>2019-02-06T09:44:14Z</time>
      </trkpt>
      <trkpt lat="46.07611" lon="6.75872">
        <ele>1106.13</ele>
        <time>2019-02-06T09:44:20Z</time>
      </trkpt>
      <trkpt lat="46.07612" lon="6.75874">
        <ele>1106.61</ele>
        <time>2019-02-06T09:44:21Z</time>
      </trkpt>
      <trkpt lat="46.07611" lon="6.7588">
        <ele>1107.1</ele>
        <time>2019-02-06T09:44:26Z</time>
      </trkpt>
      <trkpt lat="46.07611" lon="6.75881">
        <ele>1107.58</ele>
        <time>2019-02-06T09:44:27Z</time>
      </trkpt>
      <trkpt lat="46.0761" lon="6.75887">
        <ele>1107.58</ele>
        <time>2019-02-06T09:44:31Z</time>
      </trkpt>
      <trkpt lat="46.07609" lon="6.7589">
        <ele>1108.06</ele>
        <time>2019-02-06T09:44:33Z</time>
      </trkpt>
      <trkpt lat="46.07608" lon="6.75893">
        <ele>1108.54</ele>
        <time>2019-02-06T09:44:35Z</time>
      </trkpt>
      <trkpt lat="46.07607" lon="6.75894">
        <ele>1109.02</ele>
        <time>2019-02-06T09:44:36Z</time>
      </trkpt>
      <trkpt lat="46.07607" lon="6.75895">
        <ele>1109.02</ele>
        <time>2019-02-06T09:44:37Z</time>
      </trkpt>
      <trkpt lat="46.07605" lon="6.75895">
        <ele>1109.02</ele>
        <time>2019-02-06T09:44:38Z</time>
      </trkpt>
      <trkpt lat="46.07604" lon="6.75897">
        <ele>1109.5</ele>
        <time>2019-02-06T09:44:40Z</time>
      </trkpt>
      <trkpt lat="46.07601" lon="6.75905">
        <ele>1109.98</ele>
        <time>2019-02-06T09:44:45Z</time>
      </trkpt>
      <trkpt lat="46.07599" lon="6.75906">
        <ele>1109.98</ele>
        <time>2019-02-06T09:44:47Z</time>
      </trkpt>
      <trkpt lat="46.07595" lon="6.7591">
        <ele>1111.42</ele>
        <time>2019-02-06T09:44:54Z</time>
      </trkpt>
      <trkpt lat="46.07595" lon="6.75911">
        <ele>1111.9</ele>
        <time>2019-02-06T09:44:55Z</time>
      </trkpt>
      <trkpt lat="46.07591" lon="6.75914">
        <ele>1112.38</ele>
        <time>2019-02-06T09:44:59Z</time>
      </trkpt>
      <trkpt lat="46.0759" lon="6.75914">
        <ele>1112.38</ele>
        <time>2019-02-06T09:45:00Z</time>
      </trkpt>
      <trkpt lat="46.07587" lon="6.75917">
        <ele>1113.34</ele>
        <time>2019-02-06T09:45:04Z</time>
      </trkpt>
      <trkpt lat="46.07586" lon="6.75917">
        <ele>1113.82</ele>
        <time>2019-02-06T09:45:05Z</time>
      </trkpt>
      <trkpt lat="46.07585" lon="6.75918">
        <ele>1113.82</ele>
        <time>2019-02-06T09:45:06Z</time>
      </trkpt>
      <trkpt lat="46.07585" lon="6.7592">
        <ele>1113.82</ele>
        <time>2019-02-06T09:45:08Z</time>
      </trkpt>
      <trkpt lat="46.07583" lon="6.75924">
        <ele>1115.27</ele>
        <time>2019-02-06T09:45:13Z</time>
      </trkpt>
      <trkpt lat="46.07583" lon="6.75927">
        <ele>1115.75</ele>
        <time>2019-02-06T09:45:15Z</time>
      </trkpt>
      <trkpt lat="46.07585" lon="6.75936">
        <ele>1119.11</ele>
        <time>2019-02-06T09:45:30Z</time>
      </trkpt>
      <trkpt lat="46.0759" lon="6.75941">
        <ele>1120.07</ele>
        <time>2019-02-06T09:45:38Z</time>
      </trkpt>
      <trkpt lat="46.076" lon="6.75953">
        <ele>1123.44</ele>
        <time>2019-02-06T09:45:58Z</time>
      </trkpt>
      <trkpt lat="46.07617" lon="6.75949">
        <ele>1126.32</ele>
        <time>2019-02-06T09:46:16Z</time>
      </trkpt>
      <trkpt lat="46.07622" lon="6.75941">
        <ele>1127.76</ele>
        <time>2019-02-06T09:46:25Z</time>
      </trkpt>
      <trkpt lat="46.07638" lon="6.75913">
        <ele>1130.65</ele>
        <time>2019-02-06T09:46:48Z</time>
      </trkpt>
      <trkpt lat="46.07651" lon="6.75896">
        <ele>1134.01</ele>
        <time>2019-02-06T09:47:09Z</time>
      </trkpt>
      <trkpt lat="46.07661" lon="6.75898">
        <ele>1135.45</ele>
        <time>2019-02-06T09:47:20Z</time>
      </trkpt>
      <trkpt lat="46.07662" lon="6.759">
        <ele>1136.42</ele>
        <time>2019-02-06T09:47:22Z</time>
      </trkpt>
      <trkpt lat="46.07668" lon="6.75921">
        <ele>1139.3</ele>
        <time>2019-02-06T09:47:41Z</time>
      </trkpt>
      <trkpt lat="46.07664" lon="6.75938">
        <ele>1141.22</ele>
        <time>2019-02-06T09:47:55Z</time>
      </trkpt>
      <trkpt lat="46.07663" lon="6.75939">
        <ele>1141.22</ele>
        <time>2019-02-06T09:47:56Z</time>
      </trkpt>
      <trkpt lat="46.07662" lon="6.75941">
        <ele>1141.22</ele>
        <time>2019-02-06T09:47:57Z</time>
      </trkpt>
      <trkpt lat="46.07662" lon="6.75942">
        <ele>1141.7</ele>
        <time>2019-02-06T09:47:58Z</time>
      </trkpt>
      <trkpt lat="46.07657" lon="6.75953">
        <ele>1143.14</ele>
        <time>2019-02-06T09:48:10Z</time>
      </trkpt>
      <trkpt lat="46.07656" lon="6.75956">
        <ele>1143.63</ele>
        <time>2019-02-06T09:48:13Z</time>
      </trkpt>
      <trkpt lat="46.07657" lon="6.7596">
        <ele>1144.11</ele>
        <time>2019-02-06T09:48:17Z</time>
      </trkpt>
      <trkpt lat="46.07656" lon="6.75962">
        <ele>1144.59</ele>
        <time>2019-02-06T09:48:18Z</time>
      </trkpt>
      <trkpt lat="46.07656" lon="6.75965">
        <ele>1144.59</ele>
        <time>2019-02-06T09:48:20Z</time>
      </trkpt>
      <trkpt lat="46.07656" lon="6.75968">
        <ele>1145.07</ele>
        <time>2019-02-06T09:48:23Z</time>
      </trkpt>
      <trkpt lat="46.07655" lon="6.75971">
        <ele>1145.55</ele>
        <time>2019-02-06T09:48:25Z</time>
      </trkpt>
      <trkpt lat="46.07654" lon="6.75973">
        <ele>1146.03</ele>
        <time>2019-02-06T09:48:26Z</time>
      </trkpt>
      <trkpt lat="46.07652" lon="6.75975">
        <ele>1146.51</ele>
        <time>2019-02-06T09:48:28Z</time>
      </trkpt>
      <trkpt lat="46.0765" lon="6.75977">
        <ele>1146.51</ele>
        <time>2019-02-06T09:48:29Z</time>
      </trkpt>
      <trkpt lat="46.0765" lon="6.75978">
        <ele>1146.51</ele>
        <time>2019-02-06T09:48:30Z</time>
      </trkpt>
      <trkpt lat="46.07649" lon="6.75979">
        <ele>1146.99</ele>
        <time>2019-02-06T09:48:31Z</time>
      </trkpt>
      <trkpt lat="46.07648" lon="6.7598">
        <ele>1146.99</ele>
        <time>2019-02-06T09:48:32Z</time>
      </trkpt>
      <trkpt lat="46.07647" lon="6.75982">
        <ele>1146.99</ele>
        <time>2019-02-06T09:48:33Z</time>
      </trkpt>
      <trkpt lat="46.07646" lon="6.75986">
        <ele>1147.47</ele>
        <time>2019-02-06T09:48:36Z</time>
      </trkpt>
      <trkpt lat="46.07645" lon="6.75994">
        <ele>1149.39</ele>
        <time>2019-02-06T09:48:42Z</time>
      </trkpt>
      <trkpt lat="46.07644" lon="6.75997">
        <ele>1149.39</ele>
        <time>2019-02-06T09:48:44Z</time>
      </trkpt>
      <trkpt lat="46.07642" lon="6.75998">
        <ele>1149.87</ele>
        <time>2019-02-06T09:48:45Z</time>
      </trkpt>
      <trkpt lat="46.07641" lon="6.76">
        <ele>1149.87</ele>
        <time>2019-02-06T09:48:46Z</time>
      </trkpt>
      <trkpt lat="46.0764" lon="6.76001">
        <ele>1150.35</ele>
        <time>2019-02-06T09:48:47Z</time>
      </trkpt>
      <trkpt lat="46.07631" lon="6.76012">
        <ele>1151.8</ele>
        <time>2019-02-06T09:48:58Z</time>
      </trkpt>
      <trkpt lat="46.0763" lon="6.76014">
        <ele>1152.28</ele>
        <time>2019-02-06T09:48:59Z</time>
      </trkpt>
      <trkpt lat="46.07629" lon="6.76015">
        <ele>1152.28</ele>
        <time>2019-02-06T09:49:00Z</time>
      </trkpt>
      <trkpt lat="46.07628" lon="6.76017">
        <ele>1152.28</ele>
        <time>2019-02-06T09:49:01Z</time>
      </trkpt>
      <trkpt lat="46.07628" lon="6.76018">
        <ele>1152.76</ele>
        <time>2019-02-06T09:49:02Z</time>
      </trkpt>
      <trkpt lat="46.07628" lon="6.76019">
        <ele>1152.76</ele>
        <time>2019-02-06T09:49:03Z</time>
      </trkpt>
      <trkpt lat="46.07627" lon="6.76021">
        <ele>1153.24</ele>
        <time>2019-02-06T09:49:04Z</time>
      </trkpt>
      <trkpt lat="46.07626" lon="6.76023">
        <ele>1153.24</ele>
        <time>2019-02-06T09:49:06Z</time>
      </trkpt>
      <trkpt lat="46.07624" lon="6.76029">
        <ele>1154.2</ele>
        <time>2019-02-06T09:49:10Z</time>
      </trkpt>
      <trkpt lat="46.07624" lon="6.76031">
        <ele>1154.2</ele>
        <time>2019-02-06T09:49:11Z</time>
      </trkpt>
      <trkpt lat="46.07624" lon="6.76032">
        <ele>1154.2</ele>
        <time>2019-02-06T09:49:12Z</time>
      </trkpt>
      <trkpt lat="46.07624" lon="6.76034">
        <ele>1154.68</ele>
        <time>2019-02-06T09:49:13Z</time>
      </trkpt>
      <trkpt lat="46.07624" lon="6.76038">
        <ele>1155.16</ele>
        <time>2019-02-06T09:49:16Z</time>
      </trkpt>
      <trkpt lat="46.07626" lon="6.76044">
        <ele>1156.12</ele>
        <time>2019-02-06T09:49:21Z</time>
      </trkpt>
      <trkpt lat="46.07627" lon="6.76049">
        <ele>1156.6</ele>
        <time>2019-02-06T09:49:25Z</time>
      </trkpt>
      <trkpt lat="46.07627" lon="6.7605">
        <ele>1157.08</ele>
        <time>2019-02-06T09:49:26Z</time>
      </trkpt>
      <trkpt lat="46.07625" lon="6.76055">
        <ele>1157.56</ele>
        <time>2019-02-06T09:49:29Z</time>
      </trkpt>
      <trkpt lat="46.07625" lon="6.76058">
        <ele>1158.05</ele>
        <time>2019-02-06T09:49:31Z</time>
      </trkpt>
      <trkpt lat="46.07625" lon="6.76063">
        <ele>1158.53</ele>
        <time>2019-02-06T09:49:36Z</time>
      </trkpt>
      <trkpt lat="46.07626" lon="6.76066">
        <ele>1159.01</ele>
        <time>2019-02-06T09:50:45Z</time>
      </trkpt>
      <trkpt lat="46.07631" lon="6.76069">
        <ele>1159.01</ele>
        <time>2019-02-06T09:51:28Z</time>
      </trkpt>
      <trkpt lat="46.0763" lon="6.76066">
        <ele>1159.01</ele>
        <time>2019-02-06T09:52:14Z</time>
      </trkpt>
      <trkpt lat="46.07632" lon="6.76067">
        <ele>1159.01</ele>
        <time>2019-02-06T09:52:17Z</time>
      </trkpt>
      <trkpt lat="46.07635" lon="6.76069">
        <ele>1159.01</ele>
        <time>2019-02-06T09:52:43Z</time>
      </trkpt>
      <trkpt lat="46.07632" lon="6.7607">
        <ele>1129.69</ele>
        <time>2019-02-06T09:53:06Z</time>
      </trkpt>
      <trkpt lat="46.07629" lon="6.76071">
        <ele>1129.69</ele>
        <time>2019-02-06T09:53:22Z</time>
      </trkpt>
      <trkpt lat="46.07628" lon="6.76069">
        <ele>1130.17</ele>
        <time>2019-02-06T09:53:45Z</time>
      </trkpt>
      <trkpt lat="46.07634" lon="6.76075">
        <ele>1131.61</ele>
        <time>2019-02-06T09:53:56Z</time>
      </trkpt>
      <trkpt lat="46.07639" lon="6.76079">
        <ele>1132.57</ele>
        <time>2019-02-06T09:54:02Z</time>
      </trkpt>
      <trkpt lat="46.07652" lon="6.76081">
        <ele>1135.45</ele>
        <time>2019-02-06T09:54:17Z</time>
      </trkpt>
      <trkpt lat="46.07665" lon="6.76072">
        <ele>1138.82</ele>
        <time>2019-02-06T09:54:34Z</time>
      </trkpt>
      <trkpt lat="46.0768" lon="6.76057">
        <ele>1141.7</ele>
        <time>2019-02-06T09:54:51Z</time>
      </trkpt>
      <trkpt lat="46.07692" lon="6.76043">
        <ele>1144.59</ele>
        <time>2019-02-06T09:55:09Z</time>
      </trkpt>
      <trkpt lat="46.07695" lon="6.76037">
        <ele>1146.03</ele>
        <time>2019-02-06T09:55:16Z</time>
      </trkpt>
      <trkpt lat="46.07696" lon="6.76034">
        <ele>1146.03</ele>
        <time>2019-02-06T09:55:18Z</time>
      </trkpt>
      <trkpt lat="46.07699" lon="6.7603">
        <ele>1147.95</ele>
        <time>2019-02-06T09:55:27Z</time>
      </trkpt>
      <trkpt lat="46.07715" lon="6.76018">
        <ele>1150.84</ele>
        <time>2019-02-06T09:55:43Z</time>
      </trkpt>
      <trkpt lat="46.07719" lon="6.76016">
        <ele>1150.84</ele>
        <time>2019-02-06T09:55:46Z</time>
      </trkpt>
      <trkpt lat="46.07721" lon="6.76015">
        <ele>1151.32</ele>
        <time>2019-02-06T09:55:48Z</time>
      </trkpt>
      <trkpt lat="46.07722" lon="6.76014">
        <ele>1151.8</ele>
        <time>2019-02-06T09:55:49Z</time>
      </trkpt>
      <trkpt lat="46.07723" lon="6.76013">
        <ele>1151.8</ele>
        <time>2019-02-06T09:55:50Z</time>
      </trkpt>
      <trkpt lat="46.07728" lon="6.76008">
        <ele>1153.24</ele>
        <time>2019-02-06T09:55:57Z</time>
      </trkpt>
      <trkpt lat="46.0773" lon="6.76008">
        <ele>1153.72</ele>
        <time>2019-02-06T09:56:00Z</time>
      </trkpt>
      <trkpt lat="46.07731" lon="6.76007">
        <ele>1153.72</ele>
        <time>2019-02-06T09:56:01Z</time>
      </trkpt>
      <trkpt lat="46.07732" lon="6.76006">
        <ele>1154.2</ele>
        <time>2019-02-06T09:56:02Z</time>
      </trkpt>
      <trkpt lat="46.07735" lon="6.76001">
        <ele>1154.68</ele>
        <time>2019-02-06T09:56:07Z</time>
      </trkpt>
      <trkpt lat="46.07736" lon="6.76">
        <ele>1155.16</ele>
        <time>2019-02-06T09:56:08Z</time>
      </trkpt>
      <trkpt lat="46.07742" lon="6.75999">
        <ele>1157.08</ele>
        <time>2019-02-06T09:56:17Z</time>
      </trkpt>
      <trkpt lat="46.07754" lon="6.75995">
        <ele>1159.97</ele>
        <time>2019-02-06T09:56:34Z</time>
      </trkpt>
      <trkpt lat="46.07768" lon="6.75987">
        <ele>1163.33</ele>
        <time>2019-02-06T09:56:50Z</time>
      </trkpt>
      <trkpt lat="46.07771" lon="6.75982">
        <ele>1165.26</ele>
        <time>2019-02-06T09:56:58Z</time>
      </trkpt>
      <trkpt lat="46.07772" lon="6.75981">
        <ele>1165.26</ele>
        <time>2019-02-06T09:56:59Z</time>
      </trkpt>
      <trkpt lat="46.07786" lon="6.75964">
        <ele>1168.62</ele>
        <time>2019-02-06T09:57:15Z</time>
      </trkpt>
      <trkpt lat="46.07788" lon="6.75962">
        <ele>1168.62</ele>
        <time>2019-02-06T09:57:17Z</time>
      </trkpt>
      <trkpt lat="46.07789" lon="6.7596">
        <ele>1169.1</ele>
        <time>2019-02-06T09:57:18Z</time>
      </trkpt>
      <trkpt lat="46.07791" lon="6.75959">
        <ele>1169.1</ele>
        <time>2019-02-06T09:57:19Z</time>
      </trkpt>
      <trkpt lat="46.07799" lon="6.75951">
        <ele>1170.54</ele>
        <time>2019-02-06T09:57:29Z</time>
      </trkpt>
      <trkpt lat="46.078" lon="6.7595">
        <ele>1171.02</ele>
        <time>2019-02-06T09:57:30Z</time>
      </trkpt>
      <trkpt lat="46.07804" lon="6.75944">
        <ele>1171.5</ele>
        <time>2019-02-06T09:57:36Z</time>
      </trkpt>
      <trkpt lat="46.07812" lon="6.7593">
        <ele>1173.43</ele>
        <time>2019-02-06T09:57:48Z</time>
      </trkpt>
      <trkpt lat="46.07814" lon="6.75925">
        <ele>1174.39</ele>
        <time>2019-02-06T09:57:52Z</time>
      </trkpt>
      <trkpt lat="46.07815" lon="6.75925">
        <ele>1174.39</ele>
        <time>2019-02-06T09:57:53Z</time>
      </trkpt>
      <trkpt lat="46.07816" lon="6.75924">
        <ele>1174.39</ele>
        <time>2019-02-06T09:57:54Z</time>
      </trkpt>
      <trkpt lat="46.07817" lon="6.75923">
        <ele>1174.87</ele>
        <time>2019-02-06T09:57:55Z</time>
      </trkpt>
      <trkpt lat="46.07818" lon="6.75922">
        <ele>1174.87</ele>
        <time>2019-02-06T09:57:56Z</time>
      </trkpt>
      <trkpt lat="46.07825" lon="6.75919">
        <ele>1176.31</ele>
        <time>2019-02-06T09:58:06Z</time>
      </trkpt>
      <trkpt lat="46.07826" lon="6.75919">
        <ele>1176.79</ele>
        <time>2019-02-06T09:58:07Z</time>
      </trkpt>
      <trkpt lat="46.07827" lon="6.75919">
        <ele>1176.79</ele>
        <time>2019-02-06T09:58:08Z</time>
      </trkpt>
      <trkpt lat="46.07828" lon="6.75919">
        <ele>1176.79</ele>
        <time>2019-02-06T09:58:09Z</time>
      </trkpt>
      <trkpt lat="46.07829" lon="6.75919">
        <ele>1176.79</ele>
        <time>2019-02-06T09:58:10Z</time>
      </trkpt>
      <trkpt lat="46.07831" lon="6.7592">
        <ele>1176.79</ele>
        <time>2019-02-06T09:58:11Z</time>
      </trkpt>
      <trkpt lat="46.07832" lon="6.7592">
        <ele>1176.79</ele>
        <time>2019-02-06T09:58:12Z</time>
      </trkpt>
      <trkpt lat="46.07836" lon="6.7592">
        <ele>1178.23</ele>
        <time>2019-02-06T09:58:17Z</time>
      </trkpt>
      <trkpt lat="46.07837" lon="6.7592">
        <ele>1178.23</ele>
        <time>2019-02-06T09:58:18Z</time>
      </trkpt>
      <trkpt lat="46.07838" lon="6.75919">
        <ele>1178.23</ele>
        <time>2019-02-06T09:58:19Z</time>
      </trkpt>
      <trkpt lat="46.07839" lon="6.75918">
        <ele>1178.71</ele>
        <time>2019-02-06T09:58:20Z</time>
      </trkpt>
      <trkpt lat="46.0784" lon="6.75918">
        <ele>1178.71</ele>
        <time>2019-02-06T09:58:21Z</time>
      </trkpt>
      <trkpt lat="46.07841" lon="6.75917">
        <ele>1179.19</ele>
        <time>2019-02-06T09:58:22Z</time>
      </trkpt>
      <trkpt lat="46.07841" lon="6.75916">
        <ele>1179.19</ele>
        <time>2019-02-06T09:58:23Z</time>
      </trkpt>
      <trkpt lat="46.07845" lon="6.75912">
        <ele>1180.16</ele>
        <time>2019-02-06T09:58:27Z</time>
      </trkpt>
      <trkpt lat="46.07847" lon="6.7591">
        <ele>1180.64</ele>
        <time>2019-02-06T09:58:30Z</time>
      </trkpt>
      <trkpt lat="46.07849" lon="6.75902">
        <ele>1181.6</ele>
        <time>2019-02-06T09:58:36Z</time>
      </trkpt>
      <trkpt lat="46.0785" lon="6.75901">
        <ele>1181.6</ele>
        <time>2019-02-06T09:58:37Z</time>
      </trkpt>
      <trkpt lat="46.0785" lon="6.75899">
        <ele>1181.6</ele>
        <time>2019-02-06T09:58:38Z</time>
      </trkpt>
      <trkpt lat="46.07851" lon="6.75898">
        <ele>1181.6</ele>
        <time>2019-02-06T09:58:39Z</time>
      </trkpt>
      <trkpt lat="46.07854" lon="6.75895">
        <ele>1182.56</ele>
        <time>2019-02-06T09:58:42Z</time>
      </trkpt>
      <trkpt lat="46.07854" lon="6.75893">
        <ele>1183.04</ele>
        <time>2019-02-06T09:58:43Z</time>
      </trkpt>
      <trkpt lat="46.07854" lon="6.75883">
        <ele>1184.48</ele>
        <time>2019-02-06T09:58:52Z</time>
      </trkpt>
      <trkpt lat="46.07855" lon="6.75881">
        <ele>1184.96</ele>
        <time>2019-02-06T09:58:54Z</time>
      </trkpt>
      <trkpt lat="46.07856" lon="6.7588">
        <ele>1184.96</ele>
        <time>2019-02-06T09:58:55Z</time>
      </trkpt>
      <trkpt lat="46.07864" lon="6.75852">
        <ele>1187.85</ele>
        <time>2019-02-06T09:59:15Z</time>
      </trkpt>
      <trkpt lat="46.07864" lon="6.75826">
        <ele>1191.21</ele>
        <time>2019-02-06T09:59:36Z</time>
      </trkpt>
      <trkpt lat="46.0787" lon="6.75803">
        <ele>1194.09</ele>
        <time>2019-02-06T09:59:57Z</time>
      </trkpt>
      <trkpt lat="46.07879" lon="6.75779">
        <ele>1196.98</ele>
        <time>2019-02-06T10:00:16Z</time>
      </trkpt>
      <trkpt lat="46.07882" lon="6.75757">
        <ele>1200.34</ele>
        <time>2019-02-06T10:00:32Z</time>
      </trkpt>
      <trkpt lat="46.07896" lon="6.75734">
        <ele>1203.23</ele>
        <time>2019-02-06T10:00:54Z</time>
      </trkpt>
      <trkpt lat="46.07914" lon="6.75722">
        <ele>1206.59</ele>
        <time>2019-02-06T10:01:12Z</time>
      </trkpt>
      <trkpt lat="46.07932" lon="6.75706">
        <ele>1209.48</ele>
        <time>2019-02-06T10:01:32Z</time>
      </trkpt>
      <trkpt lat="46.07946" lon="6.75686">
        <ele>1212.36</ele>
        <time>2019-02-06T10:01:52Z</time>
      </trkpt>
      <trkpt lat="46.07958" lon="6.75667">
        <ele>1215.72</ele>
        <time>2019-02-06T10:02:10Z</time>
      </trkpt>
      <trkpt lat="46.07967" lon="6.75648">
        <ele>1218.61</ele>
        <time>2019-02-06T10:02:30Z</time>
      </trkpt>
      <trkpt lat="46.07979" lon="6.75629">
        <ele>1221.97</ele>
        <time>2019-02-06T10:02:49Z</time>
      </trkpt>
      <trkpt lat="46.07988" lon="6.75615">
        <ele>1224.86</ele>
        <time>2019-02-06T10:03:06Z</time>
      </trkpt>
      <trkpt lat="46.07992" lon="6.75626">
        <ele>1228.22</ele>
        <time>2019-02-06T10:03:26Z</time>
      </trkpt>
      <trkpt lat="46.07991" lon="6.7563">
        <ele>1228.22</ele>
        <time>2019-02-06T10:03:28Z</time>
      </trkpt>
      <trkpt lat="46.07991" lon="6.75631">
        <ele>1228.7</ele>
        <time>2019-02-06T10:03:29Z</time>
      </trkpt>
      <trkpt lat="46.07986" lon="6.75648">
        <ele>1230.62</ele>
        <time>2019-02-06T10:03:42Z</time>
      </trkpt>
      <trkpt lat="46.07985" lon="6.7565">
        <ele>1230.62</ele>
        <time>2019-02-06T10:03:43Z</time>
      </trkpt>
      <trkpt lat="46.07985" lon="6.75651">
        <ele>1231.11</ele>
        <time>2019-02-06T10:03:44Z</time>
      </trkpt>
      <trkpt lat="46.07984" lon="6.75659">
        <ele>1231.59</ele>
        <time>2019-02-06T10:03:50Z</time>
      </trkpt>
      <trkpt lat="46.07983" lon="6.75663">
        <ele>1232.55</ele>
        <time>2019-02-06T10:03:53Z</time>
      </trkpt>
      <trkpt lat="46.07983" lon="6.75666">
        <ele>1233.03</ele>
        <time>2019-02-06T10:03:56Z</time>
      </trkpt>
      <trkpt lat="46.07986" lon="6.75685">
        <ele>1235.43</ele>
        <time>2019-02-06T10:04:11Z</time>
      </trkpt>
      <trkpt lat="46.07985" lon="6.75689">
        <ele>1235.91</ele>
        <time>2019-02-06T10:04:14Z</time>
      </trkpt>
      <trkpt lat="46.07986" lon="6.75691">
        <ele>1235.91</ele>
        <time>2019-02-06T10:04:15Z</time>
      </trkpt>
      <trkpt lat="46.07985" lon="6.75706">
        <ele>1237.83</ele>
        <time>2019-02-06T10:04:27Z</time>
      </trkpt>
      <trkpt lat="46.07984" lon="6.75709">
        <ele>1237.83</ele>
        <time>2019-02-06T10:04:30Z</time>
      </trkpt>
      <trkpt lat="46.07982" lon="6.75712">
        <ele>1238.8</ele>
        <time>2019-02-06T10:04:35Z</time>
      </trkpt>
      <trkpt lat="46.0798" lon="6.75723">
        <ele>1239.76</ele>
        <time>2019-02-06T10:04:45Z</time>
      </trkpt>
      <trkpt lat="46.0798" lon="6.75724">
        <ele>1240.24</ele>
        <time>2019-02-06T10:04:46Z</time>
      </trkpt>
      <trkpt lat="46.0798" lon="6.75725">
        <ele>1240.24</ele>
        <time>2019-02-06T10:04:47Z</time>
      </trkpt>
      <trkpt lat="46.0798" lon="6.75727">
        <ele>1240.72</ele>
        <time>2019-02-06T10:04:49Z</time>
      </trkpt>
      <trkpt lat="46.07981" lon="6.75729">
        <ele>1240.72</ele>
        <time>2019-02-06T10:04:50Z</time>
      </trkpt>
      <trkpt lat="46.07981" lon="6.7573">
        <ele>1240.72</ele>
        <time>2019-02-06T10:04:51Z</time>
      </trkpt>
      <trkpt lat="46.07977" lon="6.75738">
        <ele>1242.16</ele>
        <time>2019-02-06T10:04:59Z</time>
      </trkpt>
      <trkpt lat="46.07977" lon="6.7574">
        <ele>1242.16</ele>
        <time>2019-02-06T10:05:01Z</time>
      </trkpt>
      <trkpt lat="46.07976" lon="6.75747">
        <ele>1243.12</ele>
        <time>2019-02-06T10:05:06Z</time>
      </trkpt>
      <trkpt lat="46.07972" lon="6.75756">
        <ele>1244.08</ele>
        <time>2019-02-06T10:05:13Z</time>
      </trkpt>
      <trkpt lat="46.07972" lon="6.75762">
        <ele>1244.56</ele>
        <time>2019-02-06T10:05:16Z</time>
      </trkpt>
      <trkpt lat="46.07972" lon="6.75764">
        <ele>1244.56</ele>
        <time>2019-02-06T10:05:17Z</time>
      </trkpt>
      <trkpt lat="46.07972" lon="6.75767">
        <ele>1245.04</ele>
        <time>2019-02-06T10:05:19Z</time>
      </trkpt>
      <trkpt lat="46.0797" lon="6.75782">
        <ele>1246.97</ele>
        <time>2019-02-06T10:05:31Z</time>
      </trkpt>
      <trkpt lat="46.0797" lon="6.75784">
        <ele>1246.97</ele>
        <time>2019-02-06T10:05:32Z</time>
      </trkpt>
      <trkpt lat="46.07956" lon="6.7581">
        <ele>1249.85</ele>
        <time>2019-02-06T10:05:53Z</time>
      </trkpt>
      <trkpt lat="46.07955" lon="6.75814">
        <ele>1252.25</ele>
        <time>2019-02-06T10:06:05Z</time>
      </trkpt>
      <trkpt lat="46.0796" lon="6.75807">
        <ele>1253.7</ele>
        <time>2019-02-06T10:06:14Z</time>
      </trkpt>
      <trkpt lat="46.0796" lon="6.75806">
        <ele>1253.7</ele>
        <time>2019-02-06T10:06:15Z</time>
      </trkpt>
      <trkpt lat="46.07962" lon="6.75805">
        <ele>1253.7</ele>
        <time>2019-02-06T10:06:17Z</time>
      </trkpt>
      <trkpt lat="46.07963" lon="6.75804">
        <ele>1254.18</ele>
        <time>2019-02-06T10:06:19Z</time>
      </trkpt>
      <trkpt lat="46.07969" lon="6.75801">
        <ele>1255.14</ele>
        <time>2019-02-06T10:06:25Z</time>
      </trkpt>
      <trkpt lat="46.0797" lon="6.758">
        <ele>1255.14</ele>
        <time>2019-02-06T10:06:26Z</time>
      </trkpt>
      <trkpt lat="46.07971" lon="6.75799">
        <ele>1255.14</ele>
        <time>2019-02-06T10:06:27Z</time>
      </trkpt>
      <trkpt lat="46.07972" lon="6.75797">
        <ele>1255.62</ele>
        <time>2019-02-06T10:06:28Z</time>
      </trkpt>
      <trkpt lat="46.07975" lon="6.75796">
        <ele>1255.62</ele>
        <time>2019-02-06T10:06:29Z</time>
      </trkpt>
      <trkpt lat="46.07978" lon="6.7579">
        <ele>1256.58</ele>
        <time>2019-02-06T10:06:34Z</time>
      </trkpt>
      <trkpt lat="46.07987" lon="6.75764">
        <ele>1259.46</ele>
        <time>2019-02-06T10:06:58Z</time>
      </trkpt>
      <trkpt lat="46.08004" lon="6.75736">
        <ele>1262.83</ele>
        <time>2019-02-06T10:07:23Z</time>
      </trkpt>
      <trkpt lat="46.08018" lon="6.75706">
        <ele>1265.71</ele>
        <time>2019-02-06T10:07:47Z</time>
      </trkpt>
      <trkpt lat="46.0803" lon="6.75686">
        <ele>1268.6</ele>
        <time>2019-02-06T10:08:06Z</time>
      </trkpt>
      <trkpt lat="46.08054" lon="6.75663">
        <ele>1271.96</ele>
        <time>2019-02-06T10:08:29Z</time>
      </trkpt>
      <trkpt lat="46.08058" lon="6.75654">
        <ele>1273.4</ele>
        <time>2019-02-06T10:08:40Z</time>
      </trkpt>
      <trkpt lat="46.08064" lon="6.75635">
        <ele>1276.29</ele>
        <time>2019-02-06T10:08:58Z</time>
      </trkpt>
      <trkpt lat="46.08068" lon="6.75624">
        <ele>1278.21</ele>
        <time>2019-02-06T10:09:07Z</time>
      </trkpt>
      <trkpt lat="46.08069" lon="6.75623">
        <ele>1278.21</ele>
        <time>2019-02-06T10:09:08Z</time>
      </trkpt>
      <trkpt lat="46.08085" lon="6.75606">
        <ele>1280.61</ele>
        <time>2019-02-06T10:09:28Z</time>
      </trkpt>
      <trkpt lat="46.08096" lon="6.75585">
        <ele>1283.02</ele>
        <time>2019-02-06T10:09:45Z</time>
      </trkpt>
      <trkpt lat="46.08096" lon="6.75579">
        <ele>1283.98</ele>
        <time>2019-02-06T10:09:49Z</time>
      </trkpt>
      <trkpt lat="46.08097" lon="6.75579">
        <ele>1283.98</ele>
        <time>2019-02-06T10:09:50Z</time>
      </trkpt>
      <trkpt lat="46.08099" lon="6.75576">
        <ele>1284.94</ele>
        <time>2019-02-06T10:09:54Z</time>
      </trkpt>
      <trkpt lat="46.08099" lon="6.75575">
        <ele>1284.94</ele>
        <time>2019-02-06T10:09:55Z</time>
      </trkpt>
      <trkpt lat="46.081" lon="6.75572">
        <ele>1285.42</ele>
        <time>2019-02-06T10:09:58Z</time>
      </trkpt>
      <trkpt lat="46.08103" lon="6.75571">
        <ele>1285.42</ele>
        <time>2019-02-06T10:10:01Z</time>
      </trkpt>
      <trkpt lat="46.08104" lon="6.7557">
        <ele>1285.9</ele>
        <time>2019-02-06T10:10:02Z</time>
      </trkpt>
      <trkpt lat="46.08106" lon="6.75562">
        <ele>1286.86</ele>
        <time>2019-02-06T10:10:09Z</time>
      </trkpt>
      <trkpt lat="46.08107" lon="6.75561">
        <ele>1286.86</ele>
        <time>2019-02-06T10:10:10Z</time>
      </trkpt>
      <trkpt lat="46.08108" lon="6.7556">
        <ele>1287.34</ele>
        <time>2019-02-06T10:10:12Z</time>
      </trkpt>
      <trkpt lat="46.08108" lon="6.75558">
        <ele>1287.34</ele>
        <time>2019-02-06T10:10:13Z</time>
      </trkpt>
      <trkpt lat="46.08109" lon="6.75556">
        <ele>1288.3</ele>
        <time>2019-02-06T10:10:19Z</time>
      </trkpt>
      <trkpt lat="46.0811" lon="6.75555">
        <ele>1288.3</ele>
        <time>2019-02-06T10:10:20Z</time>
      </trkpt>
      <trkpt lat="46.0811" lon="6.75555">
        <ele>1288.78</ele>
        <time>2019-02-06T10:10:21Z</time>
      </trkpt>
      <trkpt lat="46.08111" lon="6.75554">
        <ele>1288.78</ele>
        <time>2019-02-06T10:10:22Z</time>
      </trkpt>
      <trkpt lat="46.08112" lon="6.75553">
        <ele>1288.78</ele>
        <time>2019-02-06T10:10:23Z</time>
      </trkpt>
      <trkpt lat="46.08114" lon="6.75552">
        <ele>1288.78</ele>
        <time>2019-02-06T10:10:24Z</time>
      </trkpt>
      <trkpt lat="46.0812" lon="6.75545">
        <ele>1290.23</ele>
        <time>2019-02-06T10:10:33Z</time>
      </trkpt>
      <trkpt lat="46.0812" lon="6.75544">
        <ele>1290.71</ele>
        <time>2019-02-06T10:10:34Z</time>
      </trkpt>
      <trkpt lat="46.08121" lon="6.75542">
        <ele>1290.71</ele>
        <time>2019-02-06T10:10:35Z</time>
      </trkpt>
      <trkpt lat="46.08122" lon="6.75541">
        <ele>1290.71</ele>
        <time>2019-02-06T10:10:36Z</time>
      </trkpt>
      <trkpt lat="46.08123" lon="6.75539">
        <ele>1291.19</ele>
        <time>2019-02-06T10:10:37Z</time>
      </trkpt>
      <trkpt lat="46.08124" lon="6.75538">
        <ele>1291.19</ele>
        <time>2019-02-06T10:10:38Z</time>
      </trkpt>
      <trkpt lat="46.08124" lon="6.75536">
        <ele>1291.67</ele>
        <time>2019-02-06T10:10:40Z</time>
      </trkpt>
      <trkpt lat="46.08129" lon="6.75522">
        <ele>1293.59</ele>
        <time>2019-02-06T10:10:54Z</time>
      </trkpt>
      <trkpt lat="46.08129" lon="6.75521">
        <ele>1293.59</ele>
        <time>2019-02-06T10:10:55Z</time>
      </trkpt>
      <trkpt lat="46.08132" lon="6.75518">
        <ele>1294.07</ele>
        <time>2019-02-06T10:10:59Z</time>
      </trkpt>
      <trkpt lat="46.08132" lon="6.75517">
        <ele>1294.07</ele>
        <time>2019-02-06T10:11:00Z</time>
      </trkpt>
      <trkpt lat="46.08133" lon="6.75516">
        <ele>1294.55</ele>
        <time>2019-02-06T10:11:01Z</time>
      </trkpt>
      <trkpt lat="46.08134" lon="6.75515">
        <ele>1294.55</ele>
        <time>2019-02-06T10:11:02Z</time>
      </trkpt>
      <trkpt lat="46.08134" lon="6.75513">
        <ele>1294.55</ele>
        <time>2019-02-06T10:11:03Z</time>
      </trkpt>
      <trkpt lat="46.08135" lon="6.75512">
        <ele>1295.03</ele>
        <time>2019-02-06T10:11:04Z</time>
      </trkpt>
      <trkpt lat="46.08138" lon="6.75506">
        <ele>1295.99</ele>
        <time>2019-02-06T10:11:10Z</time>
      </trkpt>
      <trkpt lat="46.08139" lon="6.75505">
        <ele>1295.99</ele>
        <time>2019-02-06T10:11:11Z</time>
      </trkpt>
      <trkpt lat="46.08139" lon="6.75504">
        <ele>1295.99</ele>
        <time>2019-02-06T10:11:12Z</time>
      </trkpt>
      <trkpt lat="46.08142" lon="6.75501">
        <ele>1295.99</ele>
        <time>2019-02-06T10:11:13Z</time>
      </trkpt>
      <trkpt lat="46.08144" lon="6.755">
        <ele>1295.99</ele>
        <time>2019-02-06T10:11:14Z</time>
      </trkpt>
      <trkpt lat="46.08145" lon="6.75498">
        <ele>1296.48</ele>
        <time>2019-02-06T10:11:15Z</time>
      </trkpt>
      <trkpt lat="46.08145" lon="6.75497">
        <ele>1296.48</ele>
        <time>2019-02-06T10:11:16Z</time>
      </trkpt>
      <trkpt lat="46.08153" lon="6.75495">
        <ele>1299.36</ele>
        <time>2019-02-06T10:11:35Z</time>
      </trkpt>
      <trkpt lat="46.0816" lon="6.75495">
        <ele>1298.88</ele>
        <time>2019-02-06T10:12:05Z</time>
      </trkpt>
      <trkpt lat="46.08162" lon="6.75489">
        <ele>1299.36</ele>
        <time>2019-02-06T10:12:21Z</time>
      </trkpt>
      <trkpt lat="46.08158" lon="6.75492">
        <ele>1299.36</ele>
        <time>2019-02-06T10:13:04Z</time>
      </trkpt>
      <trkpt lat="46.08164" lon="6.75493">
        <ele>1298.88</ele>
        <time>2019-02-06T10:13:21Z</time>
      </trkpt>
      <trkpt lat="46.08165" lon="6.75492">
        <ele>1298.88</ele>
        <time>2019-02-06T10:13:22Z</time>
      </trkpt>
      <trkpt lat="46.08165" lon="6.75491">
        <ele>1298.88</ele>
        <time>2019-02-06T10:13:24Z</time>
      </trkpt>
      <trkpt lat="46.0816" lon="6.75493">
        <ele>1299.36</ele>
        <time>2019-02-06T10:13:40Z</time>
      </trkpt>
      <trkpt lat="46.08159" lon="6.75493">
        <ele>1299.36</ele>
        <time>2019-02-06T10:13:42Z</time>
      </trkpt>
      <trkpt lat="46.08161" lon="6.75492">
        <ele>1299.36</ele>
        <time>2019-02-06T10:13:48Z</time>
      </trkpt>
      <trkpt lat="46.08162" lon="6.75492">
        <ele>1299.36</ele>
        <time>2019-02-06T10:13:49Z</time>
      </trkpt>
      <trkpt lat="46.08163" lon="6.75494">
        <ele>1299.36</ele>
        <time>2019-02-06T10:13:54Z</time>
      </trkpt>
      <trkpt lat="46.08165" lon="6.75499">
        <ele>1299.84</ele>
        <time>2019-02-06T10:14:03Z</time>
      </trkpt>
      <trkpt lat="46.08165" lon="6.75501">
        <ele>1299.84</ele>
        <time>2019-02-06T10:14:04Z</time>
      </trkpt>
      <trkpt lat="46.08168" lon="6.75522">
        <ele>1302.72</ele>
        <time>2019-02-06T10:14:23Z</time>
      </trkpt>
      <trkpt lat="46.08167" lon="6.75544">
        <ele>1306.09</ele>
        <time>2019-02-06T10:14:42Z</time>
      </trkpt>
      <trkpt lat="46.08163" lon="6.75551">
        <ele>1306.57</ele>
        <time>2019-02-06T10:14:46Z</time>
      </trkpt>
      <trkpt lat="46.08154" lon="6.75577">
        <ele>1309.93</ele>
        <time>2019-02-06T10:15:06Z</time>
      </trkpt>
      <trkpt lat="46.08155" lon="6.75599">
        <ele>1312.82</ele>
        <time>2019-02-06T10:15:25Z</time>
      </trkpt>
      <trkpt lat="46.08146" lon="6.7563">
        <ele>1315.7</ele>
        <time>2019-02-06T10:15:46Z</time>
      </trkpt>
      <trkpt lat="46.08147" lon="6.75655">
        <ele>1319.07</ele>
        <time>2019-02-06T10:16:05Z</time>
      </trkpt>
      <trkpt lat="46.08146" lon="6.75677">
        <ele>1321.95</ele>
        <time>2019-02-06T10:16:25Z</time>
      </trkpt>
      <trkpt lat="46.08145" lon="6.75682">
        <ele>1323.39</ele>
        <time>2019-02-06T10:16:32Z</time>
      </trkpt>
      <trkpt lat="46.08143" lon="6.75688">
        <ele>1324.35</ele>
        <time>2019-02-06T10:16:37Z</time>
      </trkpt>
      <trkpt lat="46.08139" lon="6.75714">
        <ele>1327.24</ele>
        <time>2019-02-06T10:16:57Z</time>
      </trkpt>
      <trkpt lat="46.08138" lon="6.75716">
        <ele>1327.72</ele>
        <time>2019-02-06T10:16:59Z</time>
      </trkpt>
      <trkpt lat="46.08139" lon="6.7572">
        <ele>1328.2</ele>
        <time>2019-02-06T10:17:02Z</time>
      </trkpt>
      <trkpt lat="46.08138" lon="6.75723">
        <ele>1328.68</ele>
        <time>2019-02-06T10:17:04Z</time>
      </trkpt>
      <trkpt lat="46.08138" lon="6.75725">
        <ele>1329.16</ele>
        <time>2019-02-06T10:17:06Z</time>
      </trkpt>
      <trkpt lat="46.08138" lon="6.7573">
        <ele>1329.64</ele>
        <time>2019-02-06T10:17:09Z</time>
      </trkpt>
      <trkpt lat="46.08137" lon="6.75731">
        <ele>1329.64</ele>
        <time>2019-02-06T10:17:10Z</time>
      </trkpt>
      <trkpt lat="46.08135" lon="6.7574">
        <ele>1330.6</ele>
        <time>2019-02-06T10:17:17Z</time>
      </trkpt>
      <trkpt lat="46.08135" lon="6.75742">
        <ele>1331.08</ele>
        <time>2019-02-06T10:17:19Z</time>
      </trkpt>
      <trkpt lat="46.08134" lon="6.75744">
        <ele>1331.08</ele>
        <time>2019-02-06T10:17:20Z</time>
      </trkpt>
      <trkpt lat="46.08126" lon="6.75765">
        <ele>1334.45</ele>
        <time>2019-02-06T10:17:40Z</time>
      </trkpt>
      <trkpt lat="46.08124" lon="6.75781">
        <ele>1336.37</ele>
        <time>2019-02-06T10:17:50Z</time>
      </trkpt>
      <trkpt lat="46.08125" lon="6.75783">
        <ele>1336.37</ele>
        <time>2019-02-06T10:17:51Z</time>
      </trkpt>
      <trkpt lat="46.08123" lon="6.75797">
        <ele>1339.25</ele>
        <time>2019-02-06T10:18:08Z</time>
      </trkpt>
      <trkpt lat="46.08122" lon="6.758">
        <ele>1339.73</ele>
        <time>2019-02-06T10:18:10Z</time>
      </trkpt>
      <trkpt lat="46.0812" lon="6.75819">
        <ele>1342.62</ele>
        <time>2019-02-06T10:18:26Z</time>
      </trkpt>
      <trkpt lat="46.08121" lon="6.75821">
        <ele>1342.62</ele>
        <time>2019-02-06T10:18:27Z</time>
      </trkpt>
      <trkpt lat="46.08121" lon="6.75822">
        <ele>1342.62</ele>
        <time>2019-02-06T10:18:28Z</time>
      </trkpt>
      <trkpt lat="46.08123" lon="6.75831">
        <ele>1343.58</ele>
        <time>2019-02-06T10:18:34Z</time>
      </trkpt>
      <trkpt lat="46.08125" lon="6.75837">
        <ele>1345.02</ele>
        <time>2019-02-06T10:18:40Z</time>
      </trkpt>
      <trkpt lat="46.08126" lon="6.75837">
        <ele>1345.02</ele>
        <time>2019-02-06T10:18:42Z</time>
      </trkpt>
      <trkpt lat="46.08128" lon="6.75838">
        <ele>1345.02</ele>
        <time>2019-02-06T10:18:43Z</time>
      </trkpt>
      <trkpt lat="46.08128" lon="6.75837">
        <ele>1345.02</ele>
        <time>2019-02-06T10:18:44Z</time>
      </trkpt>
      <trkpt lat="46.08128" lon="6.75837">
        <ele>1345.5</ele>
        <time>2019-02-06T10:18:45Z</time>
      </trkpt>
      <trkpt lat="46.08129" lon="6.75836">
        <ele>1345.5</ele>
        <time>2019-02-06T10:18:46Z</time>
      </trkpt>
      <trkpt lat="46.08129" lon="6.75834">
        <ele>1345.98</ele>
        <time>2019-02-06T10:18:47Z</time>
      </trkpt>
      <trkpt lat="46.08129" lon="6.75833">
        <ele>1345.98</ele>
        <time>2019-02-06T10:18:48Z</time>
      </trkpt>
      <trkpt lat="46.08129" lon="6.75833">
        <ele>1345.98</ele>
        <time>2019-02-06T10:18:49Z</time>
      </trkpt>
      <trkpt lat="46.08129" lon="6.75832">
        <ele>1345.98</ele>
        <time>2019-02-06T10:18:50Z</time>
      </trkpt>
      <trkpt lat="46.08129" lon="6.75831">
        <ele>1346.46</ele>
        <time>2019-02-06T10:18:51Z</time>
      </trkpt>
      <trkpt lat="46.0813" lon="6.7583">
        <ele>1346.94</ele>
        <time>2019-02-06T10:18:52Z</time>
      </trkpt>
      <trkpt lat="46.08129" lon="6.75829">
        <ele>1346.94</ele>
        <time>2019-02-06T10:18:53Z</time>
      </trkpt>
      <trkpt lat="46.08132" lon="6.75818">
        <ele>1348.39</ele>
        <time>2019-02-06T10:19:06Z</time>
      </trkpt>
      <trkpt lat="46.08133" lon="6.75816">
        <ele>1348.87</ele>
        <time>2019-02-06T10:19:08Z</time>
      </trkpt>
      <trkpt lat="46.08134" lon="6.75815">
        <ele>1349.35</ele>
        <time>2019-02-06T10:19:10Z</time>
      </trkpt>
      <trkpt lat="46.08139" lon="6.75807">
        <ele>1350.79</ele>
        <time>2019-02-06T10:19:20Z</time>
      </trkpt>
      <trkpt lat="46.0814" lon="6.75806">
        <ele>1351.27</ele>
        <time>2019-02-06T10:19:21Z</time>
      </trkpt>
      <trkpt lat="46.08141" lon="6.75806">
        <ele>1351.27</ele>
        <time>2019-02-06T10:19:22Z</time>
      </trkpt>
      <trkpt lat="46.08147" lon="6.75801">
        <ele>1352.71</ele>
        <time>2019-02-06T10:19:31Z</time>
      </trkpt>
      <trkpt lat="46.08147" lon="6.75799">
        <ele>1352.71</ele>
        <time>2019-02-06T10:19:32Z</time>
      </trkpt>
      <trkpt lat="46.08149" lon="6.75798">
        <ele>1353.19</ele>
        <time>2019-02-06T10:19:33Z</time>
      </trkpt>
      <trkpt lat="46.0815" lon="6.75797">
        <ele>1353.19</ele>
        <time>2019-02-06T10:19:34Z</time>
      </trkpt>
      <trkpt lat="46.08152" lon="6.75794">
        <ele>1353.67</ele>
        <time>2019-02-06T10:19:38Z</time>
      </trkpt>
      <trkpt lat="46.08153" lon="6.75793">
        <ele>1353.67</ele>
        <time>2019-02-06T10:19:39Z</time>
      </trkpt>
      <trkpt lat="46.08153" lon="6.75792">
        <ele>1354.15</ele>
        <time>2019-02-06T10:19:40Z</time>
      </trkpt>
      <trkpt lat="46.08154" lon="6.75791">
        <ele>1354.15</ele>
        <time>2019-02-06T10:19:41Z</time>
      </trkpt>
      <trkpt lat="46.08154" lon="6.75789">
        <ele>1354.63</ele>
        <time>2019-02-06T10:19:43Z</time>
      </trkpt>
      <trkpt lat="46.08155" lon="6.75788">
        <ele>1354.63</ele>
        <time>2019-02-06T10:19:44Z</time>
      </trkpt>
      <trkpt lat="46.08156" lon="6.75787">
        <ele>1354.63</ele>
        <time>2019-02-06T10:19:45Z</time>
      </trkpt>
      <trkpt lat="46.08157" lon="6.75786">
        <ele>1354.63</ele>
        <time>2019-02-06T10:19:46Z</time>
      </trkpt>
      <trkpt lat="46.08158" lon="6.75784">
        <ele>1354.63</ele>
        <time>2019-02-06T10:19:47Z</time>
      </trkpt>
      <trkpt lat="46.0816" lon="6.75776">
        <ele>1356.08</ele>
        <time>2019-02-06T10:19:52Z</time>
      </trkpt>
      <trkpt lat="46.0816" lon="6.75775">
        <ele>1356.08</ele>
        <time>2019-02-06T10:19:53Z</time>
      </trkpt>
      <trkpt lat="46.08161" lon="6.75774">
        <ele>1356.08</ele>
        <time>2019-02-06T10:19:54Z</time>
      </trkpt>
      <trkpt lat="46.08171" lon="6.75755">
        <ele>1358.96</ele>
        <time>2019-02-06T10:20:14Z</time>
      </trkpt>
      <trkpt lat="46.08189" lon="6.75729">
        <ele>1362.33</ele>
        <time>2019-02-06T10:20:35Z</time>
      </trkpt>
      <trkpt lat="46.08199" lon="6.75725">
        <ele>1365.21</ele>
        <time>2019-02-06T10:20:53Z</time>
      </trkpt>
      <trkpt lat="46.08198" lon="6.75728">
        <ele>1365.69</ele>
        <time>2019-02-06T10:20:55Z</time>
      </trkpt>
      <trkpt lat="46.08196" lon="6.75751">
        <ele>1368.57</ele>
        <time>2019-02-06T10:21:14Z</time>
      </trkpt>
      <trkpt lat="46.08196" lon="6.75774">
        <ele>1371.94</ele>
        <time>2019-02-06T10:21:34Z</time>
      </trkpt>
      <trkpt lat="46.08194" lon="6.75801">
        <ele>1375.3</ele>
        <time>2019-02-06T10:21:53Z</time>
      </trkpt>
      <trkpt lat="46.08188" lon="6.75831">
        <ele>1378.19</ele>
        <time>2019-02-06T10:22:15Z</time>
      </trkpt>
      <trkpt lat="46.08185" lon="6.75855">
        <ele>1381.55</ele>
        <time>2019-02-06T10:22:34Z</time>
      </trkpt>
      <trkpt lat="46.08189" lon="6.75879">
        <ele>1384.92</ele>
        <time>2019-02-06T10:22:54Z</time>
      </trkpt>
      <trkpt lat="46.0819" lon="6.75899">
        <ele>1387.8</ele>
        <time>2019-02-06T10:23:11Z</time>
      </trkpt>
      <trkpt lat="46.08187" lon="6.75915">
        <ele>1390.68</ele>
        <time>2019-02-06T10:23:25Z</time>
      </trkpt>
      <trkpt lat="46.08187" lon="6.75921">
        <ele>1391.17</ele>
        <time>2019-02-06T10:23:30Z</time>
      </trkpt>
      <trkpt lat="46.08184" lon="6.75941">
        <ele>1394.05</ele>
        <time>2019-02-06T10:23:47Z</time>
      </trkpt>
      <trkpt lat="46.08181" lon="6.75968">
        <ele>1397.41</ele>
        <time>2019-02-06T10:24:10Z</time>
      </trkpt>
      <trkpt lat="46.08175" lon="6.75982">
        <ele>1399.82</ele>
        <time>2019-02-06T10:24:23Z</time>
      </trkpt>
      <trkpt lat="46.08175" lon="6.75983">
        <ele>1399.82</ele>
        <time>2019-02-06T10:24:24Z</time>
      </trkpt>
      <trkpt lat="46.08174" lon="6.75985">
        <ele>1399.82</ele>
        <time>2019-02-06T10:24:25Z</time>
      </trkpt>
      <trkpt lat="46.08173" lon="6.75987">
        <ele>1400.3</ele>
        <time>2019-02-06T10:24:26Z</time>
      </trkpt>
      <trkpt lat="46.08172" lon="6.75988">
        <ele>1400.3</ele>
        <time>2019-02-06T10:24:27Z</time>
      </trkpt>
      <trkpt lat="46.0817" lon="6.7599">
        <ele>1400.78</ele>
        <time>2019-02-06T10:24:28Z</time>
      </trkpt>
      <trkpt lat="46.08156" lon="6.76014">
        <ele>1403.66</ele>
        <time>2019-02-06T10:24:51Z</time>
      </trkpt>
      <trkpt lat="46.0815" lon="6.76039">
        <ele>1405.58</ele>
        <time>2019-02-06T10:25:11Z</time>
      </trkpt>
      <trkpt lat="46.08158" lon="6.76069">
        <ele>1407.51</ele>
        <time>2019-02-06T10:25:34Z</time>
      </trkpt>
      <trkpt lat="46.08158" lon="6.7607">
        <ele>1407.99</ele>
        <time>2019-02-06T10:25:35Z</time>
      </trkpt>
      <trkpt lat="46.08169" lon="6.76091">
        <ele>1410.87</ele>
        <time>2019-02-06T10:25:57Z</time>
      </trkpt>
      <trkpt lat="46.08173" lon="6.76112">
        <ele>1413.76</ele>
        <time>2019-02-06T10:26:15Z</time>
      </trkpt>
      <trkpt lat="46.08176" lon="6.7614">
        <ele>1417.12</ele>
        <time>2019-02-06T10:26:38Z</time>
      </trkpt>
      <trkpt lat="46.08184" lon="6.76148">
        <ele>1420</ele>
        <time>2019-02-06T10:26:55Z</time>
      </trkpt>
      <trkpt lat="46.08184" lon="6.76145">
        <ele>1420</ele>
        <time>2019-02-06T10:26:57Z</time>
      </trkpt>
      <trkpt lat="46.08184" lon="6.76144">
        <ele>1420.49</ele>
        <time>2019-02-06T10:26:58Z</time>
      </trkpt>
      <trkpt lat="46.08184" lon="6.7614">
        <ele>1420.97</ele>
        <time>2019-02-06T10:27:01Z</time>
      </trkpt>
      <trkpt lat="46.08183" lon="6.76139">
        <ele>1420.97</ele>
        <time>2019-02-06T10:27:02Z</time>
      </trkpt>
      <trkpt lat="46.08183" lon="6.76137">
        <ele>1421.45</ele>
        <time>2019-02-06T10:27:03Z</time>
      </trkpt>
      <trkpt lat="46.08184" lon="6.76134">
        <ele>1421.45</ele>
        <time>2019-02-06T10:27:05Z</time>
      </trkpt>
      <trkpt lat="46.08184" lon="6.76133">
        <ele>1421.93</ele>
        <time>2019-02-06T10:27:06Z</time>
      </trkpt>
      <trkpt lat="46.08183" lon="6.76132">
        <ele>1421.93</ele>
        <time>2019-02-06T10:27:07Z</time>
      </trkpt>
      <trkpt lat="46.08184" lon="6.76108">
        <ele>1424.81</ele>
        <time>2019-02-06T10:27:27Z</time>
      </trkpt>
      <trkpt lat="46.08187" lon="6.76088">
        <ele>1428.18</ele>
        <time>2019-02-06T10:27:45Z</time>
      </trkpt>
      <trkpt lat="46.08196" lon="6.76061">
        <ele>1431.06</ele>
        <time>2019-02-06T10:28:05Z</time>
      </trkpt>
      <trkpt lat="46.08207" lon="6.76041">
        <ele>1433.94</ele>
        <time>2019-02-06T10:28:26Z</time>
      </trkpt>
      <trkpt lat="46.08221" lon="6.76025">
        <ele>1437.31</ele>
        <time>2019-02-06T10:28:47Z</time>
      </trkpt>
      <trkpt lat="46.08231" lon="6.76006">
        <ele>1440.19</ele>
        <time>2019-02-06T10:29:10Z</time>
      </trkpt>
      <trkpt lat="46.0824" lon="6.75987">
        <ele>1443.56</ele>
        <time>2019-02-06T10:29:29Z</time>
      </trkpt>
      <trkpt lat="46.0825" lon="6.75968">
        <ele>1446.92</ele>
        <time>2019-02-06T10:29:48Z</time>
      </trkpt>
      <trkpt lat="46.08254" lon="6.75962">
        <ele>1447.88</ele>
        <time>2019-02-06T10:29:54Z</time>
      </trkpt>
      <trkpt lat="46.08265" lon="6.75944">
        <ele>1450.77</ele>
        <time>2019-02-06T10:30:14Z</time>
      </trkpt>
      <trkpt lat="46.0827" lon="6.75924">
        <ele>1454.13</ele>
        <time>2019-02-06T10:30:36Z</time>
      </trkpt>
      <trkpt lat="46.08278" lon="6.75904">
        <ele>1457.02</ele>
        <time>2019-02-06T10:30:55Z</time>
      </trkpt>
      <trkpt lat="46.0829" lon="6.75893">
        <ele>1460.38</ele>
        <time>2019-02-06T10:31:13Z</time>
      </trkpt>
      <trkpt lat="46.08305" lon="6.7588">
        <ele>1463.26</ele>
        <time>2019-02-06T10:31:33Z</time>
      </trkpt>
      <trkpt lat="46.08316" lon="6.75863">
        <ele>1466.63</ele>
        <time>2019-02-06T10:31:54Z</time>
      </trkpt>
      <trkpt lat="46.08317" lon="6.75862">
        <ele>1466.63</ele>
        <time>2019-02-06T10:31:55Z</time>
      </trkpt>
      <trkpt lat="46.08317" lon="6.75861">
        <ele>1467.11</ele>
        <time>2019-02-06T10:31:56Z</time>
      </trkpt>
      <trkpt lat="46.08318" lon="6.7586">
        <ele>1467.11</ele>
        <time>2019-02-06T10:31:57Z</time>
      </trkpt>
      <trkpt lat="46.08329" lon="6.75836">
        <ele>1469.99</ele>
        <time>2019-02-06T10:32:20Z</time>
      </trkpt>
      <trkpt lat="46.08337" lon="6.75824">
        <ele>1473.36</ele>
        <time>2019-02-06T10:32:37Z</time>
      </trkpt>
      <trkpt lat="46.08346" lon="6.7581">
        <ele>1476.24</ele>
        <time>2019-02-06T10:32:55Z</time>
      </trkpt>
      <trkpt lat="46.08348" lon="6.75808">
        <ele>1476.72</ele>
        <time>2019-02-06T10:32:57Z</time>
      </trkpt>
      <trkpt lat="46.08351" lon="6.75799">
        <ele>1478.16</ele>
        <time>2019-02-06T10:33:08Z</time>
      </trkpt>
      <trkpt lat="46.08364" lon="6.75781">
        <ele>1481.05</ele>
        <time>2019-02-06T10:33:28Z</time>
      </trkpt>
      <trkpt lat="46.08375" lon="6.75762">
        <ele>1484.41</ele>
        <time>2019-02-06T10:33:51Z</time>
      </trkpt>
      <trkpt lat="46.08387" lon="6.75743">
        <ele>1487.3</ele>
        <time>2019-02-06T10:34:13Z</time>
      </trkpt>
      <trkpt lat="46.08398" lon="6.75727">
        <ele>1490.18</ele>
        <time>2019-02-06T10:34:33Z</time>
      </trkpt>
      <trkpt lat="46.08411" lon="6.75719">
        <ele>1492.58</ele>
        <time>2019-02-06T10:35:02Z</time>
      </trkpt>
      <trkpt lat="46.08412" lon="6.75718">
        <ele>1492.58</ele>
        <time>2019-02-06T10:35:03Z</time>
      </trkpt>
      <trkpt lat="46.08424" lon="6.75713">
        <ele>1495.95</ele>
        <time>2019-02-06T10:35:20Z</time>
      </trkpt>
      <trkpt lat="46.08435" lon="6.75705">
        <ele>1499.31</ele>
        <time>2019-02-06T10:35:38Z</time>
      </trkpt>
      <trkpt lat="46.08445" lon="6.75699">
        <ele>1502.2</ele>
        <time>2019-02-06T10:35:54Z</time>
      </trkpt>
      <trkpt lat="46.08455" lon="6.7569">
        <ele>1505.56</ele>
        <time>2019-02-06T10:36:10Z</time>
      </trkpt>
      <trkpt lat="46.08463" lon="6.7568">
        <ele>1508.45</ele>
        <time>2019-02-06T10:36:26Z</time>
      </trkpt>
      <trkpt lat="46.08473" lon="6.75672">
        <ele>1511.81</ele>
        <time>2019-02-06T10:36:42Z</time>
      </trkpt>
      <trkpt lat="46.08482" lon="6.75664">
        <ele>1515.18</ele>
        <time>2019-02-06T10:36:57Z</time>
      </trkpt>
      <trkpt lat="46.0849" lon="6.75657">
        <ele>1518.06</ele>
        <time>2019-02-06T10:37:14Z</time>
      </trkpt>
      <trkpt lat="46.085" lon="6.75651">
        <ele>1521.42</ele>
        <time>2019-02-06T10:37:30Z</time>
      </trkpt>
      <trkpt lat="46.08508" lon="6.75656">
        <ele>1524.31</ele>
        <time>2019-02-06T10:37:47Z</time>
      </trkpt>
      <trkpt lat="46.08509" lon="6.75669">
        <ele>1527.67</ele>
        <time>2019-02-06T10:38:28Z</time>
      </trkpt>
      <trkpt lat="46.08509" lon="6.75682">
        <ele>1530.56</ele>
        <time>2019-02-06T10:38:42Z</time>
      </trkpt>
      <trkpt lat="46.08508" lon="6.75696">
        <ele>1533.44</ele>
        <time>2019-02-06T10:38:56Z</time>
      </trkpt>
      <trkpt lat="46.08508" lon="6.7571">
        <ele>1536.32</ele>
        <time>2019-02-06T10:39:12Z</time>
      </trkpt>
      <trkpt lat="46.0851" lon="6.75723">
        <ele>1539.69</ele>
        <time>2019-02-06T10:39:26Z</time>
      </trkpt>
      <trkpt lat="46.08511" lon="6.75736">
        <ele>1542.57</ele>
        <time>2019-02-06T10:39:42Z</time>
      </trkpt>
      <trkpt lat="46.08511" lon="6.7575">
        <ele>1545.94</ele>
        <time>2019-02-06T10:39:57Z</time>
      </trkpt>
      <trkpt lat="46.08512" lon="6.75762">
        <ele>1548.82</ele>
        <time>2019-02-06T10:40:12Z</time>
      </trkpt>
      <trkpt lat="46.08511" lon="6.75767">
        <ele>1549.78</ele>
        <time>2019-02-06T10:40:17Z</time>
      </trkpt>
      <trkpt lat="46.0851" lon="6.75776">
        <ele>1551.22</ele>
        <time>2019-02-06T10:40:25Z</time>
      </trkpt>
      <trkpt lat="46.0851" lon="6.75778">
        <ele>1551.22</ele>
        <time>2019-02-06T10:40:27Z</time>
      </trkpt>
      <trkpt lat="46.08509" lon="6.75791">
        <ele>1553.15</ele>
        <time>2019-02-06T10:40:39Z</time>
      </trkpt>
      <trkpt lat="46.08506" lon="6.75818">
        <ele>1556.03</ele>
        <time>2019-02-06T10:41:03Z</time>
      </trkpt>
      <trkpt lat="46.08503" lon="6.75834">
        <ele>1558.43</ele>
        <time>2019-02-06T10:41:17Z</time>
      </trkpt>
      <trkpt lat="46.08502" lon="6.75837">
        <ele>1558.43</ele>
        <time>2019-02-06T10:41:19Z</time>
      </trkpt>
      <trkpt lat="46.085" lon="6.7586">
        <ele>1561.8</ele>
        <time>2019-02-06T10:41:40Z</time>
      </trkpt>
      <trkpt lat="46.08496" lon="6.75882">
        <ele>1564.68</ele>
        <time>2019-02-06T10:42:00Z</time>
      </trkpt>
      <trkpt lat="46.08494" lon="6.75898">
        <ele>1566.61</ele>
        <time>2019-02-06T10:42:13Z</time>
      </trkpt>
      <trkpt lat="46.08494" lon="6.759">
        <ele>1567.09</ele>
        <time>2019-02-06T10:42:15Z</time>
      </trkpt>
      <trkpt lat="46.08494" lon="6.75907">
        <ele>1568.05</ele>
        <time>2019-02-06T10:42:21Z</time>
      </trkpt>
      <trkpt lat="46.08494" lon="6.75909">
        <ele>1568.53</ele>
        <time>2019-02-06T10:42:23Z</time>
      </trkpt>
      <trkpt lat="46.08493" lon="6.75911">
        <ele>1568.53</ele>
        <time>2019-02-06T10:42:24Z</time>
      </trkpt>
      <trkpt lat="46.08491" lon="6.75932">
        <ele>1571.89</ele>
        <time>2019-02-06T10:42:43Z</time>
      </trkpt>
      <trkpt lat="46.08486" lon="6.75954">
        <ele>1574.78</ele>
        <time>2019-02-06T10:43:04Z</time>
      </trkpt>
      <trkpt lat="46.08485" lon="6.75978">
        <ele>1577.18</ele>
        <time>2019-02-06T10:43:22Z</time>
      </trkpt>
      <trkpt lat="46.08485" lon="6.75979">
        <ele>1577.18</ele>
        <time>2019-02-06T10:43:23Z</time>
      </trkpt>
      <trkpt lat="46.08485" lon="6.75982">
        <ele>1577.18</ele>
        <time>2019-02-06T10:43:25Z</time>
      </trkpt>
      <trkpt lat="46.08485" lon="6.75984">
        <ele>1577.66</ele>
        <time>2019-02-06T10:43:27Z</time>
      </trkpt>
      <trkpt lat="46.08484" lon="6.76002">
        <ele>1580.06</ele>
        <time>2019-02-06T10:43:42Z</time>
      </trkpt>
      <trkpt lat="46.08484" lon="6.76005">
        <ele>1580.54</ele>
        <time>2019-02-06T10:43:44Z</time>
      </trkpt>
      <trkpt lat="46.08484" lon="6.76017">
        <ele>1582.47</ele>
        <time>2019-02-06T10:43:55Z</time>
      </trkpt>
      <trkpt lat="46.08484" lon="6.76019">
        <ele>1582.47</ele>
        <time>2019-02-06T10:43:57Z</time>
      </trkpt>
      <trkpt lat="46.08485" lon="6.7604">
        <ele>1584.87</ele>
        <time>2019-02-06T10:44:14Z</time>
      </trkpt>
      <trkpt lat="46.08485" lon="6.76042">
        <ele>1584.87</ele>
        <time>2019-02-06T10:44:15Z</time>
      </trkpt>
      <trkpt lat="46.08485" lon="6.76043">
        <ele>1585.35</ele>
        <time>2019-02-06T10:44:16Z</time>
      </trkpt>
      <trkpt lat="46.08485" lon="6.76044">
        <ele>1585.35</ele>
        <time>2019-02-06T10:44:17Z</time>
      </trkpt>
      <trkpt lat="46.08486" lon="6.76046">
        <ele>1585.35</ele>
        <time>2019-02-06T10:44:18Z</time>
      </trkpt>
      <trkpt lat="46.08483" lon="6.7608">
        <ele>1588.72</ele>
        <time>2019-02-06T10:44:45Z</time>
      </trkpt>
      <trkpt lat="46.0848" lon="6.76092">
        <ele>1590.64</ele>
        <time>2019-02-06T10:44:57Z</time>
      </trkpt>
      <trkpt lat="46.0848" lon="6.76095">
        <ele>1591.12</ele>
        <time>2019-02-06T10:44:59Z</time>
      </trkpt>
      <trkpt lat="46.08475" lon="6.76111">
        <ele>1593.52</ele>
        <time>2019-02-06T10:45:16Z</time>
      </trkpt>
      <trkpt lat="46.08475" lon="6.76112">
        <ele>1594</ele>
        <time>2019-02-06T10:45:17Z</time>
      </trkpt>
      <trkpt lat="46.08475" lon="6.76114">
        <ele>1594</ele>
        <time>2019-02-06T10:45:18Z</time>
      </trkpt>
      <trkpt lat="46.08474" lon="6.76128">
        <ele>1595.93</ele>
        <time>2019-02-06T10:45:31Z</time>
      </trkpt>
      <trkpt lat="46.08475" lon="6.7613">
        <ele>1596.41</ele>
        <time>2019-02-06T10:45:33Z</time>
      </trkpt>
      <trkpt lat="46.08486" lon="6.76157">
        <ele>1599.29</ele>
        <time>2019-02-06T10:45:58Z</time>
      </trkpt>
      <trkpt lat="46.08486" lon="6.76161">
        <ele>1599.77</ele>
        <time>2019-02-06T10:46:01Z</time>
      </trkpt>
      <trkpt lat="46.0848" lon="6.76182">
        <ele>1603.14</ele>
        <time>2019-02-06T10:46:21Z</time>
      </trkpt>
      <trkpt lat="46.08481" lon="6.76185">
        <ele>1603.14</ele>
        <time>2019-02-06T10:46:22Z</time>
      </trkpt>
      <trkpt lat="46.08481" lon="6.76186">
        <ele>1603.14</ele>
        <time>2019-02-06T10:46:23Z</time>
      </trkpt>
      <trkpt lat="46.08481" lon="6.76187">
        <ele>1603.14</ele>
        <time>2019-02-06T10:46:24Z</time>
      </trkpt>
      <trkpt lat="46.08481" lon="6.76189">
        <ele>1603.62</ele>
        <time>2019-02-06T10:46:25Z</time>
      </trkpt>
      <trkpt lat="46.08482" lon="6.7619">
        <ele>1603.62</ele>
        <time>2019-02-06T10:46:26Z</time>
      </trkpt>
      <trkpt lat="46.08482" lon="6.76191">
        <ele>1603.62</ele>
        <time>2019-02-06T10:46:27Z</time>
      </trkpt>
      <trkpt lat="46.08486" lon="6.76197">
        <ele>1605.06</ele>
        <time>2019-02-06T10:46:36Z</time>
      </trkpt>
      <trkpt lat="46.08486" lon="6.76197">
        <ele>1605.06</ele>
        <time>2019-02-06T10:46:37Z</time>
      </trkpt>
      <trkpt lat="46.08488" lon="6.76198">
        <ele>1605.54</ele>
        <time>2019-02-06T10:46:38Z</time>
      </trkpt>
      <trkpt lat="46.08503" lon="6.76212">
        <ele>1608.42</ele>
        <time>2019-02-06T10:46:59Z</time>
      </trkpt>
      <trkpt lat="46.08506" lon="6.76231">
        <ele>1610.83</ele>
        <time>2019-02-06T10:47:15Z</time>
      </trkpt>
      <trkpt lat="46.08506" lon="6.76232">
        <ele>1610.83</ele>
        <time>2019-02-06T10:47:16Z</time>
      </trkpt>
      <trkpt lat="46.08505" lon="6.76234">
        <ele>1610.83</ele>
        <time>2019-02-06T10:47:17Z</time>
      </trkpt>
      <trkpt lat="46.08498" lon="6.76256">
        <ele>1614.19</ele>
        <time>2019-02-06T10:47:39Z</time>
      </trkpt>
      <trkpt lat="46.08499" lon="6.7627">
        <ele>1616.11</ele>
        <time>2019-02-06T10:47:52Z</time>
      </trkpt>
      <trkpt lat="46.08505" lon="6.76279">
        <ele>1618.04</ele>
        <time>2019-02-06T10:48:03Z</time>
      </trkpt>
      <trkpt lat="46.08506" lon="6.76279">
        <ele>1618.04</ele>
        <time>2019-02-06T10:48:04Z</time>
      </trkpt>
      <trkpt lat="46.08519" lon="6.76292">
        <ele>1620.44</ele>
        <time>2019-02-06T10:48:22Z</time>
      </trkpt>
      <trkpt lat="46.08517" lon="6.76315">
        <ele>1622.84</ele>
        <time>2019-02-06T10:48:42Z</time>
      </trkpt>
      <trkpt lat="46.08517" lon="6.76319">
        <ele>1623.8</ele>
        <time>2019-02-06T10:48:45Z</time>
      </trkpt>
      <trkpt lat="46.08516" lon="6.7632">
        <ele>1623.8</ele>
        <time>2019-02-06T10:48:46Z</time>
      </trkpt>
      <trkpt lat="46.08516" lon="6.76322">
        <ele>1623.8</ele>
        <time>2019-02-06T10:48:47Z</time>
      </trkpt>
      <trkpt lat="46.08516" lon="6.76323">
        <ele>1623.8</ele>
        <time>2019-02-06T10:48:48Z</time>
      </trkpt>
      <trkpt lat="46.08515" lon="6.76325">
        <ele>1623.8</ele>
        <time>2019-02-06T10:48:49Z</time>
      </trkpt>
      <trkpt lat="46.08514" lon="6.76333">
        <ele>1624.77</ele>
        <time>2019-02-06T10:48:55Z</time>
      </trkpt>
      <trkpt lat="46.08513" lon="6.76334">
        <ele>1625.25</ele>
        <time>2019-02-06T10:48:56Z</time>
      </trkpt>
      <trkpt lat="46.08512" lon="6.76336">
        <ele>1625.25</ele>
        <time>2019-02-06T10:48:57Z</time>
      </trkpt>
      <trkpt lat="46.08512" lon="6.76341">
        <ele>1625.73</ele>
        <time>2019-02-06T10:49:02Z</time>
      </trkpt>
      <trkpt lat="46.08511" lon="6.76344">
        <ele>1626.21</ele>
        <time>2019-02-06T10:49:04Z</time>
      </trkpt>
      <trkpt lat="46.08511" lon="6.76345">
        <ele>1626.21</ele>
        <time>2019-02-06T10:49:05Z</time>
      </trkpt>
      <trkpt lat="46.08509" lon="6.76358">
        <ele>1627.65</ele>
        <time>2019-02-06T10:49:15Z</time>
      </trkpt>
      <trkpt lat="46.0851" lon="6.76361">
        <ele>1628.13</ele>
        <time>2019-02-06T10:49:17Z</time>
      </trkpt>
      <trkpt lat="46.08509" lon="6.76367">
        <ele>1628.61</ele>
        <time>2019-02-06T10:49:22Z</time>
      </trkpt>
      <trkpt lat="46.08508" lon="6.76374">
        <ele>1629.57</ele>
        <time>2019-02-06T10:49:28Z</time>
      </trkpt>
      <trkpt lat="46.08508" lon="6.7638">
        <ele>1630.53</ele>
        <time>2019-02-06T10:49:33Z</time>
      </trkpt>
      <trkpt lat="46.08508" lon="6.76382">
        <ele>1630.53</ele>
        <time>2019-02-06T10:49:34Z</time>
      </trkpt>
      <trkpt lat="46.08507" lon="6.76402">
        <ele>1633.9</ele>
        <time>2019-02-06T10:49:52Z</time>
      </trkpt>
      <trkpt lat="46.08506" lon="6.76408">
        <ele>1634.38</ele>
        <time>2019-02-06T10:49:56Z</time>
      </trkpt>
      <trkpt lat="46.08506" lon="6.76433">
        <ele>1637.26</ele>
        <time>2019-02-06T10:50:17Z</time>
      </trkpt>
      <trkpt lat="46.08506" lon="6.76455">
        <ele>1640.63</ele>
        <time>2019-02-06T10:50:36Z</time>
      </trkpt>
      <trkpt lat="46.08513" lon="6.76479">
        <ele>1643.51</ele>
        <time>2019-02-06T10:50:58Z</time>
      </trkpt>
      <trkpt lat="46.08515" lon="6.76484">
        <ele>1643.99</ele>
        <time>2019-02-06T10:51:02Z</time>
      </trkpt>
      <trkpt lat="46.08517" lon="6.76489">
        <ele>1644.47</ele>
        <time>2019-02-06T10:51:06Z</time>
      </trkpt>
      <trkpt lat="46.08517" lon="6.7649">
        <ele>1644.47</ele>
        <time>2019-02-06T10:51:07Z</time>
      </trkpt>
      <trkpt lat="46.08517" lon="6.76511">
        <ele>1646.88</ele>
        <time>2019-02-06T10:51:24Z</time>
      </trkpt>
      <trkpt lat="46.08514" lon="6.76519">
        <ele>1647.36</ele>
        <time>2019-02-06T10:51:31Z</time>
      </trkpt>
      <trkpt lat="46.08514" lon="6.76521">
        <ele>1648.32</ele>
        <time>2019-02-06T10:51:33Z</time>
      </trkpt>
      <trkpt lat="46.08514" lon="6.76542">
        <ele>1650.72</ele>
        <time>2019-02-06T10:51:50Z</time>
      </trkpt>
      <trkpt lat="46.08514" lon="6.76545">
        <ele>1651.2</ele>
        <time>2019-02-06T10:51:52Z</time>
      </trkpt>
      <trkpt lat="46.08514" lon="6.76547">
        <ele>1651.2</ele>
        <time>2019-02-06T10:51:53Z</time>
      </trkpt>
      <trkpt lat="46.08514" lon="6.76548">
        <ele>1651.2</ele>
        <time>2019-02-06T10:51:54Z</time>
      </trkpt>
      <trkpt lat="46.08515" lon="6.76549">
        <ele>1651.2</ele>
        <time>2019-02-06T10:51:55Z</time>
      </trkpt>
      <trkpt lat="46.08515" lon="6.76551">
        <ele>1651.2</ele>
        <time>2019-02-06T10:51:56Z</time>
      </trkpt>
      <trkpt lat="46.08513" lon="6.76555">
        <ele>1651.68</ele>
        <time>2019-02-06T10:52:00Z</time>
      </trkpt>
      <trkpt lat="46.08512" lon="6.76556">
        <ele>1651.68</ele>
        <time>2019-02-06T10:52:01Z</time>
      </trkpt>
      <trkpt lat="46.08512" lon="6.76557">
        <ele>1652.16</ele>
        <time>2019-02-06T10:52:02Z</time>
      </trkpt>
      <trkpt lat="46.08511" lon="6.76558">
        <ele>1652.16</ele>
        <time>2019-02-06T10:52:03Z</time>
      </trkpt>
      <trkpt lat="46.0851" lon="6.76559">
        <ele>1652.16</ele>
        <time>2019-02-06T10:52:04Z</time>
      </trkpt>
      <trkpt lat="46.08509" lon="6.76561">
        <ele>1652.64</ele>
        <time>2019-02-06T10:52:05Z</time>
      </trkpt>
      <trkpt lat="46.08504" lon="6.76584">
        <ele>1655.53</ele>
        <time>2019-02-06T10:52:26Z</time>
      </trkpt>
      <trkpt lat="46.08504" lon="6.76585">
        <ele>1655.53</ele>
        <time>2019-02-06T10:52:27Z</time>
      </trkpt>
      <trkpt lat="46.08505" lon="6.76588">
        <ele>1656.01</ele>
        <time>2019-02-06T10:52:29Z</time>
      </trkpt>
      <trkpt lat="46.08505" lon="6.76589">
        <ele>1656.01</ele>
        <time>2019-02-06T10:52:30Z</time>
      </trkpt>
      <trkpt lat="46.08505" lon="6.7659">
        <ele>1656.01</ele>
        <time>2019-02-06T10:52:31Z</time>
      </trkpt>
      <trkpt lat="46.08505" lon="6.76592">
        <ele>1656.01</ele>
        <time>2019-02-06T10:52:32Z</time>
      </trkpt>
      <trkpt lat="46.08505" lon="6.76593">
        <ele>1656.01</ele>
        <time>2019-02-06T10:52:33Z</time>
      </trkpt>
      <trkpt lat="46.08506" lon="6.76607">
        <ele>1657.45</ele>
        <time>2019-02-06T10:52:44Z</time>
      </trkpt>
      <trkpt lat="46.08506" lon="6.7661">
        <ele>1657.45</ele>
        <time>2019-02-06T10:52:46Z</time>
      </trkpt>
      <trkpt lat="46.08506" lon="6.76611">
        <ele>1657.93</ele>
        <time>2019-02-06T10:52:47Z</time>
      </trkpt>
      <trkpt lat="46.08506" lon="6.76612">
        <ele>1657.93</ele>
        <time>2019-02-06T10:52:48Z</time>
      </trkpt>
      <trkpt lat="46.08505" lon="6.76615">
        <ele>1657.93</ele>
        <time>2019-02-06T10:52:51Z</time>
      </trkpt>
      <trkpt lat="46.08505" lon="6.76617">
        <ele>1658.41</ele>
        <time>2019-02-06T10:52:52Z</time>
      </trkpt>
      <trkpt lat="46.08505" lon="6.76618">
        <ele>1658.41</ele>
        <time>2019-02-06T10:52:53Z</time>
      </trkpt>
      <trkpt lat="46.08504" lon="6.76619">
        <ele>1658.41</ele>
        <time>2019-02-06T10:52:54Z</time>
      </trkpt>
      <trkpt lat="46.08504" lon="6.7662">
        <ele>1658.41</ele>
        <time>2019-02-06T10:52:55Z</time>
      </trkpt>
      <trkpt lat="46.08504" lon="6.76622">
        <ele>1658.41</ele>
        <time>2019-02-06T10:52:56Z</time>
      </trkpt>
      <trkpt lat="46.08504" lon="6.76623">
        <ele>1658.41</ele>
        <time>2019-02-06T10:52:57Z</time>
      </trkpt>
      <trkpt lat="46.08504" lon="6.76624">
        <ele>1658.89</ele>
        <time>2019-02-06T10:52:58Z</time>
      </trkpt>
      <trkpt lat="46.08504" lon="6.76626">
        <ele>1658.89</ele>
        <time>2019-02-06T10:52:59Z</time>
      </trkpt>
      <trkpt lat="46.08504" lon="6.76627">
        <ele>1658.89</ele>
        <time>2019-02-06T10:53:00Z</time>
      </trkpt>
      <trkpt lat="46.08506" lon="6.76631">
        <ele>1658.89</ele>
        <time>2019-02-06T10:53:04Z</time>
      </trkpt>
      <trkpt lat="46.08512" lon="6.76637">
        <ele>1660.81</ele>
        <time>2019-02-06T10:53:13Z</time>
      </trkpt>
      <trkpt lat="46.08522" lon="6.76635">
        <ele>1662.74</ele>
        <time>2019-02-06T10:53:25Z</time>
      </trkpt>
      <trkpt lat="46.08523" lon="6.76635">
        <ele>1662.74</ele>
        <time>2019-02-06T10:53:26Z</time>
      </trkpt>
      <trkpt lat="46.08524" lon="6.76635">
        <ele>1663.22</ele>
        <time>2019-02-06T10:53:27Z</time>
      </trkpt>
      <trkpt lat="46.08525" lon="6.76636">
        <ele>1663.22</ele>
        <time>2019-02-06T10:53:28Z</time>
      </trkpt>
      <trkpt lat="46.08526" lon="6.76636">
        <ele>1663.7</ele>
        <time>2019-02-06T10:53:29Z</time>
      </trkpt>
      <trkpt lat="46.08527" lon="6.76636">
        <ele>1663.7</ele>
        <time>2019-02-06T10:53:30Z</time>
      </trkpt>
      <trkpt lat="46.08534" lon="6.76641">
        <ele>1664.66</ele>
        <time>2019-02-06T10:54:24Z</time>
      </trkpt>
      <trkpt lat="46.08529" lon="6.7664">
        <ele>1665.14</ele>
        <time>2019-02-06T10:56:27Z</time>
      </trkpt>
      <trkpt lat="46.08538" lon="6.76641">
        <ele>1665.62</ele>
        <time>2019-02-06T10:58:40Z</time>
      </trkpt>
      <trkpt lat="46.08539" lon="6.76642">
        <ele>1665.62</ele>
        <time>2019-02-06T10:58:41Z</time>
      </trkpt>
      <trkpt lat="46.08552" lon="6.76653">
        <ele>1665.14</ele>
        <time>2019-02-06T10:58:58Z</time>
      </trkpt>
      <trkpt lat="46.08552" lon="6.76654">
        <ele>1665.14</ele>
        <time>2019-02-06T10:58:59Z</time>
      </trkpt>
      <trkpt lat="46.08553" lon="6.76656">
        <ele>1665.14</ele>
        <time>2019-02-06T10:59:00Z</time>
      </trkpt>
      <trkpt lat="46.08553" lon="6.76657">
        <ele>1665.62</ele>
        <time>2019-02-06T10:59:01Z</time>
      </trkpt>
      <trkpt lat="46.08554" lon="6.76659">
        <ele>1665.62</ele>
        <time>2019-02-06T10:59:03Z</time>
      </trkpt>
      <trkpt lat="46.08555" lon="6.76661">
        <ele>1666.1</ele>
        <time>2019-02-06T10:59:05Z</time>
      </trkpt>
      <trkpt lat="46.08556" lon="6.76662">
        <ele>1666.58</ele>
        <time>2019-02-06T10:59:06Z</time>
      </trkpt>
      <trkpt lat="46.08563" lon="6.76672">
        <ele>1668.02</ele>
        <time>2019-02-06T10:59:16Z</time>
      </trkpt>
      <trkpt lat="46.08563" lon="6.76674">
        <ele>1668.02</ele>
        <time>2019-02-06T10:59:17Z</time>
      </trkpt>
      <trkpt lat="46.08563" lon="6.76675">
        <ele>1668.02</ele>
        <time>2019-02-06T10:59:18Z</time>
      </trkpt>
      <trkpt lat="46.08564" lon="6.76678">
        <ele>1668.02</ele>
        <time>2019-02-06T10:59:21Z</time>
      </trkpt>
      <trkpt lat="46.08565" lon="6.76691">
        <ele>1670.43</ele>
        <time>2019-02-06T10:59:33Z</time>
      </trkpt>
      <trkpt lat="46.08564" lon="6.76695">
        <ele>1671.39</ele>
        <time>2019-02-06T10:59:37Z</time>
      </trkpt>
      <trkpt lat="46.08565" lon="6.76701">
        <ele>1672.83</ele>
        <time>2019-02-06T10:59:43Z</time>
      </trkpt>
      <trkpt lat="46.08568" lon="6.76724">
        <ele>1675.72</ele>
        <time>2019-02-06T11:00:05Z</time>
      </trkpt>
      <trkpt lat="46.08569" lon="6.76728">
        <ele>1676.2</ele>
        <time>2019-02-06T11:00:09Z</time>
      </trkpt>
      <trkpt lat="46.08569" lon="6.7673">
        <ele>1676.68</ele>
        <time>2019-02-06T11:00:11Z</time>
      </trkpt>
      <trkpt lat="46.08565" lon="6.76755">
        <ele>1679.56</ele>
        <time>2019-02-06T11:00:31Z</time>
      </trkpt>
      <trkpt lat="46.08565" lon="6.76757">
        <ele>1680.04</ele>
        <time>2019-02-06T11:00:34Z</time>
      </trkpt>
      <trkpt lat="46.08563" lon="6.76777">
        <ele>1682.93</ele>
        <time>2019-02-06T11:00:53Z</time>
      </trkpt>
      <trkpt lat="46.08565" lon="6.7678">
        <ele>1683.89</ele>
        <time>2019-02-06T11:00:56Z</time>
      </trkpt>
      <trkpt lat="46.08573" lon="6.76778">
        <ele>1686.77</ele>
        <time>2019-02-06T11:01:12Z</time>
      </trkpt>
      <trkpt lat="46.08584" lon="6.76773">
        <ele>1690.14</ele>
        <time>2019-02-06T11:01:30Z</time>
      </trkpt>
      <trkpt lat="46.08588" lon="6.76772">
        <ele>1691.1</ele>
        <time>2019-02-06T11:01:35Z</time>
      </trkpt>
      <trkpt lat="46.08597" lon="6.76777">
        <ele>1693.98</ele>
        <time>2019-02-06T11:01:53Z</time>
      </trkpt>
      <trkpt lat="46.08596" lon="6.76779">
        <ele>1693.98</ele>
        <time>2019-02-06T11:01:54Z</time>
      </trkpt>
      <trkpt lat="46.08597" lon="6.7678">
        <ele>1694.46</ele>
        <time>2019-02-06T11:01:55Z</time>
      </trkpt>
      <trkpt lat="46.08597" lon="6.76782">
        <ele>1694.46</ele>
        <time>2019-02-06T11:01:56Z</time>
      </trkpt>
      <trkpt lat="46.08597" lon="6.76783">
        <ele>1694.94</ele>
        <time>2019-02-06T11:01:57Z</time>
      </trkpt>
      <trkpt lat="46.08597" lon="6.76784">
        <ele>1695.42</ele>
        <time>2019-02-06T11:01:58Z</time>
      </trkpt>
      <trkpt lat="46.08605" lon="6.76786">
        <ele>1698.31</ele>
        <time>2019-02-06T11:02:13Z</time>
      </trkpt>
      <trkpt lat="46.0861" lon="6.76789">
        <ele>1701.19</ele>
        <time>2019-02-06T11:02:31Z</time>
      </trkpt>
      <trkpt lat="46.08615" lon="6.76793">
        <ele>1704.55</ele>
        <time>2019-02-06T11:02:52Z</time>
      </trkpt>
      <trkpt lat="46.08619" lon="6.76792">
        <ele>1707.44</ele>
        <time>2019-02-06T11:03:08Z</time>
      </trkpt>
      <trkpt lat="46.0862" lon="6.768">
        <ele>1710.8</ele>
        <time>2019-02-06T11:03:25Z</time>
      </trkpt>
      <trkpt lat="46.08627" lon="6.76795">
        <ele>1713.69</ele>
        <time>2019-02-06T11:03:45Z</time>
      </trkpt>
      <trkpt lat="46.08628" lon="6.76805">
        <ele>1716.57</ele>
        <time>2019-02-06T11:03:59Z</time>
      </trkpt>
      <trkpt lat="46.08637" lon="6.76798">
        <ele>1719.94</ele>
        <time>2019-02-06T11:04:17Z</time>
      </trkpt>
      <trkpt lat="46.08645" lon="6.76797">
        <ele>1722.82</ele>
        <time>2019-02-06T11:04:36Z</time>
      </trkpt>
      <trkpt lat="46.08648" lon="6.76812">
        <ele>1726.18</ele>
        <time>2019-02-06T11:04:53Z</time>
      </trkpt>
      <trkpt lat="46.08653" lon="6.768">
        <ele>1728.59</ele>
        <time>2019-02-06T11:05:09Z</time>
      </trkpt>
      <trkpt lat="46.08657" lon="6.76811">
        <ele>1731.95</ele>
        <time>2019-02-06T11:05:28Z</time>
      </trkpt>
      <trkpt lat="46.0866" lon="6.76821">
        <ele>1734.84</ele>
        <time>2019-02-06T11:05:45Z</time>
      </trkpt>
      <trkpt lat="46.08668" lon="6.76812">
        <ele>1738.2</ele>
        <time>2019-02-06T11:06:04Z</time>
      </trkpt>
      <trkpt lat="46.08672" lon="6.76824">
        <ele>1741.08</ele>
        <time>2019-02-06T11:06:25Z</time>
      </trkpt>
      <trkpt lat="46.0867" lon="6.76842">
        <ele>1743.49</ele>
        <time>2019-02-06T11:06:39Z</time>
      </trkpt>
      <trkpt lat="46.0867" lon="6.76843">
        <ele>1743.49</ele>
        <time>2019-02-06T11:06:40Z</time>
      </trkpt>
      <trkpt lat="46.08668" lon="6.76859">
        <ele>1746.37</ele>
        <time>2019-02-06T11:06:54Z</time>
      </trkpt>
      <trkpt lat="46.08673" lon="6.76862">
        <ele>1749.26</ele>
        <time>2019-02-06T11:07:09Z</time>
      </trkpt>
      <trkpt lat="46.08685" lon="6.7686">
        <ele>1752.62</ele>
        <time>2019-02-06T11:07:27Z</time>
      </trkpt>
      <trkpt lat="46.08685" lon="6.76864">
        <ele>1752.62</ele>
        <time>2019-02-06T11:07:31Z</time>
      </trkpt>
      <trkpt lat="46.0868" lon="6.7689">
        <ele>1755.99</ele>
        <time>2019-02-06T11:07:56Z</time>
      </trkpt>
      <trkpt lat="46.08679" lon="6.76907">
        <ele>1758.87</ele>
        <time>2019-02-06T11:08:12Z</time>
      </trkpt>
      <trkpt lat="46.08677" lon="6.76931">
        <ele>1762.23</ele>
        <time>2019-02-06T11:08:36Z</time>
      </trkpt>
      <trkpt lat="46.08674" lon="6.76951">
        <ele>1765.12</ele>
        <time>2019-02-06T11:08:54Z</time>
      </trkpt>
      <trkpt lat="46.08671" lon="6.76962">
        <ele>1768</ele>
        <time>2019-02-06T11:09:08Z</time>
      </trkpt>
      <trkpt lat="46.08667" lon="6.76967">
        <ele>1769.44</ele>
        <time>2019-02-06T11:09:17Z</time>
      </trkpt>
      <trkpt lat="46.08663" lon="6.76975">
        <ele>1771.37</ele>
        <time>2019-02-06T11:09:27Z</time>
      </trkpt>
      <trkpt lat="46.08662" lon="6.76984">
        <ele>1773.29</ele>
        <time>2019-02-06T11:09:37Z</time>
      </trkpt>
      <trkpt lat="46.08662" lon="6.76986">
        <ele>1773.77</ele>
        <time>2019-02-06T11:09:39Z</time>
      </trkpt>
      <trkpt lat="46.08663" lon="6.7699">
        <ele>1774.25</ele>
        <time>2019-02-06T11:09:42Z</time>
      </trkpt>
      <trkpt lat="46.08663" lon="6.76996">
        <ele>1775.21</ele>
        <time>2019-02-06T11:09:48Z</time>
      </trkpt>
      <trkpt lat="46.08664" lon="6.76997">
        <ele>1775.21</ele>
        <time>2019-02-06T11:09:49Z</time>
      </trkpt>
      <trkpt lat="46.08662" lon="6.77007">
        <ele>1776.65</ele>
        <time>2019-02-06T11:09:59Z</time>
      </trkpt>
      <trkpt lat="46.08657" lon="6.77026">
        <ele>1778.58</ele>
        <time>2019-02-06T11:10:18Z</time>
      </trkpt>
      <trkpt lat="46.08656" lon="6.77028">
        <ele>1779.06</ele>
        <time>2019-02-06T11:10:19Z</time>
      </trkpt>
      <trkpt lat="46.08656" lon="6.77029">
        <ele>1779.06</ele>
        <time>2019-02-06T11:10:20Z</time>
      </trkpt>
      <trkpt lat="46.08655" lon="6.77031">
        <ele>1779.06</ele>
        <time>2019-02-06T11:10:21Z</time>
      </trkpt>
      <trkpt lat="46.08655" lon="6.77032">
        <ele>1779.06</ele>
        <time>2019-02-06T11:10:22Z</time>
      </trkpt>
      <trkpt lat="46.08653" lon="6.77038">
        <ele>1780.02</ele>
        <time>2019-02-06T11:10:27Z</time>
      </trkpt>
      <trkpt lat="46.08651" lon="6.77039">
        <ele>1780.02</ele>
        <time>2019-02-06T11:10:29Z</time>
      </trkpt>
      <trkpt lat="46.0865" lon="6.7704">
        <ele>1780.02</ele>
        <time>2019-02-06T11:10:30Z</time>
      </trkpt>
      <trkpt lat="46.08648" lon="6.77041">
        <ele>1780.5</ele>
        <time>2019-02-06T11:10:32Z</time>
      </trkpt>
      <trkpt lat="46.08645" lon="6.77047">
        <ele>1781.94</ele>
        <time>2019-02-06T11:10:40Z</time>
      </trkpt>
      <trkpt lat="46.08645" lon="6.77048">
        <ele>1781.94</ele>
        <time>2019-02-06T11:10:41Z</time>
      </trkpt>
      <trkpt lat="46.08642" lon="6.77056">
        <ele>1783.38</ele>
        <time>2019-02-06T11:10:50Z</time>
      </trkpt>
      <trkpt lat="46.08642" lon="6.77068">
        <ele>1786.27</ele>
        <time>2019-02-06T11:11:06Z</time>
      </trkpt>
      <trkpt lat="46.08653" lon="6.77065">
        <ele>1789.63</ele>
        <time>2019-02-06T11:11:23Z</time>
      </trkpt>
      <trkpt lat="46.08656" lon="6.77083">
        <ele>1792.52</ele>
        <time>2019-02-06T11:11:47Z</time>
      </trkpt>
      <trkpt lat="46.08664" lon="6.77075">
        <ele>1795.4</ele>
        <time>2019-02-06T11:12:02Z</time>
      </trkpt>
      <trkpt lat="46.08666" lon="6.77084">
        <ele>1796.84</ele>
        <time>2019-02-06T11:12:15Z</time>
      </trkpt>
      <trkpt lat="46.0867" lon="6.77088">
        <ele>1799.73</ele>
        <time>2019-02-06T11:12:32Z</time>
      </trkpt>
      <trkpt lat="46.08682" lon="6.77083">
        <ele>1802.61</ele>
        <time>2019-02-06T11:12:50Z</time>
      </trkpt>
      <trkpt lat="46.08682" lon="6.77102">
        <ele>1805.97</ele>
        <time>2019-02-06T11:13:10Z</time>
      </trkpt>
      <trkpt lat="46.08682" lon="6.77108">
        <ele>1806.94</ele>
        <time>2019-02-06T11:13:16Z</time>
      </trkpt>
      <trkpt lat="46.08687" lon="6.77113">
        <ele>1810.3</ele>
        <time>2019-02-06T11:13:35Z</time>
      </trkpt>
      <trkpt lat="46.08689" lon="6.77111">
        <ele>1810.78</ele>
        <time>2019-02-06T11:13:37Z</time>
      </trkpt>
      <trkpt lat="46.08698" lon="6.77102">
        <ele>1813.66</ele>
        <time>2019-02-06T11:13:55Z</time>
      </trkpt>
      <trkpt lat="46.08699" lon="6.77106">
        <ele>1814.15</ele>
        <time>2019-02-06T11:14:01Z</time>
      </trkpt>
      <trkpt lat="46.08699" lon="6.77108">
        <ele>1814.63</ele>
        <time>2019-02-06T11:14:03Z</time>
      </trkpt>
      <trkpt lat="46.08702" lon="6.77127">
        <ele>1817.51</ele>
        <time>2019-02-06T11:14:22Z</time>
      </trkpt>
      <trkpt lat="46.08704" lon="6.77146">
        <ele>1820.39</ele>
        <time>2019-02-06T11:14:41Z</time>
      </trkpt>
      <trkpt lat="46.08703" lon="6.77154">
        <ele>1821.84</ele>
        <time>2019-02-06T11:14:50Z</time>
      </trkpt>
      <trkpt lat="46.08702" lon="6.77156">
        <ele>1821.84</ele>
        <time>2019-02-06T11:14:52Z</time>
      </trkpt>
      <trkpt lat="46.08699" lon="6.77174">
        <ele>1825.2</ele>
        <time>2019-02-06T11:15:10Z</time>
      </trkpt>
      <trkpt lat="46.08701" lon="6.77184">
        <ele>1827.12</ele>
        <time>2019-02-06T11:15:20Z</time>
      </trkpt>
      <trkpt lat="46.08709" lon="6.77176">
        <ele>1830.49</ele>
        <time>2019-02-06T11:15:38Z</time>
      </trkpt>
      <trkpt lat="46.08709" lon="6.77183">
        <ele>1831.45</ele>
        <time>2019-02-06T11:15:48Z</time>
      </trkpt>
      <trkpt lat="46.08709" lon="6.77184">
        <ele>1831.45</ele>
        <time>2019-02-06T11:15:49Z</time>
      </trkpt>
      <trkpt lat="46.08714" lon="6.77209">
        <ele>1834.81</ele>
        <time>2019-02-06T11:16:12Z</time>
      </trkpt>
      <trkpt lat="46.08718" lon="6.77223">
        <ele>1836.26</ele>
        <time>2019-02-06T11:16:24Z</time>
      </trkpt>
      <trkpt lat="46.08718" lon="6.77226">
        <ele>1836.74</ele>
        <time>2019-02-06T11:16:27Z</time>
      </trkpt>
      <trkpt lat="46.08721" lon="6.77248">
        <ele>1839.62</ele>
        <time>2019-02-06T11:16:48Z</time>
      </trkpt>
      <trkpt lat="46.08721" lon="6.77249">
        <ele>1839.62</ele>
        <time>2019-02-06T11:16:49Z</time>
      </trkpt>
      <trkpt lat="46.0872" lon="6.77272">
        <ele>1842.98</ele>
        <time>2019-02-06T11:17:10Z</time>
      </trkpt>
      <trkpt lat="46.08717" lon="6.77286">
        <ele>1845.87</ele>
        <time>2019-02-06T11:17:27Z</time>
      </trkpt>
      <trkpt lat="46.08727" lon="6.77276">
        <ele>1849.23</ele>
        <time>2019-02-06T11:17:47Z</time>
      </trkpt>
      <trkpt lat="46.0873" lon="6.77276">
        <ele>1850.19</ele>
        <time>2019-02-06T11:17:54Z</time>
      </trkpt>
      <trkpt lat="46.08729" lon="6.7728">
        <ele>1850.19</ele>
        <time>2019-02-06T11:17:58Z</time>
      </trkpt>
      <trkpt lat="46.08728" lon="6.77285">
        <ele>1851.16</ele>
        <time>2019-02-06T11:18:02Z</time>
      </trkpt>
      <trkpt lat="46.08729" lon="6.7729">
        <ele>1851.64</ele>
        <time>2019-02-06T11:18:06Z</time>
      </trkpt>
      <trkpt lat="46.08729" lon="6.77292">
        <ele>1851.64</ele>
        <time>2019-02-06T11:18:08Z</time>
      </trkpt>
      <trkpt lat="46.0873" lon="6.77299">
        <ele>1854.04</ele>
        <time>2019-02-06T11:18:21Z</time>
      </trkpt>
      <trkpt lat="46.08727" lon="6.77302">
        <ele>1854.52</ele>
        <time>2019-02-06T11:18:25Z</time>
      </trkpt>
      <trkpt lat="46.08727" lon="6.77303">
        <ele>1855</ele>
        <time>2019-02-06T11:18:26Z</time>
      </trkpt>
      <trkpt lat="46.08726" lon="6.77304">
        <ele>1855</ele>
        <time>2019-02-06T11:18:27Z</time>
      </trkpt>
      <trkpt lat="46.08725" lon="6.77304">
        <ele>1855</ele>
        <time>2019-02-06T11:18:28Z</time>
      </trkpt>
      <trkpt lat="46.08714" lon="6.77318">
        <ele>1858.37</ele>
        <time>2019-02-06T11:18:53Z</time>
      </trkpt>
      <trkpt lat="46.0871" lon="6.77329">
        <ele>1860.77</ele>
        <time>2019-02-06T11:19:05Z</time>
      </trkpt>
      <trkpt lat="46.08708" lon="6.77338">
        <ele>1861.73</ele>
        <time>2019-02-06T11:19:14Z</time>
      </trkpt>
      <trkpt lat="46.08709" lon="6.77339">
        <ele>1862.21</ele>
        <time>2019-02-06T11:19:15Z</time>
      </trkpt>
      <trkpt lat="46.08707" lon="6.77353">
        <ele>1864.61</ele>
        <time>2019-02-06T11:19:30Z</time>
      </trkpt>
      <trkpt lat="46.08707" lon="6.77354">
        <ele>1864.61</ele>
        <time>2019-02-06T11:19:31Z</time>
      </trkpt>
      <trkpt lat="46.08706" lon="6.7737">
        <ele>1867.02</ele>
        <time>2019-02-06T11:19:45Z</time>
      </trkpt>
      <trkpt lat="46.08705" lon="6.77371">
        <ele>1867.02</ele>
        <time>2019-02-06T11:19:46Z</time>
      </trkpt>
      <trkpt lat="46.08708" lon="6.77375">
        <ele>1869.42</ele>
        <time>2019-02-06T11:19:59Z</time>
      </trkpt>
      <trkpt lat="46.08709" lon="6.77374">
        <ele>1869.42</ele>
        <time>2019-02-06T11:20:00Z</time>
      </trkpt>
      <trkpt lat="46.0871" lon="6.77372">
        <ele>1869.42</ele>
        <time>2019-02-06T11:20:01Z</time>
      </trkpt>
      <trkpt lat="46.08725" lon="6.7736">
        <ele>1870.38</ele>
        <time>2019-02-06T11:20:32Z</time>
      </trkpt>
      <trkpt lat="46.08726" lon="6.7736">
        <ele>1870.38</ele>
        <time>2019-02-06T11:20:33Z</time>
      </trkpt>
      <trkpt lat="46.08727" lon="6.77361">
        <ele>1870.38</ele>
        <time>2019-02-06T11:20:34Z</time>
      </trkpt>
      <trkpt lat="46.08733" lon="6.77365">
        <ele>1871.82</ele>
        <time>2019-02-06T11:20:44Z</time>
      </trkpt>
      <trkpt lat="46.08742" lon="6.77397">
        <ele>1875.19</ele>
        <time>2019-02-06T11:21:13Z</time>
      </trkpt>
      <trkpt lat="46.08745" lon="6.77395">
        <ele>1877.11</ele>
        <time>2019-02-06T11:21:23Z</time>
      </trkpt>
      <trkpt lat="46.08754" lon="6.77378">
        <ele>1879.51</ele>
        <time>2019-02-06T11:21:42Z</time>
      </trkpt>
      <trkpt lat="46.08755" lon="6.77377">
        <ele>1879.51</ele>
        <time>2019-02-06T11:21:43Z</time>
      </trkpt>
      <trkpt lat="46.08769" lon="6.77348">
        <ele>1881.92</ele>
        <time>2019-02-06T11:22:12Z</time>
      </trkpt>
      <trkpt lat="46.08783" lon="6.77335">
        <ele>1884.8</ele>
        <time>2019-02-06T11:22:33Z</time>
      </trkpt>
      <trkpt lat="46.08796" lon="6.77324">
        <ele>1888.17</ele>
        <time>2019-02-06T11:22:54Z</time>
      </trkpt>
      <trkpt lat="46.088" lon="6.77326">
        <ele>1889.61</ele>
        <time>2019-02-06T11:23:03Z</time>
      </trkpt>
      <trkpt lat="46.088" lon="6.77328">
        <ele>1889.61</ele>
        <time>2019-02-06T11:23:04Z</time>
      </trkpt>
      <trkpt lat="46.08797" lon="6.77343">
        <ele>1892.97</ele>
        <time>2019-02-06T11:23:22Z</time>
      </trkpt>
      <trkpt lat="46.08795" lon="6.77357">
        <ele>1895.86</ele>
        <time>2019-02-06T11:23:39Z</time>
      </trkpt>
      <trkpt lat="46.08795" lon="6.7737">
        <ele>1899.22</ele>
        <time>2019-02-06T11:23:55Z</time>
      </trkpt>
      <trkpt lat="46.08799" lon="6.77381">
        <ele>1902.11</ele>
        <time>2019-02-06T11:24:09Z</time>
      </trkpt>
      <trkpt lat="46.08802" lon="6.77386">
        <ele>1903.07</ele>
        <time>2019-02-06T11:24:15Z</time>
      </trkpt>
      <trkpt lat="46.08806" lon="6.77405">
        <ele>1906.43</ele>
        <time>2019-02-06T11:24:36Z</time>
      </trkpt>
      <trkpt lat="46.08805" lon="6.77423">
        <ele>1909.32</ele>
        <time>2019-02-06T11:24:56Z</time>
      </trkpt>
      <trkpt lat="46.08805" lon="6.77438">
        <ele>1912.2</ele>
        <time>2019-02-06T11:25:14Z</time>
      </trkpt>
      <trkpt lat="46.08805" lon="6.77455">
        <ele>1915.56</ele>
        <time>2019-02-06T11:25:33Z</time>
      </trkpt>
      <trkpt lat="46.08806" lon="6.77471">
        <ele>1918.93</ele>
        <time>2019-02-06T11:25:50Z</time>
      </trkpt>
      <trkpt lat="46.08811" lon="6.77465">
        <ele>1921.81</ele>
        <time>2019-02-06T11:26:05Z</time>
      </trkpt>
      <trkpt lat="46.08822" lon="6.7746">
        <ele>1924.7</ele>
        <time>2019-02-06T11:26:22Z</time>
      </trkpt>
      <trkpt lat="46.08831" lon="6.77463">
        <ele>1928.06</ele>
        <time>2019-02-06T11:26:40Z</time>
      </trkpt>
      <trkpt lat="46.08832" lon="6.77483">
        <ele>1930.95</ele>
        <time>2019-02-06T11:27:01Z</time>
      </trkpt>
      <trkpt lat="46.08833" lon="6.77499">
        <ele>1934.31</ele>
        <time>2019-02-06T11:27:22Z</time>
      </trkpt>
      <trkpt lat="46.08832" lon="6.77504">
        <ele>1935.27</ele>
        <time>2019-02-06T11:27:27Z</time>
      </trkpt>
      <trkpt lat="46.08823" lon="6.77529">
        <ele>1937.19</ele>
        <time>2019-02-06T11:27:50Z</time>
      </trkpt>
      <trkpt lat="46.0882" lon="6.77536">
        <ele>1937.19</ele>
        <time>2019-02-06T11:27:56Z</time>
      </trkpt>
      <trkpt lat="46.08819" lon="6.77542">
        <ele>1937.19</ele>
        <time>2019-02-06T11:28:01Z</time>
      </trkpt>
      <trkpt lat="46.08824" lon="6.77548">
        <ele>1938.16</ele>
        <time>2019-02-06T11:28:09Z</time>
      </trkpt>
      <trkpt lat="46.08821" lon="6.77551">
        <ele>1938.64</ele>
        <time>2019-02-06T11:28:15Z</time>
      </trkpt>
      <trkpt lat="46.08822" lon="6.77559">
        <ele>1942</ele>
        <time>2019-02-06T11:28:34Z</time>
      </trkpt>
      <trkpt lat="46.08826" lon="6.77564">
        <ele>1944.88</ele>
        <time>2019-02-06T11:28:47Z</time>
      </trkpt>
      <trkpt lat="46.08822" lon="6.77571">
        <ele>1945.36</ele>
        <time>2019-02-06T11:28:56Z</time>
      </trkpt>
      <trkpt lat="46.08813" lon="6.77582">
        <ele>1948.73</ele>
        <time>2019-02-06T11:29:15Z</time>
      </trkpt>
      <trkpt lat="46.08822" lon="6.77585">
        <ele>1952.09</ele>
        <time>2019-02-06T11:29:37Z</time>
      </trkpt>
      <trkpt lat="46.08833" lon="6.77585">
        <ele>1954.98</ele>
        <time>2019-02-06T11:29:53Z</time>
      </trkpt>
      <trkpt lat="46.0883" lon="6.77596">
        <ele>1956.42</ele>
        <time>2019-02-06T11:30:06Z</time>
      </trkpt>
      <trkpt lat="46.08829" lon="6.77598">
        <ele>1956.9</ele>
        <time>2019-02-06T11:30:08Z</time>
      </trkpt>
      <trkpt lat="46.08824" lon="6.77607">
        <ele>1957.86</ele>
        <time>2019-02-06T11:30:17Z</time>
      </trkpt>
      <trkpt lat="46.08823" lon="6.77608">
        <ele>1958.34</ele>
        <time>2019-02-06T11:30:18Z</time>
      </trkpt>
      <trkpt lat="46.08825" lon="6.77619">
        <ele>1961.23</ele>
        <time>2019-02-06T11:30:38Z</time>
      </trkpt>
      <trkpt lat="46.08827" lon="6.77617">
        <ele>1961.71</ele>
        <time>2019-02-06T11:30:40Z</time>
      </trkpt>
      <trkpt lat="46.08834" lon="6.77614">
        <ele>1963.63</ele>
        <time>2019-02-06T11:30:57Z</time>
      </trkpt>
      <trkpt lat="46.0883" lon="6.7763">
        <ele>1965.55</ele>
        <time>2019-02-06T11:31:11Z</time>
      </trkpt>
      <trkpt lat="46.0883" lon="6.77633">
        <ele>1965.55</ele>
        <time>2019-02-06T11:31:14Z</time>
      </trkpt>
      <trkpt lat="46.08827" lon="6.77637">
        <ele>1966.51</ele>
        <time>2019-02-06T11:31:18Z</time>
      </trkpt>
      <trkpt lat="46.08827" lon="6.77638">
        <ele>1966.51</ele>
        <time>2019-02-06T11:31:19Z</time>
      </trkpt>
      <trkpt lat="46.08827" lon="6.7764">
        <ele>1966.51</ele>
        <time>2019-02-06T11:31:20Z</time>
      </trkpt>
      <trkpt lat="46.08824" lon="6.77644">
        <ele>1966.99</ele>
        <time>2019-02-06T11:31:25Z</time>
      </trkpt>
      <trkpt lat="46.08823" lon="6.77645">
        <ele>1967.48</ele>
        <time>2019-02-06T11:31:26Z</time>
      </trkpt>
      <trkpt lat="46.08817" lon="6.77662">
        <ele>1970.36</ele>
        <time>2019-02-06T11:31:45Z</time>
      </trkpt>
      <trkpt lat="46.08821" lon="6.77664">
        <ele>1971.32</ele>
        <time>2019-02-06T11:31:53Z</time>
      </trkpt>
      <trkpt lat="46.08828" lon="6.77657">
        <ele>1972.76</ele>
        <time>2019-02-06T11:32:04Z</time>
      </trkpt>
      <trkpt lat="46.08834" lon="6.77666">
        <ele>1975.65</ele>
        <time>2019-02-06T11:32:27Z</time>
      </trkpt>
      <trkpt lat="46.08835" lon="6.77669">
        <ele>1976.61</ele>
        <time>2019-02-06T11:32:30Z</time>
      </trkpt>
      <trkpt lat="46.0884" lon="6.77671">
        <ele>1979.97</ele>
        <time>2019-02-06T11:32:46Z</time>
      </trkpt>
      <trkpt lat="46.08849" lon="6.77667">
        <ele>1982.86</ele>
        <time>2019-02-06T11:33:01Z</time>
      </trkpt>
      <trkpt lat="46.08857" lon="6.77662">
        <ele>1985.26</ele>
        <time>2019-02-06T11:33:13Z</time>
      </trkpt>
      <trkpt lat="46.08865" lon="6.77665">
        <ele>1988.14</ele>
        <time>2019-02-06T11:33:29Z</time>
      </trkpt>
      <trkpt lat="46.08867" lon="6.77686">
        <ele>1991.03</ele>
        <time>2019-02-06T11:33:49Z</time>
      </trkpt>
      <trkpt lat="46.08867" lon="6.77695">
        <ele>1993.43</ele>
        <time>2019-02-06T11:34:00Z</time>
      </trkpt>
      <trkpt lat="46.08867" lon="6.77697">
        <ele>1993.91</ele>
        <time>2019-02-06T11:34:02Z</time>
      </trkpt>
      <trkpt lat="46.08866" lon="6.77703">
        <ele>1994.39</ele>
        <time>2019-02-06T11:34:07Z</time>
      </trkpt>
      <trkpt lat="46.0887" lon="6.77703">
        <ele>1997.76</ele>
        <time>2019-02-06T11:34:23Z</time>
      </trkpt>
      <trkpt lat="46.0887" lon="6.77702">
        <ele>1997.76</ele>
        <time>2019-02-06T11:34:24Z</time>
      </trkpt>
      <trkpt lat="46.08886" lon="6.77682">
        <ele>2000.64</ele>
        <time>2019-02-06T11:34:49Z</time>
      </trkpt>
      <trkpt lat="46.08888" lon="6.77684">
        <ele>2002.56</ele>
        <time>2019-02-06T11:35:02Z</time>
      </trkpt>
      <trkpt lat="46.08886" lon="6.77701">
        <ele>2005.93</ele>
        <time>2019-02-06T11:35:20Z</time>
      </trkpt>
      <trkpt lat="46.08886" lon="6.77705">
        <ele>2006.41</ele>
        <time>2019-02-06T11:35:24Z</time>
      </trkpt>
      <trkpt lat="46.08885" lon="6.77706">
        <ele>2006.41</ele>
        <time>2019-02-06T11:35:25Z</time>
      </trkpt>
      <trkpt lat="46.08885" lon="6.77708">
        <ele>2006.41</ele>
        <time>2019-02-06T11:35:26Z</time>
      </trkpt>
      <trkpt lat="46.08885" lon="6.7771">
        <ele>2006.41</ele>
        <time>2019-02-06T11:35:28Z</time>
      </trkpt>
      <trkpt lat="46.08885" lon="6.77715">
        <ele>2007.37</ele>
        <time>2019-02-06T11:35:32Z</time>
      </trkpt>
      <trkpt lat="46.08885" lon="6.77718">
        <ele>2007.85</ele>
        <time>2019-02-06T11:35:36Z</time>
      </trkpt>
      <trkpt lat="46.08885" lon="6.77729">
        <ele>2009.77</ele>
        <time>2019-02-06T11:35:47Z</time>
      </trkpt>
      <trkpt lat="46.08879" lon="6.77743">
        <ele>2012.66</ele>
        <time>2019-02-06T11:36:05Z</time>
      </trkpt>
      <trkpt lat="46.08882" lon="6.77749">
        <ele>2016.02</ele>
        <time>2019-02-06T11:36:23Z</time>
      </trkpt>
      <trkpt lat="46.08883" lon="6.77748">
        <ele>2016.02</ele>
        <time>2019-02-06T11:36:24Z</time>
      </trkpt>
      <trkpt lat="46.08895" lon="6.77742">
        <ele>2016.5</ele>
        <time>2019-02-06T11:36:37Z</time>
      </trkpt>
      <trkpt lat="46.08897" lon="6.77742">
        <ele>2016.98</ele>
        <time>2019-02-06T11:36:39Z</time>
      </trkpt>
      <trkpt lat="46.08904" lon="6.77742">
        <ele>2016.98</ele>
        <time>2019-02-06T11:36:46Z</time>
      </trkpt>
      <trkpt lat="46.08905" lon="6.77742">
        <ele>2016.98</ele>
        <time>2019-02-06T11:36:47Z</time>
      </trkpt>
      <trkpt lat="46.08906" lon="6.77743">
        <ele>2016.98</ele>
        <time>2019-02-06T11:36:48Z</time>
      </trkpt>
      <trkpt lat="46.0892" lon="6.77748">
        <ele>2019.87</ele>
        <time>2019-02-06T11:37:09Z</time>
      </trkpt>
      <trkpt lat="46.0893" lon="6.77746">
        <ele>2023.23</ele>
        <time>2019-02-06T11:37:26Z</time>
      </trkpt>
      <trkpt lat="46.0894" lon="6.77744">
        <ele>2026.12</ele>
        <time>2019-02-06T11:37:44Z</time>
      </trkpt>
      <trkpt lat="46.0895" lon="6.77744">
        <ele>2029.48</ele>
        <time>2019-02-06T11:38:02Z</time>
      </trkpt>
      <trkpt lat="46.0896" lon="6.77745">
        <ele>2032.36</ele>
        <time>2019-02-06T11:38:19Z</time>
      </trkpt>
      <trkpt lat="46.0897" lon="6.77747">
        <ele>2035.73</ele>
        <time>2019-02-06T11:38:36Z</time>
      </trkpt>
      <trkpt lat="46.08979" lon="6.77747">
        <ele>2038.61</ele>
        <time>2019-02-06T11:38:53Z</time>
      </trkpt>
      <trkpt lat="46.08987" lon="6.7775">
        <ele>2041.98</ele>
        <time>2019-02-06T11:39:11Z</time>
      </trkpt>
      <trkpt lat="46.0899" lon="6.7776">
        <ele>2044.86</ele>
        <time>2019-02-06T11:39:26Z</time>
      </trkpt>
      <trkpt lat="46.08995" lon="6.77762">
        <ele>2048.23</ele>
        <time>2019-02-06T11:39:41Z</time>
      </trkpt>
      <trkpt lat="46.09002" lon="6.77756">
        <ele>2050.15</ele>
        <time>2019-02-06T11:39:54Z</time>
      </trkpt>
      <trkpt lat="46.09009" lon="6.77752">
        <ele>2053.51</ele>
        <time>2019-02-06T11:40:09Z</time>
      </trkpt>
      <trkpt lat="46.09009" lon="6.77758">
        <ele>2053.51</ele>
        <time>2019-02-06T11:40:14Z</time>
      </trkpt>
      <trkpt lat="46.0901" lon="6.77759">
        <ele>2053.99</ele>
        <time>2019-02-06T11:40:15Z</time>
      </trkpt>
      <trkpt lat="46.09009" lon="6.7776">
        <ele>2053.99</ele>
        <time>2019-02-06T11:40:17Z</time>
      </trkpt>
      <trkpt lat="46.0901" lon="6.77766">
        <ele>2055.92</ele>
        <time>2019-02-06T11:40:24Z</time>
      </trkpt>
      <trkpt lat="46.09015" lon="6.77765">
        <ele>2058.8</ele>
        <time>2019-02-06T11:40:40Z</time>
      </trkpt>
      <trkpt lat="46.09018" lon="6.77762">
        <ele>2059.28</ele>
        <time>2019-02-06T11:40:44Z</time>
      </trkpt>
      <trkpt lat="46.09027" lon="6.77759">
        <ele>2062.65</ele>
        <time>2019-02-06T11:41:00Z</time>
      </trkpt>
      <trkpt lat="46.09034" lon="6.77758">
        <ele>2065.05</ele>
        <time>2019-02-06T11:41:12Z</time>
      </trkpt>
      <trkpt lat="46.09043" lon="6.77764">
        <ele>2067.93</ele>
        <time>2019-02-06T11:41:29Z</time>
      </trkpt>
      <trkpt lat="46.09044" lon="6.77764">
        <ele>2067.93</ele>
        <time>2019-02-06T11:41:30Z</time>
      </trkpt>
      <trkpt lat="46.09056" lon="6.77768">
        <ele>2071.3</ele>
        <time>2019-02-06T11:41:48Z</time>
      </trkpt>
      <trkpt lat="46.09068" lon="6.77772">
        <ele>2074.18</ele>
        <time>2019-02-06T11:42:05Z</time>
      </trkpt>
      <trkpt lat="46.09076" lon="6.77768">
        <ele>2077.55</ele>
        <time>2019-02-06T11:42:21Z</time>
      </trkpt>
      <trkpt lat="46.09081" lon="6.77766">
        <ele>2078.99</ele>
        <time>2019-02-06T11:42:30Z</time>
      </trkpt>
      <trkpt lat="46.09081" lon="6.77772">
        <ele>2079.95</ele>
        <time>2019-02-06T11:42:36Z</time>
      </trkpt>
      <trkpt lat="46.09082" lon="6.77785">
        <ele>2082.83</ele>
        <time>2019-02-06T11:42:52Z</time>
      </trkpt>
      <trkpt lat="46.09082" lon="6.77794">
        <ele>2085.24</ele>
        <time>2019-02-06T11:43:02Z</time>
      </trkpt>
      <trkpt lat="46.09079" lon="6.77807">
        <ele>2088.12</ele>
        <time>2019-02-06T11:43:22Z</time>
      </trkpt>
      <trkpt lat="46.09077" lon="6.77822">
        <ele>2091</ele>
        <time>2019-02-06T11:44:14Z</time>
      </trkpt>
      <trkpt lat="46.09074" lon="6.77827">
        <ele>2090.04</ele>
        <time>2019-02-06T11:44:51Z</time>
      </trkpt>
      <trkpt lat="46.09071" lon="6.77827">
        <ele>2090.04</ele>
        <time>2019-02-06T11:45:32Z</time>
      </trkpt>
      <trkpt lat="46.09073" lon="6.77823">
        <ele>2090.52</ele>
        <time>2019-02-06T11:46:11Z</time>
      </trkpt>
      <trkpt lat="46.0906" lon="6.77879">
        <ele>2092.45</ele>
        <time>2019-02-06T11:47:23Z</time>
      </trkpt>
      <trkpt lat="46.09059" lon="6.7788">
        <ele>2092.45</ele>
        <time>2019-02-06T11:47:27Z</time>
      </trkpt>
      <trkpt lat="46.09057" lon="6.77886">
        <ele>2095.33</ele>
        <time>2019-02-06T11:47:44Z</time>
      </trkpt>
      <trkpt lat="46.09055" lon="6.77888">
        <ele>2095.81</ele>
        <time>2019-02-06T11:47:46Z</time>
      </trkpt>
      <trkpt lat="46.09062" lon="6.77892">
        <ele>2098.21</ele>
        <time>2019-02-06T11:48:03Z</time>
      </trkpt>
      <trkpt lat="46.09074" lon="6.77902">
        <ele>2101.1</ele>
        <time>2019-02-06T11:48:23Z</time>
      </trkpt>
      <trkpt lat="46.09081" lon="6.77898">
        <ele>2103.98</ele>
        <time>2019-02-06T11:48:41Z</time>
      </trkpt>
      <trkpt lat="46.09088" lon="6.77901">
        <ele>2107.35</ele>
        <time>2019-02-06T11:48:59Z</time>
      </trkpt>
      <trkpt lat="46.09089" lon="6.77913">
        <ele>2109.75</ele>
        <time>2019-02-06T11:49:13Z</time>
      </trkpt>
      <trkpt lat="46.09098" lon="6.77911">
        <ele>2112.63</ele>
        <time>2019-02-06T11:49:35Z</time>
      </trkpt>
      <trkpt lat="46.09106" lon="6.77908">
        <ele>2116</ele>
        <time>2019-02-06T11:49:53Z</time>
      </trkpt>
      <trkpt lat="46.09113" lon="6.77908">
        <ele>2118.88</ele>
        <time>2019-02-06T11:50:08Z</time>
      </trkpt>
      <trkpt lat="46.09121" lon="6.7792">
        <ele>2122.25</ele>
        <time>2019-02-06T11:50:29Z</time>
      </trkpt>
      <trkpt lat="46.09122" lon="6.77936">
        <ele>2125.61</ele>
        <time>2019-02-06T11:50:50Z</time>
      </trkpt>
      <trkpt lat="46.0912" lon="6.77946">
        <ele>2128.5</ele>
        <time>2019-02-06T11:51:07Z</time>
      </trkpt>
      <trkpt lat="46.0912" lon="6.77947">
        <ele>2128.5</ele>
        <time>2019-02-06T11:51:08Z</time>
      </trkpt>
      <trkpt lat="46.09117" lon="6.77963">
        <ele>2131.38</ele>
        <time>2019-02-06T11:51:30Z</time>
      </trkpt>
      <trkpt lat="46.09111" lon="6.77974">
        <ele>2134.74</ele>
        <time>2019-02-06T11:51:50Z</time>
      </trkpt>
      <trkpt lat="46.09109" lon="6.77988">
        <ele>2137.63</ele>
        <time>2019-02-06T11:52:11Z</time>
      </trkpt>
      <trkpt lat="46.09116" lon="6.77991">
        <ele>2140.99</ele>
        <time>2019-02-06T11:52:28Z</time>
      </trkpt>
      <trkpt lat="46.0912" lon="6.7799">
        <ele>2141.95</ele>
        <time>2019-02-06T11:52:34Z</time>
      </trkpt>
      <trkpt lat="46.09127" lon="6.77988">
        <ele>2144.84</ele>
        <time>2019-02-06T11:52:51Z</time>
      </trkpt>
      <trkpt lat="46.09133" lon="6.77991">
        <ele>2148.2</ele>
        <time>2019-02-06T11:53:09Z</time>
      </trkpt>
      <trkpt lat="46.09145" lon="6.77987">
        <ele>2151.09</ele>
        <time>2019-02-06T11:53:30Z</time>
      </trkpt>
      <trkpt lat="46.09153" lon="6.77994">
        <ele>2154.45</ele>
        <time>2019-02-06T11:53:48Z</time>
      </trkpt>
      <trkpt lat="46.09153" lon="6.77998">
        <ele>2155.41</ele>
        <time>2019-02-06T11:53:52Z</time>
      </trkpt>
      <trkpt lat="46.09153" lon="6.78009">
        <ele>2156.37</ele>
        <time>2019-02-06T11:54:04Z</time>
      </trkpt>
      <trkpt lat="46.09153" lon="6.78017">
        <ele>2158.3</ele>
        <time>2019-02-06T11:54:15Z</time>
      </trkpt>
      <trkpt lat="46.09153" lon="6.78029">
        <ele>2161.66</ele>
        <time>2019-02-06T11:54:32Z</time>
      </trkpt>
      <trkpt lat="46.0916" lon="6.78035">
        <ele>2164.55</ele>
        <time>2019-02-06T11:54:49Z</time>
      </trkpt>
      <trkpt lat="46.09172" lon="6.78037">
        <ele>2167.91</ele>
        <time>2019-02-06T11:55:10Z</time>
      </trkpt>
      <trkpt lat="46.0918" lon="6.78038">
        <ele>2170.79</ele>
        <time>2019-02-06T11:55:27Z</time>
      </trkpt>
      <trkpt lat="46.0919" lon="6.78036">
        <ele>2174.16</ele>
        <time>2019-02-06T11:55:44Z</time>
      </trkpt>
      <trkpt lat="46.09191" lon="6.78045">
        <ele>2175.6</ele>
        <time>2019-02-06T11:55:55Z</time>
      </trkpt>
      <trkpt lat="46.09188" lon="6.78062">
        <ele>2178.48</ele>
        <time>2019-02-06T11:56:16Z</time>
      </trkpt>
      <trkpt lat="46.09181" lon="6.78075">
        <ele>2181.85</ele>
        <time>2019-02-06T11:56:39Z</time>
      </trkpt>
      <trkpt lat="46.0918" lon="6.78079">
        <ele>2182.81</ele>
        <time>2019-02-06T11:56:44Z</time>
      </trkpt>
      <trkpt lat="46.0918" lon="6.7808">
        <ele>2182.81</ele>
        <time>2019-02-06T11:56:46Z</time>
      </trkpt>
      <trkpt lat="46.09182" lon="6.78088">
        <ele>2183.77</ele>
        <time>2019-02-06T11:56:53Z</time>
      </trkpt>
      <trkpt lat="46.09182" lon="6.7809">
        <ele>2183.77</ele>
        <time>2019-02-06T11:56:54Z</time>
      </trkpt>
      <trkpt lat="46.09182" lon="6.78118">
        <ele>2183.77</ele>
        <time>2019-02-06T11:57:11Z</time>
      </trkpt>
      <trkpt lat="46.09182" lon="6.7812">
        <ele>2183.29</ele>
        <time>2019-02-06T11:57:12Z</time>
      </trkpt>
      <trkpt lat="46.09182" lon="6.78139">
        <ele>2185.21</ele>
        <time>2019-02-06T11:57:27Z</time>
      </trkpt>
      <trkpt lat="46.09182" lon="6.78141">
        <ele>2185.21</ele>
        <time>2019-02-06T11:57:29Z</time>
      </trkpt>
      <trkpt lat="46.0918" lon="6.78153">
        <ele>2186.66</ele>
        <time>2019-02-06T11:57:40Z</time>
      </trkpt>
      <trkpt lat="46.09168" lon="6.78176">
        <ele>2189.54</ele>
        <time>2019-02-06T11:58:04Z</time>
      </trkpt>
      <trkpt lat="46.09167" lon="6.78195">
        <ele>2192.9</ele>
        <time>2019-02-06T11:58:26Z</time>
      </trkpt>
      <trkpt lat="46.09171" lon="6.78209">
        <ele>2195.79</ele>
        <time>2019-02-06T11:58:44Z</time>
      </trkpt>
      <trkpt lat="46.09172" lon="6.78214">
        <ele>2197.23</ele>
        <time>2019-02-06T11:58:50Z</time>
      </trkpt>
      <trkpt lat="46.09174" lon="6.78223">
        <ele>2199.15</ele>
        <time>2019-02-06T11:59:02Z</time>
      </trkpt>
      <trkpt lat="46.09174" lon="6.78238">
        <ele>2202.04</ele>
        <time>2019-02-06T11:59:21Z</time>
      </trkpt>
      <trkpt lat="46.09173" lon="6.78252">
        <ele>2205.4</ele>
        <time>2019-02-06T11:59:39Z</time>
      </trkpt>
      <trkpt lat="46.09171" lon="6.78257">
        <ele>2205.88</ele>
        <time>2019-02-06T11:59:44Z</time>
      </trkpt>
      <trkpt lat="46.09166" lon="6.78276">
        <ele>2208.77</ele>
        <time>2019-02-06T12:00:05Z</time>
      </trkpt>
      <trkpt lat="46.09169" lon="6.78291">
        <ele>2212.13</ele>
        <time>2019-02-06T12:00:24Z</time>
      </trkpt>
      <trkpt lat="46.09174" lon="6.78297">
        <ele>2212.61</ele>
        <time>2019-02-06T12:00:32Z</time>
      </trkpt>
      <trkpt lat="46.09174" lon="6.78298">
        <ele>2213.09</ele>
        <time>2019-02-06T12:00:33Z</time>
      </trkpt>
      <trkpt lat="46.09175" lon="6.78299">
        <ele>2213.09</ele>
        <time>2019-02-06T12:00:34Z</time>
      </trkpt>
      <trkpt lat="46.09177" lon="6.78302">
        <ele>2213.57</ele>
        <time>2019-02-06T12:00:38Z</time>
      </trkpt>
      <trkpt lat="46.09179" lon="6.78305">
        <ele>2214.05</ele>
        <time>2019-02-06T12:00:42Z</time>
      </trkpt>
      <trkpt lat="46.0919" lon="6.78318">
        <ele>2217.42</ele>
        <time>2019-02-06T12:01:01Z</time>
      </trkpt>
      <trkpt lat="46.09195" lon="6.78324">
        <ele>2217.9</ele>
        <time>2019-02-06T12:01:09Z</time>
      </trkpt>
      <trkpt lat="46.09196" lon="6.78325">
        <ele>2218.38</ele>
        <time>2019-02-06T12:01:11Z</time>
      </trkpt>
      <trkpt lat="46.09202" lon="6.78342">
        <ele>2218.86</ele>
        <time>2019-02-06T12:01:27Z</time>
      </trkpt>
      <trkpt lat="46.09202" lon="6.78343">
        <ele>2218.86</ele>
        <time>2019-02-06T12:01:28Z</time>
      </trkpt>
      <trkpt lat="46.09203" lon="6.78345">
        <ele>2218.86</ele>
        <time>2019-02-06T12:01:29Z</time>
      </trkpt>
      <trkpt lat="46.09209" lon="6.7837">
        <ele>2222.22</ele>
        <time>2019-02-06T12:01:51Z</time>
      </trkpt>
      <trkpt lat="46.09213" lon="6.78381">
        <ele>2225.11</ele>
        <time>2019-02-06T12:02:07Z</time>
      </trkpt>
      <trkpt lat="46.0921" lon="6.78395">
        <ele>2227.99</ele>
        <time>2019-02-06T12:02:26Z</time>
      </trkpt>
      <trkpt lat="46.09204" lon="6.78408">
        <ele>2231.36</ele>
        <time>2019-02-06T12:02:44Z</time>
      </trkpt>
      <trkpt lat="46.09202" lon="6.78426">
        <ele>2234.24</ele>
        <time>2019-02-06T12:03:02Z</time>
      </trkpt>
      <trkpt lat="46.09202" lon="6.78428">
        <ele>2234.24</ele>
        <time>2019-02-06T12:04:28Z</time>
      </trkpt>
      <trkpt lat="46.09204" lon="6.78423">
        <ele>2235.2</ele>
        <time>2019-02-06T12:06:36Z</time>
      </trkpt>
      <trkpt lat="46.09208" lon="6.78429">
        <ele>2235.2</ele>
        <time>2019-02-06T12:07:38Z</time>
      </trkpt>
      <trkpt lat="46.09208" lon="6.7843">
        <ele>2235.2</ele>
        <time>2019-02-06T12:07:39Z</time>
      </trkpt>
      <trkpt lat="46.09209" lon="6.78432">
        <ele>2235.2</ele>
        <time>2019-02-06T12:07:40Z</time>
      </trkpt>
      <trkpt lat="46.09209" lon="6.78434">
        <ele>2235.2</ele>
        <time>2019-02-06T12:07:41Z</time>
      </trkpt>
      <trkpt lat="46.0921" lon="6.78435">
        <ele>2234.72</ele>
        <time>2019-02-06T12:07:42Z</time>
      </trkpt>
      <trkpt lat="46.0921" lon="6.78436">
        <ele>2234.72</ele>
        <time>2019-02-06T12:07:43Z</time>
      </trkpt>
      <trkpt lat="46.0921" lon="6.78438">
        <ele>2234.72</ele>
        <time>2019-02-06T12:07:44Z</time>
      </trkpt>
      <trkpt lat="46.0921" lon="6.7844">
        <ele>2235.2</ele>
        <time>2019-02-06T12:07:45Z</time>
      </trkpt>
      <trkpt lat="46.0921" lon="6.78441">
        <ele>2235.2</ele>
        <time>2019-02-06T12:07:46Z</time>
      </trkpt>
      <trkpt lat="46.09211" lon="6.78443">
        <ele>2235.2</ele>
        <time>2019-02-06T12:07:47Z</time>
      </trkpt>
      <trkpt lat="46.09211" lon="6.78444">
        <ele>2235.2</ele>
        <time>2019-02-06T12:07:48Z</time>
      </trkpt>
      <trkpt lat="46.09211" lon="6.78446">
        <ele>2235.2</ele>
        <time>2019-02-06T12:07:49Z</time>
      </trkpt>
      <trkpt lat="46.09211" lon="6.78447">
        <ele>2235.2</ele>
        <time>2019-02-06T12:07:50Z</time>
      </trkpt>
      <trkpt lat="46.09212" lon="6.78449">
        <ele>2235.2</ele>
        <time>2019-02-06T12:07:51Z</time>
      </trkpt>
      <trkpt lat="46.09212" lon="6.78455">
        <ele>2235.68</ele>
        <time>2019-02-06T12:07:56Z</time>
      </trkpt>
      <trkpt lat="46.09212" lon="6.78456">
        <ele>2235.68</ele>
        <time>2019-02-06T12:07:57Z</time>
      </trkpt>
      <trkpt lat="46.09213" lon="6.78458">
        <ele>2235.68</ele>
        <time>2019-02-06T12:07:58Z</time>
      </trkpt>
      <trkpt lat="46.09213" lon="6.78465">
        <ele>2236.64</ele>
        <time>2019-02-06T12:08:04Z</time>
      </trkpt>
      <trkpt lat="46.09213" lon="6.78466">
        <ele>2236.64</ele>
        <time>2019-02-06T12:08:05Z</time>
      </trkpt>
      <trkpt lat="46.09206" lon="6.78496">
        <ele>2239.53</ele>
        <time>2019-02-06T12:08:34Z</time>
      </trkpt>
      <trkpt lat="46.092" lon="6.78509">
        <ele>2242.89</ele>
        <time>2019-02-06T12:08:51Z</time>
      </trkpt>
      <trkpt lat="46.09195" lon="6.78531">
        <ele>2245.78</ele>
        <time>2019-02-06T12:09:14Z</time>
      </trkpt>
      <trkpt lat="46.09191" lon="6.78546">
        <ele>2248.66</ele>
        <time>2019-02-06T12:09:31Z</time>
      </trkpt>
      <trkpt lat="46.09187" lon="6.78569">
        <ele>2252.03</ele>
        <time>2019-02-06T12:09:54Z</time>
      </trkpt>
      <trkpt lat="46.09187" lon="6.78585">
        <ele>2254.91</ele>
        <time>2019-02-06T12:10:12Z</time>
      </trkpt>
      <trkpt lat="46.09188" lon="6.78591">
        <ele>2256.35</ele>
        <time>2019-02-06T12:10:19Z</time>
      </trkpt>
      <trkpt lat="46.09186" lon="6.78602">
        <ele>2257.79</ele>
        <time>2019-02-06T12:10:30Z</time>
      </trkpt>
      <trkpt lat="46.09186" lon="6.78604">
        <ele>2258.27</ele>
        <time>2019-02-06T12:10:32Z</time>
      </trkpt>
      <trkpt lat="46.09183" lon="6.78625">
        <ele>2261.64</ele>
        <time>2019-02-06T12:10:55Z</time>
      </trkpt>
      <trkpt lat="46.09181" lon="6.78639">
        <ele>2264.04</ele>
        <time>2019-02-06T12:11:10Z</time>
      </trkpt>
      <trkpt lat="46.09178" lon="6.7865">
        <ele>2265.96</ele>
        <time>2019-02-06T12:11:22Z</time>
      </trkpt>
      <trkpt lat="46.09177" lon="6.78658">
        <ele>2267.89</ele>
        <time>2019-02-06T12:11:32Z</time>
      </trkpt>
      <trkpt lat="46.09177" lon="6.78662">
        <ele>2268.85</ele>
        <time>2019-02-06T12:12:49Z</time>
      </trkpt>
      <trkpt lat="46.09175" lon="6.78667">
        <ele>2268.85</ele>
        <time>2019-02-06T12:14:02Z</time>
      </trkpt>
      <trkpt lat="46.09175" lon="6.78669">
        <ele>2269.81</ele>
        <time>2019-02-06T12:14:04Z</time>
      </trkpt>
      <trkpt lat="46.09178" lon="6.78681">
        <ele>2270.77</ele>
        <time>2019-02-06T12:14:15Z</time>
      </trkpt>
      <trkpt lat="46.09179" lon="6.78683">
        <ele>2270.77</ele>
        <time>2019-02-06T12:14:16Z</time>
      </trkpt>
      <trkpt lat="46.09183" lon="6.78704">
        <ele>2272.69</ele>
        <time>2019-02-06T12:14:33Z</time>
      </trkpt>
      <trkpt lat="46.09183" lon="6.78705">
        <ele>2272.69</ele>
        <time>2019-02-06T12:14:34Z</time>
      </trkpt>
      <trkpt lat="46.09184" lon="6.78706">
        <ele>2273.17</ele>
        <time>2019-02-06T12:14:35Z</time>
      </trkpt>
      <trkpt lat="46.09184" lon="6.78707">
        <ele>2273.17</ele>
        <time>2019-02-06T12:14:36Z</time>
      </trkpt>
      <trkpt lat="46.09185" lon="6.78708">
        <ele>2273.17</ele>
        <time>2019-02-06T12:14:37Z</time>
      </trkpt>
      <trkpt lat="46.09203" lon="6.78725">
        <ele>2275.58</ele>
        <time>2019-02-06T12:15:00Z</time>
      </trkpt>
      <trkpt lat="46.09204" lon="6.78726">
        <ele>2275.58</ele>
        <time>2019-02-06T12:15:01Z</time>
      </trkpt>
      <trkpt lat="46.09221" lon="6.78748">
        <ele>2276.54</ele>
        <time>2019-02-06T12:15:27Z</time>
      </trkpt>
      <trkpt lat="46.09221" lon="6.78749">
        <ele>2276.54</ele>
        <time>2019-02-06T12:15:28Z</time>
      </trkpt>
      <trkpt lat="46.09222" lon="6.78751">
        <ele>2277.02</ele>
        <time>2019-02-06T12:15:29Z</time>
      </trkpt>
      <trkpt lat="46.09223" lon="6.78752">
        <ele>2276.54</ele>
        <time>2019-02-06T12:15:30Z</time>
      </trkpt>
      <trkpt lat="46.09223" lon="6.78755">
        <ele>2276.06</ele>
        <time>2019-02-06T12:15:31Z</time>
      </trkpt>
      <trkpt lat="46.09223" lon="6.78758">
        <ele>2275.58</ele>
        <time>2019-02-06T12:15:32Z</time>
      </trkpt>
      <trkpt lat="46.09224" lon="6.78771">
        <ele>2273.66</ele>
        <time>2019-02-06T12:15:41Z</time>
      </trkpt>
      <trkpt lat="46.09228" lon="6.7879">
        <ele>2276.54</ele>
        <time>2019-02-06T12:16:00Z</time>
      </trkpt>
      <trkpt lat="46.09226" lon="6.78804">
        <ele>2279.9</ele>
        <time>2019-02-06T12:16:15Z</time>
      </trkpt>
      <trkpt lat="46.09225" lon="6.7882">
        <ele>2282.79</ele>
        <time>2019-02-06T12:16:32Z</time>
      </trkpt>
      <trkpt lat="46.09225" lon="6.78822">
        <ele>2282.79</ele>
        <time>2019-02-06T12:16:33Z</time>
      </trkpt>
      <trkpt lat="46.09221" lon="6.78831">
        <ele>2284.23</ele>
        <time>2019-02-06T12:16:44Z</time>
      </trkpt>
      <trkpt lat="46.09218" lon="6.78841">
        <ele>2285.67</ele>
        <time>2019-02-06T12:16:55Z</time>
      </trkpt>
      <trkpt lat="46.09218" lon="6.78849">
        <ele>2286.63</ele>
        <time>2019-02-06T12:17:01Z</time>
      </trkpt>
      <trkpt lat="46.09217" lon="6.78859">
        <ele>2287.11</ele>
        <time>2019-02-06T12:17:09Z</time>
      </trkpt>
      <trkpt lat="46.09216" lon="6.78861">
        <ele>2287.11</ele>
        <time>2019-02-06T12:17:10Z</time>
      </trkpt>
      <trkpt lat="46.0921" lon="6.78881">
        <ele>2290</ele>
        <time>2019-02-06T12:17:33Z</time>
      </trkpt>
      <trkpt lat="46.09214" lon="6.78913">
        <ele>2293.36</ele>
        <time>2019-02-06T12:18:00Z</time>
      </trkpt>
      <trkpt lat="46.09214" lon="6.78914">
        <ele>2293.36</ele>
        <time>2019-02-06T12:18:01Z</time>
      </trkpt>
      <trkpt lat="46.09214" lon="6.78915">
        <ele>2293.36</ele>
        <time>2019-02-06T12:18:02Z</time>
      </trkpt>
      <trkpt lat="46.09214" lon="6.78917">
        <ele>2293.36</ele>
        <time>2019-02-06T12:18:03Z</time>
      </trkpt>
      <trkpt lat="46.09213" lon="6.78918">
        <ele>2293.36</ele>
        <time>2019-02-06T12:18:04Z</time>
      </trkpt>
      <trkpt lat="46.09213" lon="6.78919">
        <ele>2293.84</ele>
        <time>2019-02-06T12:18:05Z</time>
      </trkpt>
      <trkpt lat="46.09213" lon="6.78921">
        <ele>2293.84</ele>
        <time>2019-02-06T12:18:06Z</time>
      </trkpt>
      <trkpt lat="46.09213" lon="6.78923">
        <ele>2294.32</ele>
        <time>2019-02-06T12:18:08Z</time>
      </trkpt>
      <trkpt lat="46.09213" lon="6.78924">
        <ele>2294.32</ele>
        <time>2019-02-06T12:18:09Z</time>
      </trkpt>
      <trkpt lat="46.09211" lon="6.78964">
        <ele>2295.77</ele>
        <time>2019-02-06T12:18:40Z</time>
      </trkpt>
      <trkpt lat="46.09212" lon="6.78966">
        <ele>2295.77</ele>
        <time>2019-02-06T12:18:41Z</time>
      </trkpt>
      <trkpt lat="46.09212" lon="6.78968">
        <ele>2295.77</ele>
        <time>2019-02-06T12:18:43Z</time>
      </trkpt>
      <trkpt lat="46.09212" lon="6.7897">
        <ele>2295.77</ele>
        <time>2019-02-06T12:18:44Z</time>
      </trkpt>
      <trkpt lat="46.09212" lon="6.78975">
        <ele>2296.25</ele>
        <time>2019-02-06T12:18:48Z</time>
      </trkpt>
      <trkpt lat="46.09212" lon="6.78977">
        <ele>2296.25</ele>
        <time>2019-02-06T12:18:49Z</time>
      </trkpt>
      <trkpt lat="46.09212" lon="6.78979">
        <ele>2296.25</ele>
        <time>2019-02-06T12:18:50Z</time>
      </trkpt>
      <trkpt lat="46.09212" lon="6.78984">
        <ele>2296.25</ele>
        <time>2019-02-06T12:18:53Z</time>
      </trkpt>
      <trkpt lat="46.09213" lon="6.78986">
        <ele>2296.25</ele>
        <time>2019-02-06T12:18:54Z</time>
      </trkpt>
      <trkpt lat="46.09213" lon="6.78987">
        <ele>2296.25</ele>
        <time>2019-02-06T12:18:55Z</time>
      </trkpt>
      <trkpt lat="46.09213" lon="6.78989">
        <ele>2296.25</ele>
        <time>2019-02-06T12:18:56Z</time>
      </trkpt>
      <trkpt lat="46.09213" lon="6.7899">
        <ele>2296.25</ele>
        <time>2019-02-06T12:18:57Z</time>
      </trkpt>
      <trkpt lat="46.09213" lon="6.78992">
        <ele>2296.25</ele>
        <time>2019-02-06T12:18:58Z</time>
      </trkpt>
      <trkpt lat="46.09213" lon="6.78994">
        <ele>2296.25</ele>
        <time>2019-02-06T12:18:59Z</time>
      </trkpt>
      <trkpt lat="46.09213" lon="6.78996">
        <ele>2296.25</ele>
        <time>2019-02-06T12:19:00Z</time>
      </trkpt>
      <trkpt lat="46.09213" lon="6.78997">
        <ele>2296.25</ele>
        <time>2019-02-06T12:19:01Z</time>
      </trkpt>
      <trkpt lat="46.09213" lon="6.78999">
        <ele>2296.25</ele>
        <time>2019-02-06T12:19:02Z</time>
      </trkpt>
      <trkpt lat="46.09212" lon="6.79001">
        <ele>2296.25</ele>
        <time>2019-02-06T12:19:03Z</time>
      </trkpt>
      <trkpt lat="46.09212" lon="6.79003">
        <ele>2296.25</ele>
        <time>2019-02-06T12:19:04Z</time>
      </trkpt>
      <trkpt lat="46.09211" lon="6.79004">
        <ele>2296.25</ele>
        <time>2019-02-06T12:19:05Z</time>
      </trkpt>
      <trkpt lat="46.09211" lon="6.79005">
        <ele>2295.77</ele>
        <time>2019-02-06T12:19:06Z</time>
      </trkpt>
      <trkpt lat="46.09192" lon="6.79041">
        <ele>2298.17</ele>
        <time>2019-02-06T12:19:38Z</time>
      </trkpt>
      <trkpt lat="46.09192" lon="6.79042">
        <ele>2298.17</ele>
        <time>2019-02-06T12:19:39Z</time>
      </trkpt>
      <trkpt lat="46.0919" lon="6.79045">
        <ele>2297.69</ele>
        <time>2019-02-06T12:19:41Z</time>
      </trkpt>
      <trkpt lat="46.0919" lon="6.79046">
        <ele>2297.69</ele>
        <time>2019-02-06T12:19:42Z</time>
      </trkpt>
      <trkpt lat="46.09184" lon="6.79052">
        <ele>2298.65</ele>
        <time>2019-02-06T12:19:50Z</time>
      </trkpt>
      <trkpt lat="46.09183" lon="6.79052">
        <ele>2299.13</ele>
        <time>2019-02-06T12:19:51Z</time>
      </trkpt>
      <trkpt lat="46.0918" lon="6.79057">
        <ele>2300.57</ele>
        <time>2019-02-06T12:20:02Z</time>
      </trkpt>
      <trkpt lat="46.09179" lon="6.79073">
        <ele>2303.46</ele>
        <time>2019-02-06T12:20:19Z</time>
      </trkpt>
      <trkpt lat="46.0918" lon="6.79079">
        <ele>2303.94</ele>
        <time>2019-02-06T12:20:25Z</time>
      </trkpt>
      <trkpt lat="46.0918" lon="6.79081">
        <ele>2304.42</ele>
        <time>2019-02-06T12:20:27Z</time>
      </trkpt>
      <trkpt lat="46.09184" lon="6.7911">
        <ele>2307.78</ele>
        <time>2019-02-06T12:20:54Z</time>
      </trkpt>
      <trkpt lat="46.09197" lon="6.79149">
        <ele>2307.78</ele>
        <time>2019-02-06T12:21:44Z</time>
      </trkpt>
      <trkpt lat="46.09196" lon="6.79151">
        <ele>2307.78</ele>
        <time>2019-02-06T12:22:26Z</time>
      </trkpt>
      <trkpt lat="46.09196" lon="6.79152">
        <ele>2307.78</ele>
        <time>2019-02-06T12:22:27Z</time>
      </trkpt>
      <trkpt lat="46.09197" lon="6.79171">
        <ele>2307.3</ele>
        <time>2019-02-06T12:22:38Z</time>
      </trkpt>
      <trkpt lat="46.09197" lon="6.79174">
        <ele>2307.3</ele>
        <time>2019-02-06T12:22:40Z</time>
      </trkpt>
      <trkpt lat="46.09197" lon="6.79177">
        <ele>2307.78</ele>
        <time>2019-02-06T12:22:42Z</time>
      </trkpt>
      <trkpt lat="46.09197" lon="6.79179">
        <ele>2307.78</ele>
        <time>2019-02-06T12:22:43Z</time>
      </trkpt>
      <trkpt lat="46.09197" lon="6.7918">
        <ele>2307.78</ele>
        <time>2019-02-06T12:22:44Z</time>
      </trkpt>
      <trkpt lat="46.09197" lon="6.79182">
        <ele>2307.78</ele>
        <time>2019-02-06T12:22:45Z</time>
      </trkpt>
      <trkpt lat="46.09196" lon="6.79183">
        <ele>2307.78</ele>
        <time>2019-02-06T12:22:46Z</time>
      </trkpt>
      <trkpt lat="46.09196" lon="6.79186">
        <ele>2307.78</ele>
        <time>2019-02-06T12:22:48Z</time>
      </trkpt>
      <trkpt lat="46.09195" lon="6.79187">
        <ele>2307.78</ele>
        <time>2019-02-06T12:22:49Z</time>
      </trkpt>
      <trkpt lat="46.09195" lon="6.79188">
        <ele>2307.78</ele>
        <time>2019-02-06T12:22:50Z</time>
      </trkpt>
      <trkpt lat="46.09195" lon="6.79189">
        <ele>2307.78</ele>
        <time>2019-02-06T12:22:51Z</time>
      </trkpt>
      <trkpt lat="46.09194" lon="6.79192">
        <ele>2308.26</ele>
        <time>2019-02-06T12:22:53Z</time>
      </trkpt>
      <trkpt lat="46.0919" lon="6.79199">
        <ele>2309.22</ele>
        <time>2019-02-06T12:23:00Z</time>
      </trkpt>
      <trkpt lat="46.09189" lon="6.79203">
        <ele>2309.7</ele>
        <time>2019-02-06T12:23:04Z</time>
      </trkpt>
      <trkpt lat="46.09189" lon="6.79204">
        <ele>2309.7</ele>
        <time>2019-02-06T12:23:05Z</time>
      </trkpt>
      <trkpt lat="46.09187" lon="6.79211">
        <ele>2310.19</ele>
        <time>2019-02-06T12:23:10Z</time>
      </trkpt>
      <trkpt lat="46.09187" lon="6.79212">
        <ele>2310.19</ele>
        <time>2019-02-06T12:23:11Z</time>
      </trkpt>
      <trkpt lat="46.09186" lon="6.79213">
        <ele>2310.19</ele>
        <time>2019-02-06T12:23:12Z</time>
      </trkpt>
      <trkpt lat="46.09186" lon="6.79214">
        <ele>2310.19</ele>
        <time>2019-02-06T12:23:13Z</time>
      </trkpt>
      <trkpt lat="46.09185" lon="6.79215">
        <ele>2310.67</ele>
        <time>2019-02-06T12:23:14Z</time>
      </trkpt>
      <trkpt lat="46.09184" lon="6.79216">
        <ele>2311.15</ele>
        <time>2019-02-06T12:23:16Z</time>
      </trkpt>
      <trkpt lat="46.09182" lon="6.79217">
        <ele>2311.63</ele>
        <time>2019-02-06T12:23:18Z</time>
      </trkpt>
      <trkpt lat="46.09169" lon="6.79233">
        <ele>2314.51</ele>
        <time>2019-02-06T12:23:42Z</time>
      </trkpt>
      <trkpt lat="46.09164" lon="6.7925">
        <ele>2317.88</ele>
        <time>2019-02-06T12:24:31Z</time>
      </trkpt>
      <trkpt lat="46.09164" lon="6.79258">
        <ele>2319.8</ele>
        <time>2019-02-06T12:24:39Z</time>
      </trkpt>
      <trkpt lat="46.09164" lon="6.7926">
        <ele>2319.8</ele>
        <time>2019-02-06T12:24:41Z</time>
      </trkpt>
      <trkpt lat="46.09161" lon="6.79273">
        <ele>2322.68</ele>
        <time>2019-02-06T12:24:57Z</time>
      </trkpt>
      <trkpt lat="46.09161" lon="6.79291">
        <ele>2324.61</ele>
        <time>2019-02-06T12:26:00Z</time>
      </trkpt>
      <trkpt lat="46.0916" lon="6.79293">
        <ele>2324.61</ele>
        <time>2019-02-06T12:26:37Z</time>
      </trkpt>
      <trkpt lat="46.0916" lon="6.79292">
        <ele>2324.61</ele>
        <time>2019-02-06T12:27:15Z</time>
      </trkpt>
      <trkpt lat="46.09163" lon="6.79295">
        <ele>2325.09</ele>
        <time>2019-02-06T12:28:04Z</time>
      </trkpt>
      <trkpt lat="46.09163" lon="6.79296">
        <ele>2325.09</ele>
        <time>2019-02-06T12:28:05Z</time>
      </trkpt>
      <trkpt lat="46.09164" lon="6.79297">
        <ele>2325.09</ele>
        <time>2019-02-06T12:28:06Z</time>
      </trkpt>
      <trkpt lat="46.0918" lon="6.79317">
        <ele>2326.05</ele>
        <time>2019-02-06T12:28:33Z</time>
      </trkpt>
      <trkpt lat="46.0918" lon="6.79317">
        <ele>2325.57</ele>
        <time>2019-02-06T12:28:34Z</time>
      </trkpt>
      <trkpt lat="46.09219" lon="6.79341">
        <ele>2328.45</ele>
        <time>2019-02-06T12:29:26Z</time>
      </trkpt>
      <trkpt lat="46.09234" lon="6.7935">
        <ele>2331.81</ele>
        <time>2019-02-06T12:29:48Z</time>
      </trkpt>
      <trkpt lat="46.09243" lon="6.79356">
        <ele>2334.7</ele>
        <time>2019-02-06T12:30:06Z</time>
      </trkpt>
      <trkpt lat="46.09251" lon="6.79365">
        <ele>2337.58</ele>
        <time>2019-02-06T12:30:26Z</time>
      </trkpt>
      <trkpt lat="46.09257" lon="6.79375">
        <ele>2340.95</ele>
        <time>2019-02-06T12:30:53Z</time>
      </trkpt>
      <trkpt lat="46.09268" lon="6.79379">
        <ele>2343.83</ele>
        <time>2019-02-06T12:31:14Z</time>
      </trkpt>
      <trkpt lat="46.09287" lon="6.79401">
        <ele>2343.83</ele>
        <time>2019-02-06T12:31:48Z</time>
      </trkpt>
      <trkpt lat="46.09288" lon="6.79402">
        <ele>2343.83</ele>
        <time>2019-02-06T12:31:49Z</time>
      </trkpt>
      <trkpt lat="46.09289" lon="6.79402">
        <ele>2343.83</ele>
        <time>2019-02-06T12:31:50Z</time>
      </trkpt>
      <trkpt lat="46.09291" lon="6.79403">
        <ele>2343.83</ele>
        <time>2019-02-06T12:31:52Z</time>
      </trkpt>
      <trkpt lat="46.09292" lon="6.79404">
        <ele>2343.35</ele>
        <time>2019-02-06T12:31:53Z</time>
      </trkpt>
      <trkpt lat="46.09297" lon="6.79408">
        <ele>2342.87</ele>
        <time>2019-02-06T12:31:59Z</time>
      </trkpt>
      <trkpt lat="46.09298" lon="6.79408">
        <ele>2342.87</ele>
        <time>2019-02-06T12:32:00Z</time>
      </trkpt>
      <trkpt lat="46.09313" lon="6.79416">
        <ele>2341.43</ele>
        <time>2019-02-06T12:32:17Z</time>
      </trkpt>
      <trkpt lat="46.09314" lon="6.79416">
        <ele>2341.43</ele>
        <time>2019-02-06T12:32:18Z</time>
      </trkpt>
      <trkpt lat="46.09327" lon="6.79419">
        <ele>2342.39</ele>
        <time>2019-02-06T12:32:35Z</time>
      </trkpt>
      <trkpt lat="46.09336" lon="6.79416">
        <ele>2344.31</ele>
        <time>2019-02-06T12:32:49Z</time>
      </trkpt>
      <trkpt lat="46.09341" lon="6.79414">
        <ele>2344.79</ele>
        <time>2019-02-06T12:33:01Z</time>
      </trkpt>
      <trkpt lat="46.09344" lon="6.79413">
        <ele>2345.75</ele>
        <time>2019-02-06T12:33:05Z</time>
      </trkpt>
      <trkpt lat="46.09345" lon="6.79413">
        <ele>2346.23</ele>
        <time>2019-02-06T12:33:07Z</time>
      </trkpt>
      <trkpt lat="46.09346" lon="6.79412">
        <ele>2346.23</ele>
        <time>2019-02-06T12:33:08Z</time>
      </trkpt>
      <trkpt lat="46.09352" lon="6.79403">
        <ele>2347.68</ele>
        <time>2019-02-06T12:33:45Z</time>
      </trkpt>
      <trkpt lat="46.09356" lon="6.79403">
        <ele>2347.2</ele>
        <time>2019-02-06T12:33:51Z</time>
      </trkpt>
      <trkpt lat="46.0936" lon="6.79397">
        <ele>2343.83</ele>
        <time>2019-02-06T12:33:57Z</time>
      </trkpt>
      <trkpt lat="46.09364" lon="6.79393">
        <ele>2341.91</ele>
        <time>2019-02-06T12:34:01Z</time>
      </trkpt>
      <trkpt lat="46.09375" lon="6.7939">
        <ele>2338.54</ele>
        <time>2019-02-06T12:34:12Z</time>
      </trkpt>
      <trkpt lat="46.09377" lon="6.79391">
        <ele>2338.06</ele>
        <time>2019-02-06T12:34:14Z</time>
      </trkpt>
      <trkpt lat="46.09378" lon="6.79391">
        <ele>2337.58</ele>
        <time>2019-02-06T12:34:15Z</time>
      </trkpt>
      <trkpt lat="46.0938" lon="6.79393">
        <ele>2337.58</ele>
        <time>2019-02-06T12:34:17Z</time>
      </trkpt>
      <trkpt lat="46.0938" lon="6.79394">
        <ele>2337.58</ele>
        <time>2019-02-06T12:34:18Z</time>
      </trkpt>
      <trkpt lat="46.09381" lon="6.79395">
        <ele>2337.58</ele>
        <time>2019-02-06T12:34:19Z</time>
      </trkpt>
      <trkpt lat="46.09382" lon="6.79396">
        <ele>2337.58</ele>
        <time>2019-02-06T12:34:20Z</time>
      </trkpt>
      <trkpt lat="46.09383" lon="6.79398">
        <ele>2337.58</ele>
        <time>2019-02-06T12:34:21Z</time>
      </trkpt>
      <trkpt lat="46.09384" lon="6.79399">
        <ele>2337.58</ele>
        <time>2019-02-06T12:34:22Z</time>
      </trkpt>
      <trkpt lat="46.09385" lon="6.794">
        <ele>2337.1</ele>
        <time>2019-02-06T12:34:23Z</time>
      </trkpt>
      <trkpt lat="46.09385" lon="6.79401">
        <ele>2337.1</ele>
        <time>2019-02-06T12:34:24Z</time>
      </trkpt>
      <trkpt lat="46.09386" lon="6.79402">
        <ele>2337.1</ele>
        <time>2019-02-06T12:34:25Z</time>
      </trkpt>
      <trkpt lat="46.09397" lon="6.79408">
        <ele>2337.58</ele>
        <time>2019-02-06T12:34:40Z</time>
      </trkpt>
      <trkpt lat="46.094" lon="6.7941">
        <ele>2337.1</ele>
        <time>2019-02-06T12:34:44Z</time>
      </trkpt>
      <trkpt lat="46.09414" lon="6.79407">
        <ele>2337.58</ele>
        <time>2019-02-06T12:35:01Z</time>
      </trkpt>
      <trkpt lat="46.09415" lon="6.79407">
        <ele>2337.58</ele>
        <time>2019-02-06T12:35:02Z</time>
      </trkpt>
      <trkpt lat="46.09416" lon="6.79406">
        <ele>2337.58</ele>
        <time>2019-02-06T12:35:03Z</time>
      </trkpt>
      <trkpt lat="46.09417" lon="6.79406">
        <ele>2337.58</ele>
        <time>2019-02-06T12:35:04Z</time>
      </trkpt>
      <trkpt lat="46.09423" lon="6.79403">
        <ele>2338.54</ele>
        <time>2019-02-06T12:35:13Z</time>
      </trkpt>
      <trkpt lat="46.09425" lon="6.79402">
        <ele>2339.02</ele>
        <time>2019-02-06T12:35:15Z</time>
      </trkpt>
      <trkpt lat="46.09439" lon="6.79404">
        <ele>2341.43</ele>
        <time>2019-02-06T12:35:35Z</time>
      </trkpt>
      <trkpt lat="46.09446" lon="6.79417">
        <ele>2344.31</ele>
        <time>2019-02-06T12:35:54Z</time>
      </trkpt>
      <trkpt lat="46.09456" lon="6.79415">
        <ele>2346.72</ele>
        <time>2019-02-06T12:36:31Z</time>
      </trkpt>
      <trkpt lat="46.09457" lon="6.79413">
        <ele>2347.2</ele>
        <time>2019-02-06T12:36:33Z</time>
      </trkpt>
      <trkpt lat="46.09461" lon="6.79408">
        <ele>2348.16</ele>
        <time>2019-02-06T12:36:40Z</time>
      </trkpt>
      <trkpt lat="46.09464" lon="6.7941">
        <ele>2348.64</ele>
        <time>2019-02-06T12:36:46Z</time>
      </trkpt>
      <trkpt lat="46.0947" lon="6.79423">
        <ele>2352</ele>
        <time>2019-02-06T12:37:05Z</time>
      </trkpt>
      <trkpt lat="46.09473" lon="6.79431">
        <ele>2353.93</ele>
        <time>2019-02-06T12:37:16Z</time>
      </trkpt>
      <trkpt lat="46.09476" lon="6.79443">
        <ele>2356.81</ele>
        <time>2019-02-06T12:37:34Z</time>
      </trkpt>
      <trkpt lat="46.09476" lon="6.79456">
        <ele>2360.17</ele>
        <time>2019-02-06T12:37:51Z</time>
      </trkpt>
      <trkpt lat="46.09475" lon="6.79467">
        <ele>2363.06</ele>
        <time>2019-02-06T12:38:27Z</time>
      </trkpt>
      <trkpt lat="46.09479" lon="6.79473">
        <ele>2365.94</ele>
        <time>2019-02-06T12:38:49Z</time>
      </trkpt>
      <trkpt lat="46.09487" lon="6.79465">
        <ele>2368.83</ele>
        <time>2019-02-06T12:39:06Z</time>
      </trkpt>
      <trkpt lat="46.09497" lon="6.7946">
        <ele>2372.19</ele>
        <time>2019-02-06T12:39:26Z</time>
      </trkpt>
      <trkpt lat="46.09506" lon="6.79456">
        <ele>2375.07</ele>
        <time>2019-02-06T12:39:46Z</time>
      </trkpt>
      <trkpt lat="46.0951" lon="6.79453">
        <ele>2376.04</ele>
        <time>2019-02-06T12:39:54Z</time>
      </trkpt>
      <trkpt lat="46.09515" lon="6.79469">
        <ele>2379.4</ele>
        <time>2019-02-06T12:40:30Z</time>
      </trkpt>
      <trkpt lat="46.09519" lon="6.79464">
        <ele>2380.36</ele>
        <time>2019-02-06T12:40:42Z</time>
      </trkpt>
      <trkpt lat="46.09521" lon="6.79461">
        <ele>2381.32</ele>
        <time>2019-02-06T12:40:47Z</time>
      </trkpt>
      <trkpt lat="46.09525" lon="6.79456">
        <ele>2382.76</ele>
        <time>2019-02-06T12:40:54Z</time>
      </trkpt>
      <trkpt lat="46.09531" lon="6.79449">
        <ele>2385.17</ele>
        <time>2019-02-06T12:41:09Z</time>
      </trkpt>
      <trkpt lat="46.09534" lon="6.79452">
        <ele>2386.13</ele>
        <time>2019-02-06T12:41:42Z</time>
      </trkpt>
      <trkpt lat="46.09535" lon="6.79456">
        <ele>2386.61</ele>
        <time>2019-02-06T12:41:47Z</time>
      </trkpt>
      <trkpt lat="46.0954" lon="6.79472">
        <ele>2389.97</ele>
        <time>2019-02-06T12:42:11Z</time>
      </trkpt>
      <trkpt lat="46.09538" lon="6.79487">
        <ele>2392.86</ele>
        <time>2019-02-06T12:42:31Z</time>
      </trkpt>
      <trkpt lat="46.09537" lon="6.79506">
        <ele>2396.22</ele>
        <time>2019-02-06T12:42:57Z</time>
      </trkpt>
      <trkpt lat="46.09539" lon="6.79523">
        <ele>2399.11</ele>
        <time>2019-02-06T12:43:23Z</time>
      </trkpt>
      <trkpt lat="46.09536" lon="6.79537">
        <ele>2402.47</ele>
        <time>2019-02-06T12:43:58Z</time>
      </trkpt>
      <trkpt lat="46.09539" lon="6.79552">
        <ele>2404.39</ele>
        <time>2019-02-06T12:45:31Z</time>
      </trkpt>
      <trkpt lat="46.09546" lon="6.79588">
        <ele>2407.28</ele>
        <time>2019-02-06T12:46:11Z</time>
      </trkpt>
      <trkpt lat="46.09552" lon="6.79602">
        <ele>2410.64</ele>
        <time>2019-02-06T12:46:34Z</time>
      </trkpt>
      <trkpt lat="46.0956" lon="6.79611">
        <ele>2414.01</ele>
        <time>2019-02-06T12:46:55Z</time>
      </trkpt>
      <trkpt lat="46.09567" lon="6.79612">
        <ele>2416.89</ele>
        <time>2019-02-06T12:47:15Z</time>
      </trkpt>
      <trkpt lat="46.09576" lon="6.79613">
        <ele>2419.78</ele>
        <time>2019-02-06T12:47:37Z</time>
      </trkpt>
      <trkpt lat="46.09582" lon="6.79618">
        <ele>2422.66</ele>
        <time>2019-02-06T12:48:00Z</time>
      </trkpt>
      <trkpt lat="46.09573" lon="6.79632">
        <ele>2426.02</ele>
        <time>2019-02-06T12:48:34Z</time>
      </trkpt>
      <trkpt lat="46.09567" lon="6.79648">
        <ele>2428.91</ele>
        <time>2019-02-06T12:49:06Z</time>
      </trkpt>
      <trkpt lat="46.09571" lon="6.79656">
        <ele>2431.79</ele>
        <time>2019-02-06T12:49:36Z</time>
      </trkpt>
      <trkpt lat="46.09579" lon="6.79659">
        <ele>2435.16</ele>
        <time>2019-02-06T12:49:55Z</time>
      </trkpt>
      <trkpt lat="46.09576" lon="6.79666">
        <ele>2438.04</ele>
        <time>2019-02-06T12:50:28Z</time>
      </trkpt>
      <trkpt lat="46.09585" lon="6.79672">
        <ele>2441.41</ele>
        <time>2019-02-06T12:51:02Z</time>
      </trkpt>
      <trkpt lat="46.09594" lon="6.79673">
        <ele>2444.29</ele>
        <time>2019-02-06T12:51:22Z</time>
      </trkpt>
      <trkpt lat="46.09601" lon="6.79671">
        <ele>2447.65</ele>
        <time>2019-02-06T12:51:38Z</time>
      </trkpt>
      <trkpt lat="46.09601" lon="6.79684">
        <ele>2450.54</ele>
        <time>2019-02-06T12:52:22Z</time>
      </trkpt>
      <trkpt lat="46.09603" lon="6.79687">
        <ele>2452.46</ele>
        <time>2019-02-06T12:53:55Z</time>
      </trkpt>
      <trkpt lat="46.09611" lon="6.79685">
        <ele>2455.82</ele>
        <time>2019-02-06T12:54:14Z</time>
      </trkpt>
      <trkpt lat="46.0961" lon="6.79695">
        <ele>2458.71</ele>
        <time>2019-02-06T12:54:44Z</time>
      </trkpt>
      <trkpt lat="46.09617" lon="6.79698">
        <ele>2462.07</ele>
        <time>2019-02-06T12:55:15Z</time>
      </trkpt>
      <trkpt lat="46.09625" lon="6.79701">
        <ele>2464.96</ele>
        <time>2019-02-06T12:55:36Z</time>
      </trkpt>
      <trkpt lat="46.09621" lon="6.79714">
        <ele>2467.84</ele>
        <time>2019-02-06T12:56:09Z</time>
      </trkpt>
      <trkpt lat="46.09626" lon="6.79717">
        <ele>2471.21</ele>
        <time>2019-02-06T12:56:43Z</time>
      </trkpt>
      <trkpt lat="46.0963" lon="6.79723">
        <ele>2474.09</ele>
        <time>2019-02-06T12:57:23Z</time>
      </trkpt>
      <trkpt lat="46.09625" lon="6.79735">
        <ele>2476.97</ele>
        <time>2019-02-06T12:57:44Z</time>
      </trkpt>
      <trkpt lat="46.09632" lon="6.79736">
        <ele>2480.34</ele>
        <time>2019-02-06T12:58:24Z</time>
      </trkpt>
      <trkpt lat="46.09639" lon="6.79736">
        <ele>2483.22</ele>
        <time>2019-02-06T12:58:42Z</time>
      </trkpt>
      <trkpt lat="46.09646" lon="6.79739">
        <ele>2486.59</ele>
        <time>2019-02-06T12:59:14Z</time>
      </trkpt>
      <trkpt lat="46.09651" lon="6.79735">
        <ele>2489.95</ele>
        <time>2019-02-06T12:59:37Z</time>
      </trkpt>
      <trkpt lat="46.09657" lon="6.79731">
        <ele>2492.84</ele>
        <time>2019-02-06T13:00:05Z</time>
      </trkpt>
      <trkpt lat="46.09666" lon="6.79728">
        <ele>2495.72</ele>
        <time>2019-02-06T13:00:41Z</time>
      </trkpt>
      <trkpt lat="46.0967" lon="6.79738">
        <ele>2498.6</ele>
        <time>2019-02-06T13:01:00Z</time>
      </trkpt>
      <trkpt lat="46.09675" lon="6.79744">
        <ele>2501.49</ele>
        <time>2019-02-06T13:01:23Z</time>
      </trkpt>
      <trkpt lat="46.09684" lon="6.79739">
        <ele>2504.37</ele>
        <time>2019-02-06T13:01:48Z</time>
      </trkpt>
      <trkpt lat="46.09687" lon="6.79736">
        <ele>2506.77</ele>
        <time>2019-02-06T13:02:20Z</time>
      </trkpt>
      <trkpt lat="46.09687" lon="6.79741">
        <ele>2508.22</ele>
        <time>2019-02-06T13:02:37Z</time>
      </trkpt>
      <trkpt lat="46.09692" lon="6.7975">
        <ele>2511.58</ele>
        <time>2019-02-06T13:02:56Z</time>
      </trkpt>
      <trkpt lat="46.09698" lon="6.79745">
        <ele>2514.47</ele>
        <time>2019-02-06T13:03:18Z</time>
      </trkpt>
      <trkpt lat="46.09707" lon="6.79737">
        <ele>2517.83</ele>
        <time>2019-02-06T13:03:39Z</time>
      </trkpt>
      <trkpt lat="46.09714" lon="6.79732">
        <ele>2520.71</ele>
        <time>2019-02-06T13:03:57Z</time>
      </trkpt>
      <trkpt lat="46.09719" lon="6.79738">
        <ele>2523.6</ele>
        <time>2019-02-06T13:04:53Z</time>
      </trkpt>
      <trkpt lat="46.09722" lon="6.79753">
        <ele>2526.96</ele>
        <time>2019-02-06T13:05:13Z</time>
      </trkpt>
      <trkpt lat="46.09726" lon="6.79767">
        <ele>2530.33</ele>
        <time>2019-02-06T13:05:33Z</time>
      </trkpt>
      <trkpt lat="46.09727" lon="6.79778">
        <ele>2533.21</ele>
        <time>2019-02-06T13:05:54Z</time>
      </trkpt>
      <trkpt lat="46.09731" lon="6.79774">
        <ele>2536.1</ele>
        <time>2019-02-06T13:07:04Z</time>
      </trkpt>
      <trkpt lat="46.09738" lon="6.79768">
        <ele>2539.46</ele>
        <time>2019-02-06T13:07:21Z</time>
      </trkpt>
      <trkpt lat="46.09745" lon="6.79759">
        <ele>2542.34</ele>
        <time>2019-02-06T13:07:38Z</time>
      </trkpt>
      <trkpt lat="46.09747" lon="6.79756">
        <ele>2543.79</ele>
        <time>2019-02-06T13:07:44Z</time>
      </trkpt>
      <trkpt lat="46.09751" lon="6.79765">
        <ele>2546.67</ele>
        <time>2019-02-06T13:08:24Z</time>
      </trkpt>
      <trkpt lat="46.09753" lon="6.79775">
        <ele>2550.03</ele>
        <time>2019-02-06T13:08:38Z</time>
      </trkpt>
      <trkpt lat="46.09755" lon="6.79787">
        <ele>2552.92</ele>
        <time>2019-02-06T13:08:54Z</time>
      </trkpt>
      <trkpt lat="46.09756" lon="6.79798">
        <ele>2556.28</ele>
        <time>2019-02-06T13:09:10Z</time>
      </trkpt>
      <trkpt lat="46.09757" lon="6.79809">
        <ele>2559.17</ele>
        <time>2019-02-06T13:09:26Z</time>
      </trkpt>
      <trkpt lat="46.09758" lon="6.7982">
        <ele>2562.53</ele>
        <time>2019-02-06T13:09:43Z</time>
      </trkpt>
      <trkpt lat="46.09759" lon="6.79819">
        <ele>2563.97</ele>
        <time>2019-02-06T13:10:16Z</time>
      </trkpt>
      <trkpt lat="46.09765" lon="6.79813">
        <ele>2566.86</ele>
        <time>2019-02-06T13:10:37Z</time>
      </trkpt>
      <trkpt lat="46.09767" lon="6.79805">
        <ele>2569.74</ele>
        <time>2019-02-06T13:11:04Z</time>
      </trkpt>
      <trkpt lat="46.09768" lon="6.79808">
        <ele>2571.18</ele>
        <time>2019-02-06T13:11:40Z</time>
      </trkpt>
      <trkpt lat="46.09765" lon="6.79818">
        <ele>2574.07</ele>
        <time>2019-02-06T13:13:13Z</time>
      </trkpt>
      <trkpt lat="46.09764" lon="6.79817">
        <ele>2573.59</ele>
        <time>2019-02-06T13:14:13Z</time>
      </trkpt>
      <trkpt lat="46.09765" lon="6.79819">
        <ele>2574.07</ele>
        <time>2019-02-06T13:16:53Z</time>
      </trkpt>
      <trkpt lat="46.09763" lon="6.79803">
        <ele>2571.66</ele>
        <time>2019-02-06T13:19:57Z</time>
      </trkpt>
      <trkpt lat="46.09757" lon="6.79801">
        <ele>2570.22</ele>
        <time>2019-02-06T13:20:12Z</time>
      </trkpt>
      <trkpt lat="46.09754" lon="6.79802">
        <ele>2569.26</ele>
        <time>2019-02-06T13:20:13Z</time>
      </trkpt>
      <trkpt lat="46.09751" lon="6.798">
        <ele>2567.34</ele>
        <time>2019-02-06T13:20:14Z</time>
      </trkpt>
      <trkpt lat="46.09751" lon="6.79796">
        <ele>2565.42</ele>
        <time>2019-02-06T13:20:15Z</time>
      </trkpt>
      <trkpt lat="46.0975" lon="6.79793">
        <ele>2563.97</ele>
        <time>2019-02-06T13:20:16Z</time>
      </trkpt>
      <trkpt lat="46.0975" lon="6.79792">
        <ele>2563.01</ele>
        <time>2019-02-06T13:20:17Z</time>
      </trkpt>
      <trkpt lat="46.0975" lon="6.79788">
        <ele>2560.13</ele>
        <time>2019-02-06T13:20:31Z</time>
      </trkpt>
      <trkpt lat="46.0975" lon="6.79785">
        <ele>2560.13</ele>
        <time>2019-02-06T13:20:32Z</time>
      </trkpt>
      <trkpt lat="46.09751" lon="6.79779">
        <ele>2558.69</ele>
        <time>2019-02-06T13:20:38Z</time>
      </trkpt>
      <trkpt lat="46.09751" lon="6.79777">
        <ele>2558.69</ele>
        <time>2019-02-06T13:20:39Z</time>
      </trkpt>
      <trkpt lat="46.09749" lon="6.79777">
        <ele>2558.21</ele>
        <time>2019-02-06T13:20:40Z</time>
      </trkpt>
      <trkpt lat="46.09747" lon="6.79779">
        <ele>2557.24</ele>
        <time>2019-02-06T13:20:41Z</time>
      </trkpt>
      <trkpt lat="46.09743" lon="6.7978">
        <ele>2555.8</ele>
        <time>2019-02-06T13:20:42Z</time>
      </trkpt>
      <trkpt lat="46.09739" lon="6.79775">
        <ele>2554.36</ele>
        <time>2019-02-06T13:20:43Z</time>
      </trkpt>
      <trkpt lat="46.09738" lon="6.79767">
        <ele>2551</ele>
        <time>2019-02-06T13:20:44Z</time>
      </trkpt>
      <trkpt lat="46.09737" lon="6.79758">
        <ele>2548.59</ele>
        <time>2019-02-06T13:20:45Z</time>
      </trkpt>
      <trkpt lat="46.09734" lon="6.7975">
        <ele>2546.67</ele>
        <time>2019-02-06T13:20:46Z</time>
      </trkpt>
      <trkpt lat="46.09731" lon="6.79748">
        <ele>2544.75</ele>
        <time>2019-02-06T13:20:47Z</time>
      </trkpt>
      <trkpt lat="46.09724" lon="6.7975">
        <ele>2541.86</ele>
        <time>2019-02-06T13:20:48Z</time>
      </trkpt>
      <trkpt lat="46.09718" lon="6.79749">
        <ele>2538.98</ele>
        <time>2019-02-06T13:20:49Z</time>
      </trkpt>
      <trkpt lat="46.09715" lon="6.79742">
        <ele>2535.13</ele>
        <time>2019-02-06T13:20:50Z</time>
      </trkpt>
      <trkpt lat="46.09712" lon="6.79736">
        <ele>2532.25</ele>
        <time>2019-02-06T13:20:51Z</time>
      </trkpt>
      <trkpt lat="46.09706" lon="6.79734">
        <ele>2529.85</ele>
        <time>2019-02-06T13:20:52Z</time>
      </trkpt>
      <trkpt lat="46.09701" lon="6.7973">
        <ele>2526.48</ele>
        <time>2019-02-06T13:20:53Z</time>
      </trkpt>
      <trkpt lat="46.09696" lon="6.79725">
        <ele>2522.64</ele>
        <time>2019-02-06T13:20:54Z</time>
      </trkpt>
      <trkpt lat="46.09692" lon="6.79723">
        <ele>2519.75</ele>
        <time>2019-02-06T13:20:55Z</time>
      </trkpt>
      <trkpt lat="46.09688" lon="6.79724">
        <ele>2516.87</ele>
        <time>2019-02-06T13:20:56Z</time>
      </trkpt>
      <trkpt lat="46.09683" lon="6.79723">
        <ele>2514.47</ele>
        <time>2019-02-06T13:20:57Z</time>
      </trkpt>
      <trkpt lat="46.09677" lon="6.79723">
        <ele>2512.06</ele>
        <time>2019-02-06T13:20:58Z</time>
      </trkpt>
      <trkpt lat="46.09672" lon="6.79726">
        <ele>2509.18</ele>
        <time>2019-02-06T13:20:59Z</time>
      </trkpt>
      <trkpt lat="46.09668" lon="6.79725">
        <ele>2506.77</ele>
        <time>2019-02-06T13:21:00Z</time>
      </trkpt>
      <trkpt lat="46.09664" lon="6.79723">
        <ele>2504.37</ele>
        <time>2019-02-06T13:21:01Z</time>
      </trkpt>
      <trkpt lat="46.09659" lon="6.79723">
        <ele>2501.97</ele>
        <time>2019-02-06T13:21:02Z</time>
      </trkpt>
      <trkpt lat="46.09655" lon="6.79723">
        <ele>2499.57</ele>
        <time>2019-02-06T13:21:03Z</time>
      </trkpt>
      <trkpt lat="46.09652" lon="6.79725">
        <ele>2497.16</ele>
        <time>2019-02-06T13:21:04Z</time>
      </trkpt>
      <trkpt lat="46.09652" lon="6.79727">
        <ele>2494.76</ele>
        <time>2019-02-06T13:21:08Z</time>
      </trkpt>
      <trkpt lat="46.09651" lon="6.79729">
        <ele>2494.76</ele>
        <time>2019-02-06T13:21:16Z</time>
      </trkpt>
      <trkpt lat="46.09648" lon="6.7973">
        <ele>2494.28</ele>
        <time>2019-02-06T13:21:17Z</time>
      </trkpt>
      <trkpt lat="46.09645" lon="6.7973">
        <ele>2493.8</ele>
        <time>2019-02-06T13:21:18Z</time>
      </trkpt>
      <trkpt lat="46.09643" lon="6.79728">
        <ele>2492.36</ele>
        <time>2019-02-06T13:21:19Z</time>
      </trkpt>
      <trkpt lat="46.09639" lon="6.79728">
        <ele>2490.43</ele>
        <time>2019-02-06T13:21:20Z</time>
      </trkpt>
      <trkpt lat="46.09634" lon="6.79728">
        <ele>2488.03</ele>
        <time>2019-02-06T13:21:21Z</time>
      </trkpt>
      <trkpt lat="46.09631" lon="6.79727">
        <ele>2486.11</ele>
        <time>2019-02-06T13:21:22Z</time>
      </trkpt>
      <trkpt lat="46.09629" lon="6.79723">
        <ele>2483.7</ele>
        <time>2019-02-06T13:21:23Z</time>
      </trkpt>
      <trkpt lat="46.09627" lon="6.79716">
        <ele>2481.78</ele>
        <time>2019-02-06T13:21:24Z</time>
      </trkpt>
      <trkpt lat="46.09624" lon="6.79711">
        <ele>2479.38</ele>
        <time>2019-02-06T13:21:25Z</time>
      </trkpt>
      <trkpt lat="46.0962" lon="6.79705">
        <ele>2476.01</ele>
        <time>2019-02-06T13:21:26Z</time>
      </trkpt>
      <trkpt lat="46.09618" lon="6.79698">
        <ele>2473.13</ele>
        <time>2019-02-06T13:21:27Z</time>
      </trkpt>
      <trkpt lat="46.09615" lon="6.7969">
        <ele>2469.76</ele>
        <time>2019-02-06T13:21:28Z</time>
      </trkpt>
      <trkpt lat="46.0961" lon="6.79683">
        <ele>2466.88</ele>
        <time>2019-02-06T13:21:29Z</time>
      </trkpt>
      <trkpt lat="46.09607" lon="6.79676">
        <ele>2462.07</ele>
        <time>2019-02-06T13:21:30Z</time>
      </trkpt>
      <trkpt lat="46.09604" lon="6.79669">
        <ele>2460.15</ele>
        <time>2019-02-06T13:21:31Z</time>
      </trkpt>
      <trkpt lat="46.096" lon="6.79664">
        <ele>2455.82</ele>
        <time>2019-02-06T13:21:32Z</time>
      </trkpt>
      <trkpt lat="46.09596" lon="6.7966">
        <ele>2453.42</ele>
        <time>2019-02-06T13:21:33Z</time>
      </trkpt>
      <trkpt lat="46.09593" lon="6.79656">
        <ele>2450.54</ele>
        <time>2019-02-06T13:21:34Z</time>
      </trkpt>
      <trkpt lat="46.09589" lon="6.79655">
        <ele>2448.62</ele>
        <time>2019-02-06T13:21:35Z</time>
      </trkpt>
      <trkpt lat="46.09584" lon="6.79655">
        <ele>2446.21</ele>
        <time>2019-02-06T13:21:36Z</time>
      </trkpt>
      <trkpt lat="46.0958" lon="6.7965">
        <ele>2443.33</ele>
        <time>2019-02-06T13:21:37Z</time>
      </trkpt>
      <trkpt lat="46.09575" lon="6.79643">
        <ele>2439.96</ele>
        <time>2019-02-06T13:21:38Z</time>
      </trkpt>
      <trkpt lat="46.09571" lon="6.79636">
        <ele>2436.6</ele>
        <time>2019-02-06T13:21:39Z</time>
      </trkpt>
      <trkpt lat="46.09564" lon="6.7963">
        <ele>2434.68</ele>
        <time>2019-02-06T13:21:40Z</time>
      </trkpt>
      <trkpt lat="46.09558" lon="6.79623">
        <ele>2430.35</ele>
        <time>2019-02-06T13:21:41Z</time>
      </trkpt>
      <trkpt lat="46.09553" lon="6.79614">
        <ele>2426.02</ele>
        <time>2019-02-06T13:21:42Z</time>
      </trkpt>
      <trkpt lat="46.09547" lon="6.79605">
        <ele>2422.66</ele>
        <time>2019-02-06T13:21:43Z</time>
      </trkpt>
      <trkpt lat="46.09542" lon="6.79595">
        <ele>2418.33</ele>
        <time>2019-02-06T13:21:44Z</time>
      </trkpt>
      <trkpt lat="46.09539" lon="6.79584">
        <ele>2414.97</ele>
        <time>2019-02-06T13:21:45Z</time>
      </trkpt>
      <trkpt lat="46.09536" lon="6.79573">
        <ele>2412.09</ele>
        <time>2019-02-06T13:21:46Z</time>
      </trkpt>
      <trkpt lat="46.09532" lon="6.79563">
        <ele>2409.2</ele>
        <time>2019-02-06T13:21:47Z</time>
      </trkpt>
      <trkpt lat="46.0953" lon="6.79554">
        <ele>2407.28</ele>
        <time>2019-02-06T13:21:48Z</time>
      </trkpt>
      <trkpt lat="46.09529" lon="6.79549">
        <ele>2406.8</ele>
        <time>2019-02-06T13:21:49Z</time>
      </trkpt>
      <trkpt lat="46.09529" lon="6.79545">
        <ele>2406.32</ele>
        <time>2019-02-06T13:21:50Z</time>
      </trkpt>
      <trkpt lat="46.09529" lon="6.79543">
        <ele>2406.32</ele>
        <time>2019-02-06T13:21:51Z</time>
      </trkpt>
      <trkpt lat="46.0953" lon="6.79541">
        <ele>2406.32</ele>
        <time>2019-02-06T13:21:57Z</time>
      </trkpt>
      <trkpt lat="46.0953" lon="6.79539">
        <ele>2406.32</ele>
        <time>2019-02-06T13:21:58Z</time>
      </trkpt>
      <trkpt lat="46.0953" lon="6.79537">
        <ele>2406.32</ele>
        <time>2019-02-06T13:21:59Z</time>
      </trkpt>
      <trkpt lat="46.0953" lon="6.79533">
        <ele>2405.84</ele>
        <time>2019-02-06T13:22:00Z</time>
      </trkpt>
      <trkpt lat="46.0953" lon="6.79528">
        <ele>2405.84</ele>
        <time>2019-02-06T13:22:01Z</time>
      </trkpt>
      <trkpt lat="46.0953" lon="6.79523">
        <ele>2404.39</ele>
        <time>2019-02-06T13:22:02Z</time>
      </trkpt>
      <trkpt lat="46.09529" lon="6.79511">
        <ele>2401.99</ele>
        <time>2019-02-06T13:22:04Z</time>
      </trkpt>
      <trkpt lat="46.09528" lon="6.79498">
        <ele>2400.07</ele>
        <time>2019-02-06T13:22:06Z</time>
      </trkpt>
      <trkpt lat="46.09528" lon="6.79492">
        <ele>2399.11</ele>
        <time>2019-02-06T13:22:07Z</time>
      </trkpt>
      <trkpt lat="46.09527" lon="6.79477">
        <ele>2396.22</ele>
        <time>2019-02-06T13:22:09Z</time>
      </trkpt>
      <trkpt lat="46.09524" lon="6.79468">
        <ele>2394.78</ele>
        <time>2019-02-06T13:22:10Z</time>
      </trkpt>
      <trkpt lat="46.09522" lon="6.79459">
        <ele>2391.9</ele>
        <time>2019-02-06T13:22:11Z</time>
      </trkpt>
      <trkpt lat="46.09518" lon="6.79452">
        <ele>2389.97</ele>
        <time>2019-02-06T13:22:12Z</time>
      </trkpt>
      <trkpt lat="46.09513" lon="6.79447">
        <ele>2389.01</ele>
        <time>2019-02-06T13:22:13Z</time>
      </trkpt>
      <trkpt lat="46.09507" lon="6.79446">
        <ele>2386.61</ele>
        <time>2019-02-06T13:22:14Z</time>
      </trkpt>
      <trkpt lat="46.095" lon="6.79442">
        <ele>2383.73</ele>
        <time>2019-02-06T13:22:15Z</time>
      </trkpt>
      <trkpt lat="46.09494" lon="6.79436">
        <ele>2380.36</ele>
        <time>2019-02-06T13:22:16Z</time>
      </trkpt>
      <trkpt lat="46.09487" lon="6.79435">
        <ele>2377</ele>
        <time>2019-02-06T13:22:17Z</time>
      </trkpt>
      <trkpt lat="46.0948" lon="6.79435">
        <ele>2373.63</ele>
        <time>2019-02-06T13:22:18Z</time>
      </trkpt>
      <trkpt lat="46.0947" lon="6.79435">
        <ele>2369.79</ele>
        <time>2019-02-06T13:22:19Z</time>
      </trkpt>
      <trkpt lat="46.09462" lon="6.79432">
        <ele>2364.98</ele>
        <time>2019-02-06T13:22:20Z</time>
      </trkpt>
      <trkpt lat="46.09455" lon="6.79424">
        <ele>2360.65</ele>
        <time>2019-02-06T13:22:21Z</time>
      </trkpt>
      <trkpt lat="46.09448" lon="6.79414">
        <ele>2357.77</ele>
        <time>2019-02-06T13:22:22Z</time>
      </trkpt>
      <trkpt lat="46.09442" lon="6.79406">
        <ele>2354.41</ele>
        <time>2019-02-06T13:22:23Z</time>
      </trkpt>
      <trkpt lat="46.09434" lon="6.79399">
        <ele>2352</ele>
        <time>2019-02-06T13:22:24Z</time>
      </trkpt>
      <trkpt lat="46.09427" lon="6.79396">
        <ele>2349.6</ele>
        <time>2019-02-06T13:22:25Z</time>
      </trkpt>
      <trkpt lat="46.09419" lon="6.79394">
        <ele>2345.27</ele>
        <time>2019-02-06T13:22:26Z</time>
      </trkpt>
      <trkpt lat="46.09401" lon="6.79393">
        <ele>2341.91</ele>
        <time>2019-02-06T13:22:30Z</time>
      </trkpt>
      <trkpt lat="46.09395" lon="6.79389">
        <ele>2342.39</ele>
        <time>2019-02-06T13:22:53Z</time>
      </trkpt>
      <trkpt lat="46.09383" lon="6.79376">
        <ele>2343.83</ele>
        <time>2019-02-06T13:23:37Z</time>
      </trkpt>
      <trkpt lat="46.0938" lon="6.79373">
        <ele>2343.83</ele>
        <time>2019-02-06T13:23:43Z</time>
      </trkpt>
      <trkpt lat="46.09371" lon="6.79365">
        <ele>2342.39</ele>
        <time>2019-02-06T13:23:55Z</time>
      </trkpt>
      <trkpt lat="46.0937" lon="6.79365">
        <ele>2342.39</ele>
        <time>2019-02-06T13:23:56Z</time>
      </trkpt>
      <trkpt lat="46.09369" lon="6.79364">
        <ele>2342.39</ele>
        <time>2019-02-06T13:23:57Z</time>
      </trkpt>
      <trkpt lat="46.09362" lon="6.79362">
        <ele>2341.91</ele>
        <time>2019-02-06T13:24:08Z</time>
      </trkpt>
      <trkpt lat="46.09322" lon="6.7935">
        <ele>2342.87</ele>
        <time>2019-02-06T13:25:30Z</time>
      </trkpt>
      <trkpt lat="46.09322" lon="6.79349">
        <ele>2342.87</ele>
        <time>2019-02-06T13:25:31Z</time>
      </trkpt>
      <trkpt lat="46.09315" lon="6.79339">
        <ele>2342.87</ele>
        <time>2019-02-06T13:25:58Z</time>
      </trkpt>
      <trkpt lat="46.09314" lon="6.79339">
        <ele>2342.39</ele>
        <time>2019-02-06T13:25:59Z</time>
      </trkpt>
      <trkpt lat="46.09313" lon="6.79338">
        <ele>2342.39</ele>
        <time>2019-02-06T13:26:00Z</time>
      </trkpt>
      <trkpt lat="46.09312" lon="6.79337">
        <ele>2342.39</ele>
        <time>2019-02-06T13:26:01Z</time>
      </trkpt>
      <trkpt lat="46.0931" lon="6.79337">
        <ele>2341.91</ele>
        <time>2019-02-06T13:26:02Z</time>
      </trkpt>
      <trkpt lat="46.09308" lon="6.79337">
        <ele>2341.43</ele>
        <time>2019-02-06T13:26:03Z</time>
      </trkpt>
      <trkpt lat="46.09293" lon="6.79335">
        <ele>2339.02</ele>
        <time>2019-02-06T13:26:13Z</time>
      </trkpt>
      <trkpt lat="46.09276" lon="6.79324">
        <ele>2336.14</ele>
        <time>2019-02-06T13:26:28Z</time>
      </trkpt>
      <trkpt lat="46.09259" lon="6.79309">
        <ele>2332.78</ele>
        <time>2019-02-06T13:26:42Z</time>
      </trkpt>
      <trkpt lat="46.09257" lon="6.79307">
        <ele>2332.3</ele>
        <time>2019-02-06T13:26:44Z</time>
      </trkpt>
      <trkpt lat="46.09256" lon="6.79307">
        <ele>2332.3</ele>
        <time>2019-02-06T13:26:45Z</time>
      </trkpt>
      <trkpt lat="46.09249" lon="6.79301">
        <ele>2331.33</ele>
        <time>2019-02-06T13:26:51Z</time>
      </trkpt>
      <trkpt lat="46.09248" lon="6.79299">
        <ele>2330.85</ele>
        <time>2019-02-06T13:26:52Z</time>
      </trkpt>
      <trkpt lat="46.09247" lon="6.79298">
        <ele>2330.85</ele>
        <time>2019-02-06T13:26:53Z</time>
      </trkpt>
      <trkpt lat="46.09245" lon="6.79297">
        <ele>2330.37</ele>
        <time>2019-02-06T13:26:54Z</time>
      </trkpt>
      <trkpt lat="46.09244" lon="6.79295">
        <ele>2329.89</ele>
        <time>2019-02-06T13:26:55Z</time>
      </trkpt>
      <trkpt lat="46.09242" lon="6.79294">
        <ele>2329.41</ele>
        <time>2019-02-06T13:26:56Z</time>
      </trkpt>
      <trkpt lat="46.09237" lon="6.7929">
        <ele>2328.45</ele>
        <time>2019-02-06T13:27:02Z</time>
      </trkpt>
      <trkpt lat="46.0923" lon="6.79281">
        <ele>2327.97</ele>
        <time>2019-02-06T13:27:14Z</time>
      </trkpt>
      <trkpt lat="46.09229" lon="6.7928">
        <ele>2327.97</ele>
        <time>2019-02-06T13:27:15Z</time>
      </trkpt>
      <trkpt lat="46.09228" lon="6.7928">
        <ele>2327.97</ele>
        <time>2019-02-06T13:27:16Z</time>
      </trkpt>
      <trkpt lat="46.0922" lon="6.79274">
        <ele>2327.01</ele>
        <time>2019-02-06T13:27:25Z</time>
      </trkpt>
      <trkpt lat="46.0922" lon="6.79273">
        <ele>2327.01</ele>
        <time>2019-02-06T13:27:26Z</time>
      </trkpt>
      <trkpt lat="46.09219" lon="6.79273">
        <ele>2327.01</ele>
        <time>2019-02-06T13:27:27Z</time>
      </trkpt>
      <trkpt lat="46.09218" lon="6.79272">
        <ele>2327.01</ele>
        <time>2019-02-06T13:27:28Z</time>
      </trkpt>
      <trkpt lat="46.09217" lon="6.79271">
        <ele>2327.01</ele>
        <time>2019-02-06T13:27:29Z</time>
      </trkpt>
      <trkpt lat="46.09216" lon="6.79271">
        <ele>2327.01</ele>
        <time>2019-02-06T13:27:30Z</time>
      </trkpt>
      <trkpt lat="46.09215" lon="6.7927">
        <ele>2327.01</ele>
        <time>2019-02-06T13:27:31Z</time>
      </trkpt>
      <trkpt lat="46.09214" lon="6.7927">
        <ele>2326.53</ele>
        <time>2019-02-06T13:27:32Z</time>
      </trkpt>
      <trkpt lat="46.092" lon="6.79252">
        <ele>2323.64</ele>
        <time>2019-02-06T13:27:43Z</time>
      </trkpt>
      <trkpt lat="46.09194" lon="6.79235">
        <ele>2320.76</ele>
        <time>2019-02-06T13:27:47Z</time>
      </trkpt>
      <trkpt lat="46.09189" lon="6.79215">
        <ele>2316.91</ele>
        <time>2019-02-06T13:27:52Z</time>
      </trkpt>
      <trkpt lat="46.09188" lon="6.79212">
        <ele>2316.43</ele>
        <time>2019-02-06T13:27:54Z</time>
      </trkpt>
      <trkpt lat="46.09188" lon="6.7921">
        <ele>2316.43</ele>
        <time>2019-02-06T13:27:55Z</time>
      </trkpt>
      <trkpt lat="46.09187" lon="6.79206">
        <ele>2315.95</ele>
        <time>2019-02-06T13:27:56Z</time>
      </trkpt>
      <trkpt lat="46.09187" lon="6.79202">
        <ele>2314.99</ele>
        <time>2019-02-06T13:27:57Z</time>
      </trkpt>
      <trkpt lat="46.09188" lon="6.79197">
        <ele>2314.03</ele>
        <time>2019-02-06T13:27:58Z</time>
      </trkpt>
      <trkpt lat="46.0919" lon="6.79192">
        <ele>2314.03</ele>
        <time>2019-02-06T13:27:59Z</time>
      </trkpt>
      <trkpt lat="46.09191" lon="6.79187">
        <ele>2313.55</ele>
        <time>2019-02-06T13:28:00Z</time>
      </trkpt>
      <trkpt lat="46.09191" lon="6.79147">
        <ele>2311.63</ele>
        <time>2019-02-06T13:28:34Z</time>
      </trkpt>
      <trkpt lat="46.0919" lon="6.79144">
        <ele>2311.63</ele>
        <time>2019-02-06T13:28:37Z</time>
      </trkpt>
      <trkpt lat="46.09188" lon="6.79138">
        <ele>2311.63</ele>
        <time>2019-02-06T13:28:43Z</time>
      </trkpt>
      <trkpt lat="46.09182" lon="6.79117">
        <ele>2312.11</ele>
        <time>2019-02-06T13:29:02Z</time>
      </trkpt>
      <trkpt lat="46.09181" lon="6.79114">
        <ele>2311.63</ele>
        <time>2019-02-06T13:29:04Z</time>
      </trkpt>
      <trkpt lat="46.09181" lon="6.79112">
        <ele>2311.63</ele>
        <time>2019-02-06T13:29:05Z</time>
      </trkpt>
      <trkpt lat="46.09181" lon="6.79109">
        <ele>2311.63</ele>
        <time>2019-02-06T13:29:06Z</time>
      </trkpt>
      <trkpt lat="46.0918" lon="6.79106">
        <ele>2311.63</ele>
        <time>2019-02-06T13:29:07Z</time>
      </trkpt>
      <trkpt lat="46.09179" lon="6.79103">
        <ele>2311.15</ele>
        <time>2019-02-06T13:29:08Z</time>
      </trkpt>
      <trkpt lat="46.09176" lon="6.79074">
        <ele>2309.22</ele>
        <time>2019-02-06T13:29:16Z</time>
      </trkpt>
      <trkpt lat="46.09177" lon="6.79067">
        <ele>2308.26</ele>
        <time>2019-02-06T13:29:17Z</time>
      </trkpt>
      <trkpt lat="46.09179" lon="6.79059">
        <ele>2307.3</ele>
        <time>2019-02-06T13:29:18Z</time>
      </trkpt>
      <trkpt lat="46.09182" lon="6.79052">
        <ele>2306.34</ele>
        <time>2019-02-06T13:29:19Z</time>
      </trkpt>
      <trkpt lat="46.09186" lon="6.79047">
        <ele>2304.9</ele>
        <time>2019-02-06T13:29:20Z</time>
      </trkpt>
      <trkpt lat="46.0919" lon="6.79044">
        <ele>2303.46</ele>
        <time>2019-02-06T13:29:21Z</time>
      </trkpt>
      <trkpt lat="46.09193" lon="6.7904">
        <ele>2302.98</ele>
        <time>2019-02-06T13:29:22Z</time>
      </trkpt>
      <trkpt lat="46.09196" lon="6.79037">
        <ele>2302.01</ele>
        <time>2019-02-06T13:29:24Z</time>
      </trkpt>
      <trkpt lat="46.09213" lon="6.78994">
        <ele>2300.57</ele>
        <time>2019-02-06T13:29:50Z</time>
      </trkpt>
      <trkpt lat="46.09211" lon="6.78982">
        <ele>2300.57</ele>
        <time>2019-02-06T13:30:05Z</time>
      </trkpt>
      <trkpt lat="46.09211" lon="6.78976">
        <ele>2300.57</ele>
        <time>2019-02-06T13:30:10Z</time>
      </trkpt>
      <trkpt lat="46.09211" lon="6.78974">
        <ele>2300.57</ele>
        <time>2019-02-06T13:30:11Z</time>
      </trkpt>
      <trkpt lat="46.09207" lon="6.78948">
        <ele>2300.09</ele>
        <time>2019-02-06T13:30:31Z</time>
      </trkpt>
      <trkpt lat="46.09206" lon="6.78942">
        <ele>2300.57</ele>
        <time>2019-02-06T13:30:41Z</time>
      </trkpt>
      <trkpt lat="46.09206" lon="6.78939">
        <ele>2300.57</ele>
        <time>2019-02-06T13:30:43Z</time>
      </trkpt>
      <trkpt lat="46.09207" lon="6.78938">
        <ele>2300.57</ele>
        <time>2019-02-06T13:30:44Z</time>
      </trkpt>
      <trkpt lat="46.09211" lon="6.78907">
        <ele>2298.17</ele>
        <time>2019-02-06T13:30:51Z</time>
      </trkpt>
      <trkpt lat="46.09207" lon="6.7888">
        <ele>2295.28</ele>
        <time>2019-02-06T13:30:55Z</time>
      </trkpt>
      <trkpt lat="46.09209" lon="6.78874">
        <ele>2294.8</ele>
        <time>2019-02-06T13:30:56Z</time>
      </trkpt>
      <trkpt lat="46.09211" lon="6.78869">
        <ele>2293.84</ele>
        <time>2019-02-06T13:30:57Z</time>
      </trkpt>
      <trkpt lat="46.09213" lon="6.78862">
        <ele>2293.36</ele>
        <time>2019-02-06T13:30:58Z</time>
      </trkpt>
      <trkpt lat="46.09214" lon="6.78856">
        <ele>2292.4</ele>
        <time>2019-02-06T13:30:59Z</time>
      </trkpt>
      <trkpt lat="46.09214" lon="6.7885">
        <ele>2291.92</ele>
        <time>2019-02-06T13:31:00Z</time>
      </trkpt>
      <trkpt lat="46.09218" lon="6.78827">
        <ele>2289.52</ele>
        <time>2019-02-06T13:31:04Z</time>
      </trkpt>
      <trkpt lat="46.09222" lon="6.78811">
        <ele>2287.59</ele>
        <time>2019-02-06T13:31:06Z</time>
      </trkpt>
      <trkpt lat="46.09224" lon="6.78801">
        <ele>2285.19</ele>
        <time>2019-02-06T13:31:07Z</time>
      </trkpt>
      <trkpt lat="46.09225" lon="6.78776">
        <ele>2282.79</ele>
        <time>2019-02-06T13:31:09Z</time>
      </trkpt>
      <trkpt lat="46.09223" lon="6.78763">
        <ele>2280.38</ele>
        <time>2019-02-06T13:31:10Z</time>
      </trkpt>
      <trkpt lat="46.09219" lon="6.78754">
        <ele>2279.42</ele>
        <time>2019-02-06T13:31:11Z</time>
      </trkpt>
      <trkpt lat="46.0922" lon="6.78753">
        <ele>2278.94</ele>
        <time>2019-02-06T13:31:12Z</time>
      </trkpt>
      <trkpt lat="46.09198" lon="6.78724">
        <ele>2279.9</ele>
        <time>2019-02-06T13:32:10Z</time>
      </trkpt>
      <trkpt lat="46.09196" lon="6.78721">
        <ele>2279.9</ele>
        <time>2019-02-06T13:32:14Z</time>
      </trkpt>
      <trkpt lat="46.09178" lon="6.78681">
        <ele>2277.02</ele>
        <time>2019-02-06T13:32:26Z</time>
      </trkpt>
      <trkpt lat="46.09175" lon="6.78655">
        <ele>2274.14</ele>
        <time>2019-02-06T13:32:30Z</time>
      </trkpt>
      <trkpt lat="46.09176" lon="6.78646">
        <ele>2272.69</ele>
        <time>2019-02-06T13:32:31Z</time>
      </trkpt>
      <trkpt lat="46.09178" lon="6.78636">
        <ele>2271.25</ele>
        <time>2019-02-06T13:32:32Z</time>
      </trkpt>
      <trkpt lat="46.0918" lon="6.78625">
        <ele>2269.81</ele>
        <time>2019-02-06T13:32:33Z</time>
      </trkpt>
      <trkpt lat="46.09182" lon="6.78613">
        <ele>2268.37</ele>
        <time>2019-02-06T13:32:34Z</time>
      </trkpt>
      <trkpt lat="46.09183" lon="6.78599">
        <ele>2266.45</ele>
        <time>2019-02-06T13:32:35Z</time>
      </trkpt>
      <trkpt lat="46.09184" lon="6.78585">
        <ele>2264.52</ele>
        <time>2019-02-06T13:32:36Z</time>
      </trkpt>
      <trkpt lat="46.09187" lon="6.78554">
        <ele>2259.72</ele>
        <time>2019-02-06T13:32:38Z</time>
      </trkpt>
      <trkpt lat="46.0919" lon="6.78539">
        <ele>2255.87</ele>
        <time>2019-02-06T13:32:39Z</time>
      </trkpt>
      <trkpt lat="46.09194" lon="6.78523">
        <ele>2253.47</ele>
        <time>2019-02-06T13:32:40Z</time>
      </trkpt>
      <trkpt lat="46.09198" lon="6.78508">
        <ele>2250.58</ele>
        <time>2019-02-06T13:32:41Z</time>
      </trkpt>
      <trkpt lat="46.09203" lon="6.78494">
        <ele>2247.22</ele>
        <time>2019-02-06T13:32:42Z</time>
      </trkpt>
      <trkpt lat="46.09208" lon="6.7848">
        <ele>2245.78</ele>
        <time>2019-02-06T13:32:43Z</time>
      </trkpt>
      <trkpt lat="46.0921" lon="6.78465">
        <ele>2244.82</ele>
        <time>2019-02-06T13:32:44Z</time>
      </trkpt>
      <trkpt lat="46.0921" lon="6.78452">
        <ele>2244.33</ele>
        <time>2019-02-06T13:32:45Z</time>
      </trkpt>
      <trkpt lat="46.09208" lon="6.78439">
        <ele>2243.37</ele>
        <time>2019-02-06T13:32:46Z</time>
      </trkpt>
      <trkpt lat="46.09206" lon="6.78428">
        <ele>2242.41</ele>
        <time>2019-02-06T13:32:47Z</time>
      </trkpt>
      <trkpt lat="46.09203" lon="6.78419">
        <ele>2240.97</ele>
        <time>2019-02-06T13:32:48Z</time>
      </trkpt>
      <trkpt lat="46.09202" lon="6.78411">
        <ele>2240.01</ele>
        <time>2019-02-06T13:32:49Z</time>
      </trkpt>
      <trkpt lat="46.09202" lon="6.78402">
        <ele>2238.57</ele>
        <time>2019-02-06T13:32:50Z</time>
      </trkpt>
      <trkpt lat="46.09203" lon="6.78392">
        <ele>2236.64</ele>
        <time>2019-02-06T13:32:51Z</time>
      </trkpt>
      <trkpt lat="46.09203" lon="6.78359">
        <ele>2231.84</ele>
        <time>2019-02-06T13:32:54Z</time>
      </trkpt>
      <trkpt lat="46.09202" lon="6.78347">
        <ele>2228.47</ele>
        <time>2019-02-06T13:32:55Z</time>
      </trkpt>
      <trkpt lat="46.09201" lon="6.78337">
        <ele>2226.07</ele>
        <time>2019-02-06T13:32:56Z</time>
      </trkpt>
      <trkpt lat="46.09199" lon="6.78329">
        <ele>2224.63</ele>
        <time>2019-02-06T13:32:57Z</time>
      </trkpt>
      <trkpt lat="46.09197" lon="6.78324">
        <ele>2224.15</ele>
        <time>2019-02-06T13:32:58Z</time>
      </trkpt>
      <trkpt lat="46.09195" lon="6.7832">
        <ele>2223.67</ele>
        <time>2019-02-06T13:32:59Z</time>
      </trkpt>
      <trkpt lat="46.09192" lon="6.78316">
        <ele>2223.67</ele>
        <time>2019-02-06T13:33:00Z</time>
      </trkpt>
      <trkpt lat="46.09189" lon="6.78313">
        <ele>2223.19</ele>
        <time>2019-02-06T13:33:01Z</time>
      </trkpt>
      <trkpt lat="46.09185" lon="6.78309">
        <ele>2222.71</ele>
        <time>2019-02-06T13:33:02Z</time>
      </trkpt>
      <trkpt lat="46.09181" lon="6.78304">
        <ele>2222.22</ele>
        <time>2019-02-06T13:33:03Z</time>
      </trkpt>
      <trkpt lat="46.09177" lon="6.78297">
        <ele>2220.78</ele>
        <time>2019-02-06T13:33:04Z</time>
      </trkpt>
      <trkpt lat="46.09172" lon="6.78292">
        <ele>2219.82</ele>
        <time>2019-02-06T13:33:05Z</time>
      </trkpt>
      <trkpt lat="46.09168" lon="6.78286">
        <ele>2219.34</ele>
        <time>2019-02-06T13:33:06Z</time>
      </trkpt>
      <trkpt lat="46.09165" lon="6.78278">
        <ele>2218.38</ele>
        <time>2019-02-06T13:33:07Z</time>
      </trkpt>
      <trkpt lat="46.09165" lon="6.78269">
        <ele>2217.42</ele>
        <time>2019-02-06T13:33:08Z</time>
      </trkpt>
      <trkpt lat="46.09167" lon="6.78259">
        <ele>2215.98</ele>
        <time>2019-02-06T13:33:09Z</time>
      </trkpt>
      <trkpt lat="46.0917" lon="6.78237">
        <ele>2212.61</ele>
        <time>2019-02-06T13:33:11Z</time>
      </trkpt>
      <trkpt lat="46.09171" lon="6.78225">
        <ele>2211.65</ele>
        <time>2019-02-06T13:33:12Z</time>
      </trkpt>
      <trkpt lat="46.09169" lon="6.78212">
        <ele>2210.21</ele>
        <time>2019-02-06T13:33:13Z</time>
      </trkpt>
      <trkpt lat="46.09165" lon="6.78184">
        <ele>2204.44</ele>
        <time>2019-02-06T13:33:15Z</time>
      </trkpt>
      <trkpt lat="46.09165" lon="6.78171">
        <ele>2200.59</ele>
        <time>2019-02-06T13:33:16Z</time>
      </trkpt>
      <trkpt lat="46.09168" lon="6.78151">
        <ele>2196.75</ele>
        <time>2019-02-06T13:33:18Z</time>
      </trkpt>
      <trkpt lat="46.09173" lon="6.78144">
        <ele>2194.83</ele>
        <time>2019-02-06T13:33:19Z</time>
      </trkpt>
      <trkpt lat="46.09174" lon="6.78135">
        <ele>2193.87</ele>
        <time>2019-02-06T13:33:20Z</time>
      </trkpt>
      <trkpt lat="46.09176" lon="6.78126">
        <ele>2193.39</ele>
        <time>2019-02-06T13:33:21Z</time>
      </trkpt>
      <trkpt lat="46.09176" lon="6.78117">
        <ele>2192.42</ele>
        <time>2019-02-06T13:33:22Z</time>
      </trkpt>
      <trkpt lat="46.09177" lon="6.78108">
        <ele>2190.98</ele>
        <time>2019-02-06T13:33:23Z</time>
      </trkpt>
      <trkpt lat="46.09177" lon="6.78087">
        <ele>2189.06</ele>
        <time>2019-02-06T13:33:26Z</time>
      </trkpt>
      <trkpt lat="46.09179" lon="6.78077">
        <ele>2189.06</ele>
        <time>2019-02-06T13:33:42Z</time>
      </trkpt>
      <trkpt lat="46.0918" lon="6.78075">
        <ele>2188.58</ele>
        <time>2019-02-06T13:33:43Z</time>
      </trkpt>
      <trkpt lat="46.09183" lon="6.78071">
        <ele>2188.58</ele>
        <time>2019-02-06T13:33:44Z</time>
      </trkpt>
      <trkpt lat="46.09185" lon="6.78067">
        <ele>2187.14</ele>
        <time>2019-02-06T13:33:45Z</time>
      </trkpt>
      <trkpt lat="46.09186" lon="6.78062">
        <ele>2185.69</ele>
        <time>2019-02-06T13:33:46Z</time>
      </trkpt>
      <trkpt lat="46.09187" lon="6.78054">
        <ele>2183.77</ele>
        <time>2019-02-06T13:33:47Z</time>
      </trkpt>
      <trkpt lat="46.09183" lon="6.78042">
        <ele>2180.41</ele>
        <time>2019-02-06T13:33:48Z</time>
      </trkpt>
      <trkpt lat="46.09174" lon="6.78027">
        <ele>2177.04</ele>
        <time>2019-02-06T13:33:49Z</time>
      </trkpt>
      <trkpt lat="46.0917" lon="6.78016">
        <ele>2173.2</ele>
        <time>2019-02-06T13:33:50Z</time>
      </trkpt>
      <trkpt lat="46.09166" lon="6.78005">
        <ele>2169.35</ele>
        <time>2019-02-06T13:33:51Z</time>
      </trkpt>
      <trkpt lat="46.09161" lon="6.77996">
        <ele>2166.47</ele>
        <time>2019-02-06T13:33:52Z</time>
      </trkpt>
      <trkpt lat="46.09159" lon="6.77988">
        <ele>2164.55</ele>
        <time>2019-02-06T13:33:53Z</time>
      </trkpt>
      <trkpt lat="46.09158" lon="6.77975">
        <ele>2161.18</ele>
        <time>2019-02-06T13:33:55Z</time>
      </trkpt>
      <trkpt lat="46.09158" lon="6.77972">
        <ele>2160.7</ele>
        <time>2019-02-06T13:33:56Z</time>
      </trkpt>
      <trkpt lat="46.09158" lon="6.77969">
        <ele>2160.22</ele>
        <time>2019-02-06T13:33:57Z</time>
      </trkpt>
      <trkpt lat="46.09157" lon="6.77964">
        <ele>2159.74</ele>
        <time>2019-02-06T13:33:58Z</time>
      </trkpt>
      <trkpt lat="46.09156" lon="6.77957">
        <ele>2158.78</ele>
        <time>2019-02-06T13:33:59Z</time>
      </trkpt>
      <trkpt lat="46.09153" lon="6.77951">
        <ele>2157.34</ele>
        <time>2019-02-06T13:34:00Z</time>
      </trkpt>
      <trkpt lat="46.09149" lon="6.77944">
        <ele>2155.41</ele>
        <time>2019-02-06T13:34:01Z</time>
      </trkpt>
      <trkpt lat="46.09146" lon="6.77935">
        <ele>2152.05</ele>
        <time>2019-02-06T13:34:02Z</time>
      </trkpt>
      <trkpt lat="46.09144" lon="6.77926">
        <ele>2148.2</ele>
        <time>2019-02-06T13:34:03Z</time>
      </trkpt>
      <trkpt lat="46.09138" lon="6.77919">
        <ele>2144.84</ele>
        <time>2019-02-06T13:34:04Z</time>
      </trkpt>
      <trkpt lat="46.09131" lon="6.77913">
        <ele>2141.47</ele>
        <time>2019-02-06T13:34:05Z</time>
      </trkpt>
      <trkpt lat="46.09123" lon="6.77907">
        <ele>2137.15</ele>
        <time>2019-02-06T13:34:06Z</time>
      </trkpt>
      <trkpt lat="46.09117" lon="6.77904">
        <ele>2133.78</ele>
        <time>2019-02-06T13:34:07Z</time>
      </trkpt>
      <trkpt lat="46.09111" lon="6.779">
        <ele>2130.42</ele>
        <time>2019-02-06T13:34:08Z</time>
      </trkpt>
      <trkpt lat="46.09104" lon="6.77898">
        <ele>2127.53</ele>
        <time>2019-02-06T13:34:09Z</time>
      </trkpt>
      <trkpt lat="46.09096" lon="6.779">
        <ele>2125.13</ele>
        <time>2019-02-06T13:34:10Z</time>
      </trkpt>
      <trkpt lat="46.0909" lon="6.77898">
        <ele>2121.77</ele>
        <time>2019-02-06T13:34:11Z</time>
      </trkpt>
      <trkpt lat="46.09085" lon="6.77893">
        <ele>2118.88</ele>
        <time>2019-02-06T13:34:12Z</time>
      </trkpt>
      <trkpt lat="46.09077" lon="6.7789">
        <ele>2116.48</ele>
        <time>2019-02-06T13:34:13Z</time>
      </trkpt>
      <trkpt lat="46.09069" lon="6.7789">
        <ele>2113.6</ele>
        <time>2019-02-06T13:34:14Z</time>
      </trkpt>
      <trkpt lat="46.09061" lon="6.77888">
        <ele>2109.75</ele>
        <time>2019-02-06T13:34:15Z</time>
      </trkpt>
      <trkpt lat="46.09055" lon="6.77884">
        <ele>2105.91</ele>
        <time>2019-02-06T13:34:16Z</time>
      </trkpt>
      <trkpt lat="46.09054" lon="6.77874">
        <ele>2103.98</ele>
        <time>2019-02-06T13:34:17Z</time>
      </trkpt>
      <trkpt lat="46.09055" lon="6.77862">
        <ele>2101.58</ele>
        <time>2019-02-06T13:34:18Z</time>
      </trkpt>
      <trkpt lat="46.09055" lon="6.77851">
        <ele>2099.18</ele>
        <time>2019-02-06T13:34:19Z</time>
      </trkpt>
      <trkpt lat="46.09056" lon="6.77844">
        <ele>2097.25</ele>
        <time>2019-02-06T13:34:20Z</time>
      </trkpt>
      <trkpt lat="46.09056" lon="6.7784">
        <ele>2096.29</ele>
        <time>2019-02-06T13:34:21Z</time>
      </trkpt>
      <trkpt lat="46.09057" lon="6.77838">
        <ele>2095.81</ele>
        <time>2019-02-06T13:34:22Z</time>
      </trkpt>
      <trkpt lat="46.09058" lon="6.77835">
        <ele>2095.81</ele>
        <time>2019-02-06T13:34:24Z</time>
      </trkpt>
      <trkpt lat="46.09059" lon="6.77834">
        <ele>2095.81</ele>
        <time>2019-02-06T13:34:25Z</time>
      </trkpt>
      <trkpt lat="46.09059" lon="6.77831">
        <ele>2095.33</ele>
        <time>2019-02-06T13:34:26Z</time>
      </trkpt>
      <trkpt lat="46.0906" lon="6.77828">
        <ele>2094.85</ele>
        <time>2019-02-06T13:34:27Z</time>
      </trkpt>
      <trkpt lat="46.09061" lon="6.77825">
        <ele>2094.37</ele>
        <time>2019-02-06T13:34:28Z</time>
      </trkpt>
      <trkpt lat="46.09061" lon="6.7782">
        <ele>2093.89</ele>
        <time>2019-02-06T13:34:29Z</time>
      </trkpt>
      <trkpt lat="46.09062" lon="6.77814">
        <ele>2092.45</ele>
        <time>2019-02-06T13:34:30Z</time>
      </trkpt>
      <trkpt lat="46.09062" lon="6.77805">
        <ele>2091</ele>
        <time>2019-02-06T13:34:31Z</time>
      </trkpt>
      <trkpt lat="46.09061" lon="6.77794">
        <ele>2088.6</ele>
        <time>2019-02-06T13:34:32Z</time>
      </trkpt>
      <trkpt lat="46.09059" lon="6.77783">
        <ele>2085.24</ele>
        <time>2019-02-06T13:34:33Z</time>
      </trkpt>
      <trkpt lat="46.09056" lon="6.77772">
        <ele>2082.83</ele>
        <time>2019-02-06T13:34:34Z</time>
      </trkpt>
      <trkpt lat="46.09053" lon="6.77763">
        <ele>2080.91</ele>
        <time>2019-02-06T13:34:35Z</time>
      </trkpt>
      <trkpt lat="46.09051" lon="6.77754">
        <ele>2079.95</ele>
        <time>2019-02-06T13:34:36Z</time>
      </trkpt>
      <trkpt lat="46.09051" lon="6.77747">
        <ele>2078.99</ele>
        <time>2019-02-06T13:34:37Z</time>
      </trkpt>
      <trkpt lat="46.0905" lon="6.77741">
        <ele>2078.03</ele>
        <time>2019-02-06T13:34:38Z</time>
      </trkpt>
      <trkpt lat="46.09046" lon="6.77734">
        <ele>2076.59</ele>
        <time>2019-02-06T13:34:39Z</time>
      </trkpt>
      <trkpt lat="46.09044" lon="6.77725">
        <ele>2074.18</ele>
        <time>2019-02-06T13:34:40Z</time>
      </trkpt>
      <trkpt lat="46.09042" lon="6.77715">
        <ele>2071.3</ele>
        <time>2019-02-06T13:34:41Z</time>
      </trkpt>
      <trkpt lat="46.09038" lon="6.77707">
        <ele>2068.89</ele>
        <time>2019-02-06T13:34:42Z</time>
      </trkpt>
      <trkpt lat="46.09031" lon="6.77699">
        <ele>2066.01</ele>
        <time>2019-02-06T13:34:43Z</time>
      </trkpt>
      <trkpt lat="46.09025" lon="6.7769">
        <ele>2060.72</ele>
        <time>2019-02-06T13:34:44Z</time>
      </trkpt>
      <trkpt lat="46.09019" lon="6.77679">
        <ele>2056.88</ele>
        <time>2019-02-06T13:34:45Z</time>
      </trkpt>
      <trkpt lat="46.09012" lon="6.77671">
        <ele>2053.99</ele>
        <time>2019-02-06T13:34:46Z</time>
      </trkpt>
      <trkpt lat="46.09004" lon="6.77664">
        <ele>2052.55</ele>
        <time>2019-02-06T13:34:47Z</time>
      </trkpt>
      <trkpt lat="46.08997" lon="6.77658">
        <ele>2048.23</ele>
        <time>2019-02-06T13:34:48Z</time>
      </trkpt>
      <trkpt lat="46.0899" lon="6.77654">
        <ele>2045.34</ele>
        <time>2019-02-06T13:34:49Z</time>
      </trkpt>
      <trkpt lat="46.08985" lon="6.77651">
        <ele>2043.42</ele>
        <time>2019-02-06T13:34:50Z</time>
      </trkpt>
      <trkpt lat="46.08981" lon="6.77648">
        <ele>2041.02</ele>
        <time>2019-02-06T13:34:51Z</time>
      </trkpt>
      <trkpt lat="46.08977" lon="6.77646">
        <ele>2039.57</ele>
        <time>2019-02-06T13:34:52Z</time>
      </trkpt>
      <trkpt lat="46.08975" lon="6.77647">
        <ele>2038.61</ele>
        <time>2019-02-06T13:34:53Z</time>
      </trkpt>
      <trkpt lat="46.08973" lon="6.77648">
        <ele>2038.13</ele>
        <time>2019-02-06T13:34:55Z</time>
      </trkpt>
      <trkpt lat="46.08971" lon="6.77647">
        <ele>2037.65</ele>
        <time>2019-02-06T13:34:56Z</time>
      </trkpt>
      <trkpt lat="46.08969" lon="6.77645">
        <ele>2036.69</ele>
        <time>2019-02-06T13:34:57Z</time>
      </trkpt>
      <trkpt lat="46.08967" lon="6.7764">
        <ele>2036.21</ele>
        <time>2019-02-06T13:34:58Z</time>
      </trkpt>
      <trkpt lat="46.08965" lon="6.77635">
        <ele>2034.77</ele>
        <time>2019-02-06T13:34:59Z</time>
      </trkpt>
      <trkpt lat="46.08962" lon="6.77629">
        <ele>2032.36</ele>
        <time>2019-02-06T13:35:00Z</time>
      </trkpt>
      <trkpt lat="46.0896" lon="6.77621">
        <ele>2030.44</ele>
        <time>2019-02-06T13:35:01Z</time>
      </trkpt>
      <trkpt lat="46.08956" lon="6.77615">
        <ele>2027.08</ele>
        <time>2019-02-06T13:35:02Z</time>
      </trkpt>
      <trkpt lat="46.08949" lon="6.77611">
        <ele>2024.19</ele>
        <time>2019-02-06T13:35:03Z</time>
      </trkpt>
      <trkpt lat="46.08943" lon="6.77606">
        <ele>2020.83</ele>
        <time>2019-02-06T13:35:04Z</time>
      </trkpt>
      <trkpt lat="46.08939" lon="6.77598">
        <ele>2016.98</ele>
        <time>2019-02-06T13:35:05Z</time>
      </trkpt>
      <trkpt lat="46.08935" lon="6.77591">
        <ele>2014.1</ele>
        <time>2019-02-06T13:35:06Z</time>
      </trkpt>
      <trkpt lat="46.08932" lon="6.77584">
        <ele>2012.66</ele>
        <time>2019-02-06T13:35:07Z</time>
      </trkpt>
      <trkpt lat="46.08932" lon="6.77577">
        <ele>2008.81</ele>
        <time>2019-02-06T13:35:08Z</time>
      </trkpt>
      <trkpt lat="46.08931" lon="6.77569">
        <ele>2006.41</ele>
        <time>2019-02-06T13:35:09Z</time>
      </trkpt>
      <trkpt lat="46.08929" lon="6.77562">
        <ele>2002.56</ele>
        <time>2019-02-06T13:35:10Z</time>
      </trkpt>
      <trkpt lat="46.08928" lon="6.77552">
        <ele>1999.68</ele>
        <time>2019-02-06T13:35:11Z</time>
      </trkpt>
      <trkpt lat="46.08925" lon="6.77544">
        <ele>1996.8</ele>
        <time>2019-02-06T13:35:12Z</time>
      </trkpt>
      <trkpt lat="46.08921" lon="6.77539">
        <ele>1993.91</ele>
        <time>2019-02-06T13:35:13Z</time>
      </trkpt>
      <trkpt lat="46.08917" lon="6.77533">
        <ele>1991.51</ele>
        <time>2019-02-06T13:35:14Z</time>
      </trkpt>
      <trkpt lat="46.08915" lon="6.77527">
        <ele>1989.59</ele>
        <time>2019-02-06T13:35:15Z</time>
      </trkpt>
      <trkpt lat="46.08915" lon="6.77524">
        <ele>1988.14</ele>
        <time>2019-02-06T13:35:16Z</time>
      </trkpt>
      <trkpt lat="46.08915" lon="6.77523">
        <ele>1987.18</ele>
        <time>2019-02-06T13:35:17Z</time>
      </trkpt>
      <trkpt lat="46.08915" lon="6.77507">
        <ele>1983.82</ele>
        <time>2019-02-06T13:35:43Z</time>
      </trkpt>
      <trkpt lat="46.08913" lon="6.775">
        <ele>1982.86</ele>
        <time>2019-02-06T13:35:44Z</time>
      </trkpt>
      <trkpt lat="46.08907" lon="6.77496">
        <ele>1979.49</ele>
        <time>2019-02-06T13:35:45Z</time>
      </trkpt>
      <trkpt lat="46.089" lon="6.77492">
        <ele>1976.13</ele>
        <time>2019-02-06T13:35:46Z</time>
      </trkpt>
      <trkpt lat="46.08893" lon="6.77483">
        <ele>1971.32</ele>
        <time>2019-02-06T13:35:47Z</time>
      </trkpt>
      <trkpt lat="46.08889" lon="6.77473">
        <ele>1966.99</ele>
        <time>2019-02-06T13:35:48Z</time>
      </trkpt>
      <trkpt lat="46.08886" lon="6.77463">
        <ele>1964.11</ele>
        <time>2019-02-06T13:35:49Z</time>
      </trkpt>
      <trkpt lat="46.08882" lon="6.77452">
        <ele>1961.23</ele>
        <time>2019-02-06T13:35:50Z</time>
      </trkpt>
      <trkpt lat="46.08881" lon="6.77441">
        <ele>1957.86</ele>
        <time>2019-02-06T13:35:51Z</time>
      </trkpt>
      <trkpt lat="46.08878" lon="6.77432">
        <ele>1955.94</ele>
        <time>2019-02-06T13:35:52Z</time>
      </trkpt>
      <trkpt lat="46.08874" lon="6.77423">
        <ele>1952.57</ele>
        <time>2019-02-06T13:35:53Z</time>
      </trkpt>
      <trkpt lat="46.08872" lon="6.77413">
        <ele>1949.21</ele>
        <time>2019-02-06T13:35:54Z</time>
      </trkpt>
      <trkpt lat="46.08869" lon="6.77405">
        <ele>1945.85</ele>
        <time>2019-02-06T13:35:55Z</time>
      </trkpt>
      <trkpt lat="46.08866" lon="6.77395">
        <ele>1942.96</ele>
        <time>2019-02-06T13:35:56Z</time>
      </trkpt>
      <trkpt lat="46.08863" lon="6.77387">
        <ele>1940.08</ele>
        <time>2019-02-06T13:35:57Z</time>
      </trkpt>
      <trkpt lat="46.0886" lon="6.7738">
        <ele>1937.67</ele>
        <time>2019-02-06T13:35:58Z</time>
      </trkpt>
      <trkpt lat="46.08857" lon="6.77374">
        <ele>1936.23</ele>
        <time>2019-02-06T13:35:59Z</time>
      </trkpt>
      <trkpt lat="46.08853" lon="6.77366">
        <ele>1933.83</ele>
        <time>2019-02-06T13:36:00Z</time>
      </trkpt>
      <trkpt lat="46.08848" lon="6.77359">
        <ele>1932.39</ele>
        <time>2019-02-06T13:36:01Z</time>
      </trkpt>
      <trkpt lat="46.08842" lon="6.77354">
        <ele>1929.02</ele>
        <time>2019-02-06T13:36:02Z</time>
      </trkpt>
      <trkpt lat="46.08837" lon="6.77346">
        <ele>1925.18</ele>
        <time>2019-02-06T13:36:03Z</time>
      </trkpt>
      <trkpt lat="46.08833" lon="6.77336">
        <ele>1921.33</ele>
        <time>2019-02-06T13:36:04Z</time>
      </trkpt>
      <trkpt lat="46.08828" lon="6.77328">
        <ele>1917.01</ele>
        <time>2019-02-06T13:36:05Z</time>
      </trkpt>
      <trkpt lat="46.08824" lon="6.7732">
        <ele>1913.16</ele>
        <time>2019-02-06T13:36:06Z</time>
      </trkpt>
      <trkpt lat="46.0882" lon="6.77313">
        <ele>1910.28</ele>
        <time>2019-02-06T13:36:07Z</time>
      </trkpt>
      <trkpt lat="46.08815" lon="6.77307">
        <ele>1907.87</ele>
        <time>2019-02-06T13:36:08Z</time>
      </trkpt>
      <trkpt lat="46.0881" lon="6.773">
        <ele>1905.95</ele>
        <time>2019-02-06T13:36:09Z</time>
      </trkpt>
      <trkpt lat="46.08805" lon="6.77294">
        <ele>1901.63</ele>
        <time>2019-02-06T13:36:10Z</time>
      </trkpt>
      <trkpt lat="46.08798" lon="6.77291">
        <ele>1898.26</ele>
        <time>2019-02-06T13:36:11Z</time>
      </trkpt>
      <trkpt lat="46.08791" lon="6.77288">
        <ele>1894.42</ele>
        <time>2019-02-06T13:36:12Z</time>
      </trkpt>
      <trkpt lat="46.08784" lon="6.77285">
        <ele>1891.05</ele>
        <time>2019-02-06T13:36:13Z</time>
      </trkpt>
      <trkpt lat="46.08777" lon="6.77285">
        <ele>1888.17</ele>
        <time>2019-02-06T13:36:14Z</time>
      </trkpt>
      <trkpt lat="46.08771" lon="6.77285">
        <ele>1885.76</ele>
        <time>2019-02-06T13:36:15Z</time>
      </trkpt>
      <trkpt lat="46.08768" lon="6.77283">
        <ele>1883.84</ele>
        <time>2019-02-06T13:36:16Z</time>
      </trkpt>
      <trkpt lat="46.08764" lon="6.77281">
        <ele>1882.4</ele>
        <time>2019-02-06T13:36:17Z</time>
      </trkpt>
      <trkpt lat="46.0876" lon="6.77278">
        <ele>1881.44</ele>
        <time>2019-02-06T13:36:18Z</time>
      </trkpt>
      <trkpt lat="46.08756" lon="6.77272">
        <ele>1878.07</ele>
        <time>2019-02-06T13:36:19Z</time>
      </trkpt>
      <trkpt lat="46.08752" lon="6.77266">
        <ele>1875.19</ele>
        <time>2019-02-06T13:36:20Z</time>
      </trkpt>
      <trkpt lat="46.08746" lon="6.77263">
        <ele>1871.82</ele>
        <time>2019-02-06T13:36:21Z</time>
      </trkpt>
      <trkpt lat="46.08739" lon="6.77261">
        <ele>1867.98</ele>
        <time>2019-02-06T13:36:22Z</time>
      </trkpt>
      <trkpt lat="46.08732" lon="6.77257">
        <ele>1864.13</ele>
        <time>2019-02-06T13:36:23Z</time>
      </trkpt>
      <trkpt lat="46.08726" lon="6.77249">
        <ele>1862.21</ele>
        <time>2019-02-06T13:36:24Z</time>
      </trkpt>
      <trkpt lat="46.08722" lon="6.77236">
        <ele>1855.96</ele>
        <time>2019-02-06T13:36:25Z</time>
      </trkpt>
      <trkpt lat="46.08719" lon="6.77225">
        <ele>1852.12</ele>
        <time>2019-02-06T13:36:26Z</time>
      </trkpt>
      <trkpt lat="46.08714" lon="6.77207">
        <ele>1848.27</ele>
        <time>2019-02-06T13:36:28Z</time>
      </trkpt>
      <trkpt lat="46.0871" lon="6.77193">
        <ele>1845.39</ele>
        <time>2019-02-06T13:36:30Z</time>
      </trkpt>
      <trkpt lat="46.08709" lon="6.77187">
        <ele>1844.43</ele>
        <time>2019-02-06T13:36:31Z</time>
      </trkpt>
      <trkpt lat="46.0871" lon="6.77172">
        <ele>1842.02</ele>
        <time>2019-02-06T13:36:34Z</time>
      </trkpt>
      <trkpt lat="46.08711" lon="6.77171">
        <ele>1841.06</ele>
        <time>2019-02-06T13:36:36Z</time>
      </trkpt>
      <trkpt lat="46.08711" lon="6.77173">
        <ele>1840.58</ele>
        <time>2019-02-06T13:36:55Z</time>
      </trkpt>
      <trkpt lat="46.08709" lon="6.77173">
        <ele>1840.58</ele>
        <time>2019-02-06T13:36:56Z</time>
      </trkpt>
      <trkpt lat="46.08706" lon="6.77173">
        <ele>1839.62</ele>
        <time>2019-02-06T13:36:57Z</time>
      </trkpt>
      <trkpt lat="46.087" lon="6.77173">
        <ele>1838.18</ele>
        <time>2019-02-06T13:36:58Z</time>
      </trkpt>
      <trkpt lat="46.08694" lon="6.77173">
        <ele>1835.77</ele>
        <time>2019-02-06T13:36:59Z</time>
      </trkpt>
      <trkpt lat="46.08688" lon="6.77168">
        <ele>1834.33</ele>
        <time>2019-02-06T13:37:00Z</time>
      </trkpt>
      <trkpt lat="46.08682" lon="6.77162">
        <ele>1830.97</ele>
        <time>2019-02-06T13:37:01Z</time>
      </trkpt>
      <trkpt lat="46.08676" lon="6.77156">
        <ele>1828.08</ele>
        <time>2019-02-06T13:37:02Z</time>
      </trkpt>
      <trkpt lat="46.0867" lon="6.77149">
        <ele>1825.2</ele>
        <time>2019-02-06T13:37:03Z</time>
      </trkpt>
      <trkpt lat="46.08664" lon="6.77141">
        <ele>1822.32</ele>
        <time>2019-02-06T13:37:04Z</time>
      </trkpt>
      <trkpt lat="46.08658" lon="6.77134">
        <ele>1818.95</ele>
        <time>2019-02-06T13:37:05Z</time>
      </trkpt>
      <trkpt lat="46.08653" lon="6.77126">
        <ele>1817.03</ele>
        <time>2019-02-06T13:37:06Z</time>
      </trkpt>
      <trkpt lat="46.08649" lon="6.77117">
        <ele>1812.22</ele>
        <time>2019-02-06T13:37:07Z</time>
      </trkpt>
      <trkpt lat="46.08646" lon="6.77107">
        <ele>1808.86</ele>
        <time>2019-02-06T13:37:08Z</time>
      </trkpt>
      <trkpt lat="46.08645" lon="6.77097">
        <ele>1805.49</ele>
        <time>2019-02-06T13:37:09Z</time>
      </trkpt>
      <trkpt lat="46.08643" lon="6.77087">
        <ele>1802.61</ele>
        <time>2019-02-06T13:37:10Z</time>
      </trkpt>
      <trkpt lat="46.08641" lon="6.77078">
        <ele>1800.21</ele>
        <time>2019-02-06T13:37:11Z</time>
      </trkpt>
      <trkpt lat="46.08639" lon="6.7707">
        <ele>1798.28</ele>
        <time>2019-02-06T13:37:12Z</time>
      </trkpt>
      <trkpt lat="46.08638" lon="6.77061">
        <ele>1796.84</ele>
        <time>2019-02-06T13:37:13Z</time>
      </trkpt>
      <trkpt lat="46.08638" lon="6.77054">
        <ele>1795.88</ele>
        <time>2019-02-06T13:37:14Z</time>
      </trkpt>
      <trkpt lat="46.08639" lon="6.77047">
        <ele>1793.48</ele>
        <time>2019-02-06T13:37:15Z</time>
      </trkpt>
      <trkpt lat="46.08642" lon="6.77041">
        <ele>1792.03</ele>
        <time>2019-02-06T13:37:16Z</time>
      </trkpt>
      <trkpt lat="46.08646" lon="6.77029">
        <ele>1789.63</ele>
        <time>2019-02-06T13:37:18Z</time>
      </trkpt>
      <trkpt lat="46.08647" lon="6.77021">
        <ele>1788.19</ele>
        <time>2019-02-06T13:37:19Z</time>
      </trkpt>
      <trkpt lat="46.08646" lon="6.7701">
        <ele>1786.27</ele>
        <time>2019-02-06T13:37:20Z</time>
      </trkpt>
      <trkpt lat="46.08646" lon="6.76999">
        <ele>1781.46</ele>
        <time>2019-02-06T13:37:21Z</time>
      </trkpt>
      <trkpt lat="46.08643" lon="6.76991">
        <ele>1778.58</ele>
        <time>2019-02-06T13:37:22Z</time>
      </trkpt>
      <trkpt lat="46.08639" lon="6.76983">
        <ele>1775.21</ele>
        <time>2019-02-06T13:37:23Z</time>
      </trkpt>
      <trkpt lat="46.08636" lon="6.76973">
        <ele>1770.89</ele>
        <time>2019-02-06T13:37:24Z</time>
      </trkpt>
      <trkpt lat="46.08633" lon="6.76964">
        <ele>1767.52</ele>
        <time>2019-02-06T13:37:25Z</time>
      </trkpt>
      <trkpt lat="46.08628" lon="6.76959">
        <ele>1765.12</ele>
        <time>2019-02-06T13:37:26Z</time>
      </trkpt>
      <trkpt lat="46.08623" lon="6.76952">
        <ele>1760.79</ele>
        <time>2019-02-06T13:37:27Z</time>
      </trkpt>
      <trkpt lat="46.08623" lon="6.76942">
        <ele>1757.43</ele>
        <time>2019-02-06T13:37:28Z</time>
      </trkpt>
      <trkpt lat="46.08623" lon="6.76933">
        <ele>1754.54</ele>
        <time>2019-02-06T13:37:29Z</time>
      </trkpt>
      <trkpt lat="46.08624" lon="6.76924">
        <ele>1751.66</ele>
        <time>2019-02-06T13:37:30Z</time>
      </trkpt>
      <trkpt lat="46.08625" lon="6.76916">
        <ele>1750.22</ele>
        <time>2019-02-06T13:37:31Z</time>
      </trkpt>
      <trkpt lat="46.08623" lon="6.76909">
        <ele>1748.78</ele>
        <time>2019-02-06T13:37:32Z</time>
      </trkpt>
      <trkpt lat="46.08619" lon="6.76904">
        <ele>1746.85</ele>
        <time>2019-02-06T13:37:33Z</time>
      </trkpt>
      <trkpt lat="46.08614" lon="6.76897">
        <ele>1744.93</ele>
        <time>2019-02-06T13:37:34Z</time>
      </trkpt>
      <trkpt lat="46.08611" lon="6.76887">
        <ele>1740.6</ele>
        <time>2019-02-06T13:37:35Z</time>
      </trkpt>
      <trkpt lat="46.08608" lon="6.76879">
        <ele>1738.2</ele>
        <time>2019-02-06T13:37:36Z</time>
      </trkpt>
      <trkpt lat="46.08606" lon="6.76872">
        <ele>1736.76</ele>
        <time>2019-02-06T13:37:37Z</time>
      </trkpt>
      <trkpt lat="46.08602" lon="6.76865">
        <ele>1734.84</ele>
        <time>2019-02-06T13:37:38Z</time>
      </trkpt>
      <trkpt lat="46.086" lon="6.76856">
        <ele>1732.43</ele>
        <time>2019-02-06T13:37:39Z</time>
      </trkpt>
      <trkpt lat="46.08596" lon="6.76842">
        <ele>1730.03</ele>
        <time>2019-02-06T13:37:41Z</time>
      </trkpt>
      <trkpt lat="46.08595" lon="6.76836">
        <ele>1728.59</ele>
        <time>2019-02-06T13:37:42Z</time>
      </trkpt>
      <trkpt lat="46.08596" lon="6.76832">
        <ele>1727.15</ele>
        <time>2019-02-06T13:37:43Z</time>
      </trkpt>
      <trkpt lat="46.08598" lon="6.76828">
        <ele>1725.22</ele>
        <time>2019-02-06T13:37:44Z</time>
      </trkpt>
      <trkpt lat="46.08599" lon="6.76824">
        <ele>1723.78</ele>
        <time>2019-02-06T13:37:45Z</time>
      </trkpt>
      <trkpt lat="46.086" lon="6.7682">
        <ele>1722.82</ele>
        <time>2019-02-06T13:37:46Z</time>
      </trkpt>
      <trkpt lat="46.08597" lon="6.76814">
        <ele>1721.38</ele>
        <time>2019-02-06T13:37:47Z</time>
      </trkpt>
      <trkpt lat="46.08595" lon="6.76805">
        <ele>1717.53</ele>
        <time>2019-02-06T13:37:48Z</time>
      </trkpt>
      <trkpt lat="46.08594" lon="6.76795">
        <ele>1713.21</ele>
        <time>2019-02-06T13:37:49Z</time>
      </trkpt>
      <trkpt lat="46.08592" lon="6.76786">
        <ele>1709.84</ele>
        <time>2019-02-06T13:37:50Z</time>
      </trkpt>
      <trkpt lat="46.08588" lon="6.76776">
        <ele>1706.96</ele>
        <time>2019-02-06T13:37:51Z</time>
      </trkpt>
      <trkpt lat="46.08587" lon="6.76767">
        <ele>1704.07</ele>
        <time>2019-02-06T13:37:52Z</time>
      </trkpt>
      <trkpt lat="46.08584" lon="6.76759">
        <ele>1703.11</ele>
        <time>2019-02-06T13:37:53Z</time>
      </trkpt>
      <trkpt lat="46.08581" lon="6.76752">
        <ele>1701.19</ele>
        <time>2019-02-06T13:37:54Z</time>
      </trkpt>
      <trkpt lat="46.08578" lon="6.76747">
        <ele>1699.27</ele>
        <time>2019-02-06T13:37:55Z</time>
      </trkpt>
      <trkpt lat="46.08574" lon="6.76743">
        <ele>1697.83</ele>
        <time>2019-02-06T13:37:56Z</time>
      </trkpt>
      <trkpt lat="46.0857" lon="6.76738">
        <ele>1695.9</ele>
        <time>2019-02-06T13:37:57Z</time>
      </trkpt>
      <trkpt lat="46.08567" lon="6.76732">
        <ele>1693.98</ele>
        <time>2019-02-06T13:37:58Z</time>
      </trkpt>
      <trkpt lat="46.08565" lon="6.76726">
        <ele>1692.06</ele>
        <time>2019-02-06T13:37:59Z</time>
      </trkpt>
      <trkpt lat="46.08564" lon="6.7672">
        <ele>1689.65</ele>
        <time>2019-02-06T13:38:00Z</time>
      </trkpt>
      <trkpt lat="46.08563" lon="6.76714">
        <ele>1688.21</ele>
        <time>2019-02-06T13:38:01Z</time>
      </trkpt>
      <trkpt lat="46.08562" lon="6.76709">
        <ele>1687.73</ele>
        <time>2019-02-06T13:38:02Z</time>
      </trkpt>
      <trkpt lat="46.08561" lon="6.76703">
        <ele>1686.77</ele>
        <time>2019-02-06T13:38:03Z</time>
      </trkpt>
      <trkpt lat="46.08559" lon="6.76696">
        <ele>1685.81</ele>
        <time>2019-02-06T13:38:04Z</time>
      </trkpt>
      <trkpt lat="46.08558" lon="6.76689">
        <ele>1684.85</ele>
        <time>2019-02-06T13:38:05Z</time>
      </trkpt>
      <trkpt lat="46.08557" lon="6.76681">
        <ele>1683.41</ele>
        <time>2019-02-06T13:38:06Z</time>
      </trkpt>
      <trkpt lat="46.08552" lon="6.76666">
        <ele>1681</ele>
        <time>2019-02-06T13:38:08Z</time>
      </trkpt>
      <trkpt lat="46.08549" lon="6.7666">
        <ele>1680.52</ele>
        <time>2019-02-06T13:38:09Z</time>
      </trkpt>
      <trkpt lat="46.08546" lon="6.76654">
        <ele>1679.08</ele>
        <time>2019-02-06T13:38:10Z</time>
      </trkpt>
      <trkpt lat="46.08538" lon="6.76644">
        <ele>1677.64</ele>
        <time>2019-02-06T13:38:12Z</time>
      </trkpt>
      <trkpt lat="46.08534" lon="6.76643">
        <ele>1676.68</ele>
        <time>2019-02-06T13:38:13Z</time>
      </trkpt>
      <trkpt lat="46.08531" lon="6.76642">
        <ele>1676.2</ele>
        <time>2019-02-06T13:38:14Z</time>
      </trkpt>
      <trkpt lat="46.08529" lon="6.76641">
        <ele>1676.2</ele>
        <time>2019-02-06T13:38:15Z</time>
      </trkpt>
      <trkpt lat="46.08528" lon="6.76641">
        <ele>1676.68</ele>
        <time>2019-02-06T13:38:16Z</time>
      </trkpt>
      <trkpt lat="46.08516" lon="6.76638">
        <ele>1675.72</ele>
        <time>2019-02-06T13:38:22Z</time>
      </trkpt>
      <trkpt lat="46.08513" lon="6.7664">
        <ele>1675.23</ele>
        <time>2019-02-06T13:38:23Z</time>
      </trkpt>
      <trkpt lat="46.08509" lon="6.7664">
        <ele>1674.75</ele>
        <time>2019-02-06T13:38:24Z</time>
      </trkpt>
      <trkpt lat="46.08507" lon="6.76638">
        <ele>1673.79</ele>
        <time>2019-02-06T13:38:25Z</time>
      </trkpt>
      <trkpt lat="46.08505" lon="6.76636">
        <ele>1672.83</ele>
        <time>2019-02-06T13:38:26Z</time>
      </trkpt>
      <trkpt lat="46.08499" lon="6.76634">
        <ele>1670.91</ele>
        <time>2019-02-06T13:38:50Z</time>
      </trkpt>
      <trkpt lat="46.08494" lon="6.76637">
        <ele>1668.99</ele>
        <time>2019-02-06T13:38:51Z</time>
      </trkpt>
      <trkpt lat="46.08489" lon="6.76636">
        <ele>1667.06</ele>
        <time>2019-02-06T13:38:52Z</time>
      </trkpt>
      <trkpt lat="46.08485" lon="6.76636">
        <ele>1665.14</ele>
        <time>2019-02-06T13:38:53Z</time>
      </trkpt>
      <trkpt lat="46.08481" lon="6.76637">
        <ele>1662.74</ele>
        <time>2019-02-06T13:38:54Z</time>
      </trkpt>
      <trkpt lat="46.08477" lon="6.76637">
        <ele>1660.81</ele>
        <time>2019-02-06T13:38:55Z</time>
      </trkpt>
      <trkpt lat="46.08473" lon="6.76635">
        <ele>1658.41</ele>
        <time>2019-02-06T13:38:56Z</time>
      </trkpt>
      <trkpt lat="46.08469" lon="6.76634">
        <ele>1656.49</ele>
        <time>2019-02-06T13:38:57Z</time>
      </trkpt>
      <trkpt lat="46.08465" lon="6.76633">
        <ele>1653.6</ele>
        <time>2019-02-06T13:38:58Z</time>
      </trkpt>
      <trkpt lat="46.08461" lon="6.76632">
        <ele>1650.72</ele>
        <time>2019-02-06T13:38:59Z</time>
      </trkpt>
      <trkpt lat="46.08456" lon="6.76635">
        <ele>1647.84</ele>
        <time>2019-02-06T13:39:00Z</time>
      </trkpt>
      <trkpt lat="46.08452" lon="6.76639">
        <ele>1645.43</ele>
        <time>2019-02-06T13:39:01Z</time>
      </trkpt>
      <trkpt lat="46.08448" lon="6.76638">
        <ele>1643.03</ele>
        <time>2019-02-06T13:39:02Z</time>
      </trkpt>
      <trkpt lat="46.08446" lon="6.76634">
        <ele>1640.63</ele>
        <time>2019-02-06T13:39:03Z</time>
      </trkpt>
      <trkpt lat="46.08441" lon="6.76633">
        <ele>1637.26</ele>
        <time>2019-02-06T13:39:04Z</time>
      </trkpt>
      <trkpt lat="46.08436" lon="6.76632">
        <ele>1634.38</ele>
        <time>2019-02-06T13:39:05Z</time>
      </trkpt>
      <trkpt lat="46.08432" lon="6.76628">
        <ele>1631.01</ele>
        <time>2019-02-06T13:39:06Z</time>
      </trkpt>
      <trkpt lat="46.08427" lon="6.76623">
        <ele>1628.13</ele>
        <time>2019-02-06T13:39:07Z</time>
      </trkpt>
      <trkpt lat="46.08421" lon="6.76621">
        <ele>1624.77</ele>
        <time>2019-02-06T13:39:08Z</time>
      </trkpt>
      <trkpt lat="46.08416" lon="6.76618">
        <ele>1620.92</ele>
        <time>2019-02-06T13:39:09Z</time>
      </trkpt>
      <trkpt lat="46.0841" lon="6.76612">
        <ele>1617.07</ele>
        <time>2019-02-06T13:39:10Z</time>
      </trkpt>
      <trkpt lat="46.08407" lon="6.76605">
        <ele>1614.19</ele>
        <time>2019-02-06T13:39:11Z</time>
      </trkpt>
      <trkpt lat="46.08404" lon="6.76599">
        <ele>1609.38</ele>
        <time>2019-02-06T13:39:12Z</time>
      </trkpt>
      <trkpt lat="46.084" lon="6.76597">
        <ele>1606.98</ele>
        <time>2019-02-06T13:39:13Z</time>
      </trkpt>
      <trkpt lat="46.08395" lon="6.76597">
        <ele>1604.58</ele>
        <time>2019-02-06T13:39:14Z</time>
      </trkpt>
      <trkpt lat="46.08391" lon="6.76593">
        <ele>1601.69</ele>
        <time>2019-02-06T13:39:15Z</time>
      </trkpt>
      <trkpt lat="46.08387" lon="6.76592">
        <ele>1599.29</ele>
        <time>2019-02-06T13:39:16Z</time>
      </trkpt>
      <trkpt lat="46.08382" lon="6.76595">
        <ele>1596.89</ele>
        <time>2019-02-06T13:39:17Z</time>
      </trkpt>
      <trkpt lat="46.08378" lon="6.76598">
        <ele>1595.45</ele>
        <time>2019-02-06T13:39:18Z</time>
      </trkpt>
      <trkpt lat="46.08375" lon="6.766">
        <ele>1594</ele>
        <time>2019-02-06T13:39:19Z</time>
      </trkpt>
      <trkpt lat="46.08372" lon="6.76602">
        <ele>1593.52</ele>
        <time>2019-02-06T13:39:20Z</time>
      </trkpt>
      <trkpt lat="46.0837" lon="6.76603">
        <ele>1592.56</ele>
        <time>2019-02-06T13:39:22Z</time>
      </trkpt>
      <trkpt lat="46.08367" lon="6.76603">
        <ele>1592.08</ele>
        <time>2019-02-06T13:39:32Z</time>
      </trkpt>
      <trkpt lat="46.08366" lon="6.76599">
        <ele>1590.64</ele>
        <time>2019-02-06T13:39:33Z</time>
      </trkpt>
      <trkpt lat="46.08365" lon="6.76593">
        <ele>1589.2</ele>
        <time>2019-02-06T13:39:34Z</time>
      </trkpt>
      <trkpt lat="46.08365" lon="6.76589">
        <ele>1587.75</ele>
        <time>2019-02-06T13:39:35Z</time>
      </trkpt>
      <trkpt lat="46.08364" lon="6.76586">
        <ele>1586.79</ele>
        <time>2019-02-06T13:39:36Z</time>
      </trkpt>
      <trkpt lat="46.08362" lon="6.76584">
        <ele>1585.83</ele>
        <time>2019-02-06T13:39:37Z</time>
      </trkpt>
      <trkpt lat="46.08358" lon="6.76584">
        <ele>1584.39</ele>
        <time>2019-02-06T13:39:38Z</time>
      </trkpt>
      <trkpt lat="46.08356" lon="6.76582">
        <ele>1582.47</ele>
        <time>2019-02-06T13:39:39Z</time>
      </trkpt>
      <trkpt lat="46.08355" lon="6.76578">
        <ele>1581.03</ele>
        <time>2019-02-06T13:39:40Z</time>
      </trkpt>
      <trkpt lat="46.08353" lon="6.76573">
        <ele>1579.1</ele>
        <time>2019-02-06T13:39:41Z</time>
      </trkpt>
      <trkpt lat="46.08352" lon="6.76568">
        <ele>1576.7</ele>
        <time>2019-02-06T13:39:42Z</time>
      </trkpt>
      <trkpt lat="46.08351" lon="6.76562">
        <ele>1574.78</ele>
        <time>2019-02-06T13:39:43Z</time>
      </trkpt>
      <trkpt lat="46.08349" lon="6.76556">
        <ele>1573.33</ele>
        <time>2019-02-06T13:39:44Z</time>
      </trkpt>
      <trkpt lat="46.08346" lon="6.76549">
        <ele>1569.49</ele>
        <time>2019-02-06T13:39:46Z</time>
      </trkpt>
      <trkpt lat="46.08344" lon="6.76544">
        <ele>1568.05</ele>
        <time>2019-02-06T13:39:47Z</time>
      </trkpt>
      <trkpt lat="46.08342" lon="6.76538">
        <ele>1566.61</ele>
        <time>2019-02-06T13:39:48Z</time>
      </trkpt>
      <trkpt lat="46.08341" lon="6.76532">
        <ele>1565.16</ele>
        <time>2019-02-06T13:39:49Z</time>
      </trkpt>
      <trkpt lat="46.08339" lon="6.76527">
        <ele>1564.68</ele>
        <time>2019-02-06T13:39:50Z</time>
      </trkpt>
      <trkpt lat="46.08338" lon="6.76521">
        <ele>1563.24</ele>
        <time>2019-02-06T13:39:51Z</time>
      </trkpt>
      <trkpt lat="46.08336" lon="6.76516">
        <ele>1562.28</ele>
        <time>2019-02-06T13:39:52Z</time>
      </trkpt>
      <trkpt lat="46.08334" lon="6.76511">
        <ele>1561.32</ele>
        <time>2019-02-06T13:39:53Z</time>
      </trkpt>
      <trkpt lat="46.08331" lon="6.76509">
        <ele>1560.36</ele>
        <time>2019-02-06T13:39:54Z</time>
      </trkpt>
      <trkpt lat="46.08327" lon="6.76509">
        <ele>1558.92</ele>
        <time>2019-02-06T13:39:55Z</time>
      </trkpt>
      <trkpt lat="46.08323" lon="6.76506">
        <ele>1557.47</ele>
        <time>2019-02-06T13:39:56Z</time>
      </trkpt>
      <trkpt lat="46.0832" lon="6.76501">
        <ele>1554.11</ele>
        <time>2019-02-06T13:39:57Z</time>
      </trkpt>
      <trkpt lat="46.08317" lon="6.76495">
        <ele>1551.71</ele>
        <time>2019-02-06T13:39:58Z</time>
      </trkpt>
      <trkpt lat="46.08313" lon="6.76491">
        <ele>1550.26</ele>
        <time>2019-02-06T13:39:59Z</time>
      </trkpt>
      <trkpt lat="46.08309" lon="6.76491">
        <ele>1548.34</ele>
        <time>2019-02-06T13:40:00Z</time>
      </trkpt>
      <trkpt lat="46.08304" lon="6.76489">
        <ele>1545.94</ele>
        <time>2019-02-06T13:40:01Z</time>
      </trkpt>
      <trkpt lat="46.08301" lon="6.76484">
        <ele>1544.01</ele>
        <time>2019-02-06T13:40:02Z</time>
      </trkpt>
      <trkpt lat="46.08299" lon="6.76479">
        <ele>1541.13</ele>
        <time>2019-02-06T13:40:03Z</time>
      </trkpt>
      <trkpt lat="46.08297" lon="6.76474">
        <ele>1540.17</ele>
        <time>2019-02-06T13:40:04Z</time>
      </trkpt>
      <trkpt lat="46.08295" lon="6.76462">
        <ele>1537.77</ele>
        <time>2019-02-06T13:40:06Z</time>
      </trkpt>
      <trkpt lat="46.08293" lon="6.7645">
        <ele>1535.36</ele>
        <time>2019-02-06T13:40:08Z</time>
      </trkpt>
      <trkpt lat="46.08291" lon="6.76439">
        <ele>1532</ele>
        <time>2019-02-06T13:40:10Z</time>
      </trkpt>
      <trkpt lat="46.08289" lon="6.76433">
        <ele>1531.04</ele>
        <time>2019-02-06T13:40:11Z</time>
      </trkpt>
      <trkpt lat="46.08285" lon="6.76432">
        <ele>1529.59</ele>
        <time>2019-02-06T13:40:12Z</time>
      </trkpt>
      <trkpt lat="46.08281" lon="6.76431">
        <ele>1527.19</ele>
        <time>2019-02-06T13:40:13Z</time>
      </trkpt>
      <trkpt lat="46.08278" lon="6.76429">
        <ele>1525.75</ele>
        <time>2019-02-06T13:40:14Z</time>
      </trkpt>
      <trkpt lat="46.08275" lon="6.7643">
        <ele>1522.39</ele>
        <time>2019-02-06T13:40:15Z</time>
      </trkpt>
      <trkpt lat="46.08271" lon="6.7643">
        <ele>1519.98</ele>
        <time>2019-02-06T13:40:16Z</time>
      </trkpt>
      <trkpt lat="46.08267" lon="6.76427">
        <ele>1517.58</ele>
        <time>2019-02-06T13:40:17Z</time>
      </trkpt>
      <trkpt lat="46.08263" lon="6.76424">
        <ele>1515.18</ele>
        <time>2019-02-06T13:40:18Z</time>
      </trkpt>
      <trkpt lat="46.0826" lon="6.76422">
        <ele>1512.29</ele>
        <time>2019-02-06T13:40:19Z</time>
      </trkpt>
      <trkpt lat="46.08258" lon="6.76419">
        <ele>1510.37</ele>
        <time>2019-02-06T13:40:20Z</time>
      </trkpt>
      <trkpt lat="46.08254" lon="6.76417">
        <ele>1507.97</ele>
        <time>2019-02-06T13:40:21Z</time>
      </trkpt>
      <trkpt lat="46.08251" lon="6.76416">
        <ele>1506.04</ele>
        <time>2019-02-06T13:40:22Z</time>
      </trkpt>
      <trkpt lat="46.08249" lon="6.76412">
        <ele>1503.64</ele>
        <time>2019-02-06T13:40:23Z</time>
      </trkpt>
      <trkpt lat="46.08246" lon="6.76409">
        <ele>1502.2</ele>
        <time>2019-02-06T13:40:24Z</time>
      </trkpt>
      <trkpt lat="46.08244" lon="6.76407">
        <ele>1499.31</ele>
        <time>2019-02-06T13:40:27Z</time>
      </trkpt>
      <trkpt lat="46.08243" lon="6.76407">
        <ele>1499.31</ele>
        <time>2019-02-06T13:40:42Z</time>
      </trkpt>
      <trkpt lat="46.08243" lon="6.76405">
        <ele>1498.83</ele>
        <time>2019-02-06T13:40:43Z</time>
      </trkpt>
      <trkpt lat="46.08241" lon="6.76408">
        <ele>1498.83</ele>
        <time>2019-02-06T13:40:44Z</time>
      </trkpt>
      <trkpt lat="46.08238" lon="6.7641">
        <ele>1497.39</ele>
        <time>2019-02-06T13:40:45Z</time>
      </trkpt>
      <trkpt lat="46.08235" lon="6.76413">
        <ele>1496.43</ele>
        <time>2019-02-06T13:40:46Z</time>
      </trkpt>
      <trkpt lat="46.08228" lon="6.76424">
        <ele>1492.58</ele>
        <time>2019-02-06T13:40:49Z</time>
      </trkpt>
      <trkpt lat="46.08222" lon="6.76434">
        <ele>1489.22</ele>
        <time>2019-02-06T13:40:54Z</time>
      </trkpt>
      <trkpt lat="46.08217" lon="6.76456">
        <ele>1485.85</ele>
        <time>2019-02-06T13:41:00Z</time>
      </trkpt>
      <trkpt lat="46.08213" lon="6.76462">
        <ele>1483.93</ele>
        <time>2019-02-06T13:41:17Z</time>
      </trkpt>
      <trkpt lat="46.08211" lon="6.76462">
        <ele>1482.97</ele>
        <time>2019-02-06T13:41:18Z</time>
      </trkpt>
      <trkpt lat="46.08208" lon="6.76461">
        <ele>1482.01</ele>
        <time>2019-02-06T13:41:20Z</time>
      </trkpt>
      <trkpt lat="46.08207" lon="6.76465">
        <ele>1481.05</ele>
        <time>2019-02-06T13:41:21Z</time>
      </trkpt>
      <trkpt lat="46.08205" lon="6.76468">
        <ele>1480.09</ele>
        <time>2019-02-06T13:41:22Z</time>
      </trkpt>
      <trkpt lat="46.08202" lon="6.7647">
        <ele>1479.61</ele>
        <time>2019-02-06T13:41:23Z</time>
      </trkpt>
      <trkpt lat="46.082" lon="6.76471">
        <ele>1477.68</ele>
        <time>2019-02-06T13:41:24Z</time>
      </trkpt>
      <trkpt lat="46.08197" lon="6.76474">
        <ele>1476.24</ele>
        <time>2019-02-06T13:41:25Z</time>
      </trkpt>
      <trkpt lat="46.08194" lon="6.76479">
        <ele>1474.8</ele>
        <time>2019-02-06T13:41:26Z</time>
      </trkpt>
      <trkpt lat="46.08192" lon="6.76482">
        <ele>1472.88</ele>
        <time>2019-02-06T13:41:27Z</time>
      </trkpt>
      <trkpt lat="46.08189" lon="6.76486">
        <ele>1471.44</ele>
        <time>2019-02-06T13:41:28Z</time>
      </trkpt>
      <trkpt lat="46.08188" lon="6.7649">
        <ele>1469.99</ele>
        <time>2019-02-06T13:41:29Z</time>
      </trkpt>
      <trkpt lat="46.08187" lon="6.76493">
        <ele>1469.51</ele>
        <time>2019-02-06T13:41:30Z</time>
      </trkpt>
      <trkpt lat="46.08184" lon="6.76496">
        <ele>1468.07</ele>
        <time>2019-02-06T13:41:31Z</time>
      </trkpt>
      <trkpt lat="46.08182" lon="6.76497">
        <ele>1467.11</ele>
        <time>2019-02-06T13:41:32Z</time>
      </trkpt>
      <trkpt lat="46.0818" lon="6.76496">
        <ele>1466.15</ele>
        <time>2019-02-06T13:41:33Z</time>
      </trkpt>
      <trkpt lat="46.08179" lon="6.76496">
        <ele>1465.19</ele>
        <time>2019-02-06T13:41:35Z</time>
      </trkpt>
      <trkpt lat="46.08169" lon="6.76502">
        <ele>1464.23</ele>
        <time>2019-02-06T13:41:51Z</time>
      </trkpt>
      <trkpt lat="46.08166" lon="6.76509">
        <ele>1461.82</ele>
        <time>2019-02-06T13:41:54Z</time>
      </trkpt>
      <trkpt lat="46.08162" lon="6.76514">
        <ele>1458.94</ele>
        <time>2019-02-06T13:41:56Z</time>
      </trkpt>
      <trkpt lat="46.0816" lon="6.76515">
        <ele>1457.98</ele>
        <time>2019-02-06T13:41:57Z</time>
      </trkpt>
      <trkpt lat="46.08146" lon="6.76518">
        <ele>1453.17</ele>
        <time>2019-02-06T13:42:00Z</time>
      </trkpt>
      <trkpt lat="46.08137" lon="6.76523">
        <ele>1449.32</ele>
        <time>2019-02-06T13:42:02Z</time>
      </trkpt>
      <trkpt lat="46.08133" lon="6.76525">
        <ele>1447.88</ele>
        <time>2019-02-06T13:42:03Z</time>
      </trkpt>
      <trkpt lat="46.0813" lon="6.76524">
        <ele>1446.92</ele>
        <time>2019-02-06T13:42:04Z</time>
      </trkpt>
      <trkpt lat="46.08126" lon="6.76524">
        <ele>1445.48</ele>
        <time>2019-02-06T13:42:05Z</time>
      </trkpt>
      <trkpt lat="46.08122" lon="6.76525">
        <ele>1445</ele>
        <time>2019-02-06T13:42:06Z</time>
      </trkpt>
      <trkpt lat="46.08119" lon="6.76526">
        <ele>1443.56</ele>
        <time>2019-02-06T13:42:07Z</time>
      </trkpt>
      <trkpt lat="46.08115" lon="6.76527">
        <ele>1442.11</ele>
        <time>2019-02-06T13:42:08Z</time>
      </trkpt>
      <trkpt lat="46.0811" lon="6.76528">
        <ele>1440.67</ele>
        <time>2019-02-06T13:42:09Z</time>
      </trkpt>
      <trkpt lat="46.08105" lon="6.76527">
        <ele>1439.23</ele>
        <time>2019-02-06T13:42:10Z</time>
      </trkpt>
      <trkpt lat="46.08094" lon="6.76524">
        <ele>1436.35</ele>
        <time>2019-02-06T13:42:13Z</time>
      </trkpt>
      <trkpt lat="46.08092" lon="6.7652">
        <ele>1435.39</ele>
        <time>2019-02-06T13:42:14Z</time>
      </trkpt>
      <trkpt lat="46.08091" lon="6.76515">
        <ele>1433.46</ele>
        <time>2019-02-06T13:42:15Z</time>
      </trkpt>
      <trkpt lat="46.0809" lon="6.7651">
        <ele>1432.98</ele>
        <time>2019-02-06T13:42:16Z</time>
      </trkpt>
      <trkpt lat="46.08088" lon="6.76505">
        <ele>1432.02</ele>
        <time>2019-02-06T13:42:17Z</time>
      </trkpt>
      <trkpt lat="46.08085" lon="6.76501">
        <ele>1430.58</ele>
        <time>2019-02-06T13:42:18Z</time>
      </trkpt>
      <trkpt lat="46.08083" lon="6.76496">
        <ele>1429.14</ele>
        <time>2019-02-06T13:42:19Z</time>
      </trkpt>
      <trkpt lat="46.0808" lon="6.7649">
        <ele>1427.7</ele>
        <time>2019-02-06T13:42:20Z</time>
      </trkpt>
      <trkpt lat="46.08077" lon="6.76485">
        <ele>1426.25</ele>
        <time>2019-02-06T13:42:21Z</time>
      </trkpt>
      <trkpt lat="46.08075" lon="6.7648">
        <ele>1425.29</ele>
        <time>2019-02-06T13:42:22Z</time>
      </trkpt>
      <trkpt lat="46.08073" lon="6.76476">
        <ele>1423.85</ele>
        <time>2019-02-06T13:42:23Z</time>
      </trkpt>
      <trkpt lat="46.08069" lon="6.76473">
        <ele>1422.89</ele>
        <time>2019-02-06T13:42:24Z</time>
      </trkpt>
      <trkpt lat="46.08066" lon="6.76471">
        <ele>1421.93</ele>
        <time>2019-02-06T13:42:25Z</time>
      </trkpt>
      <trkpt lat="46.08063" lon="6.76469">
        <ele>1420.49</ele>
        <time>2019-02-06T13:42:26Z</time>
      </trkpt>
      <trkpt lat="46.08059" lon="6.76467">
        <ele>1419.52</ele>
        <time>2019-02-06T13:42:27Z</time>
      </trkpt>
      <trkpt lat="46.08056" lon="6.76466">
        <ele>1418.56</ele>
        <time>2019-02-06T13:42:28Z</time>
      </trkpt>
      <trkpt lat="46.08052" lon="6.76465">
        <ele>1417.6</ele>
        <time>2019-02-06T13:42:29Z</time>
      </trkpt>
      <trkpt lat="46.08048" lon="6.76465">
        <ele>1416.64</ele>
        <time>2019-02-06T13:42:30Z</time>
      </trkpt>
      <trkpt lat="46.08045" lon="6.76463">
        <ele>1416.16</ele>
        <time>2019-02-06T13:42:31Z</time>
      </trkpt>
      <trkpt lat="46.08041" lon="6.76463">
        <ele>1414.72</ele>
        <time>2019-02-06T13:42:32Z</time>
      </trkpt>
      <trkpt lat="46.08037" lon="6.76461">
        <ele>1413.76</ele>
        <time>2019-02-06T13:42:33Z</time>
      </trkpt>
      <trkpt lat="46.08033" lon="6.76459">
        <ele>1413.28</ele>
        <time>2019-02-06T13:42:34Z</time>
      </trkpt>
      <trkpt lat="46.0803" lon="6.76456">
        <ele>1411.83</ele>
        <time>2019-02-06T13:42:35Z</time>
      </trkpt>
      <trkpt lat="46.08026" lon="6.76453">
        <ele>1410.87</ele>
        <time>2019-02-06T13:42:36Z</time>
      </trkpt>
      <trkpt lat="46.08023" lon="6.76451">
        <ele>1409.43</ele>
        <time>2019-02-06T13:42:37Z</time>
      </trkpt>
      <trkpt lat="46.08019" lon="6.76449">
        <ele>1407.99</ele>
        <time>2019-02-06T13:42:38Z</time>
      </trkpt>
      <trkpt lat="46.08016" lon="6.76446">
        <ele>1406.55</ele>
        <time>2019-02-06T13:42:39Z</time>
      </trkpt>
      <trkpt lat="46.08014" lon="6.76444">
        <ele>1406.07</ele>
        <time>2019-02-06T13:42:40Z</time>
      </trkpt>
      <trkpt lat="46.08013" lon="6.76442">
        <ele>1405.58</ele>
        <time>2019-02-06T13:42:41Z</time>
      </trkpt>
      <trkpt lat="46.08013" lon="6.76443">
        <ele>1405.58</ele>
        <time>2019-02-06T13:42:50Z</time>
      </trkpt>
      <trkpt lat="46.08009" lon="6.76444">
        <ele>1405.58</ele>
        <time>2019-02-06T13:42:52Z</time>
      </trkpt>
      <trkpt lat="46.08007" lon="6.76443">
        <ele>1404.62</ele>
        <time>2019-02-06T13:42:53Z</time>
      </trkpt>
      <trkpt lat="46.08004" lon="6.76442">
        <ele>1403.66</ele>
        <time>2019-02-06T13:42:54Z</time>
      </trkpt>
      <trkpt lat="46.08001" lon="6.7644">
        <ele>1403.18</ele>
        <time>2019-02-06T13:42:55Z</time>
      </trkpt>
      <trkpt lat="46.07997" lon="6.76439">
        <ele>1402.22</ele>
        <time>2019-02-06T13:42:56Z</time>
      </trkpt>
      <trkpt lat="46.07994" lon="6.76438">
        <ele>1401.26</ele>
        <time>2019-02-06T13:42:57Z</time>
      </trkpt>
      <trkpt lat="46.0799" lon="6.76439">
        <ele>1400.3</ele>
        <time>2019-02-06T13:42:58Z</time>
      </trkpt>
      <trkpt lat="46.07986" lon="6.7644">
        <ele>1399.34</ele>
        <time>2019-02-06T13:42:59Z</time>
      </trkpt>
      <trkpt lat="46.07984" lon="6.76441">
        <ele>1398.37</ele>
        <time>2019-02-06T13:43:00Z</time>
      </trkpt>
      <trkpt lat="46.07982" lon="6.76442">
        <ele>1397.41</ele>
        <time>2019-02-06T13:43:01Z</time>
      </trkpt>
      <trkpt lat="46.07981" lon="6.76443">
        <ele>1396.93</ele>
        <time>2019-02-06T13:43:02Z</time>
      </trkpt>
      <trkpt lat="46.0798" lon="6.76444">
        <ele>1396.45</ele>
        <time>2019-02-06T13:43:03Z</time>
      </trkpt>
      <trkpt lat="46.07979" lon="6.76445">
        <ele>1395.97</ele>
        <time>2019-02-06T13:43:04Z</time>
      </trkpt>
      <trkpt lat="46.07977" lon="6.76451">
        <ele>1395.49</ele>
        <time>2019-02-06T13:43:09Z</time>
      </trkpt>
      <trkpt lat="46.07978" lon="6.76452">
        <ele>1395.97</ele>
        <time>2019-02-06T13:43:10Z</time>
      </trkpt>
      <trkpt lat="46.07976" lon="6.76454">
        <ele>1395.97</ele>
        <time>2019-02-06T13:43:11Z</time>
      </trkpt>
      <trkpt lat="46.07969" lon="6.76498">
        <ele>1393.09</ele>
        <time>2019-02-06T13:43:42Z</time>
      </trkpt>
      <trkpt lat="46.07969" lon="6.76503">
        <ele>1393.09</ele>
        <time>2019-02-06T13:43:49Z</time>
      </trkpt>
      <trkpt lat="46.0796" lon="6.76516">
        <ele>1389.72</ele>
        <time>2019-02-06T13:43:57Z</time>
      </trkpt>
      <trkpt lat="46.07959" lon="6.76515">
        <ele>1389.24</ele>
        <time>2019-02-06T13:43:58Z</time>
      </trkpt>
      <trkpt lat="46.07948" lon="6.76513">
        <ele>1385.88</ele>
        <time>2019-02-06T13:44:02Z</time>
      </trkpt>
      <trkpt lat="46.07944" lon="6.76513">
        <ele>1385.4</ele>
        <time>2019-02-06T13:44:04Z</time>
      </trkpt>
      <trkpt lat="46.07943" lon="6.76514">
        <ele>1384.92</ele>
        <time>2019-02-06T13:44:05Z</time>
      </trkpt>
      <trkpt lat="46.07941" lon="6.76515">
        <ele>1384.92</ele>
        <time>2019-02-06T13:44:06Z</time>
      </trkpt>
      <trkpt lat="46.07939" lon="6.76516">
        <ele>1384.92</ele>
        <time>2019-02-06T13:44:07Z</time>
      </trkpt>
      <trkpt lat="46.07938" lon="6.76517">
        <ele>1384.44</ele>
        <time>2019-02-06T13:44:08Z</time>
      </trkpt>
      <trkpt lat="46.07936" lon="6.76518">
        <ele>1384.44</ele>
        <time>2019-02-06T13:44:09Z</time>
      </trkpt>
      <trkpt lat="46.07935" lon="6.76519">
        <ele>1383.96</ele>
        <time>2019-02-06T13:44:10Z</time>
      </trkpt>
      <trkpt lat="46.07932" lon="6.7652">
        <ele>1383.47</ele>
        <time>2019-02-06T13:44:11Z</time>
      </trkpt>
      <trkpt lat="46.07928" lon="6.7652">
        <ele>1382.51</ele>
        <time>2019-02-06T13:44:13Z</time>
      </trkpt>
      <trkpt lat="46.07928" lon="6.7652">
        <ele>1382.03</ele>
        <time>2019-02-06T13:44:14Z</time>
      </trkpt>
      <trkpt lat="46.07926" lon="6.76518">
        <ele>1381.55</ele>
        <time>2019-02-06T13:44:15Z</time>
      </trkpt>
      <trkpt lat="46.07925" lon="6.76516">
        <ele>1381.07</ele>
        <time>2019-02-06T13:44:16Z</time>
      </trkpt>
      <trkpt lat="46.07923" lon="6.76513">
        <ele>1380.59</ele>
        <time>2019-02-06T13:44:17Z</time>
      </trkpt>
      <trkpt lat="46.07922" lon="6.76511">
        <ele>1380.59</ele>
        <time>2019-02-06T13:44:18Z</time>
      </trkpt>
      <trkpt lat="46.07921" lon="6.7651">
        <ele>1380.11</ele>
        <time>2019-02-06T13:44:19Z</time>
      </trkpt>
      <trkpt lat="46.0792" lon="6.76509">
        <ele>1379.63</ele>
        <time>2019-02-06T13:44:20Z</time>
      </trkpt>
      <trkpt lat="46.07919" lon="6.76506">
        <ele>1379.15</ele>
        <time>2019-02-06T13:44:22Z</time>
      </trkpt>
      <trkpt lat="46.07919" lon="6.76501">
        <ele>1378.67</ele>
        <time>2019-02-06T13:44:23Z</time>
      </trkpt>
      <trkpt lat="46.07918" lon="6.76492">
        <ele>1377.71</ele>
        <time>2019-02-06T13:44:25Z</time>
      </trkpt>
      <trkpt lat="46.07916" lon="6.76483">
        <ele>1376.75</ele>
        <time>2019-02-06T13:44:27Z</time>
      </trkpt>
      <trkpt lat="46.07915" lon="6.76481">
        <ele>1376.26</ele>
        <time>2019-02-06T13:44:28Z</time>
      </trkpt>
      <trkpt lat="46.07913" lon="6.76478">
        <ele>1375.78</ele>
        <time>2019-02-06T13:44:29Z</time>
      </trkpt>
      <trkpt lat="46.07893" lon="6.76462">
        <ele>1372.42</ele>
        <time>2019-02-06T13:44:36Z</time>
      </trkpt>
      <trkpt lat="46.07885" lon="6.76457">
        <ele>1371.46</ele>
        <time>2019-02-06T13:44:40Z</time>
      </trkpt>
      <trkpt lat="46.07884" lon="6.76457">
        <ele>1371.46</ele>
        <time>2019-02-06T13:44:41Z</time>
      </trkpt>
      <trkpt lat="46.07866" lon="6.76446">
        <ele>1369.05</ele>
        <time>2019-02-06T13:44:49Z</time>
      </trkpt>
      <trkpt lat="46.07865" lon="6.76444">
        <ele>1368.57</ele>
        <time>2019-02-06T13:44:50Z</time>
      </trkpt>
      <trkpt lat="46.07864" lon="6.76441">
        <ele>1368.57</ele>
        <time>2019-02-06T13:44:51Z</time>
      </trkpt>
      <trkpt lat="46.07863" lon="6.76438">
        <ele>1368.09</ele>
        <time>2019-02-06T13:44:52Z</time>
      </trkpt>
      <trkpt lat="46.0786" lon="6.76434">
        <ele>1368.09</ele>
        <time>2019-02-06T13:44:53Z</time>
      </trkpt>
      <trkpt lat="46.07858" lon="6.76432">
        <ele>1367.61</ele>
        <time>2019-02-06T13:44:54Z</time>
      </trkpt>
      <trkpt lat="46.07857" lon="6.76431">
        <ele>1367.13</ele>
        <time>2019-02-06T13:44:55Z</time>
      </trkpt>
      <trkpt lat="46.07856" lon="6.7643">
        <ele>1366.65</ele>
        <time>2019-02-06T13:44:56Z</time>
      </trkpt>
      <trkpt lat="46.07854" lon="6.76431">
        <ele>1366.17</ele>
        <time>2019-02-06T13:44:58Z</time>
      </trkpt>
      <trkpt lat="46.07853" lon="6.76433">
        <ele>1365.69</ele>
        <time>2019-02-06T13:44:59Z</time>
      </trkpt>
      <trkpt lat="46.07851" lon="6.76436">
        <ele>1365.21</ele>
        <time>2019-02-06T13:45:00Z</time>
      </trkpt>
      <trkpt lat="46.07848" lon="6.76447">
        <ele>1362.81</ele>
        <time>2019-02-06T13:45:05Z</time>
      </trkpt>
      <trkpt lat="46.07849" lon="6.76449">
        <ele>1362.33</ele>
        <time>2019-02-06T13:45:06Z</time>
      </trkpt>
      <trkpt lat="46.0785" lon="6.7645">
        <ele>1361.84</ele>
        <time>2019-02-06T13:45:07Z</time>
      </trkpt>
      <trkpt lat="46.07851" lon="6.76451">
        <ele>1361.36</ele>
        <time>2019-02-06T13:45:08Z</time>
      </trkpt>
      <trkpt lat="46.07851" lon="6.76453">
        <ele>1360.88</ele>
        <time>2019-02-06T13:45:09Z</time>
      </trkpt>
      <trkpt lat="46.07852" lon="6.76456">
        <ele>1360.4</ele>
        <time>2019-02-06T13:45:10Z</time>
      </trkpt>
      <trkpt lat="46.07853" lon="6.76458">
        <ele>1360.4</ele>
        <time>2019-02-06T13:45:11Z</time>
      </trkpt>
      <trkpt lat="46.07855" lon="6.76461">
        <ele>1359.44</ele>
        <time>2019-02-06T13:45:12Z</time>
      </trkpt>
      <trkpt lat="46.07858" lon="6.76463">
        <ele>1357.52</ele>
        <time>2019-02-06T13:45:19Z</time>
      </trkpt>
      <trkpt lat="46.0786" lon="6.76464">
        <ele>1357.04</ele>
        <time>2019-02-06T13:45:20Z</time>
      </trkpt>
      <trkpt lat="46.07862" lon="6.76467">
        <ele>1357.04</ele>
        <time>2019-02-06T13:45:21Z</time>
      </trkpt>
      <trkpt lat="46.07863" lon="6.76468">
        <ele>1356.08</ele>
        <time>2019-02-06T13:45:22Z</time>
      </trkpt>
      <trkpt lat="46.07864" lon="6.76469">
        <ele>1355.12</ele>
        <time>2019-02-06T13:45:24Z</time>
      </trkpt>
      <trkpt lat="46.07864" lon="6.76468">
        <ele>1354.63</ele>
        <time>2019-02-06T13:45:37Z</time>
      </trkpt>
      <trkpt lat="46.07862" lon="6.7647">
        <ele>1354.63</ele>
        <time>2019-02-06T13:45:39Z</time>
      </trkpt>
      <trkpt lat="46.07862" lon="6.76477">
        <ele>1354.63</ele>
        <time>2019-02-06T13:45:44Z</time>
      </trkpt>
      <trkpt lat="46.07863" lon="6.76479">
        <ele>1353.19</ele>
        <time>2019-02-06T13:45:49Z</time>
      </trkpt>
      <trkpt lat="46.07866" lon="6.76483">
        <ele>1353.19</ele>
        <time>2019-02-06T13:46:05Z</time>
      </trkpt>
      <trkpt lat="46.07867" lon="6.76485">
        <ele>1352.71</ele>
        <time>2019-02-06T13:46:06Z</time>
      </trkpt>
      <trkpt lat="46.07867" lon="6.76487">
        <ele>1352.23</ele>
        <time>2019-02-06T13:46:07Z</time>
      </trkpt>
      <trkpt lat="46.07868" lon="6.76488">
        <ele>1352.23</ele>
        <time>2019-02-06T13:46:08Z</time>
      </trkpt>
      <trkpt lat="46.07868" lon="6.7649">
        <ele>1351.75</ele>
        <time>2019-02-06T13:46:09Z</time>
      </trkpt>
      <trkpt lat="46.07869" lon="6.76493">
        <ele>1351.27</ele>
        <time>2019-02-06T13:46:10Z</time>
      </trkpt>
      <trkpt lat="46.07873" lon="6.76496">
        <ele>1350.79</ele>
        <time>2019-02-06T13:46:11Z</time>
      </trkpt>
      <trkpt lat="46.07872" lon="6.76501">
        <ele>1349.83</ele>
        <time>2019-02-06T13:46:12Z</time>
      </trkpt>
      <trkpt lat="46.07872" lon="6.76505">
        <ele>1349.35</ele>
        <time>2019-02-06T13:46:13Z</time>
      </trkpt>
      <trkpt lat="46.07871" lon="6.76509">
        <ele>1348.87</ele>
        <time>2019-02-06T13:46:14Z</time>
      </trkpt>
      <trkpt lat="46.0787" lon="6.76511">
        <ele>1348.39</ele>
        <time>2019-02-06T13:46:15Z</time>
      </trkpt>
      <trkpt lat="46.07868" lon="6.76513">
        <ele>1348.39</ele>
        <time>2019-02-06T13:46:16Z</time>
      </trkpt>
      <trkpt lat="46.07867" lon="6.76515">
        <ele>1348.39</ele>
        <time>2019-02-06T13:46:17Z</time>
      </trkpt>
      <trkpt lat="46.07852" lon="6.76532">
        <ele>1345.02</ele>
        <time>2019-02-06T13:46:35Z</time>
      </trkpt>
      <trkpt lat="46.07858" lon="6.76534">
        <ele>1345.02</ele>
        <time>2019-02-06T13:47:02Z</time>
      </trkpt>
      <trkpt lat="46.07854" lon="6.76533">
        <ele>1345.5</ele>
        <time>2019-02-06T13:47:23Z</time>
      </trkpt>
      <trkpt lat="46.07846" lon="6.76533">
        <ele>1344.06</ele>
        <time>2019-02-06T13:47:30Z</time>
      </trkpt>
      <trkpt lat="46.07844" lon="6.76533">
        <ele>1343.58</ele>
        <time>2019-02-06T13:47:31Z</time>
      </trkpt>
      <trkpt lat="46.07843" lon="6.76532">
        <ele>1343.58</ele>
        <time>2019-02-06T13:47:32Z</time>
      </trkpt>
      <trkpt lat="46.07842" lon="6.76531">
        <ele>1343.58</ele>
        <time>2019-02-06T13:47:33Z</time>
      </trkpt>
      <trkpt lat="46.07841" lon="6.76531">
        <ele>1343.1</ele>
        <time>2019-02-06T13:47:34Z</time>
      </trkpt>
      <trkpt lat="46.0784" lon="6.76531">
        <ele>1343.1</ele>
        <time>2019-02-06T13:47:35Z</time>
      </trkpt>
      <trkpt lat="46.07838" lon="6.76532">
        <ele>1342.62</ele>
        <time>2019-02-06T13:47:36Z</time>
      </trkpt>
      <trkpt lat="46.07836" lon="6.76531">
        <ele>1342.62</ele>
        <time>2019-02-06T13:47:37Z</time>
      </trkpt>
      <trkpt lat="46.07834" lon="6.7653">
        <ele>1342.62</ele>
        <time>2019-02-06T13:47:38Z</time>
      </trkpt>
      <trkpt lat="46.07832" lon="6.7653">
        <ele>1342.62</ele>
        <time>2019-02-06T13:47:39Z</time>
      </trkpt>
      <trkpt lat="46.07817" lon="6.76533">
        <ele>1340.22</ele>
        <time>2019-02-06T13:47:48Z</time>
      </trkpt>
      <trkpt lat="46.07813" lon="6.76535">
        <ele>1339.73</ele>
        <time>2019-02-06T13:47:51Z</time>
      </trkpt>
      <trkpt lat="46.07811" lon="6.76537">
        <ele>1339.73</ele>
        <time>2019-02-06T13:47:52Z</time>
      </trkpt>
      <trkpt lat="46.07809" lon="6.76537">
        <ele>1339.73</ele>
        <time>2019-02-06T13:47:53Z</time>
      </trkpt>
      <trkpt lat="46.07806" lon="6.76538">
        <ele>1339.25</ele>
        <time>2019-02-06T13:47:54Z</time>
      </trkpt>
      <trkpt lat="46.07804" lon="6.7654">
        <ele>1338.77</ele>
        <time>2019-02-06T13:47:55Z</time>
      </trkpt>
      <trkpt lat="46.07802" lon="6.76541">
        <ele>1338.77</ele>
        <time>2019-02-06T13:47:56Z</time>
      </trkpt>
      <trkpt lat="46.078" lon="6.76542">
        <ele>1338.77</ele>
        <time>2019-02-06T13:47:57Z</time>
      </trkpt>
      <trkpt lat="46.07797" lon="6.76541">
        <ele>1338.29</ele>
        <time>2019-02-06T13:47:58Z</time>
      </trkpt>
      <trkpt lat="46.07794" lon="6.76541">
        <ele>1337.81</ele>
        <time>2019-02-06T13:47:59Z</time>
      </trkpt>
      <trkpt lat="46.07791" lon="6.76542">
        <ele>1337.81</ele>
        <time>2019-02-06T13:48:00Z</time>
      </trkpt>
      <trkpt lat="46.07788" lon="6.76543">
        <ele>1337.33</ele>
        <time>2019-02-06T13:48:01Z</time>
      </trkpt>
      <trkpt lat="46.07785" lon="6.76542">
        <ele>1336.85</ele>
        <time>2019-02-06T13:48:02Z</time>
      </trkpt>
      <trkpt lat="46.07765" lon="6.76541">
        <ele>1333.97</ele>
        <time>2019-02-06T13:48:11Z</time>
      </trkpt>
      <trkpt lat="46.07755" lon="6.7654">
        <ele>1332.04</ele>
        <time>2019-02-06T13:48:33Z</time>
      </trkpt>
      <trkpt lat="46.07754" lon="6.76539">
        <ele>1332.04</ele>
        <time>2019-02-06T13:48:34Z</time>
      </trkpt>
      <trkpt lat="46.07751" lon="6.76536">
        <ele>1331.56</ele>
        <time>2019-02-06T13:48:44Z</time>
      </trkpt>
      <trkpt lat="46.0774" lon="6.76535">
        <ele>1331.08</ele>
        <time>2019-02-06T13:49:07Z</time>
      </trkpt>
      <trkpt lat="46.07737" lon="6.76533">
        <ele>1330.6</ele>
        <time>2019-02-06T13:49:08Z</time>
      </trkpt>
      <trkpt lat="46.07735" lon="6.76532">
        <ele>1330.6</ele>
        <time>2019-02-06T13:49:09Z</time>
      </trkpt>
      <trkpt lat="46.07728" lon="6.76533">
        <ele>1328.68</ele>
        <time>2019-02-06T13:49:13Z</time>
      </trkpt>
      <trkpt lat="46.07727" lon="6.76533">
        <ele>1328.68</ele>
        <time>2019-02-06T13:49:14Z</time>
      </trkpt>
      <trkpt lat="46.07726" lon="6.76531">
        <ele>1328.2</ele>
        <time>2019-02-06T13:49:16Z</time>
      </trkpt>
      <trkpt lat="46.07724" lon="6.76529">
        <ele>1328.68</ele>
        <time>2019-02-06T13:49:20Z</time>
      </trkpt>
      <trkpt lat="46.07722" lon="6.76529">
        <ele>1328.68</ele>
        <time>2019-02-06T13:49:21Z</time>
      </trkpt>
      <trkpt lat="46.07721" lon="6.76529">
        <ele>1328.2</ele>
        <time>2019-02-06T13:49:22Z</time>
      </trkpt>
      <trkpt lat="46.0772" lon="6.7653">
        <ele>1328.2</ele>
        <time>2019-02-06T13:49:23Z</time>
      </trkpt>
      <trkpt lat="46.07716" lon="6.76532">
        <ele>1327.24</ele>
        <time>2019-02-06T13:49:36Z</time>
      </trkpt>
      <trkpt lat="46.07713" lon="6.76534">
        <ele>1326.76</ele>
        <time>2019-02-06T13:49:40Z</time>
      </trkpt>
      <trkpt lat="46.07711" lon="6.76534">
        <ele>1326.76</ele>
        <time>2019-02-06T13:49:41Z</time>
      </trkpt>
      <trkpt lat="46.07698" lon="6.76535">
        <ele>1324.83</ele>
        <time>2019-02-06T13:49:47Z</time>
      </trkpt>
      <trkpt lat="46.07697" lon="6.76535">
        <ele>1324.83</ele>
        <time>2019-02-06T13:49:48Z</time>
      </trkpt>
      <trkpt lat="46.07674" lon="6.76547">
        <ele>1322.43</ele>
        <time>2019-02-06T13:50:01Z</time>
      </trkpt>
      <trkpt lat="46.07672" lon="6.76548">
        <ele>1321.95</ele>
        <time>2019-02-06T13:50:02Z</time>
      </trkpt>
      <trkpt lat="46.0767" lon="6.7655">
        <ele>1321.95</ele>
        <time>2019-02-06T13:50:03Z</time>
      </trkpt>
      <trkpt lat="46.07668" lon="6.7655">
        <ele>1321.47</ele>
        <time>2019-02-06T13:50:04Z</time>
      </trkpt>
      <trkpt lat="46.07666" lon="6.7655">
        <ele>1321.47</ele>
        <time>2019-02-06T13:50:05Z</time>
      </trkpt>
      <trkpt lat="46.07664" lon="6.76549">
        <ele>1320.99</ele>
        <time>2019-02-06T13:50:06Z</time>
      </trkpt>
      <trkpt lat="46.07662" lon="6.76549">
        <ele>1320.99</ele>
        <time>2019-02-06T13:50:07Z</time>
      </trkpt>
      <trkpt lat="46.07657" lon="6.76548">
        <ele>1320.99</ele>
        <time>2019-02-06T13:50:09Z</time>
      </trkpt>
      <trkpt lat="46.07655" lon="6.76547">
        <ele>1320.99</ele>
        <time>2019-02-06T13:50:10Z</time>
      </trkpt>
      <trkpt lat="46.07653" lon="6.76547">
        <ele>1320.99</ele>
        <time>2019-02-06T13:50:11Z</time>
      </trkpt>
      <trkpt lat="46.07651" lon="6.76546">
        <ele>1320.99</ele>
        <time>2019-02-06T13:50:12Z</time>
      </trkpt>
      <trkpt lat="46.07638" lon="6.76524">
        <ele>1319.07</ele>
        <time>2019-02-06T13:50:27Z</time>
      </trkpt>
      <trkpt lat="46.07637" lon="6.76522">
        <ele>1319.07</ele>
        <time>2019-02-06T13:50:28Z</time>
      </trkpt>
      <trkpt lat="46.07636" lon="6.76521">
        <ele>1318.59</ele>
        <time>2019-02-06T13:50:29Z</time>
      </trkpt>
      <trkpt lat="46.07617" lon="6.76492">
        <ele>1315.7</ele>
        <time>2019-02-06T13:50:42Z</time>
      </trkpt>
      <trkpt lat="46.07609" lon="6.76491">
        <ele>1313.78</ele>
        <time>2019-02-06T13:50:45Z</time>
      </trkpt>
      <trkpt lat="46.07607" lon="6.7649">
        <ele>1313.3</ele>
        <time>2019-02-06T13:50:46Z</time>
      </trkpt>
      <trkpt lat="46.07604" lon="6.76489">
        <ele>1313.3</ele>
        <time>2019-02-06T13:50:47Z</time>
      </trkpt>
      <trkpt lat="46.07588" lon="6.76485">
        <ele>1309.45</ele>
        <time>2019-02-06T13:50:53Z</time>
      </trkpt>
      <trkpt lat="46.07584" lon="6.76481">
        <ele>1307.53</ele>
        <time>2019-02-06T13:50:55Z</time>
      </trkpt>
      <trkpt lat="46.07583" lon="6.76477">
        <ele>1306.57</ele>
        <time>2019-02-06T13:50:56Z</time>
      </trkpt>
      <trkpt lat="46.07584" lon="6.76473">
        <ele>1305.61</ele>
        <time>2019-02-06T13:50:57Z</time>
      </trkpt>
      <trkpt lat="46.07586" lon="6.7647">
        <ele>1304.65</ele>
        <time>2019-02-06T13:50:58Z</time>
      </trkpt>
      <trkpt lat="46.07587" lon="6.76467">
        <ele>1303.69</ele>
        <time>2019-02-06T13:50:59Z</time>
      </trkpt>
      <trkpt lat="46.07587" lon="6.76449">
        <ele>1300.32</ele>
        <time>2019-02-06T13:51:04Z</time>
      </trkpt>
      <trkpt lat="46.07586" lon="6.76445">
        <ele>1298.88</ele>
        <time>2019-02-06T13:51:05Z</time>
      </trkpt>
      <trkpt lat="46.07583" lon="6.76441">
        <ele>1298.4</ele>
        <time>2019-02-06T13:51:06Z</time>
      </trkpt>
      <trkpt lat="46.0758" lon="6.76438">
        <ele>1297.44</ele>
        <time>2019-02-06T13:51:07Z</time>
      </trkpt>
      <trkpt lat="46.07577" lon="6.76437">
        <ele>1296.48</ele>
        <time>2019-02-06T13:51:08Z</time>
      </trkpt>
      <trkpt lat="46.07575" lon="6.76434">
        <ele>1295.51</ele>
        <time>2019-02-06T13:51:09Z</time>
      </trkpt>
      <trkpt lat="46.07573" lon="6.76433">
        <ele>1294.55</ele>
        <time>2019-02-06T13:51:10Z</time>
      </trkpt>
      <trkpt lat="46.07564" lon="6.76424">
        <ele>1291.19</ele>
        <time>2019-02-06T13:51:17Z</time>
      </trkpt>
      <trkpt lat="46.0756" lon="6.76421">
        <ele>1289.27</ele>
        <time>2019-02-06T13:51:19Z</time>
      </trkpt>
      <trkpt lat="46.07558" lon="6.76419">
        <ele>1288.3</ele>
        <time>2019-02-06T13:51:21Z</time>
      </trkpt>
      <trkpt lat="46.07557" lon="6.76419">
        <ele>1287.82</ele>
        <time>2019-02-06T13:51:22Z</time>
      </trkpt>
      <trkpt lat="46.07555" lon="6.76416">
        <ele>1287.82</ele>
        <time>2019-02-06T13:51:28Z</time>
      </trkpt>
      <trkpt lat="46.07549" lon="6.76409">
        <ele>1287.82</ele>
        <time>2019-02-06T13:51:42Z</time>
      </trkpt>
      <trkpt lat="46.07548" lon="6.76406">
        <ele>1287.82</ele>
        <time>2019-02-06T13:51:44Z</time>
      </trkpt>
      <trkpt lat="46.0754" lon="6.76401">
        <ele>1286.86</ele>
        <time>2019-02-06T13:51:55Z</time>
      </trkpt>
      <trkpt lat="46.07538" lon="6.76399">
        <ele>1286.86</ele>
        <time>2019-02-06T13:51:56Z</time>
      </trkpt>
      <trkpt lat="46.07536" lon="6.76398">
        <ele>1286.38</ele>
        <time>2019-02-06T13:51:57Z</time>
      </trkpt>
      <trkpt lat="46.07534" lon="6.76395">
        <ele>1285.9</ele>
        <time>2019-02-06T13:51:58Z</time>
      </trkpt>
      <trkpt lat="46.07532" lon="6.76393">
        <ele>1285.42</ele>
        <time>2019-02-06T13:51:59Z</time>
      </trkpt>
      <trkpt lat="46.07529" lon="6.76388">
        <ele>1284.94</ele>
        <time>2019-02-06T13:52:00Z</time>
      </trkpt>
      <trkpt lat="46.07527" lon="6.76384">
        <ele>1283.98</ele>
        <time>2019-02-06T13:52:01Z</time>
      </trkpt>
      <trkpt lat="46.07521" lon="6.7637">
        <ele>1281.57</ele>
        <time>2019-02-06T13:52:09Z</time>
      </trkpt>
      <trkpt lat="46.07519" lon="6.76368">
        <ele>1281.09</ele>
        <time>2019-02-06T13:52:10Z</time>
      </trkpt>
      <trkpt lat="46.07518" lon="6.76366">
        <ele>1280.61</ele>
        <time>2019-02-06T13:52:11Z</time>
      </trkpt>
      <trkpt lat="46.07517" lon="6.76364">
        <ele>1280.61</ele>
        <time>2019-02-06T13:52:13Z</time>
      </trkpt>
      <trkpt lat="46.07515" lon="6.76363">
        <ele>1280.61</ele>
        <time>2019-02-06T13:52:14Z</time>
      </trkpt>
      <trkpt lat="46.07514" lon="6.76362">
        <ele>1280.61</ele>
        <time>2019-02-06T13:52:15Z</time>
      </trkpt>
      <trkpt lat="46.07512" lon="6.76359">
        <ele>1280.61</ele>
        <time>2019-02-06T13:52:16Z</time>
      </trkpt>
      <trkpt lat="46.07511" lon="6.76356">
        <ele>1280.13</ele>
        <time>2019-02-06T13:52:17Z</time>
      </trkpt>
      <trkpt lat="46.07509" lon="6.76354">
        <ele>1280.13</ele>
        <time>2019-02-06T13:52:18Z</time>
      </trkpt>
      <trkpt lat="46.07508" lon="6.76351">
        <ele>1279.65</ele>
        <time>2019-02-06T13:52:19Z</time>
      </trkpt>
      <trkpt lat="46.07506" lon="6.76348">
        <ele>1279.17</ele>
        <time>2019-02-06T13:52:20Z</time>
      </trkpt>
      <trkpt lat="46.07504" lon="6.76345">
        <ele>1278.69</ele>
        <time>2019-02-06T13:52:21Z</time>
      </trkpt>
      <trkpt lat="46.07494" lon="6.76327">
        <ele>1275.81</ele>
        <time>2019-02-06T13:52:26Z</time>
      </trkpt>
      <trkpt lat="46.0748" lon="6.76299">
        <ele>1272.44</ele>
        <time>2019-02-06T13:52:38Z</time>
      </trkpt>
      <trkpt lat="46.0747" lon="6.76276">
        <ele>1269.08</ele>
        <time>2019-02-06T13:52:44Z</time>
      </trkpt>
      <trkpt lat="46.07459" lon="6.76257">
        <ele>1265.71</ele>
        <time>2019-02-06T13:52:49Z</time>
      </trkpt>
      <trkpt lat="46.07451" lon="6.76242">
        <ele>1262.83</ele>
        <time>2019-02-06T13:52:56Z</time>
      </trkpt>
      <trkpt lat="46.07449" lon="6.76238">
        <ele>1262.35</ele>
        <time>2019-02-06T13:53:00Z</time>
      </trkpt>
      <trkpt lat="46.07446" lon="6.76236">
        <ele>1261.87</ele>
        <time>2019-02-06T13:53:06Z</time>
      </trkpt>
      <trkpt lat="46.07445" lon="6.76235">
        <ele>1261.87</ele>
        <time>2019-02-06T13:53:07Z</time>
      </trkpt>
      <trkpt lat="46.07444" lon="6.76233">
        <ele>1261.87</ele>
        <time>2019-02-06T13:53:08Z</time>
      </trkpt>
      <trkpt lat="46.07441" lon="6.76226">
        <ele>1260.91</ele>
        <time>2019-02-06T13:53:28Z</time>
      </trkpt>
      <trkpt lat="46.07439" lon="6.76225">
        <ele>1260.43</ele>
        <time>2019-02-06T13:53:29Z</time>
      </trkpt>
      <trkpt lat="46.07426" lon="6.76211">
        <ele>1257.54</ele>
        <time>2019-02-06T13:53:35Z</time>
      </trkpt>
      <trkpt lat="46.07414" lon="6.76196">
        <ele>1254.18</ele>
        <time>2019-02-06T13:53:40Z</time>
      </trkpt>
      <trkpt lat="46.07401" lon="6.7619">
        <ele>1251.29</ele>
        <time>2019-02-06T13:53:45Z</time>
      </trkpt>
      <trkpt lat="46.0739" lon="6.76192">
        <ele>1249.37</ele>
        <time>2019-02-06T13:53:50Z</time>
      </trkpt>
      <trkpt lat="46.07388" lon="6.76192">
        <ele>1249.37</ele>
        <time>2019-02-06T13:53:52Z</time>
      </trkpt>
      <trkpt lat="46.07387" lon="6.76192">
        <ele>1249.37</ele>
        <time>2019-02-06T13:53:53Z</time>
      </trkpt>
      <trkpt lat="46.07379" lon="6.76192">
        <ele>1248.41</ele>
        <time>2019-02-06T13:53:59Z</time>
      </trkpt>
      <trkpt lat="46.07377" lon="6.76191">
        <ele>1247.93</ele>
        <time>2019-02-06T13:54:00Z</time>
      </trkpt>
      <trkpt lat="46.07375" lon="6.76188">
        <ele>1246.97</ele>
        <time>2019-02-06T13:54:01Z</time>
      </trkpt>
      <trkpt lat="46.07374" lon="6.76185">
        <ele>1246.97</ele>
        <time>2019-02-06T13:54:02Z</time>
      </trkpt>
      <trkpt lat="46.07372" lon="6.76181">
        <ele>1246.01</ele>
        <time>2019-02-06T13:54:03Z</time>
      </trkpt>
      <trkpt lat="46.07371" lon="6.76177">
        <ele>1246.01</ele>
        <time>2019-02-06T13:54:04Z</time>
      </trkpt>
      <trkpt lat="46.07365" lon="6.76158">
        <ele>1243.12</ele>
        <time>2019-02-06T13:54:10Z</time>
      </trkpt>
      <trkpt lat="46.07346" lon="6.76131">
        <ele>1240.24</ele>
        <time>2019-02-06T13:54:27Z</time>
      </trkpt>
      <trkpt lat="46.07346" lon="6.76129">
        <ele>1239.76</ele>
        <time>2019-02-06T13:54:28Z</time>
      </trkpt>
      <trkpt lat="46.07348" lon="6.76127">
        <ele>1238.8</ele>
        <time>2019-02-06T13:54:29Z</time>
      </trkpt>
      <trkpt lat="46.07351" lon="6.76126">
        <ele>1237.83</ele>
        <time>2019-02-06T13:54:30Z</time>
      </trkpt>
      <trkpt lat="46.07355" lon="6.76126">
        <ele>1236.87</ele>
        <time>2019-02-06T13:54:31Z</time>
      </trkpt>
      <trkpt lat="46.07359" lon="6.76125">
        <ele>1235.43</ele>
        <time>2019-02-06T13:54:32Z</time>
      </trkpt>
      <trkpt lat="46.07363" lon="6.76126">
        <ele>1233.03</ele>
        <time>2019-02-06T13:54:33Z</time>
      </trkpt>
      <trkpt lat="46.07368" lon="6.76129">
        <ele>1232.07</ele>
        <time>2019-02-06T13:54:34Z</time>
      </trkpt>
      <trkpt lat="46.07372" lon="6.76133">
        <ele>1231.11</ele>
        <time>2019-02-06T13:54:35Z</time>
      </trkpt>
      <trkpt lat="46.07377" lon="6.76136">
        <ele>1230.62</ele>
        <time>2019-02-06T13:54:36Z</time>
      </trkpt>
      <trkpt lat="46.07382" lon="6.76138">
        <ele>1230.14</ele>
        <time>2019-02-06T13:54:37Z</time>
      </trkpt>
      <trkpt lat="46.07387" lon="6.76139">
        <ele>1229.18</ele>
        <time>2019-02-06T13:54:38Z</time>
      </trkpt>
      <trkpt lat="46.07391" lon="6.76139">
        <ele>1227.74</ele>
        <time>2019-02-06T13:54:39Z</time>
      </trkpt>
      <trkpt lat="46.07395" lon="6.76137">
        <ele>1226.3</ele>
        <time>2019-02-06T13:54:40Z</time>
      </trkpt>
      <trkpt lat="46.07399" lon="6.76135">
        <ele>1225.34</ele>
        <time>2019-02-06T13:54:41Z</time>
      </trkpt>
      <trkpt lat="46.07402" lon="6.7613">
        <ele>1224.38</ele>
        <time>2019-02-06T13:54:42Z</time>
      </trkpt>
      <trkpt lat="46.07405" lon="6.76127">
        <ele>1223.42</ele>
        <time>2019-02-06T13:54:43Z</time>
      </trkpt>
      <trkpt lat="46.07407" lon="6.76127">
        <ele>1222.45</ele>
        <time>2019-02-06T13:54:44Z</time>
      </trkpt>
      <trkpt lat="46.07408" lon="6.76127">
        <ele>1221.97</ele>
        <time>2019-02-06T13:54:46Z</time>
      </trkpt>
      <trkpt lat="46.0741" lon="6.76125">
        <ele>1221.49</ele>
        <time>2019-02-06T13:54:59Z</time>
      </trkpt>
      <trkpt lat="46.07407" lon="6.76124">
        <ele>1221.49</ele>
        <time>2019-02-06T13:55:06Z</time>
      </trkpt>
      <trkpt lat="46.07406" lon="6.76124">
        <ele>1221.49</ele>
        <time>2019-02-06T13:55:09Z</time>
      </trkpt>
      <trkpt lat="46.07404" lon="6.76125">
        <ele>1221.49</ele>
        <time>2019-02-06T13:55:11Z</time>
      </trkpt>
      <trkpt lat="46.07405" lon="6.7612">
        <ele>1221.49</ele>
        <time>2019-02-06T13:55:27Z</time>
      </trkpt>
      <trkpt lat="46.07408" lon="6.76117">
        <ele>1221.01</ele>
        <time>2019-02-06T13:55:30Z</time>
      </trkpt>
      <trkpt lat="46.07414" lon="6.76115">
        <ele>1219.09</ele>
        <time>2019-02-06T13:55:36Z</time>
      </trkpt>
      <trkpt lat="46.07417" lon="6.76114">
        <ele>1218.61</ele>
        <time>2019-02-06T13:55:37Z</time>
      </trkpt>
      <trkpt lat="46.07429" lon="6.76112">
        <ele>1216.69</ele>
        <time>2019-02-06T13:55:40Z</time>
      </trkpt>
      <trkpt lat="46.07438" lon="6.76114">
        <ele>1214.76</ele>
        <time>2019-02-06T13:55:42Z</time>
      </trkpt>
      <trkpt lat="46.07447" lon="6.76117">
        <ele>1211.88</ele>
        <time>2019-02-06T13:55:44Z</time>
      </trkpt>
      <trkpt lat="46.07464" lon="6.76118">
        <ele>1208.03</ele>
        <time>2019-02-06T13:55:47Z</time>
      </trkpt>
      <trkpt lat="46.0747" lon="6.76118">
        <ele>1206.59</ele>
        <time>2019-02-06T13:55:48Z</time>
      </trkpt>
      <trkpt lat="46.07475" lon="6.76119">
        <ele>1205.63</ele>
        <time>2019-02-06T13:55:49Z</time>
      </trkpt>
      <trkpt lat="46.07482" lon="6.76122">
        <ele>1204.67</ele>
        <time>2019-02-06T13:55:50Z</time>
      </trkpt>
      <trkpt lat="46.07487" lon="6.76122">
        <ele>1203.71</ele>
        <time>2019-02-06T13:55:51Z</time>
      </trkpt>
      <trkpt lat="46.0749" lon="6.76121">
        <ele>1202.75</ele>
        <time>2019-02-06T13:55:52Z</time>
      </trkpt>
      <trkpt lat="46.07492" lon="6.7612">
        <ele>1201.3</ele>
        <time>2019-02-06T13:55:53Z</time>
      </trkpt>
      <trkpt lat="46.07493" lon="6.76118">
        <ele>1198.42</ele>
        <time>2019-02-06T13:55:55Z</time>
      </trkpt>
      <trkpt lat="46.07489" lon="6.76109">
        <ele>1196.5</ele>
        <time>2019-02-06T13:55:56Z</time>
      </trkpt>
      <trkpt lat="46.07486" lon="6.76103">
        <ele>1194.58</ele>
        <time>2019-02-06T13:55:57Z</time>
      </trkpt>
      <trkpt lat="46.07482" lon="6.76097">
        <ele>1194.09</ele>
        <time>2019-02-06T13:55:58Z</time>
      </trkpt>
      <trkpt lat="46.07475" lon="6.76087">
        <ele>1190.73</ele>
        <time>2019-02-06T13:56:00Z</time>
      </trkpt>
      <trkpt lat="46.07468" lon="6.76071">
        <ele>1187.85</ele>
        <time>2019-02-06T13:56:02Z</time>
      </trkpt>
      <trkpt lat="46.07461" lon="6.76055">
        <ele>1185.44</ele>
        <time>2019-02-06T13:56:05Z</time>
      </trkpt>
      <trkpt lat="46.07458" lon="6.7605">
        <ele>1184.48</ele>
        <time>2019-02-06T13:56:06Z</time>
      </trkpt>
      <trkpt lat="46.07456" lon="6.76046">
        <ele>1184</ele>
        <time>2019-02-06T13:56:07Z</time>
      </trkpt>
      <trkpt lat="46.07454" lon="6.76041">
        <ele>1183.04</ele>
        <time>2019-02-06T13:56:08Z</time>
      </trkpt>
      <trkpt lat="46.07452" lon="6.76037">
        <ele>1182.08</ele>
        <time>2019-02-06T13:56:09Z</time>
      </trkpt>
      <trkpt lat="46.07449" lon="6.7603">
        <ele>1181.12</ele>
        <time>2019-02-06T13:56:10Z</time>
      </trkpt>
      <trkpt lat="46.07446" lon="6.76023">
        <ele>1180.16</ele>
        <time>2019-02-06T13:56:11Z</time>
      </trkpt>
      <trkpt lat="46.07443" lon="6.76018">
        <ele>1179.19</ele>
        <time>2019-02-06T13:56:12Z</time>
      </trkpt>
      <trkpt lat="46.07438" lon="6.76009">
        <ele>1177.75</ele>
        <time>2019-02-06T13:56:57Z</time>
      </trkpt>
      <trkpt lat="46.07438" lon="6.7601">
        <ele>1177.75</ele>
        <time>2019-02-06T13:56:58Z</time>
      </trkpt>
      <trkpt lat="46.07438" lon="6.76008">
        <ele>1177.75</ele>
        <time>2019-02-06T13:57:05Z</time>
      </trkpt>
      <trkpt lat="46.07436" lon="6.76007">
        <ele>1174.39</ele>
        <time>2019-02-06T13:57:09Z</time>
      </trkpt>
      <trkpt lat="46.07435" lon="6.76005">
        <ele>1174.39</ele>
        <time>2019-02-06T13:57:10Z</time>
      </trkpt>
      <trkpt lat="46.07432" lon="6.76002">
        <ele>1174.39</ele>
        <time>2019-02-06T13:57:16Z</time>
      </trkpt>
      <trkpt lat="46.07431" lon="6.76002">
        <ele>1174.39</ele>
        <time>2019-02-06T13:57:17Z</time>
      </trkpt>
      <trkpt lat="46.07426" lon="6.76002">
        <ele>1173.91</ele>
        <time>2019-02-06T13:57:25Z</time>
      </trkpt>
      <trkpt lat="46.07424" lon="6.76002">
        <ele>1173.43</ele>
        <time>2019-02-06T13:57:26Z</time>
      </trkpt>
      <trkpt lat="46.07423" lon="6.76003">
        <ele>1172.47</ele>
        <time>2019-02-06T13:57:27Z</time>
      </trkpt>
      <trkpt lat="46.07422" lon="6.76001">
        <ele>1171.98</ele>
        <time>2019-02-06T13:57:29Z</time>
      </trkpt>
      <trkpt lat="46.07422" lon="6.75997">
        <ele>1170.54</ele>
        <time>2019-02-06T13:57:35Z</time>
      </trkpt>
      <trkpt lat="46.0742" lon="6.75994">
        <ele>1169.58</ele>
        <time>2019-02-06T13:57:36Z</time>
      </trkpt>
      <trkpt lat="46.07419" lon="6.75991">
        <ele>1167.66</ele>
        <time>2019-02-06T13:57:37Z</time>
      </trkpt>
      <trkpt lat="46.07417" lon="6.75986">
        <ele>1165.74</ele>
        <time>2019-02-06T13:57:38Z</time>
      </trkpt>
      <trkpt lat="46.07417" lon="6.75981">
        <ele>1163.81</ele>
        <time>2019-02-06T13:57:39Z</time>
      </trkpt>
      <trkpt lat="46.07416" lon="6.75977">
        <ele>1161.89</ele>
        <time>2019-02-06T13:57:40Z</time>
      </trkpt>
      <trkpt lat="46.07415" lon="6.75967">
        <ele>1157.56</ele>
        <time>2019-02-06T13:57:42Z</time>
      </trkpt>
      <trkpt lat="46.07413" lon="6.75958">
        <ele>1153.72</ele>
        <time>2019-02-06T13:57:44Z</time>
      </trkpt>
      <trkpt lat="46.07411" lon="6.7595">
        <ele>1148.91</ele>
        <time>2019-02-06T13:57:46Z</time>
      </trkpt>
      <trkpt lat="46.07411" lon="6.75941">
        <ele>1145.07</ele>
        <time>2019-02-06T13:57:48Z</time>
      </trkpt>
      <trkpt lat="46.0741" lon="6.75933">
        <ele>1141.7</ele>
        <time>2019-02-06T13:57:51Z</time>
      </trkpt>
      <trkpt lat="46.07409" lon="6.75932">
        <ele>1141.22</ele>
        <time>2019-02-06T13:57:53Z</time>
      </trkpt>
      <trkpt lat="46.0741" lon="6.75922">
        <ele>1140.26</ele>
        <time>2019-02-06T13:58:01Z</time>
      </trkpt>
      <trkpt lat="46.07412" lon="6.75921">
        <ele>1139.3</ele>
        <time>2019-02-06T13:58:02Z</time>
      </trkpt>
      <trkpt lat="46.07413" lon="6.75918">
        <ele>1138.34</ele>
        <time>2019-02-06T13:58:03Z</time>
      </trkpt>
      <trkpt lat="46.07413" lon="6.75912">
        <ele>1137.38</ele>
        <time>2019-02-06T13:58:04Z</time>
      </trkpt>
      <trkpt lat="46.07413" lon="6.75906">
        <ele>1136.42</ele>
        <time>2019-02-06T13:58:05Z</time>
      </trkpt>
      <trkpt lat="46.07416" lon="6.75897">
        <ele>1132.57</ele>
        <time>2019-02-06T13:58:07Z</time>
      </trkpt>
      <trkpt lat="46.07418" lon="6.75889">
        <ele>1129.21</ele>
        <time>2019-02-06T13:58:09Z</time>
      </trkpt>
      <trkpt lat="46.07417" lon="6.75887">
        <ele>1127.28</ele>
        <time>2019-02-06T13:58:10Z</time>
      </trkpt>
      <trkpt lat="46.07416" lon="6.75885">
        <ele>1125.36</ele>
        <time>2019-02-06T13:58:11Z</time>
      </trkpt>
      <trkpt lat="46.07416" lon="6.75882">
        <ele>1123.92</ele>
        <time>2019-02-06T13:58:12Z</time>
      </trkpt>
      <trkpt lat="46.07416" lon="6.7588">
        <ele>1122.96</ele>
        <time>2019-02-06T13:58:13Z</time>
      </trkpt>
      <trkpt lat="46.07416" lon="6.75878">
        <ele>1122.48</ele>
        <time>2019-02-06T13:58:14Z</time>
      </trkpt>
      <trkpt lat="46.07414" lon="6.75875">
        <ele>1121.52</ele>
        <time>2019-02-06T13:58:17Z</time>
      </trkpt>
      <trkpt lat="46.07417" lon="6.75871">
        <ele>1121.52</ele>
        <time>2019-02-06T13:58:24Z</time>
      </trkpt>
      <trkpt lat="46.07414" lon="6.75874">
        <ele>1121.52</ele>
        <time>2019-02-06T13:58:34Z</time>
      </trkpt>
      <trkpt lat="46.07414" lon="6.75873">
        <ele>1121.52</ele>
        <time>2019-02-06T13:58:35Z</time>
      </trkpt>
      <trkpt lat="46.07406" lon="6.75867">
        <ele>1121.03</ele>
        <time>2019-02-06T13:58:46Z</time>
      </trkpt>
      <trkpt lat="46.07407" lon="6.75866">
        <ele>1120.55</ele>
        <time>2019-02-06T13:58:47Z</time>
      </trkpt>
      <trkpt lat="46.07406" lon="6.75864">
        <ele>1120.55</ele>
        <time>2019-02-06T13:58:48Z</time>
      </trkpt>
      <trkpt lat="46.07406" lon="6.75861">
        <ele>1120.07</ele>
        <time>2019-02-06T13:58:52Z</time>
      </trkpt>
      <trkpt lat="46.07408" lon="6.75861">
        <ele>1118.63</ele>
        <time>2019-02-06T13:58:57Z</time>
      </trkpt>
      <trkpt lat="46.07416" lon="6.75852">
        <ele>1116.71</ele>
        <time>2019-02-06T13:59:07Z</time>
      </trkpt>
      <trkpt lat="46.07419" lon="6.75845">
        <ele>1116.23</ele>
        <time>2019-02-06T13:59:16Z</time>
      </trkpt>
      <trkpt lat="46.0742" lon="6.75842">
        <ele>1115.27</ele>
        <time>2019-02-06T13:59:17Z</time>
      </trkpt>
      <trkpt lat="46.07421" lon="6.7584">
        <ele>1114.79</ele>
        <time>2019-02-06T13:59:18Z</time>
      </trkpt>
      <trkpt lat="46.07422" lon="6.7584">
        <ele>1114.31</ele>
        <time>2019-02-06T13:59:19Z</time>
      </trkpt>
      <trkpt lat="46.07422" lon="6.75839">
        <ele>1113.82</ele>
        <time>2019-02-06T13:59:21Z</time>
      </trkpt>
      <trkpt lat="46.07422" lon="6.75837">
        <ele>1113.82</ele>
        <time>2019-02-06T13:59:22Z</time>
      </trkpt>
      <trkpt lat="46.07423" lon="6.75835">
        <ele>1113.82</ele>
        <time>2019-02-06T13:59:23Z</time>
      </trkpt>
      <trkpt lat="46.07425" lon="6.75833">
        <ele>1113.34</ele>
        <time>2019-02-06T13:59:24Z</time>
      </trkpt>
      <trkpt lat="46.07426" lon="6.75832">
        <ele>1112.38</ele>
        <time>2019-02-06T13:59:25Z</time>
      </trkpt>
      <trkpt lat="46.0743" lon="6.7583">
        <ele>1109.02</ele>
        <time>2019-02-06T13:59:29Z</time>
      </trkpt>
      <trkpt lat="46.0743" lon="6.75825">
        <ele>1108.54</ele>
        <time>2019-02-06T13:59:33Z</time>
      </trkpt>
      <trkpt lat="46.0743" lon="6.75824">
        <ele>1108.06</ele>
        <time>2019-02-06T13:59:35Z</time>
      </trkpt>
      <trkpt lat="46.0743" lon="6.75816">
        <ele>1105.17</ele>
        <time>2019-02-06T13:59:38Z</time>
      </trkpt>
      <trkpt lat="46.07428" lon="6.7581">
        <ele>1102.77</ele>
        <time>2019-02-06T13:59:40Z</time>
      </trkpt>
      <trkpt lat="46.07426" lon="6.75808">
        <ele>1101.33</ele>
        <time>2019-02-06T13:59:41Z</time>
      </trkpt>
      <trkpt lat="46.07426" lon="6.75807">
        <ele>1099.4</ele>
        <time>2019-02-06T13:59:42Z</time>
      </trkpt>
      <trkpt lat="46.07426" lon="6.75804">
        <ele>1098.44</ele>
        <time>2019-02-06T13:59:43Z</time>
      </trkpt>
      <trkpt lat="46.07425" lon="6.75801">
        <ele>1097</ele>
        <time>2019-02-06T13:59:44Z</time>
      </trkpt>
      <trkpt lat="46.07425" lon="6.75798">
        <ele>1096.04</ele>
        <time>2019-02-06T13:59:45Z</time>
      </trkpt>
      <trkpt lat="46.07426" lon="6.75794">
        <ele>1094.6</ele>
        <time>2019-02-06T13:59:46Z</time>
      </trkpt>
      <trkpt lat="46.07427" lon="6.75792">
        <ele>1093.16</ele>
        <time>2019-02-06T13:59:47Z</time>
      </trkpt>
      <trkpt lat="46.07428" lon="6.75792">
        <ele>1092.2</ele>
        <time>2019-02-06T13:59:48Z</time>
      </trkpt>
      <trkpt lat="46.07426" lon="6.75788">
        <ele>1091.23</ele>
        <time>2019-02-06T13:59:49Z</time>
      </trkpt>
      <trkpt lat="46.07426" lon="6.75786">
        <ele>1089.79</ele>
        <time>2019-02-06T13:59:50Z</time>
      </trkpt>
      <trkpt lat="46.07426" lon="6.75784">
        <ele>1088.83</ele>
        <time>2019-02-06T13:59:51Z</time>
      </trkpt>
      <trkpt lat="46.07427" lon="6.7578">
        <ele>1085.95</ele>
        <time>2019-02-06T13:59:53Z</time>
      </trkpt>
      <trkpt lat="46.07427" lon="6.75779">
        <ele>1084.99</ele>
        <time>2019-02-06T13:59:54Z</time>
      </trkpt>
      <trkpt lat="46.07426" lon="6.75777">
        <ele>1084.02</ele>
        <time>2019-02-06T13:59:56Z</time>
      </trkpt>
      <trkpt lat="46.07422" lon="6.75775">
        <ele>1083.54</ele>
        <time>2019-02-06T14:00:00Z</time>
      </trkpt>
      <trkpt lat="46.07421" lon="6.75773">
        <ele>1082.58</ele>
        <time>2019-02-06T14:00:01Z</time>
      </trkpt>
      <trkpt lat="46.07419" lon="6.7577">
        <ele>1082.1</ele>
        <time>2019-02-06T14:00:02Z</time>
      </trkpt>
      <trkpt lat="46.07419" lon="6.75768">
        <ele>1081.62</ele>
        <time>2019-02-06T14:00:03Z</time>
      </trkpt>
      <trkpt lat="46.07419" lon="6.75767">
        <ele>1081.62</ele>
        <time>2019-02-06T14:00:04Z</time>
      </trkpt>
      <trkpt lat="46.0742" lon="6.75763">
        <ele>1079.7</ele>
        <time>2019-02-06T14:00:10Z</time>
      </trkpt>
      <trkpt lat="46.07421" lon="6.75762">
        <ele>1079.22</ele>
        <time>2019-02-06T14:00:11Z</time>
      </trkpt>
      <trkpt lat="46.07424" lon="6.75754">
        <ele>1077.29</ele>
        <time>2019-02-06T14:00:20Z</time>
      </trkpt>
      <trkpt lat="46.07425" lon="6.75753">
        <ele>1076.33</ele>
        <time>2019-02-06T14:00:23Z</time>
      </trkpt>
      <trkpt lat="46.07425" lon="6.75751">
        <ele>1075.85</ele>
        <time>2019-02-06T14:00:24Z</time>
      </trkpt>
      <trkpt lat="46.07425" lon="6.75748">
        <ele>1075.85</ele>
        <time>2019-02-06T14:00:29Z</time>
      </trkpt>
      <trkpt lat="46.07423" lon="6.75743">
        <ele>1075.37</ele>
        <time>2019-02-06T14:00:30Z</time>
      </trkpt>
      <trkpt lat="46.07417" lon="6.7573">
        <ele>1072.01</ele>
        <time>2019-02-06T14:00:34Z</time>
      </trkpt>
      <trkpt lat="46.0742" lon="6.7572">
        <ele>1069.12</ele>
        <time>2019-02-06T14:00:45Z</time>
      </trkpt>
      <trkpt lat="46.07421" lon="6.75719">
        <ele>1068.64</ele>
        <time>2019-02-06T14:00:46Z</time>
      </trkpt>
      <trkpt lat="46.07421" lon="6.75715">
        <ele>1068.16</ele>
        <time>2019-02-06T14:00:47Z</time>
      </trkpt>
      <trkpt lat="46.07421" lon="6.75713">
        <ele>1067.2</ele>
        <time>2019-02-06T14:00:48Z</time>
      </trkpt>
      <trkpt lat="46.07422" lon="6.75709">
        <ele>1066.24</ele>
        <time>2019-02-06T14:00:49Z</time>
      </trkpt>
      <trkpt lat="46.07423" lon="6.75706">
        <ele>1065.28</ele>
        <time>2019-02-06T14:00:50Z</time>
      </trkpt>
      <trkpt lat="46.07423" lon="6.75703">
        <ele>1064.32</ele>
        <time>2019-02-06T14:00:51Z</time>
      </trkpt>
      <trkpt lat="46.07423" lon="6.75701">
        <ele>1063.84</ele>
        <time>2019-02-06T14:00:52Z</time>
      </trkpt>
      <trkpt lat="46.07424" lon="6.75701">
        <ele>1063.84</ele>
        <time>2019-02-06T14:00:53Z</time>
      </trkpt>
      <trkpt lat="46.07425" lon="6.75704">
        <ele>1062.87</ele>
        <time>2019-02-06T14:01:02Z</time>
      </trkpt>
      <trkpt lat="46.07426" lon="6.75706">
        <ele>1061.43</ele>
        <time>2019-02-06T14:01:05Z</time>
      </trkpt>
      <trkpt lat="46.07426" lon="6.75705">
        <ele>1061.43</ele>
        <time>2019-02-06T14:01:06Z</time>
      </trkpt>
      <trkpt lat="46.07424" lon="6.75705">
        <ele>1059.99</ele>
        <time>2019-02-06T14:01:15Z</time>
      </trkpt>
      <trkpt lat="46.0742" lon="6.75705">
        <ele>1059.03</ele>
        <time>2019-02-06T14:01:17Z</time>
      </trkpt>
      <trkpt lat="46.07417" lon="6.75703">
        <ele>1058.07</ele>
        <time>2019-02-06T14:01:18Z</time>
      </trkpt>
      <trkpt lat="46.07417" lon="6.75703">
        <ele>1057.11</ele>
        <time>2019-02-06T14:01:19Z</time>
      </trkpt>
      <trkpt lat="46.07417" lon="6.75704">
        <ele>1055.67</ele>
        <time>2019-02-06T14:01:21Z</time>
      </trkpt>
      <trkpt lat="46.07418" lon="6.75703">
        <ele>1055.67</ele>
        <time>2019-02-06T14:01:26Z</time>
      </trkpt>
      <trkpt lat="46.07421" lon="6.75692">
        <ele>1053.26</ele>
        <time>2019-02-06T14:01:34Z</time>
      </trkpt>
      <trkpt lat="46.07421" lon="6.7569">
        <ele>1052.78</ele>
        <time>2019-02-06T14:01:35Z</time>
      </trkpt>
      <trkpt lat="46.07421" lon="6.7569">
        <ele>1052.78</ele>
        <time>2019-02-06T14:01:36Z</time>
      </trkpt>
      <trkpt lat="46.0742" lon="6.75687">
        <ele>1052.3</ele>
        <time>2019-02-06T14:01:39Z</time>
      </trkpt>
      <trkpt lat="46.07417" lon="6.75684">
        <ele>1050.38</ele>
        <time>2019-02-06T14:01:45Z</time>
      </trkpt>
      <trkpt lat="46.07414" lon="6.75682">
        <ele>1049.42</ele>
        <time>2019-02-06T14:01:46Z</time>
      </trkpt>
      <trkpt lat="46.07411" lon="6.75678">
        <ele>1048.45</ele>
        <time>2019-02-06T14:01:47Z</time>
      </trkpt>
      <trkpt lat="46.07409" lon="6.75676">
        <ele>1047.49</ele>
        <time>2019-02-06T14:01:48Z</time>
      </trkpt>
      <trkpt lat="46.07408" lon="6.75674">
        <ele>1046.53</ele>
        <time>2019-02-06T14:01:49Z</time>
      </trkpt>
      <trkpt lat="46.07408" lon="6.75673">
        <ele>1046.53</ele>
        <time>2019-02-06T14:01:50Z</time>
      </trkpt>
      <trkpt lat="46.07411" lon="6.75671">
        <ele>1044.61</ele>
        <time>2019-02-06T14:01:57Z</time>
      </trkpt>
      <trkpt lat="46.07413" lon="6.75668">
        <ele>1041.25</ele>
        <time>2019-02-06T14:02:08Z</time>
      </trkpt>
      <trkpt lat="46.07414" lon="6.75664">
        <ele>1039.8</ele>
        <time>2019-02-06T14:02:12Z</time>
      </trkpt>
      <trkpt lat="46.07414" lon="6.75662">
        <ele>1038.84</ele>
        <time>2019-02-06T14:02:13Z</time>
      </trkpt>
      <trkpt lat="46.07414" lon="6.75661">
        <ele>1038.36</ele>
        <time>2019-02-06T14:02:14Z</time>
      </trkpt>
      <trkpt lat="46.07414" lon="6.75659">
        <ele>1037.4</ele>
        <time>2019-02-06T14:02:15Z</time>
      </trkpt>
      <trkpt lat="46.07414" lon="6.75656">
        <ele>1037.4</ele>
        <time>2019-02-06T14:02:16Z</time>
      </trkpt>
      <trkpt lat="46.07414" lon="6.75646">
        <ele>1035</ele>
        <time>2019-02-06T14:02:20Z</time>
      </trkpt>
      <trkpt lat="46.07414" lon="6.75644">
        <ele>1034.04</ele>
        <time>2019-02-06T14:02:21Z</time>
      </trkpt>
      <trkpt lat="46.07415" lon="6.7564">
        <ele>1031.63</ele>
        <time>2019-02-06T14:02:25Z</time>
      </trkpt>
      <trkpt lat="46.07412" lon="6.75634">
        <ele>1031.15</ele>
        <time>2019-02-06T14:02:29Z</time>
      </trkpt>
      <trkpt lat="46.07411" lon="6.75632">
        <ele>1030.67</ele>
        <time>2019-02-06T14:02:30Z</time>
      </trkpt>
      <trkpt lat="46.07411" lon="6.75628">
        <ele>1029.71</ele>
        <time>2019-02-06T14:02:31Z</time>
      </trkpt>
      <trkpt lat="46.0741" lon="6.75625">
        <ele>1028.75</ele>
        <time>2019-02-06T14:02:32Z</time>
      </trkpt>
      <trkpt lat="46.0741" lon="6.75622">
        <ele>1027.79</ele>
        <time>2019-02-06T14:02:33Z</time>
      </trkpt>
      <trkpt lat="46.07408" lon="6.75607">
        <ele>1023.46</ele>
        <time>2019-02-06T14:02:37Z</time>
      </trkpt>
      <trkpt lat="46.0741" lon="6.75597">
        <ele>1020.1</ele>
        <time>2019-02-06T14:02:40Z</time>
      </trkpt>
      <trkpt lat="46.07406" lon="6.75586">
        <ele>1017.69</ele>
        <time>2019-02-06T14:02:42Z</time>
      </trkpt>
      <trkpt lat="46.07401" lon="6.7557">
        <ele>1014.81</ele>
        <time>2019-02-06T14:02:45Z</time>
      </trkpt>
      <trkpt lat="46.07394" lon="6.75556">
        <ele>1010.96</ele>
        <time>2019-02-06T14:02:48Z</time>
      </trkpt>
      <trkpt lat="46.07392" lon="6.75548">
        <ele>1010</ele>
        <time>2019-02-06T14:02:49Z</time>
      </trkpt>
      <trkpt lat="46.07393" lon="6.75541">
        <ele>1008.56</ele>
        <time>2019-02-06T14:02:50Z</time>
      </trkpt>
      <trkpt lat="46.07392" lon="6.75538">
        <ele>1007.6</ele>
        <time>2019-02-06T14:02:51Z</time>
      </trkpt>
      <trkpt lat="46.07393" lon="6.75534">
        <ele>1006.64</ele>
        <time>2019-02-06T14:02:52Z</time>
      </trkpt>
      <trkpt lat="46.07394" lon="6.75531">
        <ele>1006.16</ele>
        <time>2019-02-06T14:02:53Z</time>
      </trkpt>
      <trkpt lat="46.07394" lon="6.75527">
        <ele>1005.2</ele>
        <time>2019-02-06T14:02:54Z</time>
      </trkpt>
      <trkpt lat="46.07394" lon="6.75524">
        <ele>1004.72</ele>
        <time>2019-02-06T14:02:55Z</time>
      </trkpt>
      <trkpt lat="46.07394" lon="6.75521">
        <ele>1004.23</ele>
        <time>2019-02-06T14:02:56Z</time>
      </trkpt>
      <trkpt lat="46.07392" lon="6.75517">
        <ele>1003.27</ele>
        <time>2019-02-06T14:02:57Z</time>
      </trkpt>
      <trkpt lat="46.0739" lon="6.75511">
        <ele>1002.31</ele>
        <time>2019-02-06T14:02:58Z</time>
      </trkpt>
      <trkpt lat="46.07385" lon="6.75501">
        <ele>998.95</ele>
        <time>2019-02-06T14:03:01Z</time>
      </trkpt>
      <trkpt lat="46.07375" lon="6.75497">
        <ele>996.06</ele>
        <time>2019-02-06T14:03:04Z</time>
      </trkpt>
      <trkpt lat="46.07361" lon="6.75492">
        <ele>992.7</ele>
        <time>2019-02-06T14:03:08Z</time>
      </trkpt>
      <trkpt lat="46.07343" lon="6.7549">
        <ele>988.85</ele>
        <time>2019-02-06T14:03:12Z</time>
      </trkpt>
      <trkpt lat="46.07332" lon="6.75493">
        <ele>987.41</ele>
        <time>2019-02-06T14:03:15Z</time>
      </trkpt>
      <trkpt lat="46.07314" lon="6.75504">
        <ele>985.01</ele>
        <time>2019-02-06T14:03:20Z</time>
      </trkpt>
      <trkpt lat="46.07304" lon="6.75513">
        <ele>982.6</ele>
        <time>2019-02-06T14:03:22Z</time>
      </trkpt>
      <trkpt lat="46.073" lon="6.75512">
        <ele>981.64</ele>
        <time>2019-02-06T14:03:23Z</time>
      </trkpt>
      <trkpt lat="46.07297" lon="6.75507">
        <ele>980.68</ele>
        <time>2019-02-06T14:03:24Z</time>
      </trkpt>
      <trkpt lat="46.07297" lon="6.75502">
        <ele>979.72</ele>
        <time>2019-02-06T14:03:25Z</time>
      </trkpt>
      <trkpt lat="46.07298" lon="6.75497">
        <ele>978.76</ele>
        <time>2019-02-06T14:03:26Z</time>
      </trkpt>
      <trkpt lat="46.07298" lon="6.75492">
        <ele>977.8</ele>
        <time>2019-02-06T14:03:27Z</time>
      </trkpt>
      <trkpt lat="46.073" lon="6.75488">
        <ele>976.84</ele>
        <time>2019-02-06T14:03:28Z</time>
      </trkpt>
      <trkpt lat="46.07302" lon="6.75483">
        <ele>976.36</ele>
        <time>2019-02-06T14:03:29Z</time>
      </trkpt>
      <trkpt lat="46.07305" lon="6.75479">
        <ele>975.39</ele>
        <time>2019-02-06T14:03:30Z</time>
      </trkpt>
      <trkpt lat="46.07308" lon="6.75476">
        <ele>974.91</ele>
        <time>2019-02-06T14:03:31Z</time>
      </trkpt>
      <trkpt lat="46.07311" lon="6.75471">
        <ele>974.43</ele>
        <time>2019-02-06T14:03:32Z</time>
      </trkpt>
      <trkpt lat="46.07315" lon="6.75466">
        <ele>972.99</ele>
        <time>2019-02-06T14:03:33Z</time>
      </trkpt>
      <trkpt lat="46.0732" lon="6.75463">
        <ele>971.55</ele>
        <time>2019-02-06T14:03:34Z</time>
      </trkpt>
      <trkpt lat="46.07326" lon="6.75458">
        <ele>970.59</ele>
        <time>2019-02-06T14:03:35Z</time>
      </trkpt>
      <trkpt lat="46.0733" lon="6.75453">
        <ele>970.59</ele>
        <time>2019-02-06T14:03:36Z</time>
      </trkpt>
      <trkpt lat="46.07334" lon="6.75448">
        <ele>968.67</ele>
        <time>2019-02-06T14:03:37Z</time>
      </trkpt>
      <trkpt lat="46.07337" lon="6.75441">
        <ele>968.18</ele>
        <time>2019-02-06T14:03:38Z</time>
      </trkpt>
      <trkpt lat="46.07341" lon="6.75434">
        <ele>967.7</ele>
        <time>2019-02-06T14:03:39Z</time>
      </trkpt>
      <trkpt lat="46.07344" lon="6.75428">
        <ele>966.74</ele>
        <time>2019-02-06T14:03:40Z</time>
      </trkpt>
      <trkpt lat="46.07349" lon="6.75424">
        <ele>965.78</ele>
        <time>2019-02-06T14:03:41Z</time>
      </trkpt>
      <trkpt lat="46.07353" lon="6.75419">
        <ele>964.82</ele>
        <time>2019-02-06T14:03:42Z</time>
      </trkpt>
      <trkpt lat="46.07358" lon="6.75416">
        <ele>963.86</ele>
        <time>2019-02-06T14:03:43Z</time>
      </trkpt>
      <trkpt lat="46.07362" lon="6.75413">
        <ele>963.38</ele>
        <time>2019-02-06T14:03:44Z</time>
      </trkpt>
      <trkpt lat="46.07368" lon="6.75412">
        <ele>962.42</ele>
        <time>2019-02-06T14:03:45Z</time>
      </trkpt>
      <trkpt lat="46.07372" lon="6.75411">
        <ele>960.98</ele>
        <time>2019-02-06T14:03:46Z</time>
      </trkpt>
      <trkpt lat="46.07376" lon="6.75411">
        <ele>960.49</ele>
        <time>2019-02-06T14:03:47Z</time>
      </trkpt>
      <trkpt lat="46.0738" lon="6.75411">
        <ele>960.01</ele>
        <time>2019-02-06T14:03:48Z</time>
      </trkpt>
      <trkpt lat="46.07392" lon="6.75409">
        <ele>959.05</ele>
        <time>2019-02-06T14:03:50Z</time>
      </trkpt>
      <trkpt lat="46.07397" lon="6.75405">
        <ele>958.09</ele>
        <time>2019-02-06T14:03:51Z</time>
      </trkpt>
      <trkpt lat="46.07403" lon="6.75403">
        <ele>956.17</ele>
        <time>2019-02-06T14:03:52Z</time>
      </trkpt>
      <trkpt lat="46.07408" lon="6.75398">
        <ele>954.73</ele>
        <time>2019-02-06T14:03:53Z</time>
      </trkpt>
      <trkpt lat="46.07413" lon="6.75394">
        <ele>953.77</ele>
        <time>2019-02-06T14:03:54Z</time>
      </trkpt>
      <trkpt lat="46.07423" lon="6.75388">
        <ele>951.84</ele>
        <time>2019-02-06T14:03:56Z</time>
      </trkpt>
      <trkpt lat="46.07437" lon="6.75376">
        <ele>950.4</ele>
        <time>2019-02-06T14:03:59Z</time>
      </trkpt>
      <trkpt lat="46.07438" lon="6.75368">
        <ele>949.92</ele>
        <time>2019-02-06T14:04:00Z</time>
      </trkpt>
      <trkpt lat="46.0744" lon="6.75362">
        <ele>948.96</ele>
        <time>2019-02-06T14:04:01Z</time>
      </trkpt>
      <trkpt lat="46.0744" lon="6.75355">
        <ele>948.48</ele>
        <time>2019-02-06T14:04:02Z</time>
      </trkpt>
      <trkpt lat="46.07439" lon="6.7535">
        <ele>947.52</ele>
        <time>2019-02-06T14:04:03Z</time>
      </trkpt>
      <trkpt lat="46.07438" lon="6.75345">
        <ele>946.56</ele>
        <time>2019-02-06T14:04:04Z</time>
      </trkpt>
      <trkpt lat="46.07438" lon="6.75339">
        <ele>945.59</ele>
        <time>2019-02-06T14:04:05Z</time>
      </trkpt>
      <trkpt lat="46.07439" lon="6.75334">
        <ele>944.63</ele>
        <time>2019-02-06T14:04:06Z</time>
      </trkpt>
      <trkpt lat="46.07441" lon="6.75329">
        <ele>943.19</ele>
        <time>2019-02-06T14:04:07Z</time>
      </trkpt>
      <trkpt lat="46.07443" lon="6.75323">
        <ele>942.23</ele>
        <time>2019-02-06T14:04:08Z</time>
      </trkpt>
      <trkpt lat="46.07446" lon="6.75319">
        <ele>941.27</ele>
        <time>2019-02-06T14:04:09Z</time>
      </trkpt>
      <trkpt lat="46.07449" lon="6.75315">
        <ele>939.83</ele>
        <time>2019-02-06T14:04:10Z</time>
      </trkpt>
      <trkpt lat="46.07453" lon="6.75312">
        <ele>938.86</ele>
        <time>2019-02-06T14:04:11Z</time>
      </trkpt>
      <trkpt lat="46.07456" lon="6.75309">
        <ele>937.9</ele>
        <time>2019-02-06T14:04:12Z</time>
      </trkpt>
      <trkpt lat="46.0746" lon="6.75307">
        <ele>936.94</ele>
        <time>2019-02-06T14:04:13Z</time>
      </trkpt>
      <trkpt lat="46.07464" lon="6.75307">
        <ele>935.5</ele>
        <time>2019-02-06T14:04:14Z</time>
      </trkpt>
      <trkpt lat="46.0747" lon="6.75307">
        <ele>934.54</ele>
        <time>2019-02-06T14:04:15Z</time>
      </trkpt>
      <trkpt lat="46.07475" lon="6.75306">
        <ele>932.62</ele>
        <time>2019-02-06T14:04:16Z</time>
      </trkpt>
      <trkpt lat="46.07479" lon="6.75302">
        <ele>931.17</ele>
        <time>2019-02-06T14:04:17Z</time>
      </trkpt>
      <trkpt lat="46.07484" lon="6.75295">
        <ele>930.21</ele>
        <time>2019-02-06T14:04:18Z</time>
      </trkpt>
      <trkpt lat="46.07488" lon="6.75286">
        <ele>928.29</ele>
        <time>2019-02-06T14:04:19Z</time>
      </trkpt>
      <trkpt lat="46.0749" lon="6.75277">
        <ele>926.37</ele>
        <time>2019-02-06T14:04:20Z</time>
      </trkpt>
      <trkpt lat="46.07491" lon="6.75268">
        <ele>925.41</ele>
        <time>2019-02-06T14:04:21Z</time>
      </trkpt>
      <trkpt lat="46.07493" lon="6.75259">
        <ele>923.96</ele>
        <time>2019-02-06T14:04:22Z</time>
      </trkpt>
      <trkpt lat="46.07494" lon="6.75248">
        <ele>922.04</ele>
        <time>2019-02-06T14:04:24Z</time>
      </trkpt>
      <trkpt lat="46.07494" lon="6.75247">
        <ele>921.56</ele>
        <time>2019-02-06T14:04:25Z</time>
      </trkpt>
      <trkpt lat="46.07492" lon="6.75243">
        <ele>921.56</ele>
        <time>2019-02-06T14:04:27Z</time>
      </trkpt>
      <trkpt lat="46.07492" lon="6.75242">
        <ele>921.56</ele>
        <time>2019-02-06T14:04:28Z</time>
      </trkpt>
      <trkpt lat="46.07491" lon="6.75238">
        <ele>921.56</ele>
        <time>2019-02-06T14:04:30Z</time>
      </trkpt>
      <trkpt lat="46.0749" lon="6.75236">
        <ele>921.08</ele>
        <time>2019-02-06T14:04:31Z</time>
      </trkpt>
      <trkpt lat="46.07488" lon="6.7523">
        <ele>921.08</ele>
        <time>2019-02-06T14:04:35Z</time>
      </trkpt>
      <trkpt lat="46.07488" lon="6.75226">
        <ele>920.6</ele>
        <time>2019-02-06T14:04:36Z</time>
      </trkpt>
      <trkpt lat="46.07487" lon="6.75222">
        <ele>919.64</ele>
        <time>2019-02-06T14:04:37Z</time>
      </trkpt>
      <trkpt lat="46.07487" lon="6.75218">
        <ele>918.2</ele>
        <time>2019-02-06T14:04:38Z</time>
      </trkpt>
      <trkpt lat="46.07487" lon="6.75214">
        <ele>916.75</ele>
        <time>2019-02-06T14:04:39Z</time>
      </trkpt>
      <trkpt lat="46.07487" lon="6.75209">
        <ele>915.31</ele>
        <time>2019-02-06T14:04:40Z</time>
      </trkpt>
      <trkpt lat="46.07487" lon="6.75204">
        <ele>913.39</ele>
        <time>2019-02-06T14:04:41Z</time>
      </trkpt>
      <trkpt lat="46.0749" lon="6.75193">
        <ele>909.06</ele>
        <time>2019-02-06T14:04:44Z</time>
      </trkpt>
      <trkpt lat="46.0749" lon="6.7519">
        <ele>908.1</ele>
        <time>2019-02-06T14:04:45Z</time>
      </trkpt>
      <trkpt lat="46.07489" lon="6.75187">
        <ele>907.14</ele>
        <time>2019-02-06T14:04:46Z</time>
      </trkpt>
      <trkpt lat="46.07488" lon="6.75185">
        <ele>906.66</ele>
        <time>2019-02-06T14:04:47Z</time>
      </trkpt>
      <trkpt lat="46.07487" lon="6.75184">
        <ele>905.22</ele>
        <time>2019-02-06T14:04:50Z</time>
      </trkpt>
      <trkpt lat="46.07487" lon="6.75182">
        <ele>905.22</ele>
        <time>2019-02-06T14:04:52Z</time>
      </trkpt>
      <trkpt lat="46.07485" lon="6.75178">
        <ele>904.26</ele>
        <time>2019-02-06T14:04:54Z</time>
      </trkpt>
      <trkpt lat="46.07485" lon="6.75175">
        <ele>903.78</ele>
        <time>2019-02-06T14:04:55Z</time>
      </trkpt>
      <trkpt lat="46.07484" lon="6.7517">
        <ele>903.3</ele>
        <time>2019-02-06T14:04:56Z</time>
      </trkpt>
      <trkpt lat="46.07483" lon="6.75166">
        <ele>902.33</ele>
        <time>2019-02-06T14:04:57Z</time>
      </trkpt>
      <trkpt lat="46.07481" lon="6.75162">
        <ele>901.85</ele>
        <time>2019-02-06T14:04:58Z</time>
      </trkpt>
      <trkpt lat="46.0748" lon="6.7516">
        <ele>900.41</ele>
        <time>2019-02-06T14:04:59Z</time>
      </trkpt>
      <trkpt lat="46.07481" lon="6.75158">
        <ele>898.97</ele>
        <time>2019-02-06T14:05:02Z</time>
      </trkpt>
      <trkpt lat="46.0748" lon="6.75156">
        <ele>898.49</ele>
        <time>2019-02-06T14:05:03Z</time>
      </trkpt>
      <trkpt lat="46.07479" lon="6.75154">
        <ele>898.49</ele>
        <time>2019-02-06T14:05:04Z</time>
      </trkpt>
      <trkpt lat="46.07478" lon="6.75154">
        <ele>898.01</ele>
        <time>2019-02-06T14:05:05Z</time>
      </trkpt>
      <trkpt lat="46.07474" lon="6.75143">
        <ele>894.64</ele>
        <time>2019-02-06T14:05:11Z</time>
      </trkpt>
      <trkpt lat="46.07474" lon="6.75141">
        <ele>893.2</ele>
        <time>2019-02-06T14:05:14Z</time>
      </trkpt>
      <trkpt lat="46.07474" lon="6.75136">
        <ele>893.2</ele>
        <time>2019-02-06T14:05:16Z</time>
      </trkpt>
      <trkpt lat="46.07475" lon="6.75134">
        <ele>892.24</ele>
        <time>2019-02-06T14:05:17Z</time>
      </trkpt>
      <trkpt lat="46.07475" lon="6.75133">
        <ele>891.76</ele>
        <time>2019-02-06T14:05:19Z</time>
      </trkpt>
      <trkpt lat="46.07475" lon="6.75128">
        <ele>891.28</ele>
        <time>2019-02-06T14:05:23Z</time>
      </trkpt>
      <trkpt lat="46.07475" lon="6.75125">
        <ele>890.8</ele>
        <time>2019-02-06T14:05:24Z</time>
      </trkpt>
      <trkpt lat="46.07475" lon="6.75123">
        <ele>890.32</ele>
        <time>2019-02-06T14:05:25Z</time>
      </trkpt>
      <trkpt lat="46.07474" lon="6.75119">
        <ele>889.36</ele>
        <time>2019-02-06T14:05:26Z</time>
      </trkpt>
      <trkpt lat="46.07473" lon="6.75116">
        <ele>888.4</ele>
        <time>2019-02-06T14:05:27Z</time>
      </trkpt>
      <trkpt lat="46.07472" lon="6.75113">
        <ele>887.91</ele>
        <time>2019-02-06T14:05:28Z</time>
      </trkpt>
      <trkpt lat="46.07471" lon="6.75111">
        <ele>887.43</ele>
        <time>2019-02-06T14:05:29Z</time>
      </trkpt>
      <trkpt lat="46.0747" lon="6.7511">
        <ele>886.47</ele>
        <time>2019-02-06T14:05:31Z</time>
      </trkpt>
      <trkpt lat="46.07469" lon="6.75107">
        <ele>885.99</ele>
        <time>2019-02-06T14:05:33Z</time>
      </trkpt>
      <trkpt lat="46.07464" lon="6.75094">
        <ele>882.15</ele>
        <time>2019-02-06T14:05:38Z</time>
      </trkpt>
      <trkpt lat="46.07456" lon="6.75082">
        <ele>879.26</ele>
        <time>2019-02-06T14:05:41Z</time>
      </trkpt>
      <trkpt lat="46.07454" lon="6.75077">
        <ele>878.3</ele>
        <time>2019-02-06T14:05:42Z</time>
      </trkpt>
      <trkpt lat="46.07452" lon="6.75072">
        <ele>876.86</ele>
        <time>2019-02-06T14:05:43Z</time>
      </trkpt>
      <trkpt lat="46.07443" lon="6.75057">
        <ele>873.01</ele>
        <time>2019-02-06T14:05:47Z</time>
      </trkpt>
      <trkpt lat="46.07433" lon="6.75043">
        <ele>869.65</ele>
        <time>2019-02-06T14:05:51Z</time>
      </trkpt>
      <trkpt lat="46.07425" lon="6.75036">
        <ele>866.77</ele>
        <time>2019-02-06T14:05:55Z</time>
      </trkpt>
      <trkpt lat="46.07425" lon="6.75035">
        <ele>865.32</ele>
        <time>2019-02-06T14:05:58Z</time>
      </trkpt>
      <trkpt lat="46.07421" lon="6.75029">
        <ele>864.36</ele>
        <time>2019-02-06T14:06:10Z</time>
      </trkpt>
      <trkpt lat="46.07419" lon="6.75028">
        <ele>863.4</ele>
        <time>2019-02-06T14:06:11Z</time>
      </trkpt>
      <trkpt lat="46.07417" lon="6.75027">
        <ele>862.44</ele>
        <time>2019-02-06T14:06:12Z</time>
      </trkpt>
      <trkpt lat="46.07415" lon="6.75025">
        <ele>861.48</ele>
        <time>2019-02-06T14:06:13Z</time>
      </trkpt>
      <trkpt lat="46.07413" lon="6.75024">
        <ele>861</ele>
        <time>2019-02-06T14:06:14Z</time>
      </trkpt>
      <trkpt lat="46.07411" lon="6.75023">
        <ele>860.04</ele>
        <time>2019-02-06T14:06:15Z</time>
      </trkpt>
      <trkpt lat="46.07402" lon="6.75016">
        <ele>857.15</ele>
        <time>2019-02-06T14:06:23Z</time>
      </trkpt>
      <trkpt lat="46.07399" lon="6.75015">
        <ele>856.19</ele>
        <time>2019-02-06T14:06:24Z</time>
      </trkpt>
      <trkpt lat="46.07398" lon="6.75014">
        <ele>855.71</ele>
        <time>2019-02-06T14:06:25Z</time>
      </trkpt>
      <trkpt lat="46.07396" lon="6.75011">
        <ele>854.27</ele>
        <time>2019-02-06T14:06:28Z</time>
      </trkpt>
      <trkpt lat="46.07396" lon="6.75009">
        <ele>854.27</ele>
        <time>2019-02-06T14:06:29Z</time>
      </trkpt>
      <trkpt lat="46.07393" lon="6.74997">
        <ele>851.38</ele>
        <time>2019-02-06T14:06:38Z</time>
      </trkpt>
      <trkpt lat="46.07391" lon="6.74991">
        <ele>849.46</ele>
        <time>2019-02-06T14:06:40Z</time>
      </trkpt>
      <trkpt lat="46.0739" lon="6.74989">
        <ele>848.98</ele>
        <time>2019-02-06T14:06:41Z</time>
      </trkpt>
      <trkpt lat="46.07391" lon="6.74986">
        <ele>848.5</ele>
        <time>2019-02-06T14:06:45Z</time>
      </trkpt>
      <trkpt lat="46.07393" lon="6.74985">
        <ele>848.02</ele>
        <time>2019-02-06T14:06:46Z</time>
      </trkpt>
      <trkpt lat="46.07393" lon="6.74982">
        <ele>847.54</ele>
        <time>2019-02-06T14:06:47Z</time>
      </trkpt>
      <trkpt lat="46.07396" lon="6.74977">
        <ele>846.1</ele>
        <time>2019-02-06T14:06:51Z</time>
      </trkpt>
      <trkpt lat="46.07398" lon="6.74976">
        <ele>845.62</ele>
        <time>2019-02-06T14:06:52Z</time>
      </trkpt>
      <trkpt lat="46.07398" lon="6.74975">
        <ele>845.14</ele>
        <time>2019-02-06T14:06:53Z</time>
      </trkpt>
      <trkpt lat="46.07398" lon="6.74973">
        <ele>844.66</ele>
        <time>2019-02-06T14:06:54Z</time>
      </trkpt>
      <trkpt lat="46.07399" lon="6.74972">
        <ele>844.18</ele>
        <time>2019-02-06T14:06:55Z</time>
      </trkpt>
      <trkpt lat="46.07402" lon="6.74971">
        <ele>843.69</ele>
        <time>2019-02-06T14:06:56Z</time>
      </trkpt>
      <trkpt lat="46.07404" lon="6.74969">
        <ele>842.73</ele>
        <time>2019-02-06T14:06:57Z</time>
      </trkpt>
      <trkpt lat="46.07407" lon="6.74969">
        <ele>841.29</ele>
        <time>2019-02-06T14:06:58Z</time>
      </trkpt>
      <trkpt lat="46.07409" lon="6.74969">
        <ele>840.33</ele>
        <time>2019-02-06T14:06:59Z</time>
      </trkpt>
      <trkpt lat="46.07409" lon="6.74968">
        <ele>839.85</ele>
        <time>2019-02-06T14:07:00Z</time>
      </trkpt>
      <trkpt lat="46.0741" lon="6.74965">
        <ele>839.37</ele>
        <time>2019-02-06T14:07:04Z</time>
      </trkpt>
      <trkpt lat="46.07411" lon="6.74963">
        <ele>839.37</ele>
        <time>2019-02-06T14:07:05Z</time>
      </trkpt>
      <trkpt lat="46.07413" lon="6.74961">
        <ele>838.89</ele>
        <time>2019-02-06T14:07:06Z</time>
      </trkpt>
      <trkpt lat="46.07413" lon="6.74959">
        <ele>838.41</ele>
        <time>2019-02-06T14:07:07Z</time>
      </trkpt>
      <trkpt lat="46.07413" lon="6.74958">
        <ele>838.41</ele>
        <time>2019-02-06T14:07:08Z</time>
      </trkpt>
      <trkpt lat="46.07413" lon="6.74957">
        <ele>838.41</ele>
        <time>2019-02-06T14:07:09Z</time>
      </trkpt>
      <trkpt lat="46.07413" lon="6.74956">
        <ele>838.41</ele>
        <time>2019-02-06T14:07:10Z</time>
      </trkpt>
      <trkpt lat="46.07415" lon="6.74953">
        <ele>837.93</ele>
        <time>2019-02-06T14:07:11Z</time>
      </trkpt>
      <trkpt lat="46.07421" lon="6.74945">
        <ele>835.04</ele>
        <time>2019-02-06T14:07:15Z</time>
      </trkpt>
      <trkpt lat="46.07422" lon="6.74943">
        <ele>834.56</ele>
        <time>2019-02-06T14:07:16Z</time>
      </trkpt>
      <trkpt lat="46.07423" lon="6.74942">
        <ele>833.6</ele>
        <time>2019-02-06T14:07:17Z</time>
      </trkpt>
      <trkpt lat="46.07424" lon="6.74942">
        <ele>833.12</ele>
        <time>2019-02-06T14:07:18Z</time>
      </trkpt>
      <trkpt lat="46.07425" lon="6.74941">
        <ele>833.12</ele>
        <time>2019-02-06T14:07:19Z</time>
      </trkpt>
      <trkpt lat="46.07426" lon="6.74939">
        <ele>832.64</ele>
        <time>2019-02-06T14:07:20Z</time>
      </trkpt>
      <trkpt lat="46.0743" lon="6.74936">
        <ele>829.27</ele>
        <time>2019-02-06T14:07:26Z</time>
      </trkpt>
      <trkpt lat="46.07433" lon="6.74924">
        <ele>826.39</ele>
        <time>2019-02-06T14:07:41Z</time>
      </trkpt>
      <trkpt lat="46.0744" lon="6.74917">
        <ele>823.03</ele>
        <time>2019-02-06T14:07:54Z</time>
      </trkpt>
      <trkpt lat="46.07443" lon="6.74916">
        <ele>823.03</ele>
        <time>2019-02-06T14:07:55Z</time>
      </trkpt>
      <trkpt lat="46.07448" lon="6.74913">
        <ele>821.1</ele>
        <time>2019-02-06T14:07:59Z</time>
      </trkpt>
      <trkpt lat="46.07464" lon="6.74914">
        <ele>818.22</ele>
        <time>2019-02-06T14:08:07Z</time>
      </trkpt>
      <trkpt lat="46.07463" lon="6.74911">
        <ele>817.74</ele>
        <time>2019-02-06T14:08:10Z</time>
      </trkpt>
      <trkpt lat="46.0746" lon="6.7491">
        <ele>817.26</ele>
        <time>2019-02-06T14:08:11Z</time>
      </trkpt>
      <trkpt lat="46.07458" lon="6.74908">
        <ele>816.78</ele>
        <time>2019-02-06T14:08:12Z</time>
      </trkpt>
      <trkpt lat="46.07443" lon="6.74896">
        <ele>813.89</ele>
        <time>2019-02-06T14:08:18Z</time>
      </trkpt>
      <trkpt lat="46.07432" lon="6.74888">
        <ele>811.01</ele>
        <time>2019-02-06T14:08:30Z</time>
      </trkpt>
      <trkpt lat="46.07429" lon="6.74887">
        <ele>811.01</ele>
        <time>2019-02-06T14:08:31Z</time>
      </trkpt>
      <trkpt lat="46.07427" lon="6.74887">
        <ele>810.05</ele>
        <time>2019-02-06T14:08:32Z</time>
      </trkpt>
      <trkpt lat="46.07424" lon="6.74886">
        <ele>809.57</ele>
        <time>2019-02-06T14:08:33Z</time>
      </trkpt>
      <trkpt lat="46.0742" lon="6.74884">
        <ele>809.57</ele>
        <time>2019-02-06T14:08:34Z</time>
      </trkpt>
      <trkpt lat="46.07417" lon="6.74884">
        <ele>808.61</ele>
        <time>2019-02-06T14:08:35Z</time>
      </trkpt>
      <trkpt lat="46.07415" lon="6.74882">
        <ele>808.13</ele>
        <time>2019-02-06T14:08:36Z</time>
      </trkpt>
      <trkpt lat="46.07413" lon="6.74883">
        <ele>807.64</ele>
        <time>2019-02-06T14:08:37Z</time>
      </trkpt>
      <trkpt lat="46.07409" lon="6.74882">
        <ele>806.68</ele>
        <time>2019-02-06T14:08:38Z</time>
      </trkpt>
      <trkpt lat="46.07405" lon="6.74883">
        <ele>805.72</ele>
        <time>2019-02-06T14:08:39Z</time>
      </trkpt>
      <trkpt lat="46.07391" lon="6.74877">
        <ele>802.36</ele>
        <time>2019-02-06T14:08:42Z</time>
      </trkpt>
      <trkpt lat="46.07378" lon="6.74872">
        <ele>799.47</ele>
        <time>2019-02-06T14:08:45Z</time>
      </trkpt>
      <trkpt lat="46.07364" lon="6.74865">
        <ele>795.63</ele>
        <time>2019-02-06T14:08:49Z</time>
      </trkpt>
      <trkpt lat="46.0735" lon="6.74859">
        <ele>791.78</ele>
        <time>2019-02-06T14:08:53Z</time>
      </trkpt>
      <trkpt lat="46.07338" lon="6.74852">
        <ele>788.42</ele>
        <time>2019-02-06T14:08:57Z</time>
      </trkpt>
      <trkpt lat="46.0733" lon="6.7485">
        <ele>786.02</ele>
        <time>2019-02-06T14:09:00Z</time>
      </trkpt>
      <trkpt lat="46.07326" lon="6.74853">
        <ele>785.53</ele>
        <time>2019-02-06T14:09:01Z</time>
      </trkpt>
      <trkpt lat="46.07321" lon="6.74855">
        <ele>784.57</ele>
        <time>2019-02-06T14:09:02Z</time>
      </trkpt>
      <trkpt lat="46.07305" lon="6.74866">
        <ele>781.21</ele>
        <time>2019-02-06T14:09:05Z</time>
      </trkpt>
      <trkpt lat="46.07301" lon="6.74869">
        <ele>780.25</ele>
        <time>2019-02-06T14:09:06Z</time>
      </trkpt>
      <trkpt lat="46.07293" lon="6.74877">
        <ele>778.81</ele>
        <time>2019-02-06T14:09:08Z</time>
      </trkpt>
      <trkpt lat="46.07288" lon="6.74881">
        <ele>777.84</ele>
        <time>2019-02-06T14:09:09Z</time>
      </trkpt>
      <trkpt lat="46.07272" lon="6.74901">
        <ele>774.96</ele>
        <time>2019-02-06T14:09:13Z</time>
      </trkpt>
      <trkpt lat="46.07264" lon="6.74913">
        <ele>773.04</ele>
        <time>2019-02-06T14:09:15Z</time>
      </trkpt>
      <trkpt lat="46.0726" lon="6.7492">
        <ele>771.11</ele>
        <time>2019-02-06T14:09:16Z</time>
      </trkpt>
      <trkpt lat="46.07256" lon="6.74926">
        <ele>769.67</ele>
        <time>2019-02-06T14:09:17Z</time>
      </trkpt>
      <trkpt lat="46.07251" lon="6.74929">
        <ele>768.71</ele>
        <time>2019-02-06T14:09:18Z</time>
      </trkpt>
      <trkpt lat="46.07245" lon="6.74932">
        <ele>767.75</ele>
        <time>2019-02-06T14:09:19Z</time>
      </trkpt>
      <trkpt lat="46.07239" lon="6.74935">
        <ele>766.31</ele>
        <time>2019-02-06T14:09:20Z</time>
      </trkpt>
      <trkpt lat="46.07233" lon="6.74938">
        <ele>765.35</ele>
        <time>2019-02-06T14:09:21Z</time>
      </trkpt>
      <trkpt lat="46.07222" lon="6.74943">
        <ele>762.94</ele>
        <time>2019-02-06T14:09:23Z</time>
      </trkpt>
      <trkpt lat="46.07216" lon="6.74944">
        <ele>761.02</ele>
        <time>2019-02-06T14:09:24Z</time>
      </trkpt>
      <trkpt lat="46.07208" lon="6.74943">
        <ele>760.06</ele>
        <time>2019-02-06T14:09:25Z</time>
      </trkpt>
      <trkpt lat="46.07197" lon="6.74942">
        <ele>758.62</ele>
        <time>2019-02-06T14:09:27Z</time>
      </trkpt>
      <trkpt lat="46.07191" lon="6.74941">
        <ele>757.66</ele>
        <time>2019-02-06T14:09:28Z</time>
      </trkpt>
      <trkpt lat="46.07187" lon="6.7494">
        <ele>756.69</ele>
        <time>2019-02-06T14:09:29Z</time>
      </trkpt>
      <trkpt lat="46.07184" lon="6.74937">
        <ele>756.21</ele>
        <time>2019-02-06T14:09:30Z</time>
      </trkpt>
      <trkpt lat="46.07184" lon="6.74934">
        <ele>755.25</ele>
        <time>2019-02-06T14:09:31Z</time>
      </trkpt>
      <trkpt lat="46.07184" lon="6.7493">
        <ele>754.29</ele>
        <time>2019-02-06T14:09:32Z</time>
      </trkpt>
      <trkpt lat="46.07185" lon="6.74924">
        <ele>753.33</ele>
        <time>2019-02-06T14:09:33Z</time>
      </trkpt>
      <trkpt lat="46.07186" lon="6.74917">
        <ele>751.41</ele>
        <time>2019-02-06T14:09:34Z</time>
      </trkpt>
      <trkpt lat="46.07191" lon="6.74899">
        <ele>748.04</ele>
        <time>2019-02-06T14:09:37Z</time>
      </trkpt>
      <trkpt lat="46.07197" lon="6.74878">
        <ele>745.16</ele>
        <time>2019-02-06T14:09:41Z</time>
      </trkpt>
      <trkpt lat="46.07203" lon="6.74859">
        <ele>741.79</ele>
        <time>2019-02-06T14:09:45Z</time>
      </trkpt>
      <trkpt lat="46.07205" lon="6.7485">
        <ele>740.35</ele>
        <time>2019-02-06T14:09:47Z</time>
      </trkpt>
      <trkpt lat="46.07205" lon="6.74846">
        <ele>739.39</ele>
        <time>2019-02-06T14:09:48Z</time>
      </trkpt>
      <trkpt lat="46.07207" lon="6.74843">
        <ele>739.39</ele>
        <time>2019-02-06T14:09:49Z</time>
      </trkpt>
      <trkpt lat="46.07208" lon="6.74841">
        <ele>738.43</ele>
        <time>2019-02-06T14:09:50Z</time>
      </trkpt>
      <trkpt lat="46.07209" lon="6.74837">
        <ele>738.43</ele>
        <time>2019-02-06T14:09:51Z</time>
      </trkpt>
      <trkpt lat="46.07211" lon="6.74834">
        <ele>737.95</ele>
        <time>2019-02-06T14:09:52Z</time>
      </trkpt>
      <trkpt lat="46.07212" lon="6.74829">
        <ele>736.99</ele>
        <time>2019-02-06T14:09:53Z</time>
      </trkpt>
      <trkpt lat="46.07214" lon="6.74825">
        <ele>736.03</ele>
        <time>2019-02-06T14:09:54Z</time>
      </trkpt>
      <trkpt lat="46.07216" lon="6.74822">
        <ele>736.03</ele>
        <time>2019-02-06T14:09:55Z</time>
      </trkpt>
      <trkpt lat="46.07217" lon="6.74819">
        <ele>735.07</ele>
        <time>2019-02-06T14:09:56Z</time>
      </trkpt>
      <trkpt lat="46.07217" lon="6.74815">
        <ele>734.58</ele>
        <time>2019-02-06T14:09:57Z</time>
      </trkpt>
      <trkpt lat="46.07217" lon="6.7481">
        <ele>734.58</ele>
        <time>2019-02-06T14:09:58Z</time>
      </trkpt>
      <trkpt lat="46.07218" lon="6.74806">
        <ele>733.62</ele>
        <time>2019-02-06T14:09:59Z</time>
      </trkpt>
      <trkpt lat="46.07218" lon="6.748">
        <ele>733.14</ele>
        <time>2019-02-06T14:10:00Z</time>
      </trkpt>
      <trkpt lat="46.07217" lon="6.74795">
        <ele>732.66</ele>
        <time>2019-02-06T14:10:01Z</time>
      </trkpt>
      <trkpt lat="46.07214" lon="6.74791">
        <ele>731.7</ele>
        <time>2019-02-06T14:10:02Z</time>
      </trkpt>
      <trkpt lat="46.07211" lon="6.74789">
        <ele>730.74</ele>
        <time>2019-02-06T14:10:03Z</time>
      </trkpt>
      <trkpt lat="46.07207" lon="6.74787">
        <ele>729.78</ele>
        <time>2019-02-06T14:10:04Z</time>
      </trkpt>
      <trkpt lat="46.07202" lon="6.74787">
        <ele>728.82</ele>
        <time>2019-02-06T14:10:05Z</time>
      </trkpt>
      <trkpt lat="46.07199" lon="6.74788">
        <ele>727.37</ele>
        <time>2019-02-06T14:10:06Z</time>
      </trkpt>
      <trkpt lat="46.07198" lon="6.74788">
        <ele>726.41</ele>
        <time>2019-02-06T14:10:08Z</time>
      </trkpt>
      <trkpt lat="46.07197" lon="6.74795">
        <ele>725.93</ele>
        <time>2019-02-06T14:10:34Z</time>
      </trkpt>
      <trkpt lat="46.07197" lon="6.74794">
        <ele>726.41</ele>
        <time>2019-02-06T14:12:20Z</time>
      </trkpt>
      <trkpt lat="46.07197" lon="6.74795">
        <ele>726.41</ele>
        <time>2019-02-06T14:12:22Z</time>
      </trkpt>
    </trkseg>
  </trk>
</gpx>